<?xml version="1.0" encoding="UTF-8" standalone="no" ?>
<gpx xmlns="http://www.topografix.com/GPX/1/1" xmlns:xsi="http://www.w3.org/2001/XMLSchema-instance" xsi:schemaLocation="http://www.topografix.com/GPX/1/1 http://www.topografix.com/GPX/1/1/gpx.xsd" version="1.1" creator="VisuGPX - https://www.visugpx.com">
  <metadata>
    <name>rando campugnan 8 km</name>
  </metadata>
  <trk>
    <name><![CDATA[rando campugnan 8 km_1]]></name>
    <trkseg>
      <trkpt lat="45.17752" lon="-0.56606">
        <ele>35.6</ele>
        <time>2020-09-01T06:56:26Z</time>
      </trkpt>
      <trkpt lat="45.1775" lon="-0.56604">
        <ele>35.6</ele>
        <time>2020-09-01T06:56:28Z</time>
      </trkpt>
      <trkpt lat="45.17747" lon="-0.56601">
        <ele>35.5</ele>
        <time>2020-09-01T06:56:30Z</time>
      </trkpt>
      <trkpt lat="45.17747" lon="-0.566">
        <ele>35.5</ele>
        <time>2020-09-01T06:56:31Z</time>
      </trkpt>
      <trkpt lat="45.17746" lon="-0.566">
        <ele>35.5</ele>
        <time>2020-09-01T06:56:32Z</time>
      </trkpt>
      <trkpt lat="45.17746" lon="-0.566">
        <ele>35.5</ele>
        <time>2020-09-01T06:56:34Z</time>
      </trkpt>
      <trkpt lat="45.17745" lon="-0.566">
        <ele>35.5</ele>
        <time>2020-09-01T06:56:36Z</time>
      </trkpt>
      <trkpt lat="45.17745" lon="-0.566">
        <ele>35.5</ele>
        <time>2020-09-01T06:56:37Z</time>
      </trkpt>
      <trkpt lat="45.17745" lon="-0.566">
        <ele>35.5</ele>
        <time>2020-09-01T06:56:38Z</time>
      </trkpt>
      <trkpt lat="45.17745" lon="-0.56601">
        <ele>35.5</ele>
        <time>2020-09-01T06:56:40Z</time>
      </trkpt>
      <trkpt lat="45.17745" lon="-0.56601">
        <ele>35.5</ele>
        <time>2020-09-01T06:56:42Z</time>
      </trkpt>
      <trkpt lat="45.17746" lon="-0.56601">
        <ele>35.5</ele>
        <time>2020-09-01T06:56:43Z</time>
      </trkpt>
      <trkpt lat="45.17746" lon="-0.56602">
        <ele>35.5</ele>
        <time>2020-09-01T06:56:44Z</time>
      </trkpt>
      <trkpt lat="45.17746" lon="-0.56602">
        <ele>35.5</ele>
        <time>2020-09-01T06:56:46Z</time>
      </trkpt>
      <trkpt lat="45.17746" lon="-0.56602">
        <ele>35.5</ele>
        <time>2020-09-01T06:56:47Z</time>
      </trkpt>
      <trkpt lat="45.17745" lon="-0.56602">
        <ele>35.5</ele>
        <time>2020-09-01T06:56:48Z</time>
      </trkpt>
      <trkpt lat="45.17745" lon="-0.56603">
        <ele>35.5</ele>
        <time>2020-09-01T06:56:50Z</time>
      </trkpt>
      <trkpt lat="45.17745" lon="-0.56604">
        <ele>35.5</ele>
        <time>2020-09-01T06:56:52Z</time>
      </trkpt>
      <trkpt lat="45.17745" lon="-0.56604">
        <ele>35.5</ele>
        <time>2020-09-01T06:56:53Z</time>
      </trkpt>
      <trkpt lat="45.17745" lon="-0.56604">
        <ele>35.5</ele>
        <time>2020-09-01T06:56:54Z</time>
      </trkpt>
      <trkpt lat="45.17745" lon="-0.56604">
        <ele>35.5</ele>
        <time>2020-09-01T06:56:55Z</time>
      </trkpt>
      <trkpt lat="45.17746" lon="-0.56605">
        <ele>35.5</ele>
        <time>2020-09-01T06:56:57Z</time>
      </trkpt>
      <trkpt lat="45.17746" lon="-0.56605">
        <ele>35.5</ele>
        <time>2020-09-01T06:56:58Z</time>
      </trkpt>
      <trkpt lat="45.17746" lon="-0.56605">
        <ele>35.5</ele>
        <time>2020-09-01T06:56:59Z</time>
      </trkpt>
      <trkpt lat="45.17746" lon="-0.56605">
        <ele>35.5</ele>
        <time>2020-09-01T06:57:01Z</time>
      </trkpt>
      <trkpt lat="45.17746" lon="-0.56605">
        <ele>35.5</ele>
        <time>2020-09-01T06:57:02Z</time>
      </trkpt>
      <trkpt lat="45.17746" lon="-0.56606">
        <ele>35.5</ele>
        <time>2020-09-01T06:57:03Z</time>
      </trkpt>
      <trkpt lat="45.17746" lon="-0.56606">
        <ele>35.5</ele>
        <time>2020-09-01T06:57:05Z</time>
      </trkpt>
      <trkpt lat="45.17746" lon="-0.56607">
        <ele>35.5</ele>
        <time>2020-09-01T06:57:07Z</time>
      </trkpt>
      <trkpt lat="45.17746" lon="-0.5661">
        <ele>35.5</ele>
        <time>2020-09-01T06:57:09Z</time>
      </trkpt>
      <trkpt lat="45.17745" lon="-0.56611">
        <ele>35.5</ele>
        <time>2020-09-01T06:57:10Z</time>
      </trkpt>
      <trkpt lat="45.17744" lon="-0.56615">
        <ele>35.4</ele>
        <time>2020-09-01T06:57:11Z</time>
      </trkpt>
      <trkpt lat="45.17743" lon="-0.56616">
        <ele>35.4</ele>
        <time>2020-09-01T06:57:12Z</time>
      </trkpt>
      <trkpt lat="45.17741" lon="-0.56619">
        <ele>35.4</ele>
        <time>2020-09-01T06:57:14Z</time>
      </trkpt>
      <trkpt lat="45.17739" lon="-0.5662">
        <ele>35.4</ele>
        <time>2020-09-01T06:57:16Z</time>
      </trkpt>
      <trkpt lat="45.17738" lon="-0.56621">
        <ele>35.4</ele>
        <time>2020-09-01T06:57:17Z</time>
      </trkpt>
      <trkpt lat="45.17736" lon="-0.56622">
        <ele>35.4</ele>
        <time>2020-09-01T06:57:18Z</time>
      </trkpt>
      <trkpt lat="45.17736" lon="-0.56623">
        <ele>35.4</ele>
        <time>2020-09-01T06:57:20Z</time>
      </trkpt>
      <trkpt lat="45.17736" lon="-0.56623">
        <ele>35.4</ele>
        <time>2020-09-01T06:57:21Z</time>
      </trkpt>
      <trkpt lat="45.17735" lon="-0.56625">
        <ele>35.4</ele>
        <time>2020-09-01T06:57:23Z</time>
      </trkpt>
      <trkpt lat="45.17735" lon="-0.56626">
        <ele>35.4</ele>
        <time>2020-09-01T06:57:24Z</time>
      </trkpt>
      <trkpt lat="45.17734" lon="-0.56629">
        <ele>35.4</ele>
        <time>2020-09-01T06:57:25Z</time>
      </trkpt>
      <trkpt lat="45.17733" lon="-0.56631">
        <ele>35.3</ele>
        <time>2020-09-01T06:57:26Z</time>
      </trkpt>
      <trkpt lat="45.17732" lon="-0.56634">
        <ele>35.3</ele>
        <time>2020-09-01T06:57:28Z</time>
      </trkpt>
      <trkpt lat="45.17732" lon="-0.56637">
        <ele>35.3</ele>
        <time>2020-09-01T06:57:29Z</time>
      </trkpt>
      <trkpt lat="45.17731" lon="-0.56638">
        <ele>35.3</ele>
        <time>2020-09-01T06:57:30Z</time>
      </trkpt>
      <trkpt lat="45.17731" lon="-0.56639">
        <ele>35.3</ele>
        <time>2020-09-01T06:57:31Z</time>
      </trkpt>
      <trkpt lat="45.1773" lon="-0.56644">
        <ele>35.3</ele>
        <time>2020-09-01T06:57:33Z</time>
      </trkpt>
      <trkpt lat="45.1773" lon="-0.56644">
        <ele>35.3</ele>
        <time>2020-09-01T06:57:34Z</time>
      </trkpt>
      <trkpt lat="45.1773" lon="-0.56646">
        <ele>35.3</ele>
        <time>2020-09-01T06:57:35Z</time>
      </trkpt>
      <trkpt lat="45.17729" lon="-0.56648">
        <ele>35.3</ele>
        <time>2020-09-01T06:57:36Z</time>
      </trkpt>
      <trkpt lat="45.17728" lon="-0.56651">
        <ele>35.3</ele>
        <time>2020-09-01T06:57:38Z</time>
      </trkpt>
      <trkpt lat="45.17728" lon="-0.56654">
        <ele>35.2</ele>
        <time>2020-09-01T06:57:39Z</time>
      </trkpt>
      <trkpt lat="45.17727" lon="-0.56655">
        <ele>35.2</ele>
        <time>2020-09-01T06:57:40Z</time>
      </trkpt>
      <trkpt lat="45.17727" lon="-0.56656">
        <ele>35.2</ele>
        <time>2020-09-01T06:57:41Z</time>
      </trkpt>
      <trkpt lat="45.17726" lon="-0.5666">
        <ele>35.2</ele>
        <time>2020-09-01T06:57:42Z</time>
      </trkpt>
      <trkpt lat="45.17726" lon="-0.56662">
        <ele>35.2</ele>
        <time>2020-09-01T06:57:44Z</time>
      </trkpt>
      <trkpt lat="45.17726" lon="-0.56664">
        <ele>35.2</ele>
        <time>2020-09-01T06:57:45Z</time>
      </trkpt>
      <trkpt lat="45.17725" lon="-0.56665">
        <ele>35.2</ele>
        <time>2020-09-01T06:57:46Z</time>
      </trkpt>
      <trkpt lat="45.17725" lon="-0.56667">
        <ele>35.2</ele>
        <time>2020-09-01T06:57:47Z</time>
      </trkpt>
      <trkpt lat="45.17725" lon="-0.5667">
        <ele>35.2</ele>
        <time>2020-09-01T06:57:49Z</time>
      </trkpt>
      <trkpt lat="45.17725" lon="-0.56671">
        <ele>35.2</ele>
        <time>2020-09-01T06:57:50Z</time>
      </trkpt>
      <trkpt lat="45.17725" lon="-0.56673">
        <ele>35.2</ele>
        <time>2020-09-01T06:57:51Z</time>
      </trkpt>
      <trkpt lat="45.17725" lon="-0.56677">
        <ele>35.1</ele>
        <time>2020-09-01T06:57:53Z</time>
      </trkpt>
      <trkpt lat="45.17724" lon="-0.56678">
        <ele>35.1</ele>
        <time>2020-09-01T06:57:54Z</time>
      </trkpt>
      <trkpt lat="45.17724" lon="-0.5668">
        <ele>35.1</ele>
        <time>2020-09-01T06:57:55Z</time>
      </trkpt>
      <trkpt lat="45.17724" lon="-0.56681">
        <ele>35.1</ele>
        <time>2020-09-01T06:57:56Z</time>
      </trkpt>
      <trkpt lat="45.17724" lon="-0.56685">
        <ele>35.1</ele>
        <time>2020-09-01T06:57:57Z</time>
      </trkpt>
      <trkpt lat="45.17723" lon="-0.56686">
        <ele>35.1</ele>
        <time>2020-09-01T06:57:59Z</time>
      </trkpt>
      <trkpt lat="45.17723" lon="-0.56688">
        <ele>35.1</ele>
        <time>2020-09-01T06:58:00Z</time>
      </trkpt>
      <trkpt lat="45.17723" lon="-0.5669">
        <ele>35.1</ele>
        <time>2020-09-01T06:58:02Z</time>
      </trkpt>
      <trkpt lat="45.17723" lon="-0.56692">
        <ele>35.1</ele>
        <time>2020-09-01T06:58:03Z</time>
      </trkpt>
      <trkpt lat="45.17723" lon="-0.56694">
        <ele>35.1</ele>
        <time>2020-09-01T06:58:05Z</time>
      </trkpt>
      <trkpt lat="45.17723" lon="-0.56695">
        <ele>35.1</ele>
        <time>2020-09-01T06:58:06Z</time>
      </trkpt>
      <trkpt lat="45.17723" lon="-0.56698">
        <ele>35</ele>
        <time>2020-09-01T06:58:08Z</time>
      </trkpt>
      <trkpt lat="45.17723" lon="-0.56699">
        <ele>35</ele>
        <time>2020-09-01T06:58:10Z</time>
      </trkpt>
      <trkpt lat="45.17723" lon="-0.567">
        <ele>35</ele>
        <time>2020-09-01T06:58:11Z</time>
      </trkpt>
      <trkpt lat="45.17723" lon="-0.56701">
        <ele>35</ele>
        <time>2020-09-01T06:58:12Z</time>
      </trkpt>
      <trkpt lat="45.17723" lon="-0.56701">
        <ele>35</ele>
        <time>2020-09-01T06:58:14Z</time>
      </trkpt>
      <trkpt lat="45.17723" lon="-0.56702">
        <ele>35</ele>
        <time>2020-09-01T06:58:16Z</time>
      </trkpt>
      <trkpt lat="45.17723" lon="-0.56703">
        <ele>35</ele>
        <time>2020-09-01T06:58:18Z</time>
      </trkpt>
      <trkpt lat="45.17723" lon="-0.56703">
        <ele>35</ele>
        <time>2020-09-01T06:58:20Z</time>
      </trkpt>
      <trkpt lat="45.17723" lon="-0.56704">
        <ele>34.9</ele>
        <time>2020-09-01T06:58:21Z</time>
      </trkpt>
      <trkpt lat="45.17723" lon="-0.56705">
        <ele>34.9</ele>
        <time>2020-09-01T06:58:23Z</time>
      </trkpt>
      <trkpt lat="45.17723" lon="-0.56705">
        <ele>34.9</ele>
        <time>2020-09-01T06:58:24Z</time>
      </trkpt>
      <trkpt lat="45.17723" lon="-0.56706">
        <ele>34.9</ele>
        <time>2020-09-01T06:58:26Z</time>
      </trkpt>
      <trkpt lat="45.17723" lon="-0.56707">
        <ele>34.8</ele>
        <time>2020-09-01T06:58:28Z</time>
      </trkpt>
      <trkpt lat="45.17723" lon="-0.56707">
        <ele>34.8</ele>
        <time>2020-09-01T06:58:29Z</time>
      </trkpt>
      <trkpt lat="45.17723" lon="-0.56708">
        <ele>34.8</ele>
        <time>2020-09-01T06:58:30Z</time>
      </trkpt>
      <trkpt lat="45.17723" lon="-0.56709">
        <ele>34.8</ele>
        <time>2020-09-01T06:58:31Z</time>
      </trkpt>
      <trkpt lat="45.17722" lon="-0.56711">
        <ele>34.8</ele>
        <time>2020-09-01T06:58:33Z</time>
      </trkpt>
      <trkpt lat="45.17722" lon="-0.56712">
        <ele>34.8</ele>
        <time>2020-09-01T06:58:34Z</time>
      </trkpt>
      <trkpt lat="45.17721" lon="-0.56713">
        <ele>34.7</ele>
        <time>2020-09-01T06:58:35Z</time>
      </trkpt>
      <trkpt lat="45.1772" lon="-0.56714">
        <ele>34.7</ele>
        <time>2020-09-01T06:58:36Z</time>
      </trkpt>
      <trkpt lat="45.1772" lon="-0.56715">
        <ele>34.7</ele>
        <time>2020-09-01T06:58:38Z</time>
      </trkpt>
      <trkpt lat="45.17719" lon="-0.56715">
        <ele>34.7</ele>
        <time>2020-09-01T06:58:40Z</time>
      </trkpt>
      <trkpt lat="45.17719" lon="-0.56714">
        <ele>34.7</ele>
        <time>2020-09-01T06:58:41Z</time>
      </trkpt>
      <trkpt lat="45.17719" lon="-0.56714">
        <ele>34.7</ele>
        <time>2020-09-01T06:58:42Z</time>
      </trkpt>
      <trkpt lat="45.17718" lon="-0.56715">
        <ele>34.7</ele>
        <time>2020-09-01T06:58:43Z</time>
      </trkpt>
      <trkpt lat="45.17717" lon="-0.56716">
        <ele>34.6</ele>
        <time>2020-09-01T06:58:44Z</time>
      </trkpt>
      <trkpt lat="45.17716" lon="-0.56718">
        <ele>34.6</ele>
        <time>2020-09-01T06:58:46Z</time>
      </trkpt>
      <trkpt lat="45.17715" lon="-0.56718">
        <ele>34.6</ele>
        <time>2020-09-01T06:58:47Z</time>
      </trkpt>
      <trkpt lat="45.17713" lon="-0.56719">
        <ele>34.5</ele>
        <time>2020-09-01T06:58:48Z</time>
      </trkpt>
      <trkpt lat="45.17711" lon="-0.56719">
        <ele>34.5</ele>
        <time>2020-09-01T06:58:50Z</time>
      </trkpt>
      <trkpt lat="45.1771" lon="-0.56719">
        <ele>34.5</ele>
        <time>2020-09-01T06:58:51Z</time>
      </trkpt>
      <trkpt lat="45.17707" lon="-0.56719">
        <ele>34.4</ele>
        <time>2020-09-01T06:58:52Z</time>
      </trkpt>
      <trkpt lat="45.17705" lon="-0.56719">
        <ele>34.4</ele>
        <time>2020-09-01T06:58:53Z</time>
      </trkpt>
      <trkpt lat="45.17704" lon="-0.56719">
        <ele>34.3</ele>
        <time>2020-09-01T06:58:55Z</time>
      </trkpt>
      <trkpt lat="45.17702" lon="-0.56719">
        <ele>34.3</ele>
        <time>2020-09-01T06:58:56Z</time>
      </trkpt>
      <trkpt lat="45.17699" lon="-0.56718">
        <ele>34.3</ele>
        <time>2020-09-01T06:58:57Z</time>
      </trkpt>
      <trkpt lat="45.17698" lon="-0.56718">
        <ele>34.2</ele>
        <time>2020-09-01T06:58:58Z</time>
      </trkpt>
      <trkpt lat="45.17697" lon="-0.56718">
        <ele>34.2</ele>
        <time>2020-09-01T06:59:00Z</time>
      </trkpt>
      <trkpt lat="45.17695" lon="-0.56719">
        <ele>34.2</ele>
        <time>2020-09-01T06:59:01Z</time>
      </trkpt>
      <trkpt lat="45.17692" lon="-0.56719">
        <ele>34.1</ele>
        <time>2020-09-01T06:59:03Z</time>
      </trkpt>
      <trkpt lat="45.17691" lon="-0.56719">
        <ele>34.1</ele>
        <time>2020-09-01T06:59:04Z</time>
      </trkpt>
      <trkpt lat="45.1769" lon="-0.56719">
        <ele>34.1</ele>
        <time>2020-09-01T06:59:05Z</time>
      </trkpt>
      <trkpt lat="45.17688" lon="-0.5672">
        <ele>34</ele>
        <time>2020-09-01T06:59:06Z</time>
      </trkpt>
      <trkpt lat="45.17685" lon="-0.5672">
        <ele>34</ele>
        <time>2020-09-01T06:59:08Z</time>
      </trkpt>
      <trkpt lat="45.17684" lon="-0.56719">
        <ele>34</ele>
        <time>2020-09-01T06:59:09Z</time>
      </trkpt>
      <trkpt lat="45.17683" lon="-0.56719">
        <ele>33.9</ele>
        <time>2020-09-01T06:59:10Z</time>
      </trkpt>
      <trkpt lat="45.17681" lon="-0.56719">
        <ele>33.9</ele>
        <time>2020-09-01T06:59:11Z</time>
      </trkpt>
      <trkpt lat="45.17678" lon="-0.56719">
        <ele>33.8</ele>
        <time>2020-09-01T06:59:13Z</time>
      </trkpt>
      <trkpt lat="45.17677" lon="-0.56719">
        <ele>33.8</ele>
        <time>2020-09-01T06:59:15Z</time>
      </trkpt>
      <trkpt lat="45.17676" lon="-0.56719">
        <ele>33.8</ele>
        <time>2020-09-01T06:59:16Z</time>
      </trkpt>
      <trkpt lat="45.17674" lon="-0.56719">
        <ele>33.7</ele>
        <time>2020-09-01T06:59:17Z</time>
      </trkpt>
      <trkpt lat="45.17671" lon="-0.56718">
        <ele>33.7</ele>
        <time>2020-09-01T06:59:19Z</time>
      </trkpt>
      <trkpt lat="45.17668" lon="-0.56718">
        <ele>33.6</ele>
        <time>2020-09-01T06:59:20Z</time>
      </trkpt>
      <trkpt lat="45.17667" lon="-0.56719">
        <ele>33.6</ele>
        <time>2020-09-01T06:59:22Z</time>
      </trkpt>
      <trkpt lat="45.17665" lon="-0.56719">
        <ele>33.6</ele>
        <time>2020-09-01T06:59:23Z</time>
      </trkpt>
      <trkpt lat="45.17664" lon="-0.56719">
        <ele>33.5</ele>
        <time>2020-09-01T06:59:24Z</time>
      </trkpt>
      <trkpt lat="45.17661" lon="-0.56719">
        <ele>33.5</ele>
        <time>2020-09-01T06:59:26Z</time>
      </trkpt>
      <trkpt lat="45.1766" lon="-0.5672">
        <ele>33.5</ele>
        <time>2020-09-01T06:59:27Z</time>
      </trkpt>
      <trkpt lat="45.17656" lon="-0.5672">
        <ele>33.4</ele>
        <time>2020-09-01T06:59:29Z</time>
      </trkpt>
      <trkpt lat="45.17655" lon="-0.56721">
        <ele>33.4</ele>
        <time>2020-09-01T06:59:30Z</time>
      </trkpt>
      <trkpt lat="45.17654" lon="-0.56721">
        <ele>33.3</ele>
        <time>2020-09-01T06:59:32Z</time>
      </trkpt>
      <trkpt lat="45.17654" lon="-0.56721">
        <ele>33.3</ele>
        <time>2020-09-01T06:59:33Z</time>
      </trkpt>
      <trkpt lat="45.17653" lon="-0.56721">
        <ele>33.3</ele>
        <time>2020-09-01T06:59:34Z</time>
      </trkpt>
      <trkpt lat="45.17651" lon="-0.56721">
        <ele>33.3</ele>
        <time>2020-09-01T06:59:35Z</time>
      </trkpt>
      <trkpt lat="45.1765" lon="-0.56721">
        <ele>33.2</ele>
        <time>2020-09-01T06:59:36Z</time>
      </trkpt>
      <trkpt lat="45.17647" lon="-0.56721">
        <ele>33.2</ele>
        <time>2020-09-01T06:59:38Z</time>
      </trkpt>
      <trkpt lat="45.17646" lon="-0.56721">
        <ele>33.2</ele>
        <time>2020-09-01T06:59:39Z</time>
      </trkpt>
      <trkpt lat="45.17645" lon="-0.56721">
        <ele>33.1</ele>
        <time>2020-09-01T06:59:41Z</time>
      </trkpt>
      <trkpt lat="45.17644" lon="-0.56721">
        <ele>33.1</ele>
        <time>2020-09-01T06:59:42Z</time>
      </trkpt>
      <trkpt lat="45.17641" lon="-0.56722">
        <ele>33.1</ele>
        <time>2020-09-01T06:59:43Z</time>
      </trkpt>
      <trkpt lat="45.1764" lon="-0.56722">
        <ele>33</ele>
        <time>2020-09-01T06:59:45Z</time>
      </trkpt>
      <trkpt lat="45.17638" lon="-0.56722">
        <ele>33</ele>
        <time>2020-09-01T06:59:46Z</time>
      </trkpt>
      <trkpt lat="45.17637" lon="-0.56722">
        <ele>33</ele>
        <time>2020-09-01T06:59:47Z</time>
      </trkpt>
      <trkpt lat="45.17636" lon="-0.56722">
        <ele>33</ele>
        <time>2020-09-01T06:59:48Z</time>
      </trkpt>
      <trkpt lat="45.17635" lon="-0.56723">
        <ele>33</ele>
        <time>2020-09-01T06:59:49Z</time>
      </trkpt>
      <trkpt lat="45.17634" lon="-0.56723">
        <ele>32.9</ele>
        <time>2020-09-01T06:59:50Z</time>
      </trkpt>
      <trkpt lat="45.17633" lon="-0.56723">
        <ele>32.9</ele>
        <time>2020-09-01T06:59:51Z</time>
      </trkpt>
      <trkpt lat="45.17631" lon="-0.56724">
        <ele>32.9</ele>
        <time>2020-09-01T06:59:53Z</time>
      </trkpt>
      <trkpt lat="45.1763" lon="-0.56724">
        <ele>32.8</ele>
        <time>2020-09-01T06:59:54Z</time>
      </trkpt>
      <trkpt lat="45.17627" lon="-0.56724">
        <ele>32.8</ele>
        <time>2020-09-01T06:59:55Z</time>
      </trkpt>
      <trkpt lat="45.17626" lon="-0.56724">
        <ele>32.8</ele>
        <time>2020-09-01T06:59:57Z</time>
      </trkpt>
      <trkpt lat="45.17625" lon="-0.56724">
        <ele>32.7</ele>
        <time>2020-09-01T06:59:58Z</time>
      </trkpt>
      <trkpt lat="45.17623" lon="-0.56725">
        <ele>32.7</ele>
        <time>2020-09-01T06:59:59Z</time>
      </trkpt>
      <trkpt lat="45.1762" lon="-0.56724">
        <ele>32.6</ele>
        <time>2020-09-01T07:00:01Z</time>
      </trkpt>
      <trkpt lat="45.1762" lon="-0.56724">
        <ele>32.6</ele>
        <time>2020-09-01T07:00:02Z</time>
      </trkpt>
      <trkpt lat="45.17618" lon="-0.56725">
        <ele>32.6</ele>
        <time>2020-09-01T07:00:03Z</time>
      </trkpt>
      <trkpt lat="45.17616" lon="-0.56725">
        <ele>32.6</ele>
        <time>2020-09-01T07:00:05Z</time>
      </trkpt>
      <trkpt lat="45.17616" lon="-0.56725">
        <ele>32.5</ele>
        <time>2020-09-01T07:00:06Z</time>
      </trkpt>
      <trkpt lat="45.17615" lon="-0.56725">
        <ele>32.5</ele>
        <time>2020-09-01T07:00:07Z</time>
      </trkpt>
      <trkpt lat="45.17613" lon="-0.56726">
        <ele>32.5</ele>
        <time>2020-09-01T07:00:09Z</time>
      </trkpt>
      <trkpt lat="45.17612" lon="-0.56726">
        <ele>32.5</ele>
        <time>2020-09-01T07:00:10Z</time>
      </trkpt>
      <trkpt lat="45.17611" lon="-0.56726">
        <ele>32.5</ele>
        <time>2020-09-01T07:00:11Z</time>
      </trkpt>
      <trkpt lat="45.17609" lon="-0.56726">
        <ele>32.4</ele>
        <time>2020-09-01T07:00:13Z</time>
      </trkpt>
      <trkpt lat="45.17608" lon="-0.56726">
        <ele>32.4</ele>
        <time>2020-09-01T07:00:14Z</time>
      </trkpt>
      <trkpt lat="45.17606" lon="-0.56727">
        <ele>32.4</ele>
        <time>2020-09-01T07:00:15Z</time>
      </trkpt>
      <trkpt lat="45.17605" lon="-0.56727">
        <ele>32.3</ele>
        <time>2020-09-01T07:00:16Z</time>
      </trkpt>
      <trkpt lat="45.17602" lon="-0.56728">
        <ele>32.3</ele>
        <time>2020-09-01T07:00:18Z</time>
      </trkpt>
      <trkpt lat="45.176" lon="-0.56728">
        <ele>32.2</ele>
        <time>2020-09-01T07:00:20Z</time>
      </trkpt>
      <trkpt lat="45.17598" lon="-0.56728">
        <ele>32.2</ele>
        <time>2020-09-01T07:00:22Z</time>
      </trkpt>
      <trkpt lat="45.17597" lon="-0.56728">
        <ele>32.2</ele>
        <time>2020-09-01T07:00:23Z</time>
      </trkpt>
      <trkpt lat="45.17595" lon="-0.56728">
        <ele>32.1</ele>
        <time>2020-09-01T07:00:25Z</time>
      </trkpt>
      <trkpt lat="45.17593" lon="-0.56728">
        <ele>32.1</ele>
        <time>2020-09-01T07:00:26Z</time>
      </trkpt>
      <trkpt lat="45.17592" lon="-0.56728">
        <ele>32.1</ele>
        <time>2020-09-01T07:00:27Z</time>
      </trkpt>
      <trkpt lat="45.1759" lon="-0.56728">
        <ele>32</ele>
        <time>2020-09-01T07:00:29Z</time>
      </trkpt>
      <trkpt lat="45.17589" lon="-0.56728">
        <ele>32</ele>
        <time>2020-09-01T07:00:30Z</time>
      </trkpt>
      <trkpt lat="45.17587" lon="-0.56728">
        <ele>32</ele>
        <time>2020-09-01T07:00:31Z</time>
      </trkpt>
      <trkpt lat="45.17585" lon="-0.56728">
        <ele>31.9</ele>
        <time>2020-09-01T07:00:33Z</time>
      </trkpt>
      <trkpt lat="45.17583" lon="-0.56727">
        <ele>31.9</ele>
        <time>2020-09-01T07:00:35Z</time>
      </trkpt>
      <trkpt lat="45.17582" lon="-0.56727">
        <ele>31.9</ele>
        <time>2020-09-01T07:00:36Z</time>
      </trkpt>
      <trkpt lat="45.17581" lon="-0.56727">
        <ele>31.8</ele>
        <time>2020-09-01T07:00:37Z</time>
      </trkpt>
      <trkpt lat="45.17578" lon="-0.56727">
        <ele>31.8</ele>
        <time>2020-09-01T07:00:39Z</time>
      </trkpt>
      <trkpt lat="45.17577" lon="-0.56726">
        <ele>31.8</ele>
        <time>2020-09-01T07:00:40Z</time>
      </trkpt>
      <trkpt lat="45.17576" lon="-0.56726">
        <ele>31.7</ele>
        <time>2020-09-01T07:00:41Z</time>
      </trkpt>
      <trkpt lat="45.17574" lon="-0.56726">
        <ele>31.7</ele>
        <time>2020-09-01T07:00:43Z</time>
      </trkpt>
      <trkpt lat="45.17573" lon="-0.56726">
        <ele>31.7</ele>
        <time>2020-09-01T07:00:44Z</time>
      </trkpt>
      <trkpt lat="45.17572" lon="-0.56726">
        <ele>31.7</ele>
        <time>2020-09-01T07:00:45Z</time>
      </trkpt>
      <trkpt lat="45.17571" lon="-0.56726">
        <ele>31.6</ele>
        <time>2020-09-01T07:00:46Z</time>
      </trkpt>
      <trkpt lat="45.17567" lon="-0.56727">
        <ele>31.6</ele>
        <time>2020-09-01T07:00:47Z</time>
      </trkpt>
      <trkpt lat="45.17566" lon="-0.56727">
        <ele>31.5</ele>
        <time>2020-09-01T07:00:49Z</time>
      </trkpt>
      <trkpt lat="45.17564" lon="-0.56727">
        <ele>31.5</ele>
        <time>2020-09-01T07:00:51Z</time>
      </trkpt>
      <trkpt lat="45.17563" lon="-0.56728">
        <ele>31.5</ele>
        <time>2020-09-01T07:00:52Z</time>
      </trkpt>
      <trkpt lat="45.17561" lon="-0.56728">
        <ele>31.4</ele>
        <time>2020-09-01T07:00:53Z</time>
      </trkpt>
      <trkpt lat="45.17559" lon="-0.56728">
        <ele>31.4</ele>
        <time>2020-09-01T07:00:55Z</time>
      </trkpt>
      <trkpt lat="45.17558" lon="-0.56728">
        <ele>31.4</ele>
        <time>2020-09-01T07:00:56Z</time>
      </trkpt>
      <trkpt lat="45.17556" lon="-0.56728">
        <ele>31.3</ele>
        <time>2020-09-01T07:00:57Z</time>
      </trkpt>
      <trkpt lat="45.17554" lon="-0.56728">
        <ele>31.3</ele>
        <time>2020-09-01T07:00:58Z</time>
      </trkpt>
      <trkpt lat="45.17554" lon="-0.56729">
        <ele>31.3</ele>
        <time>2020-09-01T07:01:00Z</time>
      </trkpt>
      <trkpt lat="45.17553" lon="-0.56729">
        <ele>31.3</ele>
        <time>2020-09-01T07:01:01Z</time>
      </trkpt>
      <trkpt lat="45.17551" lon="-0.56729">
        <ele>31.2</ele>
        <time>2020-09-01T07:01:02Z</time>
      </trkpt>
      <trkpt lat="45.17549" lon="-0.56729">
        <ele>31.2</ele>
        <time>2020-09-01T07:01:04Z</time>
      </trkpt>
      <trkpt lat="45.17548" lon="-0.56729">
        <ele>31.2</ele>
        <time>2020-09-01T07:01:05Z</time>
      </trkpt>
      <trkpt lat="45.17547" lon="-0.56729">
        <ele>31.1</ele>
        <time>2020-09-01T07:01:06Z</time>
      </trkpt>
      <trkpt lat="45.17545" lon="-0.56729">
        <ele>31.1</ele>
        <time>2020-09-01T07:01:07Z</time>
      </trkpt>
      <trkpt lat="45.17543" lon="-0.56729">
        <ele>31.1</ele>
        <time>2020-09-01T07:01:09Z</time>
      </trkpt>
      <trkpt lat="45.17542" lon="-0.56729">
        <ele>31</ele>
        <time>2020-09-01T07:01:10Z</time>
      </trkpt>
      <trkpt lat="45.1754" lon="-0.5673">
        <ele>31</ele>
        <time>2020-09-01T07:01:11Z</time>
      </trkpt>
      <trkpt lat="45.17537" lon="-0.5673">
        <ele>30.9</ele>
        <time>2020-09-01T07:01:13Z</time>
      </trkpt>
      <trkpt lat="45.17535" lon="-0.5673">
        <ele>30.9</ele>
        <time>2020-09-01T07:01:15Z</time>
      </trkpt>
      <trkpt lat="45.17536" lon="-0.56731">
        <ele>30.9</ele>
        <time>2020-09-01T07:01:17Z</time>
      </trkpt>
      <trkpt lat="45.17536" lon="-0.56731">
        <ele>30.9</ele>
        <time>2020-09-01T07:01:19Z</time>
      </trkpt>
      <trkpt lat="45.17536" lon="-0.56731">
        <ele>30.9</ele>
        <time>2020-09-01T07:01:20Z</time>
      </trkpt>
      <trkpt lat="45.17536" lon="-0.5673">
        <ele>30.9</ele>
        <time>2020-09-01T07:01:22Z</time>
      </trkpt>
      <trkpt lat="45.17536" lon="-0.5673">
        <ele>30.9</ele>
        <time>2020-09-01T07:01:23Z</time>
      </trkpt>
      <trkpt lat="45.17536" lon="-0.5673">
        <ele>30.9</ele>
        <time>2020-09-01T07:01:25Z</time>
      </trkpt>
      <trkpt lat="45.17536" lon="-0.5673">
        <ele>30.9</ele>
        <time>2020-09-01T07:01:26Z</time>
      </trkpt>
      <trkpt lat="45.17534" lon="-0.5673">
        <ele>30.8</ele>
        <time>2020-09-01T07:01:27Z</time>
      </trkpt>
      <trkpt lat="45.17532" lon="-0.5673">
        <ele>30.8</ele>
        <time>2020-09-01T07:01:28Z</time>
      </trkpt>
      <trkpt lat="45.1753" lon="-0.5673">
        <ele>30.8</ele>
        <time>2020-09-01T07:01:30Z</time>
      </trkpt>
      <trkpt lat="45.17529" lon="-0.5673">
        <ele>30.7</ele>
        <time>2020-09-01T07:01:31Z</time>
      </trkpt>
      <trkpt lat="45.17527" lon="-0.56731">
        <ele>30.7</ele>
        <time>2020-09-01T07:01:32Z</time>
      </trkpt>
      <trkpt lat="45.17525" lon="-0.56731">
        <ele>30.7</ele>
        <time>2020-09-01T07:01:34Z</time>
      </trkpt>
      <trkpt lat="45.17524" lon="-0.56731">
        <ele>30.6</ele>
        <time>2020-09-01T07:01:35Z</time>
      </trkpt>
      <trkpt lat="45.17522" lon="-0.56732">
        <ele>30.6</ele>
        <time>2020-09-01T07:01:36Z</time>
      </trkpt>
      <trkpt lat="45.17521" lon="-0.56732">
        <ele>30.6</ele>
        <time>2020-09-01T07:01:37Z</time>
      </trkpt>
      <trkpt lat="45.17519" lon="-0.56732">
        <ele>30.5</ele>
        <time>2020-09-01T07:01:39Z</time>
      </trkpt>
      <trkpt lat="45.17518" lon="-0.56733">
        <ele>30.5</ele>
        <time>2020-09-01T07:01:40Z</time>
      </trkpt>
      <trkpt lat="45.17516" lon="-0.56733">
        <ele>30.5</ele>
        <time>2020-09-01T07:01:41Z</time>
      </trkpt>
      <trkpt lat="45.17515" lon="-0.56734">
        <ele>30.4</ele>
        <time>2020-09-01T07:01:42Z</time>
      </trkpt>
      <trkpt lat="45.17513" lon="-0.56734">
        <ele>30.4</ele>
        <time>2020-09-01T07:01:43Z</time>
      </trkpt>
      <trkpt lat="45.17512" lon="-0.56735">
        <ele>30.4</ele>
        <time>2020-09-01T07:01:44Z</time>
      </trkpt>
      <trkpt lat="45.17511" lon="-0.56736">
        <ele>30.4</ele>
        <time>2020-09-01T07:01:45Z</time>
      </trkpt>
      <trkpt lat="45.17508" lon="-0.56736">
        <ele>30.3</ele>
        <time>2020-09-01T07:01:47Z</time>
      </trkpt>
      <trkpt lat="45.17507" lon="-0.56737">
        <ele>30.3</ele>
        <time>2020-09-01T07:01:48Z</time>
      </trkpt>
      <trkpt lat="45.17507" lon="-0.56737">
        <ele>30.3</ele>
        <time>2020-09-01T07:01:49Z</time>
      </trkpt>
      <trkpt lat="45.17506" lon="-0.56737">
        <ele>30.3</ele>
        <time>2020-09-01T07:01:50Z</time>
      </trkpt>
      <trkpt lat="45.17505" lon="-0.56737">
        <ele>30.2</ele>
        <time>2020-09-01T07:01:51Z</time>
      </trkpt>
      <trkpt lat="45.17504" lon="-0.56737">
        <ele>30.2</ele>
        <time>2020-09-01T07:01:52Z</time>
      </trkpt>
      <trkpt lat="45.17501" lon="-0.56738">
        <ele>30.2</ele>
        <time>2020-09-01T07:01:54Z</time>
      </trkpt>
      <trkpt lat="45.175" lon="-0.56739">
        <ele>30.1</ele>
        <time>2020-09-01T07:01:55Z</time>
      </trkpt>
      <trkpt lat="45.17498" lon="-0.56739">
        <ele>30.1</ele>
        <time>2020-09-01T07:01:57Z</time>
      </trkpt>
      <trkpt lat="45.17497" lon="-0.56739">
        <ele>30.1</ele>
        <time>2020-09-01T07:01:58Z</time>
      </trkpt>
      <trkpt lat="45.17495" lon="-0.56739">
        <ele>30</ele>
        <time>2020-09-01T07:01:59Z</time>
      </trkpt>
      <trkpt lat="45.17492" lon="-0.5674">
        <ele>30</ele>
        <time>2020-09-01T07:02:01Z</time>
      </trkpt>
      <trkpt lat="45.17491" lon="-0.5674">
        <ele>30</ele>
        <time>2020-09-01T07:02:03Z</time>
      </trkpt>
      <trkpt lat="45.17489" lon="-0.5674">
        <ele>29.9</ele>
        <time>2020-09-01T07:02:04Z</time>
      </trkpt>
      <trkpt lat="45.17488" lon="-0.5674">
        <ele>29.9</ele>
        <time>2020-09-01T07:02:05Z</time>
      </trkpt>
      <trkpt lat="45.17486" lon="-0.5674">
        <ele>29.9</ele>
        <time>2020-09-01T07:02:06Z</time>
      </trkpt>
      <trkpt lat="45.17485" lon="-0.56741">
        <ele>29.8</ele>
        <time>2020-09-01T07:02:07Z</time>
      </trkpt>
      <trkpt lat="45.17481" lon="-0.56742">
        <ele>29.8</ele>
        <time>2020-09-01T07:02:09Z</time>
      </trkpt>
      <trkpt lat="45.17481" lon="-0.56742">
        <ele>29.7</ele>
        <time>2020-09-01T07:02:10Z</time>
      </trkpt>
      <trkpt lat="45.17479" lon="-0.56742">
        <ele>29.7</ele>
        <time>2020-09-01T07:02:11Z</time>
      </trkpt>
      <trkpt lat="45.17478" lon="-0.56742">
        <ele>29.7</ele>
        <time>2020-09-01T07:02:12Z</time>
      </trkpt>
      <trkpt lat="45.17476" lon="-0.56742">
        <ele>29.6</ele>
        <time>2020-09-01T07:02:14Z</time>
      </trkpt>
      <trkpt lat="45.17473" lon="-0.56743">
        <ele>29.6</ele>
        <time>2020-09-01T07:02:15Z</time>
      </trkpt>
      <trkpt lat="45.17472" lon="-0.56743">
        <ele>29.6</ele>
        <time>2020-09-01T07:02:17Z</time>
      </trkpt>
      <trkpt lat="45.1747" lon="-0.56744">
        <ele>29.5</ele>
        <time>2020-09-01T07:02:18Z</time>
      </trkpt>
      <trkpt lat="45.17469" lon="-0.56744">
        <ele>29.5</ele>
        <time>2020-09-01T07:02:19Z</time>
      </trkpt>
      <trkpt lat="45.17466" lon="-0.56744">
        <ele>29.4</ele>
        <time>2020-09-01T07:02:20Z</time>
      </trkpt>
      <trkpt lat="45.17465" lon="-0.56745">
        <ele>29.4</ele>
        <time>2020-09-01T07:02:22Z</time>
      </trkpt>
      <trkpt lat="45.17463" lon="-0.56745">
        <ele>29.4</ele>
        <time>2020-09-01T07:02:23Z</time>
      </trkpt>
      <trkpt lat="45.17461" lon="-0.56745">
        <ele>29.3</ele>
        <time>2020-09-01T07:02:24Z</time>
      </trkpt>
      <trkpt lat="45.17459" lon="-0.56745">
        <ele>29.3</ele>
        <time>2020-09-01T07:02:26Z</time>
      </trkpt>
      <trkpt lat="45.17457" lon="-0.56746">
        <ele>29.3</ele>
        <time>2020-09-01T07:02:27Z</time>
      </trkpt>
      <trkpt lat="45.17456" lon="-0.56746">
        <ele>29.2</ele>
        <time>2020-09-01T07:02:28Z</time>
      </trkpt>
      <trkpt lat="45.17454" lon="-0.56746">
        <ele>29.2</ele>
        <time>2020-09-01T07:02:29Z</time>
      </trkpt>
      <trkpt lat="45.17453" lon="-0.56746">
        <ele>29.2</ele>
        <time>2020-09-01T07:02:30Z</time>
      </trkpt>
      <trkpt lat="45.17452" lon="-0.56746">
        <ele>29.2</ele>
        <time>2020-09-01T07:02:31Z</time>
      </trkpt>
      <trkpt lat="45.1745" lon="-0.56746">
        <ele>29.1</ele>
        <time>2020-09-01T07:02:33Z</time>
      </trkpt>
      <trkpt lat="45.17448" lon="-0.56746">
        <ele>29.1</ele>
        <time>2020-09-01T07:02:34Z</time>
      </trkpt>
      <trkpt lat="45.17447" lon="-0.56746">
        <ele>29.1</ele>
        <time>2020-09-01T07:02:35Z</time>
      </trkpt>
      <trkpt lat="45.17445" lon="-0.56746">
        <ele>29</ele>
        <time>2020-09-01T07:02:36Z</time>
      </trkpt>
      <trkpt lat="45.17444" lon="-0.56746">
        <ele>29</ele>
        <time>2020-09-01T07:02:38Z</time>
      </trkpt>
      <trkpt lat="45.17442" lon="-0.56746">
        <ele>29</ele>
        <time>2020-09-01T07:02:39Z</time>
      </trkpt>
      <trkpt lat="45.17439" lon="-0.56746">
        <ele>28.9</ele>
        <time>2020-09-01T07:02:41Z</time>
      </trkpt>
      <trkpt lat="45.17438" lon="-0.56746">
        <ele>28.9</ele>
        <time>2020-09-01T07:02:42Z</time>
      </trkpt>
      <trkpt lat="45.17436" lon="-0.56747">
        <ele>28.8</ele>
        <time>2020-09-01T07:02:44Z</time>
      </trkpt>
      <trkpt lat="45.17435" lon="-0.56747">
        <ele>28.8</ele>
        <time>2020-09-01T07:02:45Z</time>
      </trkpt>
      <trkpt lat="45.17433" lon="-0.56747">
        <ele>28.8</ele>
        <time>2020-09-01T07:02:46Z</time>
      </trkpt>
      <trkpt lat="45.17431" lon="-0.56747">
        <ele>28.7</ele>
        <time>2020-09-01T07:02:48Z</time>
      </trkpt>
      <trkpt lat="45.17429" lon="-0.56748">
        <ele>28.7</ele>
        <time>2020-09-01T07:02:49Z</time>
      </trkpt>
      <trkpt lat="45.17428" lon="-0.56748">
        <ele>28.7</ele>
        <time>2020-09-01T07:02:50Z</time>
      </trkpt>
      <trkpt lat="45.17427" lon="-0.56748">
        <ele>28.6</ele>
        <time>2020-09-01T07:02:51Z</time>
      </trkpt>
      <trkpt lat="45.17425" lon="-0.56749">
        <ele>28.6</ele>
        <time>2020-09-01T07:02:52Z</time>
      </trkpt>
      <trkpt lat="45.17423" lon="-0.56749">
        <ele>28.6</ele>
        <time>2020-09-01T07:02:54Z</time>
      </trkpt>
      <trkpt lat="45.17422" lon="-0.56749">
        <ele>28.5</ele>
        <time>2020-09-01T07:02:55Z</time>
      </trkpt>
      <trkpt lat="45.17419" lon="-0.5675">
        <ele>28.5</ele>
        <time>2020-09-01T07:02:56Z</time>
      </trkpt>
      <trkpt lat="45.17418" lon="-0.56751">
        <ele>28.5</ele>
        <time>2020-09-01T07:02:57Z</time>
      </trkpt>
      <trkpt lat="45.17417" lon="-0.56751">
        <ele>28.4</ele>
        <time>2020-09-01T07:02:58Z</time>
      </trkpt>
      <trkpt lat="45.17416" lon="-0.56751">
        <ele>28.4</ele>
        <time>2020-09-01T07:02:59Z</time>
      </trkpt>
      <trkpt lat="45.17415" lon="-0.56752">
        <ele>28.4</ele>
        <time>2020-09-01T07:03:01Z</time>
      </trkpt>
      <trkpt lat="45.17413" lon="-0.56752">
        <ele>28.4</ele>
        <time>2020-09-01T07:03:02Z</time>
      </trkpt>
      <trkpt lat="45.17411" lon="-0.56753">
        <ele>28.3</ele>
        <time>2020-09-01T07:03:04Z</time>
      </trkpt>
      <trkpt lat="45.1741" lon="-0.56753">
        <ele>28.3</ele>
        <time>2020-09-01T07:03:05Z</time>
      </trkpt>
      <trkpt lat="45.17409" lon="-0.56753">
        <ele>28.3</ele>
        <time>2020-09-01T07:03:06Z</time>
      </trkpt>
      <trkpt lat="45.17407" lon="-0.56754">
        <ele>28.2</ele>
        <time>2020-09-01T07:03:08Z</time>
      </trkpt>
      <trkpt lat="45.17405" lon="-0.56755">
        <ele>28.2</ele>
        <time>2020-09-01T07:03:10Z</time>
      </trkpt>
      <trkpt lat="45.17404" lon="-0.56755">
        <ele>28.2</ele>
        <time>2020-09-01T07:03:11Z</time>
      </trkpt>
      <trkpt lat="45.17403" lon="-0.56756">
        <ele>28.2</ele>
        <time>2020-09-01T07:03:12Z</time>
      </trkpt>
      <trkpt lat="45.174" lon="-0.56758">
        <ele>28.1</ele>
        <time>2020-09-01T07:03:14Z</time>
      </trkpt>
      <trkpt lat="45.17398" lon="-0.56758">
        <ele>28</ele>
        <time>2020-09-01T07:03:15Z</time>
      </trkpt>
      <trkpt lat="45.17397" lon="-0.56759">
        <ele>28</ele>
        <time>2020-09-01T07:03:16Z</time>
      </trkpt>
      <trkpt lat="45.17396" lon="-0.5676">
        <ele>28</ele>
        <time>2020-09-01T07:03:18Z</time>
      </trkpt>
      <trkpt lat="45.17395" lon="-0.5676">
        <ele>28</ele>
        <time>2020-09-01T07:03:20Z</time>
      </trkpt>
      <trkpt lat="45.17395" lon="-0.56759">
        <ele>28</ele>
        <time>2020-09-01T07:03:21Z</time>
      </trkpt>
      <trkpt lat="45.17396" lon="-0.56758">
        <ele>28</ele>
        <time>2020-09-01T07:03:23Z</time>
      </trkpt>
      <trkpt lat="45.17396" lon="-0.56758">
        <ele>27.9</ele>
        <time>2020-09-01T07:03:24Z</time>
      </trkpt>
      <trkpt lat="45.17396" lon="-0.56757">
        <ele>27.9</ele>
        <time>2020-09-01T07:03:26Z</time>
      </trkpt>
      <trkpt lat="45.17397" lon="-0.56757">
        <ele>27.9</ele>
        <time>2020-09-01T07:03:27Z</time>
      </trkpt>
      <trkpt lat="45.17395" lon="-0.56758">
        <ele>27.9</ele>
        <time>2020-09-01T07:03:28Z</time>
      </trkpt>
      <trkpt lat="45.17394" lon="-0.56758">
        <ele>27.9</ele>
        <time>2020-09-01T07:03:30Z</time>
      </trkpt>
      <trkpt lat="45.17392" lon="-0.56759">
        <ele>27.8</ele>
        <time>2020-09-01T07:03:31Z</time>
      </trkpt>
      <trkpt lat="45.17391" lon="-0.5676">
        <ele>27.8</ele>
        <time>2020-09-01T07:03:32Z</time>
      </trkpt>
      <trkpt lat="45.17389" lon="-0.56761">
        <ele>27.8</ele>
        <time>2020-09-01T07:03:34Z</time>
      </trkpt>
      <trkpt lat="45.17388" lon="-0.56761">
        <ele>27.7</ele>
        <time>2020-09-01T07:03:35Z</time>
      </trkpt>
      <trkpt lat="45.17386" lon="-0.56762">
        <ele>27.7</ele>
        <time>2020-09-01T07:03:37Z</time>
      </trkpt>
      <trkpt lat="45.17385" lon="-0.56763">
        <ele>27.7</ele>
        <time>2020-09-01T07:03:38Z</time>
      </trkpt>
      <trkpt lat="45.17382" lon="-0.56765">
        <ele>27.6</ele>
        <time>2020-09-01T07:03:39Z</time>
      </trkpt>
      <trkpt lat="45.17381" lon="-0.56765">
        <ele>27.6</ele>
        <time>2020-09-01T07:03:40Z</time>
      </trkpt>
      <trkpt lat="45.17378" lon="-0.56768">
        <ele>27.5</ele>
        <time>2020-09-01T07:03:42Z</time>
      </trkpt>
      <trkpt lat="45.17377" lon="-0.56769">
        <ele>27.5</ele>
        <time>2020-09-01T07:03:43Z</time>
      </trkpt>
      <trkpt lat="45.17375" lon="-0.5677">
        <ele>27.4</ele>
        <time>2020-09-01T07:03:45Z</time>
      </trkpt>
      <trkpt lat="45.17374" lon="-0.56771">
        <ele>27.4</ele>
        <time>2020-09-01T07:03:46Z</time>
      </trkpt>
      <trkpt lat="45.1737" lon="-0.56773">
        <ele>27.3</ele>
        <time>2020-09-01T07:03:49Z</time>
      </trkpt>
      <trkpt lat="45.17369" lon="-0.56774">
        <ele>27.3</ele>
        <time>2020-09-01T07:03:50Z</time>
      </trkpt>
      <trkpt lat="45.17367" lon="-0.56775">
        <ele>27.3</ele>
        <time>2020-09-01T07:03:52Z</time>
      </trkpt>
      <trkpt lat="45.17365" lon="-0.56777">
        <ele>27.2</ele>
        <time>2020-09-01T07:03:53Z</time>
      </trkpt>
      <trkpt lat="45.17364" lon="-0.56778">
        <ele>27.2</ele>
        <time>2020-09-01T07:03:54Z</time>
      </trkpt>
      <trkpt lat="45.17362" lon="-0.56779">
        <ele>27.2</ele>
        <time>2020-09-01T07:03:56Z</time>
      </trkpt>
      <trkpt lat="45.17361" lon="-0.5678">
        <ele>27.1</ele>
        <time>2020-09-01T07:03:57Z</time>
      </trkpt>
      <trkpt lat="45.17359" lon="-0.56781">
        <ele>27.1</ele>
        <time>2020-09-01T07:03:58Z</time>
      </trkpt>
      <trkpt lat="45.17358" lon="-0.56782">
        <ele>27.1</ele>
        <time>2020-09-01T07:04:00Z</time>
      </trkpt>
      <trkpt lat="45.17357" lon="-0.56782">
        <ele>27</ele>
        <time>2020-09-01T07:04:01Z</time>
      </trkpt>
      <trkpt lat="45.17355" lon="-0.56784">
        <ele>27</ele>
        <time>2020-09-01T07:04:03Z</time>
      </trkpt>
      <trkpt lat="45.17353" lon="-0.56785">
        <ele>26.9</ele>
        <time>2020-09-01T07:04:04Z</time>
      </trkpt>
      <trkpt lat="45.17351" lon="-0.56786">
        <ele>26.9</ele>
        <time>2020-09-01T07:04:05Z</time>
      </trkpt>
      <trkpt lat="45.1735" lon="-0.56787">
        <ele>26.9</ele>
        <time>2020-09-01T07:04:06Z</time>
      </trkpt>
      <trkpt lat="45.17349" lon="-0.56788">
        <ele>26.9</ele>
        <time>2020-09-01T07:04:07Z</time>
      </trkpt>
      <trkpt lat="45.17347" lon="-0.56789">
        <ele>26.8</ele>
        <time>2020-09-01T07:04:09Z</time>
      </trkpt>
      <trkpt lat="45.17345" lon="-0.5679">
        <ele>26.8</ele>
        <time>2020-09-01T07:04:10Z</time>
      </trkpt>
      <trkpt lat="45.17344" lon="-0.56791">
        <ele>26.8</ele>
        <time>2020-09-01T07:04:11Z</time>
      </trkpt>
      <trkpt lat="45.17343" lon="-0.56792">
        <ele>26.7</ele>
        <time>2020-09-01T07:04:13Z</time>
      </trkpt>
      <trkpt lat="45.17341" lon="-0.56793">
        <ele>26.7</ele>
        <time>2020-09-01T07:04:14Z</time>
      </trkpt>
      <trkpt lat="45.1734" lon="-0.56793">
        <ele>26.7</ele>
        <time>2020-09-01T07:04:15Z</time>
      </trkpt>
      <trkpt lat="45.1734" lon="-0.56794">
        <ele>26.7</ele>
        <time>2020-09-01T07:04:16Z</time>
      </trkpt>
      <trkpt lat="45.17338" lon="-0.56794">
        <ele>26.6</ele>
        <time>2020-09-01T07:04:17Z</time>
      </trkpt>
      <trkpt lat="45.17336" lon="-0.56795">
        <ele>26.6</ele>
        <time>2020-09-01T07:04:18Z</time>
      </trkpt>
      <trkpt lat="45.17334" lon="-0.56797">
        <ele>26.5</ele>
        <time>2020-09-01T07:04:20Z</time>
      </trkpt>
      <trkpt lat="45.17334" lon="-0.56798">
        <ele>26.5</ele>
        <time>2020-09-01T07:04:21Z</time>
      </trkpt>
      <trkpt lat="45.17333" lon="-0.56798">
        <ele>26.5</ele>
        <time>2020-09-01T07:04:22Z</time>
      </trkpt>
      <trkpt lat="45.1733" lon="-0.568">
        <ele>26.4</ele>
        <time>2020-09-01T07:04:24Z</time>
      </trkpt>
      <trkpt lat="45.1733" lon="-0.568">
        <ele>26.4</ele>
        <time>2020-09-01T07:04:25Z</time>
      </trkpt>
      <trkpt lat="45.17328" lon="-0.56801">
        <ele>26.4</ele>
        <time>2020-09-01T07:04:26Z</time>
      </trkpt>
      <trkpt lat="45.17327" lon="-0.56802">
        <ele>26.4</ele>
        <time>2020-09-01T07:04:27Z</time>
      </trkpt>
      <trkpt lat="45.17326" lon="-0.56803">
        <ele>26.4</ele>
        <time>2020-09-01T07:04:28Z</time>
      </trkpt>
      <trkpt lat="45.17324" lon="-0.56803">
        <ele>26.3</ele>
        <time>2020-09-01T07:04:30Z</time>
      </trkpt>
      <trkpt lat="45.17323" lon="-0.56804">
        <ele>26.3</ele>
        <time>2020-09-01T07:04:31Z</time>
      </trkpt>
      <trkpt lat="45.17322" lon="-0.56805">
        <ele>26.3</ele>
        <time>2020-09-01T07:04:32Z</time>
      </trkpt>
      <trkpt lat="45.17319" lon="-0.56806">
        <ele>26.2</ele>
        <time>2020-09-01T07:04:34Z</time>
      </trkpt>
      <trkpt lat="45.17319" lon="-0.56806">
        <ele>26.2</ele>
        <time>2020-09-01T07:04:35Z</time>
      </trkpt>
      <trkpt lat="45.17317" lon="-0.56807">
        <ele>26.2</ele>
        <time>2020-09-01T07:04:36Z</time>
      </trkpt>
      <trkpt lat="45.17315" lon="-0.56808">
        <ele>26.1</ele>
        <time>2020-09-01T07:04:38Z</time>
      </trkpt>
      <trkpt lat="45.17313" lon="-0.5681">
        <ele>26.1</ele>
        <time>2020-09-01T07:04:40Z</time>
      </trkpt>
      <trkpt lat="45.17311" lon="-0.5681">
        <ele>26</ele>
        <time>2020-09-01T07:04:41Z</time>
      </trkpt>
      <trkpt lat="45.1731" lon="-0.56811">
        <ele>26</ele>
        <time>2020-09-01T07:04:42Z</time>
      </trkpt>
      <trkpt lat="45.17307" lon="-0.56812">
        <ele>25.9</ele>
        <time>2020-09-01T07:04:44Z</time>
      </trkpt>
      <trkpt lat="45.17306" lon="-0.56812">
        <ele>25.9</ele>
        <time>2020-09-01T07:04:45Z</time>
      </trkpt>
      <trkpt lat="45.17305" lon="-0.56813">
        <ele>25.9</ele>
        <time>2020-09-01T07:04:46Z</time>
      </trkpt>
      <trkpt lat="45.17303" lon="-0.56814">
        <ele>25.9</ele>
        <time>2020-09-01T07:04:48Z</time>
      </trkpt>
      <trkpt lat="45.17301" lon="-0.56816">
        <ele>25.8</ele>
        <time>2020-09-01T07:04:50Z</time>
      </trkpt>
      <trkpt lat="45.173" lon="-0.56817">
        <ele>25.8</ele>
        <time>2020-09-01T07:04:52Z</time>
      </trkpt>
      <trkpt lat="45.17299" lon="-0.56818">
        <ele>25.8</ele>
        <time>2020-09-01T07:04:53Z</time>
      </trkpt>
      <trkpt lat="45.17298" lon="-0.56819">
        <ele>25.7</ele>
        <time>2020-09-01T07:04:54Z</time>
      </trkpt>
      <trkpt lat="45.17297" lon="-0.5682">
        <ele>25.7</ele>
        <time>2020-09-01T07:04:55Z</time>
      </trkpt>
      <trkpt lat="45.17296" lon="-0.56821">
        <ele>25.7</ele>
        <time>2020-09-01T07:04:57Z</time>
      </trkpt>
      <trkpt lat="45.17293" lon="-0.56823">
        <ele>25.6</ele>
        <time>2020-09-01T07:04:59Z</time>
      </trkpt>
      <trkpt lat="45.17292" lon="-0.56823">
        <ele>25.6</ele>
        <time>2020-09-01T07:05:00Z</time>
      </trkpt>
      <trkpt lat="45.1729" lon="-0.56825">
        <ele>25.6</ele>
        <time>2020-09-01T07:05:02Z</time>
      </trkpt>
      <trkpt lat="45.17287" lon="-0.56828">
        <ele>25.5</ele>
        <time>2020-09-01T07:05:04Z</time>
      </trkpt>
      <trkpt lat="45.17285" lon="-0.56829">
        <ele>25.4</ele>
        <time>2020-09-01T07:05:05Z</time>
      </trkpt>
      <trkpt lat="45.17284" lon="-0.5683">
        <ele>25.4</ele>
        <time>2020-09-01T07:05:06Z</time>
      </trkpt>
      <trkpt lat="45.17283" lon="-0.56831">
        <ele>25.4</ele>
        <time>2020-09-01T07:05:07Z</time>
      </trkpt>
      <trkpt lat="45.1728" lon="-0.56832">
        <ele>25.3</ele>
        <time>2020-09-01T07:05:09Z</time>
      </trkpt>
      <trkpt lat="45.17278" lon="-0.56833">
        <ele>25.3</ele>
        <time>2020-09-01T07:05:11Z</time>
      </trkpt>
      <trkpt lat="45.17277" lon="-0.56834">
        <ele>25.3</ele>
        <time>2020-09-01T07:05:12Z</time>
      </trkpt>
      <trkpt lat="45.17275" lon="-0.56835">
        <ele>25.2</ele>
        <time>2020-09-01T07:05:13Z</time>
      </trkpt>
      <trkpt lat="45.17273" lon="-0.56837">
        <ele>25.2</ele>
        <time>2020-09-01T07:05:14Z</time>
      </trkpt>
      <trkpt lat="45.17272" lon="-0.56838">
        <ele>25.1</ele>
        <time>2020-09-01T07:05:16Z</time>
      </trkpt>
      <trkpt lat="45.1727" lon="-0.5684">
        <ele>25.1</ele>
        <time>2020-09-01T07:05:18Z</time>
      </trkpt>
      <trkpt lat="45.17269" lon="-0.56841">
        <ele>25.1</ele>
        <time>2020-09-01T07:05:19Z</time>
      </trkpt>
      <trkpt lat="45.17269" lon="-0.56842">
        <ele>25</ele>
        <time>2020-09-01T07:05:20Z</time>
      </trkpt>
      <trkpt lat="45.17267" lon="-0.56843">
        <ele>25</ele>
        <time>2020-09-01T07:05:22Z</time>
      </trkpt>
      <trkpt lat="45.17266" lon="-0.56844">
        <ele>25</ele>
        <time>2020-09-01T07:05:23Z</time>
      </trkpt>
      <trkpt lat="45.17265" lon="-0.56845">
        <ele>25</ele>
        <time>2020-09-01T07:05:24Z</time>
      </trkpt>
      <trkpt lat="45.17264" lon="-0.56847">
        <ele>24.9</ele>
        <time>2020-09-01T07:05:26Z</time>
      </trkpt>
      <trkpt lat="45.17263" lon="-0.56848">
        <ele>24.9</ele>
        <time>2020-09-01T07:05:27Z</time>
      </trkpt>
      <trkpt lat="45.17261" lon="-0.56849">
        <ele>24.9</ele>
        <time>2020-09-01T07:05:29Z</time>
      </trkpt>
      <trkpt lat="45.1726" lon="-0.5685">
        <ele>24.8</ele>
        <time>2020-09-01T07:05:30Z</time>
      </trkpt>
      <trkpt lat="45.17259" lon="-0.56851">
        <ele>24.8</ele>
        <time>2020-09-01T07:05:31Z</time>
      </trkpt>
      <trkpt lat="45.17257" lon="-0.56853">
        <ele>24.8</ele>
        <time>2020-09-01T07:05:33Z</time>
      </trkpt>
      <trkpt lat="45.17255" lon="-0.56855">
        <ele>24.7</ele>
        <time>2020-09-01T07:05:34Z</time>
      </trkpt>
      <trkpt lat="45.17254" lon="-0.56855">
        <ele>24.7</ele>
        <time>2020-09-01T07:05:35Z</time>
      </trkpt>
      <trkpt lat="45.17252" lon="-0.56856">
        <ele>24.7</ele>
        <time>2020-09-01T07:05:36Z</time>
      </trkpt>
      <trkpt lat="45.17251" lon="-0.56857">
        <ele>24.6</ele>
        <time>2020-09-01T07:05:38Z</time>
      </trkpt>
      <trkpt lat="45.17251" lon="-0.56857">
        <ele>24.6</ele>
        <time>2020-09-01T07:05:39Z</time>
      </trkpt>
      <trkpt lat="45.1725" lon="-0.56858">
        <ele>24.6</ele>
        <time>2020-09-01T07:05:40Z</time>
      </trkpt>
      <trkpt lat="45.17249" lon="-0.56858">
        <ele>24.6</ele>
        <time>2020-09-01T07:05:41Z</time>
      </trkpt>
      <trkpt lat="45.17247" lon="-0.5686">
        <ele>24.5</ele>
        <time>2020-09-01T07:05:43Z</time>
      </trkpt>
      <trkpt lat="45.17245" lon="-0.56862">
        <ele>24.5</ele>
        <time>2020-09-01T07:05:44Z</time>
      </trkpt>
      <trkpt lat="45.17243" lon="-0.56864">
        <ele>24.4</ele>
        <time>2020-09-01T07:05:46Z</time>
      </trkpt>
      <trkpt lat="45.17241" lon="-0.56866">
        <ele>24.4</ele>
        <time>2020-09-01T07:05:47Z</time>
      </trkpt>
      <trkpt lat="45.1724" lon="-0.56867">
        <ele>24.4</ele>
        <time>2020-09-01T07:05:48Z</time>
      </trkpt>
      <trkpt lat="45.17239" lon="-0.56868">
        <ele>24.3</ele>
        <time>2020-09-01T07:05:49Z</time>
      </trkpt>
      <trkpt lat="45.17237" lon="-0.56871">
        <ele>24.3</ele>
        <time>2020-09-01T07:05:50Z</time>
      </trkpt>
      <trkpt lat="45.17236" lon="-0.56872">
        <ele>24.3</ele>
        <time>2020-09-01T07:05:52Z</time>
      </trkpt>
      <trkpt lat="45.17235" lon="-0.56873">
        <ele>24.2</ele>
        <time>2020-09-01T07:05:53Z</time>
      </trkpt>
      <trkpt lat="45.17233" lon="-0.56874">
        <ele>24.2</ele>
        <time>2020-09-01T07:05:54Z</time>
      </trkpt>
      <trkpt lat="45.17232" lon="-0.56876">
        <ele>24.1</ele>
        <time>2020-09-01T07:05:56Z</time>
      </trkpt>
      <trkpt lat="45.17231" lon="-0.56877">
        <ele>24.1</ele>
        <time>2020-09-01T07:05:57Z</time>
      </trkpt>
      <trkpt lat="45.17228" lon="-0.56882">
        <ele>24</ele>
        <time>2020-09-01T07:05:59Z</time>
      </trkpt>
      <trkpt lat="45.17227" lon="-0.56883">
        <ele>24</ele>
        <time>2020-09-01T07:06:00Z</time>
      </trkpt>
      <trkpt lat="45.17226" lon="-0.56885">
        <ele>24</ele>
        <time>2020-09-01T07:06:02Z</time>
      </trkpt>
      <trkpt lat="45.17225" lon="-0.56886">
        <ele>23.9</ele>
        <time>2020-09-01T07:06:03Z</time>
      </trkpt>
      <trkpt lat="45.17224" lon="-0.56888">
        <ele>23.9</ele>
        <time>2020-09-01T07:06:04Z</time>
      </trkpt>
      <trkpt lat="45.17223" lon="-0.56889">
        <ele>23.9</ele>
        <time>2020-09-01T07:06:05Z</time>
      </trkpt>
      <trkpt lat="45.17222" lon="-0.56891">
        <ele>23.9</ele>
        <time>2020-09-01T07:06:06Z</time>
      </trkpt>
      <trkpt lat="45.1722" lon="-0.56894">
        <ele>23.8</ele>
        <time>2020-09-01T07:06:08Z</time>
      </trkpt>
      <trkpt lat="45.1722" lon="-0.56896">
        <ele>23.8</ele>
        <time>2020-09-01T07:06:09Z</time>
      </trkpt>
      <trkpt lat="45.17219" lon="-0.56898">
        <ele>23.7</ele>
        <time>2020-09-01T07:06:10Z</time>
      </trkpt>
      <trkpt lat="45.17218" lon="-0.569">
        <ele>23.7</ele>
        <time>2020-09-01T07:06:12Z</time>
      </trkpt>
      <trkpt lat="45.17217" lon="-0.56903">
        <ele>23.7</ele>
        <time>2020-09-01T07:06:14Z</time>
      </trkpt>
      <trkpt lat="45.17216" lon="-0.56905">
        <ele>23.6</ele>
        <time>2020-09-01T07:06:16Z</time>
      </trkpt>
      <trkpt lat="45.17215" lon="-0.56908">
        <ele>23.6</ele>
        <time>2020-09-01T07:06:17Z</time>
      </trkpt>
      <trkpt lat="45.17215" lon="-0.56909">
        <ele>23.6</ele>
        <time>2020-09-01T07:06:18Z</time>
      </trkpt>
      <trkpt lat="45.17214" lon="-0.5691">
        <ele>23.5</ele>
        <time>2020-09-01T07:06:19Z</time>
      </trkpt>
      <trkpt lat="45.17214" lon="-0.56912">
        <ele>23.5</ele>
        <time>2020-09-01T07:06:21Z</time>
      </trkpt>
      <trkpt lat="45.17213" lon="-0.56914">
        <ele>23.5</ele>
        <time>2020-09-01T07:06:22Z</time>
      </trkpt>
      <trkpt lat="45.17213" lon="-0.56916">
        <ele>23.5</ele>
        <time>2020-09-01T07:06:23Z</time>
      </trkpt>
      <trkpt lat="45.17212" lon="-0.56917">
        <ele>23.4</ele>
        <time>2020-09-01T07:06:24Z</time>
      </trkpt>
      <trkpt lat="45.17211" lon="-0.56919">
        <ele>23.4</ele>
        <time>2020-09-01T07:06:26Z</time>
      </trkpt>
      <trkpt lat="45.1721" lon="-0.56921">
        <ele>23.4</ele>
        <time>2020-09-01T07:06:27Z</time>
      </trkpt>
      <trkpt lat="45.17208" lon="-0.56923">
        <ele>23.3</ele>
        <time>2020-09-01T07:06:29Z</time>
      </trkpt>
      <trkpt lat="45.17207" lon="-0.56924">
        <ele>23.3</ele>
        <time>2020-09-01T07:06:30Z</time>
      </trkpt>
      <trkpt lat="45.17207" lon="-0.56924">
        <ele>23.3</ele>
        <time>2020-09-01T07:06:31Z</time>
      </trkpt>
      <trkpt lat="45.17206" lon="-0.56925">
        <ele>23.3</ele>
        <time>2020-09-01T07:06:32Z</time>
      </trkpt>
      <trkpt lat="45.17204" lon="-0.56926">
        <ele>23.2</ele>
        <time>2020-09-01T07:06:33Z</time>
      </trkpt>
      <trkpt lat="45.17202" lon="-0.56927">
        <ele>23.2</ele>
        <time>2020-09-01T07:06:35Z</time>
      </trkpt>
      <trkpt lat="45.172" lon="-0.56928">
        <ele>23.1</ele>
        <time>2020-09-01T07:06:36Z</time>
      </trkpt>
      <trkpt lat="45.17199" lon="-0.56929">
        <ele>23.1</ele>
        <time>2020-09-01T07:06:37Z</time>
      </trkpt>
      <trkpt lat="45.17197" lon="-0.56929">
        <ele>23.1</ele>
        <time>2020-09-01T07:06:39Z</time>
      </trkpt>
      <trkpt lat="45.17196" lon="-0.56929">
        <ele>23</ele>
        <time>2020-09-01T07:06:40Z</time>
      </trkpt>
      <trkpt lat="45.17195" lon="-0.56929">
        <ele>23</ele>
        <time>2020-09-01T07:06:41Z</time>
      </trkpt>
      <trkpt lat="45.17194" lon="-0.56929">
        <ele>23</ele>
        <time>2020-09-01T07:06:42Z</time>
      </trkpt>
      <trkpt lat="45.17192" lon="-0.5693">
        <ele>23</ele>
        <time>2020-09-01T07:06:43Z</time>
      </trkpt>
      <trkpt lat="45.17189" lon="-0.5693">
        <ele>22.9</ele>
        <time>2020-09-01T07:06:45Z</time>
      </trkpt>
      <trkpt lat="45.17189" lon="-0.56931">
        <ele>22.9</ele>
        <time>2020-09-01T07:06:46Z</time>
      </trkpt>
      <trkpt lat="45.17188" lon="-0.56931">
        <ele>22.9</ele>
        <time>2020-09-01T07:06:47Z</time>
      </trkpt>
      <trkpt lat="45.17187" lon="-0.56932">
        <ele>22.9</ele>
        <time>2020-09-01T07:06:48Z</time>
      </trkpt>
      <trkpt lat="45.17184" lon="-0.56933">
        <ele>22.8</ele>
        <time>2020-09-01T07:06:50Z</time>
      </trkpt>
      <trkpt lat="45.17183" lon="-0.56933">
        <ele>22.8</ele>
        <time>2020-09-01T07:06:51Z</time>
      </trkpt>
      <trkpt lat="45.17181" lon="-0.56934">
        <ele>22.7</ele>
        <time>2020-09-01T07:06:53Z</time>
      </trkpt>
      <trkpt lat="45.17178" lon="-0.56935">
        <ele>22.7</ele>
        <time>2020-09-01T07:06:54Z</time>
      </trkpt>
      <trkpt lat="45.17176" lon="-0.56936">
        <ele>22.6</ele>
        <time>2020-09-01T07:06:56Z</time>
      </trkpt>
      <trkpt lat="45.17175" lon="-0.56936">
        <ele>22.6</ele>
        <time>2020-09-01T07:06:57Z</time>
      </trkpt>
      <trkpt lat="45.17172" lon="-0.56936">
        <ele>22.6</ele>
        <time>2020-09-01T07:06:58Z</time>
      </trkpt>
      <trkpt lat="45.17171" lon="-0.56937">
        <ele>22.5</ele>
        <time>2020-09-01T07:06:59Z</time>
      </trkpt>
      <trkpt lat="45.17169" lon="-0.56936">
        <ele>22.5</ele>
        <time>2020-09-01T07:07:01Z</time>
      </trkpt>
      <trkpt lat="45.17168" lon="-0.56936">
        <ele>22.5</ele>
        <time>2020-09-01T07:07:02Z</time>
      </trkpt>
      <trkpt lat="45.17167" lon="-0.56936">
        <ele>22.4</ele>
        <time>2020-09-01T07:07:03Z</time>
      </trkpt>
      <trkpt lat="45.17164" lon="-0.56936">
        <ele>22.4</ele>
        <time>2020-09-01T07:07:05Z</time>
      </trkpt>
      <trkpt lat="45.17163" lon="-0.56936">
        <ele>22.4</ele>
        <time>2020-09-01T07:07:06Z</time>
      </trkpt>
      <trkpt lat="45.17162" lon="-0.56936">
        <ele>22.3</ele>
        <time>2020-09-01T07:07:07Z</time>
      </trkpt>
      <trkpt lat="45.17158" lon="-0.56937">
        <ele>22.3</ele>
        <time>2020-09-01T07:07:09Z</time>
      </trkpt>
      <trkpt lat="45.17157" lon="-0.56937">
        <ele>22.2</ele>
        <time>2020-09-01T07:07:10Z</time>
      </trkpt>
      <trkpt lat="45.17155" lon="-0.56937">
        <ele>22.2</ele>
        <time>2020-09-01T07:07:11Z</time>
      </trkpt>
      <trkpt lat="45.17153" lon="-0.56937">
        <ele>22.2</ele>
        <time>2020-09-01T07:07:13Z</time>
      </trkpt>
      <trkpt lat="45.17152" lon="-0.56938">
        <ele>22.1</ele>
        <time>2020-09-01T07:07:14Z</time>
      </trkpt>
      <trkpt lat="45.17149" lon="-0.56938">
        <ele>22.1</ele>
        <time>2020-09-01T07:07:16Z</time>
      </trkpt>
      <trkpt lat="45.17147" lon="-0.56939">
        <ele>22</ele>
        <time>2020-09-01T07:07:17Z</time>
      </trkpt>
      <trkpt lat="45.17146" lon="-0.5694">
        <ele>22</ele>
        <time>2020-09-01T07:07:18Z</time>
      </trkpt>
      <trkpt lat="45.17145" lon="-0.5694">
        <ele>22</ele>
        <time>2020-09-01T07:07:19Z</time>
      </trkpt>
      <trkpt lat="45.17144" lon="-0.5694">
        <ele>22</ele>
        <time>2020-09-01T07:07:20Z</time>
      </trkpt>
      <trkpt lat="45.17143" lon="-0.56942">
        <ele>21.9</ele>
        <time>2020-09-01T07:07:21Z</time>
      </trkpt>
      <trkpt lat="45.17141" lon="-0.56942">
        <ele>21.9</ele>
        <time>2020-09-01T07:07:22Z</time>
      </trkpt>
      <trkpt lat="45.1714" lon="-0.56944">
        <ele>21.9</ele>
        <time>2020-09-01T07:07:24Z</time>
      </trkpt>
      <trkpt lat="45.1714" lon="-0.56945">
        <ele>21.8</ele>
        <time>2020-09-01T07:07:25Z</time>
      </trkpt>
      <trkpt lat="45.1714" lon="-0.56947">
        <ele>21.8</ele>
        <time>2020-09-01T07:07:26Z</time>
      </trkpt>
      <trkpt lat="45.17139" lon="-0.56946">
        <ele>21.8</ele>
        <time>2020-09-01T07:07:27Z</time>
      </trkpt>
      <trkpt lat="45.17137" lon="-0.56944">
        <ele>21.7</ele>
        <time>2020-09-01T07:07:29Z</time>
      </trkpt>
      <trkpt lat="45.17136" lon="-0.56942">
        <ele>21.7</ele>
        <time>2020-09-01T07:07:30Z</time>
      </trkpt>
      <trkpt lat="45.17135" lon="-0.5694">
        <ele>21.7</ele>
        <time>2020-09-01T07:07:31Z</time>
      </trkpt>
      <trkpt lat="45.17134" lon="-0.56936">
        <ele>21.6</ele>
        <time>2020-09-01T07:07:33Z</time>
      </trkpt>
      <trkpt lat="45.17134" lon="-0.56933">
        <ele>21.7</ele>
        <time>2020-09-01T07:07:35Z</time>
      </trkpt>
      <trkpt lat="45.17135" lon="-0.56931">
        <ele>21.7</ele>
        <time>2020-09-01T07:07:36Z</time>
      </trkpt>
      <trkpt lat="45.17135" lon="-0.5693">
        <ele>21.7</ele>
        <time>2020-09-01T07:07:37Z</time>
      </trkpt>
      <trkpt lat="45.17135" lon="-0.56929">
        <ele>21.7</ele>
        <time>2020-09-01T07:07:39Z</time>
      </trkpt>
      <trkpt lat="45.17135" lon="-0.56928">
        <ele>21.7</ele>
        <time>2020-09-01T07:07:40Z</time>
      </trkpt>
      <trkpt lat="45.17135" lon="-0.56926">
        <ele>21.7</ele>
        <time>2020-09-01T07:07:41Z</time>
      </trkpt>
      <trkpt lat="45.17135" lon="-0.56922">
        <ele>21.7</ele>
        <time>2020-09-01T07:07:42Z</time>
      </trkpt>
      <trkpt lat="45.17135" lon="-0.5692">
        <ele>21.7</ele>
        <time>2020-09-01T07:07:43Z</time>
      </trkpt>
      <trkpt lat="45.17135" lon="-0.56918">
        <ele>21.7</ele>
        <time>2020-09-01T07:07:44Z</time>
      </trkpt>
      <trkpt lat="45.17135" lon="-0.56916">
        <ele>21.7</ele>
        <time>2020-09-01T07:07:46Z</time>
      </trkpt>
      <trkpt lat="45.17135" lon="-0.56914">
        <ele>21.7</ele>
        <time>2020-09-01T07:07:47Z</time>
      </trkpt>
      <trkpt lat="45.17134" lon="-0.5691">
        <ele>21.8</ele>
        <time>2020-09-01T07:07:49Z</time>
      </trkpt>
      <trkpt lat="45.17133" lon="-0.56906">
        <ele>21.8</ele>
        <time>2020-09-01T07:07:51Z</time>
      </trkpt>
      <trkpt lat="45.17133" lon="-0.56905">
        <ele>21.8</ele>
        <time>2020-09-01T07:07:52Z</time>
      </trkpt>
      <trkpt lat="45.17131" lon="-0.56901">
        <ele>21.8</ele>
        <time>2020-09-01T07:07:53Z</time>
      </trkpt>
      <trkpt lat="45.17131" lon="-0.569">
        <ele>21.8</ele>
        <time>2020-09-01T07:07:54Z</time>
      </trkpt>
      <trkpt lat="45.1713" lon="-0.56897">
        <ele>21.8</ele>
        <time>2020-09-01T07:07:56Z</time>
      </trkpt>
      <trkpt lat="45.17129" lon="-0.56893">
        <ele>21.8</ele>
        <time>2020-09-01T07:07:58Z</time>
      </trkpt>
      <trkpt lat="45.17127" lon="-0.56892">
        <ele>21.8</ele>
        <time>2020-09-01T07:07:59Z</time>
      </trkpt>
      <trkpt lat="45.17127" lon="-0.5689">
        <ele>21.8</ele>
        <time>2020-09-01T07:08:00Z</time>
      </trkpt>
      <trkpt lat="45.17126" lon="-0.56887">
        <ele>21.9</ele>
        <time>2020-09-01T07:08:01Z</time>
      </trkpt>
      <trkpt lat="45.17126" lon="-0.56886">
        <ele>21.9</ele>
        <time>2020-09-01T07:08:02Z</time>
      </trkpt>
      <trkpt lat="45.17125" lon="-0.56885">
        <ele>21.9</ele>
        <time>2020-09-01T07:08:03Z</time>
      </trkpt>
      <trkpt lat="45.17125" lon="-0.56882">
        <ele>21.9</ele>
        <time>2020-09-01T07:08:04Z</time>
      </trkpt>
      <trkpt lat="45.17124" lon="-0.5688">
        <ele>21.9</ele>
        <time>2020-09-01T07:08:06Z</time>
      </trkpt>
      <trkpt lat="45.17124" lon="-0.56879">
        <ele>21.9</ele>
        <time>2020-09-01T07:08:07Z</time>
      </trkpt>
      <trkpt lat="45.17123" lon="-0.56875">
        <ele>21.9</ele>
        <time>2020-09-01T07:08:09Z</time>
      </trkpt>
      <trkpt lat="45.17122" lon="-0.56875">
        <ele>21.9</ele>
        <time>2020-09-01T07:08:10Z</time>
      </trkpt>
      <trkpt lat="45.17122" lon="-0.56873">
        <ele>21.9</ele>
        <time>2020-09-01T07:08:11Z</time>
      </trkpt>
      <trkpt lat="45.17121" lon="-0.56872">
        <ele>21.9</ele>
        <time>2020-09-01T07:08:12Z</time>
      </trkpt>
      <trkpt lat="45.1712" lon="-0.5687">
        <ele>21.9</ele>
        <time>2020-09-01T07:08:14Z</time>
      </trkpt>
      <trkpt lat="45.1712" lon="-0.56868">
        <ele>22</ele>
        <time>2020-09-01T07:08:15Z</time>
      </trkpt>
      <trkpt lat="45.17119" lon="-0.56865">
        <ele>22</ele>
        <time>2020-09-01T07:08:17Z</time>
      </trkpt>
      <trkpt lat="45.17118" lon="-0.56861">
        <ele>22</ele>
        <time>2020-09-01T07:08:18Z</time>
      </trkpt>
      <trkpt lat="45.17117" lon="-0.56859">
        <ele>22</ele>
        <time>2020-09-01T07:08:19Z</time>
      </trkpt>
      <trkpt lat="45.17117" lon="-0.56857">
        <ele>22</ele>
        <time>2020-09-01T07:08:21Z</time>
      </trkpt>
      <trkpt lat="45.17116" lon="-0.56855">
        <ele>22</ele>
        <time>2020-09-01T07:08:22Z</time>
      </trkpt>
      <trkpt lat="45.17116" lon="-0.56851">
        <ele>22</ele>
        <time>2020-09-01T07:08:23Z</time>
      </trkpt>
      <trkpt lat="45.17116" lon="-0.56849">
        <ele>22</ele>
        <time>2020-09-01T07:08:24Z</time>
      </trkpt>
      <trkpt lat="45.17117" lon="-0.56847">
        <ele>22.1</ele>
        <time>2020-09-01T07:08:25Z</time>
      </trkpt>
      <trkpt lat="45.17117" lon="-0.56845">
        <ele>22.1</ele>
        <time>2020-09-01T07:08:26Z</time>
      </trkpt>
      <trkpt lat="45.17116" lon="-0.56843">
        <ele>22.1</ele>
        <time>2020-09-01T07:08:27Z</time>
      </trkpt>
      <trkpt lat="45.17116" lon="-0.56841">
        <ele>22.1</ele>
        <time>2020-09-01T07:08:28Z</time>
      </trkpt>
      <trkpt lat="45.17115" lon="-0.56839">
        <ele>22.1</ele>
        <time>2020-09-01T07:08:30Z</time>
      </trkpt>
      <trkpt lat="45.17115" lon="-0.56836">
        <ele>22.1</ele>
        <time>2020-09-01T07:08:31Z</time>
      </trkpt>
      <trkpt lat="45.17115" lon="-0.56835">
        <ele>22.1</ele>
        <time>2020-09-01T07:08:32Z</time>
      </trkpt>
      <trkpt lat="45.17115" lon="-0.56834">
        <ele>22.1</ele>
        <time>2020-09-01T07:08:33Z</time>
      </trkpt>
      <trkpt lat="45.17115" lon="-0.56829">
        <ele>22.1</ele>
        <time>2020-09-01T07:08:34Z</time>
      </trkpt>
      <trkpt lat="45.17115" lon="-0.56828">
        <ele>22.1</ele>
        <time>2020-09-01T07:08:35Z</time>
      </trkpt>
      <trkpt lat="45.17115" lon="-0.56827">
        <ele>22.1</ele>
        <time>2020-09-01T07:08:36Z</time>
      </trkpt>
      <trkpt lat="45.17115" lon="-0.56825">
        <ele>22.1</ele>
        <time>2020-09-01T07:08:38Z</time>
      </trkpt>
      <trkpt lat="45.17115" lon="-0.56824">
        <ele>22.1</ele>
        <time>2020-09-01T07:08:39Z</time>
      </trkpt>
      <trkpt lat="45.17115" lon="-0.56823">
        <ele>22.2</ele>
        <time>2020-09-01T07:08:40Z</time>
      </trkpt>
      <trkpt lat="45.17115" lon="-0.56821">
        <ele>22.2</ele>
        <time>2020-09-01T07:08:41Z</time>
      </trkpt>
      <trkpt lat="45.17115" lon="-0.5682">
        <ele>22.2</ele>
        <time>2020-09-01T07:08:42Z</time>
      </trkpt>
      <trkpt lat="45.17115" lon="-0.56816">
        <ele>22.2</ele>
        <time>2020-09-01T07:08:43Z</time>
      </trkpt>
      <trkpt lat="45.17116" lon="-0.56813">
        <ele>22.2</ele>
        <time>2020-09-01T07:08:44Z</time>
      </trkpt>
      <trkpt lat="45.17117" lon="-0.56809">
        <ele>22.2</ele>
        <time>2020-09-01T07:08:46Z</time>
      </trkpt>
      <trkpt lat="45.17117" lon="-0.56806">
        <ele>22.2</ele>
        <time>2020-09-01T07:08:47Z</time>
      </trkpt>
      <trkpt lat="45.17117" lon="-0.56805">
        <ele>22.2</ele>
        <time>2020-09-01T07:08:48Z</time>
      </trkpt>
      <trkpt lat="45.17117" lon="-0.56799">
        <ele>22.3</ele>
        <time>2020-09-01T07:08:50Z</time>
      </trkpt>
      <trkpt lat="45.17117" lon="-0.56797">
        <ele>22.3</ele>
        <time>2020-09-01T07:08:51Z</time>
      </trkpt>
      <trkpt lat="45.17117" lon="-0.56795">
        <ele>22.3</ele>
        <time>2020-09-01T07:08:53Z</time>
      </trkpt>
      <trkpt lat="45.17117" lon="-0.56793">
        <ele>22.3</ele>
        <time>2020-09-01T07:08:54Z</time>
      </trkpt>
      <trkpt lat="45.17117" lon="-0.5679">
        <ele>22.3</ele>
        <time>2020-09-01T07:08:55Z</time>
      </trkpt>
      <trkpt lat="45.17117" lon="-0.56788">
        <ele>22.3</ele>
        <time>2020-09-01T07:08:57Z</time>
      </trkpt>
      <trkpt lat="45.17117" lon="-0.56787">
        <ele>22.3</ele>
        <time>2020-09-01T07:08:58Z</time>
      </trkpt>
      <trkpt lat="45.17117" lon="-0.56786">
        <ele>22.3</ele>
        <time>2020-09-01T07:08:59Z</time>
      </trkpt>
      <trkpt lat="45.17119" lon="-0.56785">
        <ele>22.3</ele>
        <time>2020-09-01T07:09:01Z</time>
      </trkpt>
      <trkpt lat="45.17119" lon="-0.56785">
        <ele>22.3</ele>
        <time>2020-09-01T07:09:02Z</time>
      </trkpt>
      <trkpt lat="45.17119" lon="-0.56784">
        <ele>22.3</ele>
        <time>2020-09-01T07:09:03Z</time>
      </trkpt>
      <trkpt lat="45.17119" lon="-0.56783">
        <ele>22.3</ele>
        <time>2020-09-01T07:09:04Z</time>
      </trkpt>
      <trkpt lat="45.1712" lon="-0.56781">
        <ele>22.3</ele>
        <time>2020-09-01T07:09:06Z</time>
      </trkpt>
      <trkpt lat="45.1712" lon="-0.56779">
        <ele>22.4</ele>
        <time>2020-09-01T07:09:07Z</time>
      </trkpt>
      <trkpt lat="45.1712" lon="-0.56775">
        <ele>22.4</ele>
        <time>2020-09-01T07:09:09Z</time>
      </trkpt>
      <trkpt lat="45.1712" lon="-0.5677">
        <ele>22.4</ele>
        <time>2020-09-01T07:09:11Z</time>
      </trkpt>
      <trkpt lat="45.1712" lon="-0.56769">
        <ele>22.4</ele>
        <time>2020-09-01T07:09:12Z</time>
      </trkpt>
      <trkpt lat="45.1712" lon="-0.56766">
        <ele>22.4</ele>
        <time>2020-09-01T07:09:14Z</time>
      </trkpt>
      <trkpt lat="45.1712" lon="-0.56764">
        <ele>22.4</ele>
        <time>2020-09-01T07:09:15Z</time>
      </trkpt>
      <trkpt lat="45.1712" lon="-0.56763">
        <ele>22.4</ele>
        <time>2020-09-01T07:09:16Z</time>
      </trkpt>
      <trkpt lat="45.1712" lon="-0.56761">
        <ele>22.4</ele>
        <time>2020-09-01T07:09:17Z</time>
      </trkpt>
      <trkpt lat="45.1712" lon="-0.56757">
        <ele>22.4</ele>
        <time>2020-09-01T07:09:19Z</time>
      </trkpt>
      <trkpt lat="45.17119" lon="-0.56755">
        <ele>22.5</ele>
        <time>2020-09-01T07:09:20Z</time>
      </trkpt>
      <trkpt lat="45.17119" lon="-0.56753">
        <ele>22.5</ele>
        <time>2020-09-01T07:09:21Z</time>
      </trkpt>
      <trkpt lat="45.17119" lon="-0.56751">
        <ele>22.5</ele>
        <time>2020-09-01T07:09:22Z</time>
      </trkpt>
      <trkpt lat="45.17118" lon="-0.56748">
        <ele>22.5</ele>
        <time>2020-09-01T07:09:24Z</time>
      </trkpt>
      <trkpt lat="45.17118" lon="-0.56747">
        <ele>22.5</ele>
        <time>2020-09-01T07:09:25Z</time>
      </trkpt>
      <trkpt lat="45.17118" lon="-0.56745">
        <ele>22.5</ele>
        <time>2020-09-01T07:09:26Z</time>
      </trkpt>
      <trkpt lat="45.17118" lon="-0.56744">
        <ele>22.5</ele>
        <time>2020-09-01T07:09:27Z</time>
      </trkpt>
      <trkpt lat="45.17118" lon="-0.56744">
        <ele>22.5</ele>
        <time>2020-09-01T07:09:28Z</time>
      </trkpt>
      <trkpt lat="45.17118" lon="-0.56743">
        <ele>22.5</ele>
        <time>2020-09-01T07:09:29Z</time>
      </trkpt>
      <trkpt lat="45.17118" lon="-0.56741">
        <ele>22.5</ele>
        <time>2020-09-01T07:09:31Z</time>
      </trkpt>
      <trkpt lat="45.17117" lon="-0.5674">
        <ele>22.5</ele>
        <time>2020-09-01T07:09:32Z</time>
      </trkpt>
      <trkpt lat="45.17115" lon="-0.56736">
        <ele>22.6</ele>
        <time>2020-09-01T07:09:33Z</time>
      </trkpt>
      <trkpt lat="45.17115" lon="-0.56735">
        <ele>22.6</ele>
        <time>2020-09-01T07:09:34Z</time>
      </trkpt>
      <trkpt lat="45.17114" lon="-0.56733">
        <ele>22.6</ele>
        <time>2020-09-01T07:09:35Z</time>
      </trkpt>
      <trkpt lat="45.17114" lon="-0.56731">
        <ele>22.6</ele>
        <time>2020-09-01T07:09:36Z</time>
      </trkpt>
      <trkpt lat="45.17113" lon="-0.56728">
        <ele>22.6</ele>
        <time>2020-09-01T07:09:38Z</time>
      </trkpt>
      <trkpt lat="45.17112" lon="-0.56728">
        <ele>22.6</ele>
        <time>2020-09-01T07:09:39Z</time>
      </trkpt>
      <trkpt lat="45.17112" lon="-0.56727">
        <ele>22.6</ele>
        <time>2020-09-01T07:09:40Z</time>
      </trkpt>
      <trkpt lat="45.17112" lon="-0.56726">
        <ele>22.6</ele>
        <time>2020-09-01T07:09:41Z</time>
      </trkpt>
      <trkpt lat="45.17112" lon="-0.56724">
        <ele>22.6</ele>
        <time>2020-09-01T07:09:42Z</time>
      </trkpt>
      <trkpt lat="45.17111" lon="-0.56722">
        <ele>22.6</ele>
        <time>2020-09-01T07:09:43Z</time>
      </trkpt>
      <trkpt lat="45.17111" lon="-0.5672">
        <ele>22.6</ele>
        <time>2020-09-01T07:09:45Z</time>
      </trkpt>
      <trkpt lat="45.1711" lon="-0.56717">
        <ele>22.6</ele>
        <time>2020-09-01T07:09:46Z</time>
      </trkpt>
      <trkpt lat="45.17109" lon="-0.56716">
        <ele>22.6</ele>
        <time>2020-09-01T07:09:48Z</time>
      </trkpt>
      <trkpt lat="45.17109" lon="-0.56713">
        <ele>22.7</ele>
        <time>2020-09-01T07:09:49Z</time>
      </trkpt>
      <trkpt lat="45.17107" lon="-0.56709">
        <ele>22.7</ele>
        <time>2020-09-01T07:09:51Z</time>
      </trkpt>
      <trkpt lat="45.17107" lon="-0.56708">
        <ele>22.7</ele>
        <time>2020-09-01T07:09:53Z</time>
      </trkpt>
      <trkpt lat="45.17106" lon="-0.56706">
        <ele>22.7</ele>
        <time>2020-09-01T07:09:54Z</time>
      </trkpt>
      <trkpt lat="45.17106" lon="-0.56704">
        <ele>22.7</ele>
        <time>2020-09-01T07:09:56Z</time>
      </trkpt>
      <trkpt lat="45.17105" lon="-0.56703">
        <ele>22.7</ele>
        <time>2020-09-01T07:09:57Z</time>
      </trkpt>
      <trkpt lat="45.17105" lon="-0.56701">
        <ele>22.7</ele>
        <time>2020-09-01T07:09:58Z</time>
      </trkpt>
      <trkpt lat="45.17104" lon="-0.56699">
        <ele>22.7</ele>
        <time>2020-09-01T07:09:59Z</time>
      </trkpt>
      <trkpt lat="45.17103" lon="-0.56696">
        <ele>22.7</ele>
        <time>2020-09-01T07:10:00Z</time>
      </trkpt>
      <trkpt lat="45.17102" lon="-0.56695">
        <ele>22.7</ele>
        <time>2020-09-01T07:10:02Z</time>
      </trkpt>
      <trkpt lat="45.17102" lon="-0.56693">
        <ele>22.8</ele>
        <time>2020-09-01T07:10:03Z</time>
      </trkpt>
      <trkpt lat="45.17101" lon="-0.5669">
        <ele>22.8</ele>
        <time>2020-09-01T07:10:05Z</time>
      </trkpt>
      <trkpt lat="45.171" lon="-0.56689">
        <ele>22.8</ele>
        <time>2020-09-01T07:10:06Z</time>
      </trkpt>
      <trkpt lat="45.171" lon="-0.56687">
        <ele>22.8</ele>
        <time>2020-09-01T07:10:07Z</time>
      </trkpt>
      <trkpt lat="45.17099" lon="-0.56686">
        <ele>22.8</ele>
        <time>2020-09-01T07:10:08Z</time>
      </trkpt>
      <trkpt lat="45.17099" lon="-0.56683">
        <ele>22.8</ele>
        <time>2020-09-01T07:10:09Z</time>
      </trkpt>
      <trkpt lat="45.17098" lon="-0.56679">
        <ele>22.8</ele>
        <time>2020-09-01T07:10:11Z</time>
      </trkpt>
      <trkpt lat="45.17098" lon="-0.56678">
        <ele>22.8</ele>
        <time>2020-09-01T07:10:12Z</time>
      </trkpt>
      <trkpt lat="45.17097" lon="-0.56675">
        <ele>22.8</ele>
        <time>2020-09-01T07:10:13Z</time>
      </trkpt>
      <trkpt lat="45.17097" lon="-0.56673">
        <ele>22.8</ele>
        <time>2020-09-01T07:10:14Z</time>
      </trkpt>
      <trkpt lat="45.17097" lon="-0.56671">
        <ele>22.8</ele>
        <time>2020-09-01T07:10:16Z</time>
      </trkpt>
      <trkpt lat="45.17096" lon="-0.56669">
        <ele>22.8</ele>
        <time>2020-09-01T07:10:17Z</time>
      </trkpt>
      <trkpt lat="45.17096" lon="-0.56668">
        <ele>22.8</ele>
        <time>2020-09-01T07:10:18Z</time>
      </trkpt>
      <trkpt lat="45.17096" lon="-0.56666">
        <ele>22.8</ele>
        <time>2020-09-01T07:10:19Z</time>
      </trkpt>
      <trkpt lat="45.17095" lon="-0.56664">
        <ele>22.8</ele>
        <time>2020-09-01T07:10:21Z</time>
      </trkpt>
      <trkpt lat="45.17095" lon="-0.56663">
        <ele>22.8</ele>
        <time>2020-09-01T07:10:22Z</time>
      </trkpt>
      <trkpt lat="45.17094" lon="-0.5666">
        <ele>22.8</ele>
        <time>2020-09-01T07:10:23Z</time>
      </trkpt>
      <trkpt lat="45.17093" lon="-0.56657">
        <ele>22.8</ele>
        <time>2020-09-01T07:10:25Z</time>
      </trkpt>
      <trkpt lat="45.17093" lon="-0.56656">
        <ele>22.8</ele>
        <time>2020-09-01T07:10:26Z</time>
      </trkpt>
      <trkpt lat="45.17092" lon="-0.56655">
        <ele>22.8</ele>
        <time>2020-09-01T07:10:27Z</time>
      </trkpt>
      <trkpt lat="45.17091" lon="-0.56652">
        <ele>22.8</ele>
        <time>2020-09-01T07:10:29Z</time>
      </trkpt>
      <trkpt lat="45.1709" lon="-0.56651">
        <ele>22.8</ele>
        <time>2020-09-01T07:10:30Z</time>
      </trkpt>
      <trkpt lat="45.1709" lon="-0.5665">
        <ele>22.7</ele>
        <time>2020-09-01T07:10:31Z</time>
      </trkpt>
      <trkpt lat="45.17089" lon="-0.56648">
        <ele>22.7</ele>
        <time>2020-09-01T07:10:32Z</time>
      </trkpt>
      <trkpt lat="45.17089" lon="-0.56647">
        <ele>22.7</ele>
        <time>2020-09-01T07:10:33Z</time>
      </trkpt>
      <trkpt lat="45.17088" lon="-0.56644">
        <ele>22.7</ele>
        <time>2020-09-01T07:10:34Z</time>
      </trkpt>
      <trkpt lat="45.17087" lon="-0.56643">
        <ele>22.7</ele>
        <time>2020-09-01T07:10:35Z</time>
      </trkpt>
      <trkpt lat="45.17087" lon="-0.56642">
        <ele>22.7</ele>
        <time>2020-09-01T07:10:36Z</time>
      </trkpt>
      <trkpt lat="45.17086" lon="-0.56641">
        <ele>22.7</ele>
        <time>2020-09-01T07:10:38Z</time>
      </trkpt>
      <trkpt lat="45.17085" lon="-0.5664">
        <ele>22.7</ele>
        <time>2020-09-01T07:10:39Z</time>
      </trkpt>
      <trkpt lat="45.17085" lon="-0.56639">
        <ele>22.7</ele>
        <time>2020-09-01T07:10:40Z</time>
      </trkpt>
      <trkpt lat="45.17084" lon="-0.56637">
        <ele>22.7</ele>
        <time>2020-09-01T07:10:41Z</time>
      </trkpt>
      <trkpt lat="45.17084" lon="-0.56635">
        <ele>22.7</ele>
        <time>2020-09-01T07:10:42Z</time>
      </trkpt>
      <trkpt lat="45.17083" lon="-0.56633">
        <ele>22.7</ele>
        <time>2020-09-01T07:10:43Z</time>
      </trkpt>
      <trkpt lat="45.17085" lon="-0.56631">
        <ele>22.7</ele>
        <time>2020-09-01T07:10:45Z</time>
      </trkpt>
      <trkpt lat="45.17084" lon="-0.56628">
        <ele>22.7</ele>
        <time>2020-09-01T07:10:47Z</time>
      </trkpt>
      <trkpt lat="45.17083" lon="-0.56627">
        <ele>22.7</ele>
        <time>2020-09-01T07:10:48Z</time>
      </trkpt>
      <trkpt lat="45.17082" lon="-0.56624">
        <ele>22.7</ele>
        <time>2020-09-01T07:10:49Z</time>
      </trkpt>
      <trkpt lat="45.17082" lon="-0.56623">
        <ele>22.7</ele>
        <time>2020-09-01T07:10:50Z</time>
      </trkpt>
      <trkpt lat="45.17082" lon="-0.56622">
        <ele>22.7</ele>
        <time>2020-09-01T07:10:51Z</time>
      </trkpt>
      <trkpt lat="45.17081" lon="-0.5662">
        <ele>22.7</ele>
        <time>2020-09-01T07:10:53Z</time>
      </trkpt>
      <trkpt lat="45.1708" lon="-0.56619">
        <ele>22.7</ele>
        <time>2020-09-01T07:10:54Z</time>
      </trkpt>
      <trkpt lat="45.17079" lon="-0.56617">
        <ele>22.7</ele>
        <time>2020-09-01T07:10:55Z</time>
      </trkpt>
      <trkpt lat="45.17078" lon="-0.56615">
        <ele>22.7</ele>
        <time>2020-09-01T07:10:56Z</time>
      </trkpt>
      <trkpt lat="45.17078" lon="-0.56614">
        <ele>22.7</ele>
        <time>2020-09-01T07:10:57Z</time>
      </trkpt>
      <trkpt lat="45.17077" lon="-0.56612">
        <ele>22.7</ele>
        <time>2020-09-01T07:10:58Z</time>
      </trkpt>
      <trkpt lat="45.17076" lon="-0.5661">
        <ele>22.7</ele>
        <time>2020-09-01T07:10:59Z</time>
      </trkpt>
      <trkpt lat="45.17075" lon="-0.56607">
        <ele>22.7</ele>
        <time>2020-09-01T07:11:00Z</time>
      </trkpt>
      <trkpt lat="45.17075" lon="-0.56606">
        <ele>22.7</ele>
        <time>2020-09-01T07:11:01Z</time>
      </trkpt>
      <trkpt lat="45.17074" lon="-0.56604">
        <ele>22.7</ele>
        <time>2020-09-01T07:11:02Z</time>
      </trkpt>
      <trkpt lat="45.17073" lon="-0.56602">
        <ele>22.7</ele>
        <time>2020-09-01T07:11:04Z</time>
      </trkpt>
      <trkpt lat="45.17073" lon="-0.56602">
        <ele>22.7</ele>
        <time>2020-09-01T07:11:05Z</time>
      </trkpt>
      <trkpt lat="45.17072" lon="-0.566">
        <ele>22.7</ele>
        <time>2020-09-01T07:11:07Z</time>
      </trkpt>
      <trkpt lat="45.17071" lon="-0.56597">
        <ele>22.7</ele>
        <time>2020-09-01T07:11:08Z</time>
      </trkpt>
      <trkpt lat="45.1707" lon="-0.56595">
        <ele>22.7</ele>
        <time>2020-09-01T07:11:09Z</time>
      </trkpt>
      <trkpt lat="45.1707" lon="-0.56593">
        <ele>22.7</ele>
        <time>2020-09-01T07:11:10Z</time>
      </trkpt>
      <trkpt lat="45.17069" lon="-0.56591">
        <ele>22.7</ele>
        <time>2020-09-01T07:11:11Z</time>
      </trkpt>
      <trkpt lat="45.17069" lon="-0.56589">
        <ele>22.7</ele>
        <time>2020-09-01T07:11:13Z</time>
      </trkpt>
      <trkpt lat="45.17068" lon="-0.56587">
        <ele>22.7</ele>
        <time>2020-09-01T07:11:14Z</time>
      </trkpt>
      <trkpt lat="45.17067" lon="-0.56585">
        <ele>22.7</ele>
        <time>2020-09-01T07:11:15Z</time>
      </trkpt>
      <trkpt lat="45.17067" lon="-0.56583">
        <ele>22.7</ele>
        <time>2020-09-01T07:11:16Z</time>
      </trkpt>
      <trkpt lat="45.17066" lon="-0.5658">
        <ele>22.7</ele>
        <time>2020-09-01T07:11:17Z</time>
      </trkpt>
      <trkpt lat="45.17065" lon="-0.56578">
        <ele>22.7</ele>
        <time>2020-09-01T07:11:19Z</time>
      </trkpt>
      <trkpt lat="45.17065" lon="-0.56575">
        <ele>22.7</ele>
        <time>2020-09-01T07:11:20Z</time>
      </trkpt>
      <trkpt lat="45.17064" lon="-0.56573">
        <ele>22.7</ele>
        <time>2020-09-01T07:11:22Z</time>
      </trkpt>
      <trkpt lat="45.17064" lon="-0.56571">
        <ele>22.7</ele>
        <time>2020-09-01T07:11:23Z</time>
      </trkpt>
      <trkpt lat="45.17064" lon="-0.56569">
        <ele>22.7</ele>
        <time>2020-09-01T07:11:25Z</time>
      </trkpt>
      <trkpt lat="45.17063" lon="-0.56567">
        <ele>22.7</ele>
        <time>2020-09-01T07:11:26Z</time>
      </trkpt>
      <trkpt lat="45.17063" lon="-0.56565">
        <ele>22.7</ele>
        <time>2020-09-01T07:11:27Z</time>
      </trkpt>
      <trkpt lat="45.17063" lon="-0.56564">
        <ele>22.7</ele>
        <time>2020-09-01T07:11:28Z</time>
      </trkpt>
      <trkpt lat="45.17063" lon="-0.56562">
        <ele>22.7</ele>
        <time>2020-09-01T07:11:30Z</time>
      </trkpt>
      <trkpt lat="45.17063" lon="-0.56559">
        <ele>22.7</ele>
        <time>2020-09-01T07:11:31Z</time>
      </trkpt>
      <trkpt lat="45.17063" lon="-0.56557">
        <ele>22.7</ele>
        <time>2020-09-01T07:11:32Z</time>
      </trkpt>
      <trkpt lat="45.17063" lon="-0.56555">
        <ele>22.7</ele>
        <time>2020-09-01T07:11:33Z</time>
      </trkpt>
      <trkpt lat="45.17063" lon="-0.56552">
        <ele>22.7</ele>
        <time>2020-09-01T07:11:34Z</time>
      </trkpt>
      <trkpt lat="45.17064" lon="-0.5655">
        <ele>22.7</ele>
        <time>2020-09-01T07:11:35Z</time>
      </trkpt>
      <trkpt lat="45.17064" lon="-0.56549">
        <ele>22.7</ele>
        <time>2020-09-01T07:11:37Z</time>
      </trkpt>
      <trkpt lat="45.17064" lon="-0.56547">
        <ele>22.7</ele>
        <time>2020-09-01T07:11:38Z</time>
      </trkpt>
      <trkpt lat="45.17064" lon="-0.56546">
        <ele>22.7</ele>
        <time>2020-09-01T07:11:39Z</time>
      </trkpt>
      <trkpt lat="45.17064" lon="-0.56545">
        <ele>22.7</ele>
        <time>2020-09-01T07:11:40Z</time>
      </trkpt>
      <trkpt lat="45.17064" lon="-0.56544">
        <ele>22.7</ele>
        <time>2020-09-01T07:11:42Z</time>
      </trkpt>
      <trkpt lat="45.17064" lon="-0.56544">
        <ele>22.7</ele>
        <time>2020-09-01T07:11:44Z</time>
      </trkpt>
      <trkpt lat="45.17064" lon="-0.56545">
        <ele>22.7</ele>
        <time>2020-09-01T07:11:46Z</time>
      </trkpt>
      <trkpt lat="45.17064" lon="-0.56545">
        <ele>22.7</ele>
        <time>2020-09-01T07:11:47Z</time>
      </trkpt>
      <trkpt lat="45.17063" lon="-0.56545">
        <ele>22.7</ele>
        <time>2020-09-01T07:11:49Z</time>
      </trkpt>
      <trkpt lat="45.17063" lon="-0.56547">
        <ele>22.7</ele>
        <time>2020-09-01T07:11:50Z</time>
      </trkpt>
      <trkpt lat="45.17063" lon="-0.56546">
        <ele>22.7</ele>
        <time>2020-09-01T07:11:51Z</time>
      </trkpt>
      <trkpt lat="45.17063" lon="-0.56545">
        <ele>22.7</ele>
        <time>2020-09-01T07:11:52Z</time>
      </trkpt>
      <trkpt lat="45.17063" lon="-0.56545">
        <ele>22.7</ele>
        <time>2020-09-01T07:11:54Z</time>
      </trkpt>
      <trkpt lat="45.17064" lon="-0.56544">
        <ele>22.7</ele>
        <time>2020-09-01T07:11:55Z</time>
      </trkpt>
      <trkpt lat="45.17065" lon="-0.56543">
        <ele>22.7</ele>
        <time>2020-09-01T07:11:56Z</time>
      </trkpt>
      <trkpt lat="45.17065" lon="-0.56541">
        <ele>22.7</ele>
        <time>2020-09-01T07:11:57Z</time>
      </trkpt>
      <trkpt lat="45.17066" lon="-0.56538">
        <ele>22.7</ele>
        <time>2020-09-01T07:11:58Z</time>
      </trkpt>
      <trkpt lat="45.17066" lon="-0.56535">
        <ele>22.7</ele>
        <time>2020-09-01T07:11:59Z</time>
      </trkpt>
      <trkpt lat="45.17066" lon="-0.56533">
        <ele>22.6</ele>
        <time>2020-09-01T07:12:00Z</time>
      </trkpt>
      <trkpt lat="45.17066" lon="-0.56532">
        <ele>22.6</ele>
        <time>2020-09-01T07:12:01Z</time>
      </trkpt>
      <trkpt lat="45.17066" lon="-0.56531">
        <ele>22.6</ele>
        <time>2020-09-01T07:12:02Z</time>
      </trkpt>
      <trkpt lat="45.17067" lon="-0.56529">
        <ele>22.6</ele>
        <time>2020-09-01T07:12:04Z</time>
      </trkpt>
      <trkpt lat="45.17067" lon="-0.56525">
        <ele>22.6</ele>
        <time>2020-09-01T07:12:05Z</time>
      </trkpt>
      <trkpt lat="45.17067" lon="-0.56523">
        <ele>22.6</ele>
        <time>2020-09-01T07:12:07Z</time>
      </trkpt>
      <trkpt lat="45.17068" lon="-0.56521">
        <ele>22.6</ele>
        <time>2020-09-01T07:12:08Z</time>
      </trkpt>
      <trkpt lat="45.17068" lon="-0.56519">
        <ele>22.6</ele>
        <time>2020-09-01T07:12:09Z</time>
      </trkpt>
      <trkpt lat="45.17069" lon="-0.56516">
        <ele>22.6</ele>
        <time>2020-09-01T07:12:10Z</time>
      </trkpt>
      <trkpt lat="45.1707" lon="-0.56514">
        <ele>22.6</ele>
        <time>2020-09-01T07:12:11Z</time>
      </trkpt>
      <trkpt lat="45.1707" lon="-0.56512">
        <ele>22.6</ele>
        <time>2020-09-01T07:12:12Z</time>
      </trkpt>
      <trkpt lat="45.17071" lon="-0.5651">
        <ele>22.6</ele>
        <time>2020-09-01T07:12:13Z</time>
      </trkpt>
      <trkpt lat="45.17071" lon="-0.56506">
        <ele>22.6</ele>
        <time>2020-09-01T07:12:14Z</time>
      </trkpt>
      <trkpt lat="45.17071" lon="-0.56505">
        <ele>22.6</ele>
        <time>2020-09-01T07:12:15Z</time>
      </trkpt>
      <trkpt lat="45.17072" lon="-0.56504">
        <ele>22.6</ele>
        <time>2020-09-01T07:12:16Z</time>
      </trkpt>
      <trkpt lat="45.17072" lon="-0.56502">
        <ele>22.6</ele>
        <time>2020-09-01T07:12:18Z</time>
      </trkpt>
      <trkpt lat="45.17072" lon="-0.56501">
        <ele>22.6</ele>
        <time>2020-09-01T07:12:19Z</time>
      </trkpt>
      <trkpt lat="45.17072" lon="-0.56499">
        <ele>22.6</ele>
        <time>2020-09-01T07:12:20Z</time>
      </trkpt>
      <trkpt lat="45.17073" lon="-0.56497">
        <ele>22.6</ele>
        <time>2020-09-01T07:12:21Z</time>
      </trkpt>
      <trkpt lat="45.17073" lon="-0.56495">
        <ele>22.6</ele>
        <time>2020-09-01T07:12:22Z</time>
      </trkpt>
      <trkpt lat="45.17073" lon="-0.56494">
        <ele>22.6</ele>
        <time>2020-09-01T07:12:23Z</time>
      </trkpt>
      <trkpt lat="45.17073" lon="-0.56492">
        <ele>22.6</ele>
        <time>2020-09-01T07:12:24Z</time>
      </trkpt>
      <trkpt lat="45.17074" lon="-0.56489">
        <ele>22.6</ele>
        <time>2020-09-01T07:12:25Z</time>
      </trkpt>
      <trkpt lat="45.17074" lon="-0.56488">
        <ele>22.6</ele>
        <time>2020-09-01T07:12:26Z</time>
      </trkpt>
      <trkpt lat="45.17074" lon="-0.56487">
        <ele>22.6</ele>
        <time>2020-09-01T07:12:27Z</time>
      </trkpt>
      <trkpt lat="45.17074" lon="-0.56485">
        <ele>22.6</ele>
        <time>2020-09-01T07:12:28Z</time>
      </trkpt>
      <trkpt lat="45.17075" lon="-0.56483">
        <ele>22.6</ele>
        <time>2020-09-01T07:12:29Z</time>
      </trkpt>
      <trkpt lat="45.17075" lon="-0.5648">
        <ele>22.6</ele>
        <time>2020-09-01T07:12:30Z</time>
      </trkpt>
      <trkpt lat="45.17075" lon="-0.56478">
        <ele>22.6</ele>
        <time>2020-09-01T07:12:32Z</time>
      </trkpt>
      <trkpt lat="45.17075" lon="-0.56476">
        <ele>22.6</ele>
        <time>2020-09-01T07:12:33Z</time>
      </trkpt>
      <trkpt lat="45.17076" lon="-0.56473">
        <ele>22.6</ele>
        <time>2020-09-01T07:12:34Z</time>
      </trkpt>
      <trkpt lat="45.17076" lon="-0.5647">
        <ele>22.6</ele>
        <time>2020-09-01T07:12:35Z</time>
      </trkpt>
      <trkpt lat="45.17076" lon="-0.56469">
        <ele>22.6</ele>
        <time>2020-09-01T07:12:36Z</time>
      </trkpt>
      <trkpt lat="45.17076" lon="-0.56467">
        <ele>22.6</ele>
        <time>2020-09-01T07:12:37Z</time>
      </trkpt>
      <trkpt lat="45.17076" lon="-0.56465">
        <ele>22.6</ele>
        <time>2020-09-01T07:12:38Z</time>
      </trkpt>
      <trkpt lat="45.17075" lon="-0.56463">
        <ele>22.6</ele>
        <time>2020-09-01T07:12:40Z</time>
      </trkpt>
      <trkpt lat="45.17076" lon="-0.56462">
        <ele>22.6</ele>
        <time>2020-09-01T07:12:41Z</time>
      </trkpt>
      <trkpt lat="45.17076" lon="-0.5646">
        <ele>22.6</ele>
        <time>2020-09-01T07:12:42Z</time>
      </trkpt>
      <trkpt lat="45.17076" lon="-0.56458">
        <ele>22.6</ele>
        <time>2020-09-01T07:12:43Z</time>
      </trkpt>
      <trkpt lat="45.17076" lon="-0.56455">
        <ele>22.6</ele>
        <time>2020-09-01T07:12:45Z</time>
      </trkpt>
      <trkpt lat="45.17077" lon="-0.56453">
        <ele>22.6</ele>
        <time>2020-09-01T07:12:47Z</time>
      </trkpt>
      <trkpt lat="45.17077" lon="-0.56451">
        <ele>22.6</ele>
        <time>2020-09-01T07:12:49Z</time>
      </trkpt>
      <trkpt lat="45.17078" lon="-0.56448">
        <ele>22.6</ele>
        <time>2020-09-01T07:12:50Z</time>
      </trkpt>
      <trkpt lat="45.17078" lon="-0.56447">
        <ele>22.6</ele>
        <time>2020-09-01T07:12:51Z</time>
      </trkpt>
      <trkpt lat="45.17079" lon="-0.56444">
        <ele>22.6</ele>
        <time>2020-09-01T07:12:53Z</time>
      </trkpt>
      <trkpt lat="45.17079" lon="-0.56442">
        <ele>22.6</ele>
        <time>2020-09-01T07:12:54Z</time>
      </trkpt>
      <trkpt lat="45.17079" lon="-0.5644">
        <ele>22.6</ele>
        <time>2020-09-01T07:12:55Z</time>
      </trkpt>
      <trkpt lat="45.1708" lon="-0.56438">
        <ele>22.6</ele>
        <time>2020-09-01T07:12:56Z</time>
      </trkpt>
      <trkpt lat="45.1708" lon="-0.56436">
        <ele>22.6</ele>
        <time>2020-09-01T07:12:57Z</time>
      </trkpt>
      <trkpt lat="45.1708" lon="-0.56433">
        <ele>22.6</ele>
        <time>2020-09-01T07:12:59Z</time>
      </trkpt>
      <trkpt lat="45.17081" lon="-0.5643">
        <ele>22.6</ele>
        <time>2020-09-01T07:13:00Z</time>
      </trkpt>
      <trkpt lat="45.17081" lon="-0.56429">
        <ele>22.6</ele>
        <time>2020-09-01T07:13:01Z</time>
      </trkpt>
      <trkpt lat="45.17081" lon="-0.56428">
        <ele>22.6</ele>
        <time>2020-09-01T07:13:02Z</time>
      </trkpt>
      <trkpt lat="45.17081" lon="-0.56426">
        <ele>22.6</ele>
        <time>2020-09-01T07:13:03Z</time>
      </trkpt>
      <trkpt lat="45.17082" lon="-0.56425">
        <ele>22.6</ele>
        <time>2020-09-01T07:13:04Z</time>
      </trkpt>
      <trkpt lat="45.17082" lon="-0.56423">
        <ele>22.6</ele>
        <time>2020-09-01T07:13:05Z</time>
      </trkpt>
      <trkpt lat="45.17082" lon="-0.56422">
        <ele>22.6</ele>
        <time>2020-09-01T07:13:06Z</time>
      </trkpt>
      <trkpt lat="45.17082" lon="-0.5642">
        <ele>22.6</ele>
        <time>2020-09-01T07:13:08Z</time>
      </trkpt>
      <trkpt lat="45.17083" lon="-0.56419">
        <ele>22.6</ele>
        <time>2020-09-01T07:13:09Z</time>
      </trkpt>
      <trkpt lat="45.17084" lon="-0.56415">
        <ele>22.6</ele>
        <time>2020-09-01T07:13:10Z</time>
      </trkpt>
      <trkpt lat="45.17085" lon="-0.56411">
        <ele>22.6</ele>
        <time>2020-09-01T07:13:11Z</time>
      </trkpt>
      <trkpt lat="45.17085" lon="-0.5641">
        <ele>22.6</ele>
        <time>2020-09-01T07:13:12Z</time>
      </trkpt>
      <trkpt lat="45.17085" lon="-0.56409">
        <ele>22.6</ele>
        <time>2020-09-01T07:13:13Z</time>
      </trkpt>
      <trkpt lat="45.17085" lon="-0.56406">
        <ele>22.6</ele>
        <time>2020-09-01T07:13:15Z</time>
      </trkpt>
      <trkpt lat="45.17085" lon="-0.56403">
        <ele>22.6</ele>
        <time>2020-09-01T07:13:16Z</time>
      </trkpt>
      <trkpt lat="45.17085" lon="-0.56401">
        <ele>22.5</ele>
        <time>2020-09-01T07:13:17Z</time>
      </trkpt>
      <trkpt lat="45.17085" lon="-0.56397">
        <ele>22.5</ele>
        <time>2020-09-01T07:13:19Z</time>
      </trkpt>
      <trkpt lat="45.17085" lon="-0.56395">
        <ele>22.5</ele>
        <time>2020-09-01T07:13:20Z</time>
      </trkpt>
      <trkpt lat="45.17085" lon="-0.56393">
        <ele>22.5</ele>
        <time>2020-09-01T07:13:21Z</time>
      </trkpt>
      <trkpt lat="45.17085" lon="-0.5639">
        <ele>22.5</ele>
        <time>2020-09-01T07:13:23Z</time>
      </trkpt>
      <trkpt lat="45.17085" lon="-0.56388">
        <ele>22.5</ele>
        <time>2020-09-01T07:13:24Z</time>
      </trkpt>
      <trkpt lat="45.17085" lon="-0.56385">
        <ele>22.5</ele>
        <time>2020-09-01T07:13:26Z</time>
      </trkpt>
      <trkpt lat="45.17084" lon="-0.56381">
        <ele>22.5</ele>
        <time>2020-09-01T07:13:27Z</time>
      </trkpt>
      <trkpt lat="45.17084" lon="-0.56379">
        <ele>22.5</ele>
        <time>2020-09-01T07:13:29Z</time>
      </trkpt>
      <trkpt lat="45.17084" lon="-0.56377">
        <ele>22.5</ele>
        <time>2020-09-01T07:13:31Z</time>
      </trkpt>
      <trkpt lat="45.17083" lon="-0.56375">
        <ele>22.5</ele>
        <time>2020-09-01T07:13:32Z</time>
      </trkpt>
      <trkpt lat="45.17084" lon="-0.56371">
        <ele>22.5</ele>
        <time>2020-09-01T07:13:34Z</time>
      </trkpt>
      <trkpt lat="45.17084" lon="-0.5637">
        <ele>22.5</ele>
        <time>2020-09-01T07:13:35Z</time>
      </trkpt>
      <trkpt lat="45.17085" lon="-0.56366">
        <ele>22.5</ele>
        <time>2020-09-01T07:13:37Z</time>
      </trkpt>
      <trkpt lat="45.17085" lon="-0.56365">
        <ele>22.5</ele>
        <time>2020-09-01T07:13:38Z</time>
      </trkpt>
      <trkpt lat="45.17085" lon="-0.56363">
        <ele>22.5</ele>
        <time>2020-09-01T07:13:39Z</time>
      </trkpt>
      <trkpt lat="45.17087" lon="-0.56359">
        <ele>22.5</ele>
        <time>2020-09-01T07:13:41Z</time>
      </trkpt>
      <trkpt lat="45.17087" lon="-0.56356">
        <ele>22.5</ele>
        <time>2020-09-01T07:13:43Z</time>
      </trkpt>
      <trkpt lat="45.17087" lon="-0.56354">
        <ele>22.5</ele>
        <time>2020-09-01T07:13:44Z</time>
      </trkpt>
      <trkpt lat="45.17088" lon="-0.56352">
        <ele>22.5</ele>
        <time>2020-09-01T07:13:46Z</time>
      </trkpt>
      <trkpt lat="45.1709" lon="-0.5635">
        <ele>22.5</ele>
        <time>2020-09-01T07:13:48Z</time>
      </trkpt>
      <trkpt lat="45.1709" lon="-0.56348">
        <ele>22.5</ele>
        <time>2020-09-01T07:13:49Z</time>
      </trkpt>
      <trkpt lat="45.17091" lon="-0.56348">
        <ele>22.5</ele>
        <time>2020-09-01T07:13:50Z</time>
      </trkpt>
      <trkpt lat="45.17092" lon="-0.56347">
        <ele>22.5</ele>
        <time>2020-09-01T07:13:52Z</time>
      </trkpt>
      <trkpt lat="45.17093" lon="-0.56345">
        <ele>22.5</ele>
        <time>2020-09-01T07:13:53Z</time>
      </trkpt>
      <trkpt lat="45.17096" lon="-0.56343">
        <ele>22.5</ele>
        <time>2020-09-01T07:13:55Z</time>
      </trkpt>
      <trkpt lat="45.17098" lon="-0.56342">
        <ele>22.5</ele>
        <time>2020-09-01T07:13:56Z</time>
      </trkpt>
      <trkpt lat="45.17099" lon="-0.56342">
        <ele>22.5</ele>
        <time>2020-09-01T07:13:57Z</time>
      </trkpt>
      <trkpt lat="45.17101" lon="-0.56341">
        <ele>22.5</ele>
        <time>2020-09-01T07:13:58Z</time>
      </trkpt>
      <trkpt lat="45.17102" lon="-0.56341">
        <ele>22.5</ele>
        <time>2020-09-01T07:13:59Z</time>
      </trkpt>
      <trkpt lat="45.17103" lon="-0.5634">
        <ele>22.5</ele>
        <time>2020-09-01T07:14:00Z</time>
      </trkpt>
      <trkpt lat="45.17105" lon="-0.56339">
        <ele>22.5</ele>
        <time>2020-09-01T07:14:02Z</time>
      </trkpt>
      <trkpt lat="45.17106" lon="-0.56338">
        <ele>22.5</ele>
        <time>2020-09-01T07:14:03Z</time>
      </trkpt>
      <trkpt lat="45.17107" lon="-0.56337">
        <ele>22.5</ele>
        <time>2020-09-01T07:14:04Z</time>
      </trkpt>
      <trkpt lat="45.17108" lon="-0.56334">
        <ele>22.5</ele>
        <time>2020-09-01T07:14:05Z</time>
      </trkpt>
      <trkpt lat="45.17108" lon="-0.5633">
        <ele>22.5</ele>
        <time>2020-09-01T07:14:07Z</time>
      </trkpt>
      <trkpt lat="45.17109" lon="-0.56328">
        <ele>22.5</ele>
        <time>2020-09-01T07:14:08Z</time>
      </trkpt>
      <trkpt lat="45.17109" lon="-0.56325">
        <ele>22.5</ele>
        <time>2020-09-01T07:14:10Z</time>
      </trkpt>
      <trkpt lat="45.17109" lon="-0.56323">
        <ele>22.5</ele>
        <time>2020-09-01T07:14:11Z</time>
      </trkpt>
      <trkpt lat="45.1711" lon="-0.56322">
        <ele>22.5</ele>
        <time>2020-09-01T07:14:12Z</time>
      </trkpt>
      <trkpt lat="45.1711" lon="-0.56321">
        <ele>22.5</ele>
        <time>2020-09-01T07:14:13Z</time>
      </trkpt>
      <trkpt lat="45.17111" lon="-0.56318">
        <ele>22.5</ele>
        <time>2020-09-01T07:14:15Z</time>
      </trkpt>
      <trkpt lat="45.17111" lon="-0.56316">
        <ele>22.5</ele>
        <time>2020-09-01T07:14:16Z</time>
      </trkpt>
      <trkpt lat="45.17111" lon="-0.56315">
        <ele>22.5</ele>
        <time>2020-09-01T07:14:17Z</time>
      </trkpt>
      <trkpt lat="45.17111" lon="-0.56313">
        <ele>22.5</ele>
        <time>2020-09-01T07:14:18Z</time>
      </trkpt>
      <trkpt lat="45.1711" lon="-0.5631">
        <ele>22.5</ele>
        <time>2020-09-01T07:14:20Z</time>
      </trkpt>
      <trkpt lat="45.17109" lon="-0.56305">
        <ele>22.5</ele>
        <time>2020-09-01T07:14:22Z</time>
      </trkpt>
      <trkpt lat="45.17109" lon="-0.56304">
        <ele>22.5</ele>
        <time>2020-09-01T07:14:23Z</time>
      </trkpt>
      <trkpt lat="45.17109" lon="-0.56302">
        <ele>22.5</ele>
        <time>2020-09-01T07:14:24Z</time>
      </trkpt>
      <trkpt lat="45.17108" lon="-0.563">
        <ele>22.5</ele>
        <time>2020-09-01T07:14:25Z</time>
      </trkpt>
      <trkpt lat="45.17108" lon="-0.56297">
        <ele>22.5</ele>
        <time>2020-09-01T07:14:27Z</time>
      </trkpt>
      <trkpt lat="45.17107" lon="-0.56296">
        <ele>22.6</ele>
        <time>2020-09-01T07:14:28Z</time>
      </trkpt>
      <trkpt lat="45.17106" lon="-0.56293">
        <ele>22.6</ele>
        <time>2020-09-01T07:14:30Z</time>
      </trkpt>
      <trkpt lat="45.17105" lon="-0.56291">
        <ele>22.6</ele>
        <time>2020-09-01T07:14:31Z</time>
      </trkpt>
      <trkpt lat="45.17104" lon="-0.56291">
        <ele>22.6</ele>
        <time>2020-09-01T07:14:32Z</time>
      </trkpt>
      <trkpt lat="45.17103" lon="-0.5629">
        <ele>22.6</ele>
        <time>2020-09-01T07:14:33Z</time>
      </trkpt>
      <trkpt lat="45.17102" lon="-0.56289">
        <ele>22.6</ele>
        <time>2020-09-01T07:14:34Z</time>
      </trkpt>
      <trkpt lat="45.17099" lon="-0.56287">
        <ele>22.6</ele>
        <time>2020-09-01T07:14:36Z</time>
      </trkpt>
      <trkpt lat="45.17099" lon="-0.56286">
        <ele>22.6</ele>
        <time>2020-09-01T07:14:37Z</time>
      </trkpt>
      <trkpt lat="45.17098" lon="-0.56285">
        <ele>22.6</ele>
        <time>2020-09-01T07:14:38Z</time>
      </trkpt>
      <trkpt lat="45.17096" lon="-0.56282">
        <ele>22.6</ele>
        <time>2020-09-01T07:14:40Z</time>
      </trkpt>
      <trkpt lat="45.17093" lon="-0.56279">
        <ele>22.6</ele>
        <time>2020-09-01T07:14:41Z</time>
      </trkpt>
      <trkpt lat="45.17093" lon="-0.56279">
        <ele>22.6</ele>
        <time>2020-09-01T07:14:42Z</time>
      </trkpt>
      <trkpt lat="45.17091" lon="-0.56277">
        <ele>22.6</ele>
        <time>2020-09-01T07:14:44Z</time>
      </trkpt>
      <trkpt lat="45.1709" lon="-0.56276">
        <ele>22.6</ele>
        <time>2020-09-01T07:14:45Z</time>
      </trkpt>
      <trkpt lat="45.1709" lon="-0.56276">
        <ele>22.6</ele>
        <time>2020-09-01T07:14:46Z</time>
      </trkpt>
      <trkpt lat="45.1709" lon="-0.56275">
        <ele>22.6</ele>
        <time>2020-09-01T07:14:47Z</time>
      </trkpt>
      <trkpt lat="45.17089" lon="-0.56274">
        <ele>22.6</ele>
        <time>2020-09-01T07:14:48Z</time>
      </trkpt>
      <trkpt lat="45.17088" lon="-0.56271">
        <ele>22.6</ele>
        <time>2020-09-01T07:14:50Z</time>
      </trkpt>
      <trkpt lat="45.17087" lon="-0.56267">
        <ele>22.6</ele>
        <time>2020-09-01T07:14:51Z</time>
      </trkpt>
      <trkpt lat="45.17086" lon="-0.56265">
        <ele>22.6</ele>
        <time>2020-09-01T07:14:52Z</time>
      </trkpt>
      <trkpt lat="45.17086" lon="-0.56264">
        <ele>22.6</ele>
        <time>2020-09-01T07:14:53Z</time>
      </trkpt>
      <trkpt lat="45.17085" lon="-0.56262">
        <ele>22.7</ele>
        <time>2020-09-01T07:14:54Z</time>
      </trkpt>
      <trkpt lat="45.17083" lon="-0.5626">
        <ele>22.7</ele>
        <time>2020-09-01T07:14:55Z</time>
      </trkpt>
      <trkpt lat="45.17081" lon="-0.56258">
        <ele>22.7</ele>
        <time>2020-09-01T07:14:57Z</time>
      </trkpt>
      <trkpt lat="45.17081" lon="-0.56257">
        <ele>22.7</ele>
        <time>2020-09-01T07:14:58Z</time>
      </trkpt>
      <trkpt lat="45.17079" lon="-0.56254">
        <ele>22.7</ele>
        <time>2020-09-01T07:15:00Z</time>
      </trkpt>
      <trkpt lat="45.17078" lon="-0.56252">
        <ele>22.7</ele>
        <time>2020-09-01T07:15:01Z</time>
      </trkpt>
      <trkpt lat="45.17078" lon="-0.5625">
        <ele>22.7</ele>
        <time>2020-09-01T07:15:02Z</time>
      </trkpt>
      <trkpt lat="45.17077" lon="-0.56249">
        <ele>22.7</ele>
        <time>2020-09-01T07:15:03Z</time>
      </trkpt>
      <trkpt lat="45.17075" lon="-0.56247">
        <ele>22.7</ele>
        <time>2020-09-01T07:15:05Z</time>
      </trkpt>
      <trkpt lat="45.17074" lon="-0.56245">
        <ele>22.7</ele>
        <time>2020-09-01T07:15:06Z</time>
      </trkpt>
      <trkpt lat="45.17074" lon="-0.56244">
        <ele>22.7</ele>
        <time>2020-09-01T07:15:07Z</time>
      </trkpt>
      <trkpt lat="45.17072" lon="-0.56243">
        <ele>22.7</ele>
        <time>2020-09-01T07:15:09Z</time>
      </trkpt>
      <trkpt lat="45.17071" lon="-0.56242">
        <ele>22.7</ele>
        <time>2020-09-01T07:15:10Z</time>
      </trkpt>
      <trkpt lat="45.17069" lon="-0.56239">
        <ele>22.7</ele>
        <time>2020-09-01T07:15:12Z</time>
      </trkpt>
      <trkpt lat="45.17068" lon="-0.56238">
        <ele>22.7</ele>
        <time>2020-09-01T07:15:13Z</time>
      </trkpt>
      <trkpt lat="45.17066" lon="-0.56237">
        <ele>22.7</ele>
        <time>2020-09-01T07:15:14Z</time>
      </trkpt>
      <trkpt lat="45.17065" lon="-0.56234">
        <ele>22.7</ele>
        <time>2020-09-01T07:15:15Z</time>
      </trkpt>
      <trkpt lat="45.17064" lon="-0.56232">
        <ele>22.7</ele>
        <time>2020-09-01T07:15:16Z</time>
      </trkpt>
      <trkpt lat="45.17063" lon="-0.56231">
        <ele>22.7</ele>
        <time>2020-09-01T07:15:18Z</time>
      </trkpt>
      <trkpt lat="45.17062" lon="-0.56229">
        <ele>22.7</ele>
        <time>2020-09-01T07:15:19Z</time>
      </trkpt>
      <trkpt lat="45.17061" lon="-0.56228">
        <ele>22.8</ele>
        <time>2020-09-01T07:15:20Z</time>
      </trkpt>
      <trkpt lat="45.1706" lon="-0.56226">
        <ele>22.8</ele>
        <time>2020-09-01T07:15:21Z</time>
      </trkpt>
      <trkpt lat="45.17059" lon="-0.56225">
        <ele>22.8</ele>
        <time>2020-09-01T07:15:22Z</time>
      </trkpt>
      <trkpt lat="45.17058" lon="-0.56223">
        <ele>22.8</ele>
        <time>2020-09-01T07:15:23Z</time>
      </trkpt>
      <trkpt lat="45.17055" lon="-0.56221">
        <ele>22.8</ele>
        <time>2020-09-01T07:15:25Z</time>
      </trkpt>
      <trkpt lat="45.17054" lon="-0.5622">
        <ele>22.8</ele>
        <time>2020-09-01T07:15:26Z</time>
      </trkpt>
      <trkpt lat="45.17052" lon="-0.56218">
        <ele>22.8</ele>
        <time>2020-09-01T07:15:27Z</time>
      </trkpt>
      <trkpt lat="45.17051" lon="-0.56217">
        <ele>22.8</ele>
        <time>2020-09-01T07:15:28Z</time>
      </trkpt>
      <trkpt lat="45.17051" lon="-0.56217">
        <ele>22.8</ele>
        <time>2020-09-01T07:15:29Z</time>
      </trkpt>
      <trkpt lat="45.17049" lon="-0.56215">
        <ele>22.8</ele>
        <time>2020-09-01T07:15:31Z</time>
      </trkpt>
      <trkpt lat="45.17048" lon="-0.56214">
        <ele>22.8</ele>
        <time>2020-09-01T07:15:32Z</time>
      </trkpt>
      <trkpt lat="45.17046" lon="-0.56212">
        <ele>22.8</ele>
        <time>2020-09-01T07:15:34Z</time>
      </trkpt>
      <trkpt lat="45.17045" lon="-0.56211">
        <ele>22.8</ele>
        <time>2020-09-01T07:15:35Z</time>
      </trkpt>
      <trkpt lat="45.17044" lon="-0.56209">
        <ele>22.8</ele>
        <time>2020-09-01T07:15:37Z</time>
      </trkpt>
      <trkpt lat="45.17043" lon="-0.56208">
        <ele>22.8</ele>
        <time>2020-09-01T07:15:38Z</time>
      </trkpt>
      <trkpt lat="45.17042" lon="-0.56206">
        <ele>22.8</ele>
        <time>2020-09-01T07:15:40Z</time>
      </trkpt>
      <trkpt lat="45.1704" lon="-0.56205">
        <ele>22.8</ele>
        <time>2020-09-01T07:15:41Z</time>
      </trkpt>
      <trkpt lat="45.17039" lon="-0.56204">
        <ele>22.8</ele>
        <time>2020-09-01T07:15:42Z</time>
      </trkpt>
      <trkpt lat="45.17038" lon="-0.56203">
        <ele>22.8</ele>
        <time>2020-09-01T07:15:43Z</time>
      </trkpt>
      <trkpt lat="45.17037" lon="-0.56201">
        <ele>22.8</ele>
        <time>2020-09-01T07:15:44Z</time>
      </trkpt>
      <trkpt lat="45.17036" lon="-0.56199">
        <ele>22.8</ele>
        <time>2020-09-01T07:15:46Z</time>
      </trkpt>
      <trkpt lat="45.17036" lon="-0.56197">
        <ele>22.8</ele>
        <time>2020-09-01T07:15:47Z</time>
      </trkpt>
      <trkpt lat="45.17035" lon="-0.56196">
        <ele>22.9</ele>
        <time>2020-09-01T07:15:48Z</time>
      </trkpt>
      <trkpt lat="45.17034" lon="-0.56195">
        <ele>22.9</ele>
        <time>2020-09-01T07:15:50Z</time>
      </trkpt>
      <trkpt lat="45.17032" lon="-0.56193">
        <ele>22.9</ele>
        <time>2020-09-01T07:15:51Z</time>
      </trkpt>
      <trkpt lat="45.17031" lon="-0.56192">
        <ele>22.9</ele>
        <time>2020-09-01T07:15:53Z</time>
      </trkpt>
      <trkpt lat="45.1703" lon="-0.56191">
        <ele>22.9</ele>
        <time>2020-09-01T07:15:54Z</time>
      </trkpt>
      <trkpt lat="45.1703" lon="-0.5619">
        <ele>22.9</ele>
        <time>2020-09-01T07:15:55Z</time>
      </trkpt>
      <trkpt lat="45.17028" lon="-0.56188">
        <ele>22.9</ele>
        <time>2020-09-01T07:15:57Z</time>
      </trkpt>
      <trkpt lat="45.17028" lon="-0.56186">
        <ele>22.9</ele>
        <time>2020-09-01T07:15:58Z</time>
      </trkpt>
      <trkpt lat="45.17027" lon="-0.56185">
        <ele>22.9</ele>
        <time>2020-09-01T07:15:59Z</time>
      </trkpt>
      <trkpt lat="45.17026" lon="-0.56185">
        <ele>22.9</ele>
        <time>2020-09-01T07:16:00Z</time>
      </trkpt>
      <trkpt lat="45.17025" lon="-0.56183">
        <ele>22.9</ele>
        <time>2020-09-01T07:16:01Z</time>
      </trkpt>
      <trkpt lat="45.17024" lon="-0.56182">
        <ele>22.9</ele>
        <time>2020-09-01T07:16:02Z</time>
      </trkpt>
      <trkpt lat="45.17023" lon="-0.56181">
        <ele>22.9</ele>
        <time>2020-09-01T07:16:03Z</time>
      </trkpt>
      <trkpt lat="45.17022" lon="-0.5618">
        <ele>22.9</ele>
        <time>2020-09-01T07:16:04Z</time>
      </trkpt>
      <trkpt lat="45.1702" lon="-0.56177">
        <ele>22.9</ele>
        <time>2020-09-01T07:16:06Z</time>
      </trkpt>
      <trkpt lat="45.17019" lon="-0.56176">
        <ele>22.9</ele>
        <time>2020-09-01T07:16:08Z</time>
      </trkpt>
      <trkpt lat="45.17018" lon="-0.56174">
        <ele>22.9</ele>
        <time>2020-09-01T07:16:09Z</time>
      </trkpt>
      <trkpt lat="45.17017" lon="-0.56173">
        <ele>22.9</ele>
        <time>2020-09-01T07:16:10Z</time>
      </trkpt>
      <trkpt lat="45.17016" lon="-0.56169">
        <ele>22.9</ele>
        <time>2020-09-01T07:16:12Z</time>
      </trkpt>
      <trkpt lat="45.17016" lon="-0.56168">
        <ele>22.9</ele>
        <time>2020-09-01T07:16:13Z</time>
      </trkpt>
      <trkpt lat="45.17015" lon="-0.56166">
        <ele>22.9</ele>
        <time>2020-09-01T07:16:14Z</time>
      </trkpt>
      <trkpt lat="45.17013" lon="-0.56164">
        <ele>22.9</ele>
        <time>2020-09-01T07:16:16Z</time>
      </trkpt>
      <trkpt lat="45.17012" lon="-0.56162">
        <ele>23</ele>
        <time>2020-09-01T07:16:17Z</time>
      </trkpt>
      <trkpt lat="45.17011" lon="-0.5616">
        <ele>23</ele>
        <time>2020-09-01T07:16:18Z</time>
      </trkpt>
      <trkpt lat="45.1701" lon="-0.56158">
        <ele>23</ele>
        <time>2020-09-01T07:16:19Z</time>
      </trkpt>
      <trkpt lat="45.17009" lon="-0.56157">
        <ele>23</ele>
        <time>2020-09-01T07:16:21Z</time>
      </trkpt>
      <trkpt lat="45.17007" lon="-0.56155">
        <ele>23</ele>
        <time>2020-09-01T07:16:22Z</time>
      </trkpt>
      <trkpt lat="45.17006" lon="-0.56153">
        <ele>23</ele>
        <time>2020-09-01T07:16:23Z</time>
      </trkpt>
      <trkpt lat="45.17005" lon="-0.56152">
        <ele>23</ele>
        <time>2020-09-01T07:16:25Z</time>
      </trkpt>
      <trkpt lat="45.17005" lon="-0.56151">
        <ele>23</ele>
        <time>2020-09-01T07:16:26Z</time>
      </trkpt>
      <trkpt lat="45.17004" lon="-0.5615">
        <ele>23</ele>
        <time>2020-09-01T07:16:27Z</time>
      </trkpt>
      <trkpt lat="45.17003" lon="-0.56148">
        <ele>23</ele>
        <time>2020-09-01T07:16:28Z</time>
      </trkpt>
      <trkpt lat="45.17002" lon="-0.56147">
        <ele>23</ele>
        <time>2020-09-01T07:16:29Z</time>
      </trkpt>
      <trkpt lat="45.17" lon="-0.56143">
        <ele>23</ele>
        <time>2020-09-01T07:16:31Z</time>
      </trkpt>
      <trkpt lat="45.17" lon="-0.56142">
        <ele>23</ele>
        <time>2020-09-01T07:16:32Z</time>
      </trkpt>
      <trkpt lat="45.16999" lon="-0.56141">
        <ele>23</ele>
        <time>2020-09-01T07:16:34Z</time>
      </trkpt>
      <trkpt lat="45.16997" lon="-0.56138">
        <ele>23</ele>
        <time>2020-09-01T07:16:36Z</time>
      </trkpt>
      <trkpt lat="45.16995" lon="-0.56135">
        <ele>23</ele>
        <time>2020-09-01T07:16:37Z</time>
      </trkpt>
      <trkpt lat="45.16994" lon="-0.56134">
        <ele>23</ele>
        <time>2020-09-01T07:16:39Z</time>
      </trkpt>
      <trkpt lat="45.16994" lon="-0.56133">
        <ele>23</ele>
        <time>2020-09-01T07:16:40Z</time>
      </trkpt>
      <trkpt lat="45.16993" lon="-0.56132">
        <ele>23</ele>
        <time>2020-09-01T07:16:41Z</time>
      </trkpt>
      <trkpt lat="45.16993" lon="-0.56131">
        <ele>23</ele>
        <time>2020-09-01T07:16:42Z</time>
      </trkpt>
      <trkpt lat="45.16992" lon="-0.56129">
        <ele>23</ele>
        <time>2020-09-01T07:16:43Z</time>
      </trkpt>
      <trkpt lat="45.16991" lon="-0.56128">
        <ele>23</ele>
        <time>2020-09-01T07:16:44Z</time>
      </trkpt>
      <trkpt lat="45.16991" lon="-0.56127">
        <ele>23</ele>
        <time>2020-09-01T07:16:45Z</time>
      </trkpt>
      <trkpt lat="45.1699" lon="-0.56125">
        <ele>23.1</ele>
        <time>2020-09-01T07:16:46Z</time>
      </trkpt>
      <trkpt lat="45.16989" lon="-0.56123">
        <ele>23.1</ele>
        <time>2020-09-01T07:16:48Z</time>
      </trkpt>
      <trkpt lat="45.16988" lon="-0.56122">
        <ele>23.1</ele>
        <time>2020-09-01T07:16:49Z</time>
      </trkpt>
      <trkpt lat="45.16987" lon="-0.5612">
        <ele>23.1</ele>
        <time>2020-09-01T07:16:50Z</time>
      </trkpt>
      <trkpt lat="45.16985" lon="-0.56117">
        <ele>23.1</ele>
        <time>2020-09-01T07:16:52Z</time>
      </trkpt>
      <trkpt lat="45.16985" lon="-0.56116">
        <ele>23.1</ele>
        <time>2020-09-01T07:16:53Z</time>
      </trkpt>
      <trkpt lat="45.16984" lon="-0.56114">
        <ele>23.1</ele>
        <time>2020-09-01T07:16:54Z</time>
      </trkpt>
      <trkpt lat="45.16982" lon="-0.56112">
        <ele>23.1</ele>
        <time>2020-09-01T07:16:56Z</time>
      </trkpt>
      <trkpt lat="45.16981" lon="-0.5611">
        <ele>23.1</ele>
        <time>2020-09-01T07:16:57Z</time>
      </trkpt>
      <trkpt lat="45.1698" lon="-0.56109">
        <ele>23.1</ele>
        <time>2020-09-01T07:16:58Z</time>
      </trkpt>
      <trkpt lat="45.16979" lon="-0.56108">
        <ele>23.1</ele>
        <time>2020-09-01T07:16:59Z</time>
      </trkpt>
      <trkpt lat="45.16977" lon="-0.56106">
        <ele>23.1</ele>
        <time>2020-09-01T07:17:01Z</time>
      </trkpt>
      <trkpt lat="45.16976" lon="-0.56105">
        <ele>23.1</ele>
        <time>2020-09-01T07:17:02Z</time>
      </trkpt>
      <trkpt lat="45.16975" lon="-0.56103">
        <ele>23.1</ele>
        <time>2020-09-01T07:17:03Z</time>
      </trkpt>
      <trkpt lat="45.16974" lon="-0.561">
        <ele>23.1</ele>
        <time>2020-09-01T07:17:05Z</time>
      </trkpt>
      <trkpt lat="45.16973" lon="-0.56099">
        <ele>23.1</ele>
        <time>2020-09-01T07:17:06Z</time>
      </trkpt>
      <trkpt lat="45.16973" lon="-0.56098">
        <ele>23.1</ele>
        <time>2020-09-01T07:17:07Z</time>
      </trkpt>
      <trkpt lat="45.16971" lon="-0.56096">
        <ele>23.1</ele>
        <time>2020-09-01T07:17:09Z</time>
      </trkpt>
      <trkpt lat="45.16971" lon="-0.56094">
        <ele>23.1</ele>
        <time>2020-09-01T07:17:10Z</time>
      </trkpt>
      <trkpt lat="45.16969" lon="-0.56091">
        <ele>23.1</ele>
        <time>2020-09-01T07:17:12Z</time>
      </trkpt>
      <trkpt lat="45.16968" lon="-0.56089">
        <ele>23.2</ele>
        <time>2020-09-01T07:17:13Z</time>
      </trkpt>
      <trkpt lat="45.16967" lon="-0.56088">
        <ele>23.2</ele>
        <time>2020-09-01T07:17:14Z</time>
      </trkpt>
      <trkpt lat="45.16967" lon="-0.56087">
        <ele>23.2</ele>
        <time>2020-09-01T07:17:15Z</time>
      </trkpt>
      <trkpt lat="45.16964" lon="-0.56083">
        <ele>23.2</ele>
        <time>2020-09-01T07:17:17Z</time>
      </trkpt>
      <trkpt lat="45.16963" lon="-0.56082">
        <ele>23.2</ele>
        <time>2020-09-01T07:17:18Z</time>
      </trkpt>
      <trkpt lat="45.16962" lon="-0.56081">
        <ele>23.2</ele>
        <time>2020-09-01T07:17:19Z</time>
      </trkpt>
      <trkpt lat="45.16962" lon="-0.5608">
        <ele>23.2</ele>
        <time>2020-09-01T07:17:20Z</time>
      </trkpt>
      <trkpt lat="45.16961" lon="-0.5608">
        <ele>23.2</ele>
        <time>2020-09-01T07:17:21Z</time>
      </trkpt>
      <trkpt lat="45.1696" lon="-0.56078">
        <ele>23.2</ele>
        <time>2020-09-01T07:17:23Z</time>
      </trkpt>
      <trkpt lat="45.16959" lon="-0.56076">
        <ele>23.2</ele>
        <time>2020-09-01T07:17:24Z</time>
      </trkpt>
      <trkpt lat="45.16958" lon="-0.56076">
        <ele>23.2</ele>
        <time>2020-09-01T07:17:25Z</time>
      </trkpt>
      <trkpt lat="45.16956" lon="-0.56074">
        <ele>23.2</ele>
        <time>2020-09-01T07:17:26Z</time>
      </trkpt>
      <trkpt lat="45.16954" lon="-0.56071">
        <ele>23.2</ele>
        <time>2020-09-01T07:17:28Z</time>
      </trkpt>
      <trkpt lat="45.16953" lon="-0.5607">
        <ele>23.2</ele>
        <time>2020-09-01T07:17:29Z</time>
      </trkpt>
      <trkpt lat="45.16952" lon="-0.56068">
        <ele>23.2</ele>
        <time>2020-09-01T07:17:30Z</time>
      </trkpt>
      <trkpt lat="45.16951" lon="-0.56066">
        <ele>23.2</ele>
        <time>2020-09-01T07:17:32Z</time>
      </trkpt>
      <trkpt lat="45.1695" lon="-0.56065">
        <ele>23.2</ele>
        <time>2020-09-01T07:17:33Z</time>
      </trkpt>
      <trkpt lat="45.16947" lon="-0.56061">
        <ele>23.2</ele>
        <time>2020-09-01T07:17:35Z</time>
      </trkpt>
      <trkpt lat="45.16947" lon="-0.5606">
        <ele>23.2</ele>
        <time>2020-09-01T07:17:36Z</time>
      </trkpt>
      <trkpt lat="45.16946" lon="-0.56058">
        <ele>23.2</ele>
        <time>2020-09-01T07:17:37Z</time>
      </trkpt>
      <trkpt lat="45.16944" lon="-0.56056">
        <ele>23.2</ele>
        <time>2020-09-01T07:17:39Z</time>
      </trkpt>
      <trkpt lat="45.16944" lon="-0.56055">
        <ele>23.2</ele>
        <time>2020-09-01T07:17:40Z</time>
      </trkpt>
      <trkpt lat="45.16942" lon="-0.56053">
        <ele>23.3</ele>
        <time>2020-09-01T07:17:41Z</time>
      </trkpt>
      <trkpt lat="45.16942" lon="-0.56051">
        <ele>23.3</ele>
        <time>2020-09-01T07:17:42Z</time>
      </trkpt>
      <trkpt lat="45.16941" lon="-0.56049">
        <ele>23.3</ele>
        <time>2020-09-01T07:17:44Z</time>
      </trkpt>
      <trkpt lat="45.1694" lon="-0.56048">
        <ele>23.3</ele>
        <time>2020-09-01T07:17:45Z</time>
      </trkpt>
      <trkpt lat="45.16939" lon="-0.56046">
        <ele>23.3</ele>
        <time>2020-09-01T07:17:46Z</time>
      </trkpt>
      <trkpt lat="45.16938" lon="-0.56043">
        <ele>23.3</ele>
        <time>2020-09-01T07:17:48Z</time>
      </trkpt>
      <trkpt lat="45.16936" lon="-0.56041">
        <ele>23.3</ele>
        <time>2020-09-01T07:17:50Z</time>
      </trkpt>
      <trkpt lat="45.16935" lon="-0.56038">
        <ele>23.3</ele>
        <time>2020-09-01T07:17:51Z</time>
      </trkpt>
      <trkpt lat="45.16933" lon="-0.56037">
        <ele>23.3</ele>
        <time>2020-09-01T07:17:53Z</time>
      </trkpt>
      <trkpt lat="45.16932" lon="-0.56034">
        <ele>23.3</ele>
        <time>2020-09-01T07:17:54Z</time>
      </trkpt>
      <trkpt lat="45.16931" lon="-0.56033">
        <ele>23.3</ele>
        <time>2020-09-01T07:17:55Z</time>
      </trkpt>
      <trkpt lat="45.1693" lon="-0.56032">
        <ele>23.3</ele>
        <time>2020-09-01T07:17:56Z</time>
      </trkpt>
      <trkpt lat="45.16929" lon="-0.5603">
        <ele>23.3</ele>
        <time>2020-09-01T07:17:57Z</time>
      </trkpt>
      <trkpt lat="45.16928" lon="-0.5603">
        <ele>23.3</ele>
        <time>2020-09-01T07:17:58Z</time>
      </trkpt>
      <trkpt lat="45.16927" lon="-0.56029">
        <ele>23.3</ele>
        <time>2020-09-01T07:17:59Z</time>
      </trkpt>
      <trkpt lat="45.16925" lon="-0.56026">
        <ele>23.3</ele>
        <time>2020-09-01T07:18:01Z</time>
      </trkpt>
      <trkpt lat="45.16924" lon="-0.56025">
        <ele>23.3</ele>
        <time>2020-09-01T07:18:02Z</time>
      </trkpt>
      <trkpt lat="45.16923" lon="-0.56024">
        <ele>23.3</ele>
        <time>2020-09-01T07:18:03Z</time>
      </trkpt>
      <trkpt lat="45.16921" lon="-0.56022">
        <ele>23.3</ele>
        <time>2020-09-01T07:18:05Z</time>
      </trkpt>
      <trkpt lat="45.16919" lon="-0.56021">
        <ele>23.3</ele>
        <time>2020-09-01T07:18:06Z</time>
      </trkpt>
      <trkpt lat="45.16919" lon="-0.56021">
        <ele>23.4</ele>
        <time>2020-09-01T07:18:07Z</time>
      </trkpt>
      <trkpt lat="45.16918" lon="-0.5602">
        <ele>23.4</ele>
        <time>2020-09-01T07:18:08Z</time>
      </trkpt>
      <trkpt lat="45.16917" lon="-0.56019">
        <ele>23.4</ele>
        <time>2020-09-01T07:18:09Z</time>
      </trkpt>
      <trkpt lat="45.16916" lon="-0.56018">
        <ele>23.4</ele>
        <time>2020-09-01T07:18:11Z</time>
      </trkpt>
      <trkpt lat="45.16916" lon="-0.56018">
        <ele>23.4</ele>
        <time>2020-09-01T07:18:12Z</time>
      </trkpt>
      <trkpt lat="45.16917" lon="-0.56018">
        <ele>23.4</ele>
        <time>2020-09-01T07:18:13Z</time>
      </trkpt>
      <trkpt lat="45.16917" lon="-0.56018">
        <ele>23.4</ele>
        <time>2020-09-01T07:18:15Z</time>
      </trkpt>
      <trkpt lat="45.16917" lon="-0.56018">
        <ele>23.4</ele>
        <time>2020-09-01T07:18:16Z</time>
      </trkpt>
      <trkpt lat="45.16916" lon="-0.56018">
        <ele>23.4</ele>
        <time>2020-09-01T07:18:17Z</time>
      </trkpt>
      <trkpt lat="45.16915" lon="-0.56017">
        <ele>23.4</ele>
        <time>2020-09-01T07:18:19Z</time>
      </trkpt>
      <trkpt lat="45.16912" lon="-0.56015">
        <ele>23.4</ele>
        <time>2020-09-01T07:18:20Z</time>
      </trkpt>
      <trkpt lat="45.16911" lon="-0.56014">
        <ele>23.4</ele>
        <time>2020-09-01T07:18:21Z</time>
      </trkpt>
      <trkpt lat="45.1691" lon="-0.56014">
        <ele>23.4</ele>
        <time>2020-09-01T07:18:23Z</time>
      </trkpt>
      <trkpt lat="45.16908" lon="-0.56013">
        <ele>23.4</ele>
        <time>2020-09-01T07:18:25Z</time>
      </trkpt>
      <trkpt lat="45.16906" lon="-0.56012">
        <ele>23.4</ele>
        <time>2020-09-01T07:18:26Z</time>
      </trkpt>
      <trkpt lat="45.16905" lon="-0.56011">
        <ele>23.4</ele>
        <time>2020-09-01T07:18:27Z</time>
      </trkpt>
      <trkpt lat="45.16903" lon="-0.56011">
        <ele>23.4</ele>
        <time>2020-09-01T07:18:29Z</time>
      </trkpt>
      <trkpt lat="45.16902" lon="-0.56011">
        <ele>23.4</ele>
        <time>2020-09-01T07:18:30Z</time>
      </trkpt>
      <trkpt lat="45.16899" lon="-0.5601">
        <ele>23.4</ele>
        <time>2020-09-01T07:18:31Z</time>
      </trkpt>
      <trkpt lat="45.16898" lon="-0.5601">
        <ele>23.4</ele>
        <time>2020-09-01T07:18:32Z</time>
      </trkpt>
      <trkpt lat="45.16896" lon="-0.5601">
        <ele>23.4</ele>
        <time>2020-09-01T07:18:33Z</time>
      </trkpt>
      <trkpt lat="45.16893" lon="-0.56009">
        <ele>23.4</ele>
        <time>2020-09-01T07:18:35Z</time>
      </trkpt>
      <trkpt lat="45.16892" lon="-0.56009">
        <ele>23.4</ele>
        <time>2020-09-01T07:18:36Z</time>
      </trkpt>
      <trkpt lat="45.1689" lon="-0.56009">
        <ele>23.4</ele>
        <time>2020-09-01T07:18:37Z</time>
      </trkpt>
      <trkpt lat="45.16889" lon="-0.56009">
        <ele>23.4</ele>
        <time>2020-09-01T07:18:38Z</time>
      </trkpt>
      <trkpt lat="45.16887" lon="-0.56009">
        <ele>23.4</ele>
        <time>2020-09-01T07:18:40Z</time>
      </trkpt>
      <trkpt lat="45.16885" lon="-0.56008">
        <ele>23.4</ele>
        <time>2020-09-01T07:18:41Z</time>
      </trkpt>
      <trkpt lat="45.16883" lon="-0.56008">
        <ele>23.4</ele>
        <time>2020-09-01T07:18:43Z</time>
      </trkpt>
      <trkpt lat="45.16882" lon="-0.56008">
        <ele>23.5</ele>
        <time>2020-09-01T07:18:44Z</time>
      </trkpt>
      <trkpt lat="45.16882" lon="-0.56007">
        <ele>23.5</ele>
        <time>2020-09-01T07:18:45Z</time>
      </trkpt>
      <trkpt lat="45.16878" lon="-0.56007">
        <ele>23.5</ele>
        <time>2020-09-01T07:18:46Z</time>
      </trkpt>
      <trkpt lat="45.16878" lon="-0.56006">
        <ele>23.5</ele>
        <time>2020-09-01T07:18:47Z</time>
      </trkpt>
      <trkpt lat="45.16876" lon="-0.56006">
        <ele>23.5</ele>
        <time>2020-09-01T07:18:49Z</time>
      </trkpt>
      <trkpt lat="45.16875" lon="-0.56005">
        <ele>23.5</ele>
        <time>2020-09-01T07:18:50Z</time>
      </trkpt>
      <trkpt lat="45.16872" lon="-0.56004">
        <ele>23.5</ele>
        <time>2020-09-01T07:18:51Z</time>
      </trkpt>
      <trkpt lat="45.16871" lon="-0.56004">
        <ele>23.5</ele>
        <time>2020-09-01T07:18:52Z</time>
      </trkpt>
      <trkpt lat="45.1687" lon="-0.56003">
        <ele>23.5</ele>
        <time>2020-09-01T07:18:54Z</time>
      </trkpt>
      <trkpt lat="45.16868" lon="-0.56003">
        <ele>23.5</ele>
        <time>2020-09-01T07:18:55Z</time>
      </trkpt>
      <trkpt lat="45.16865" lon="-0.56002">
        <ele>23.5</ele>
        <time>2020-09-01T07:18:56Z</time>
      </trkpt>
      <trkpt lat="45.16863" lon="-0.56002">
        <ele>23.5</ele>
        <time>2020-09-01T07:18:58Z</time>
      </trkpt>
      <trkpt lat="45.16862" lon="-0.56002">
        <ele>23.5</ele>
        <time>2020-09-01T07:18:59Z</time>
      </trkpt>
      <trkpt lat="45.16861" lon="-0.56002">
        <ele>23.5</ele>
        <time>2020-09-01T07:19:00Z</time>
      </trkpt>
      <trkpt lat="45.1686" lon="-0.56002">
        <ele>23.5</ele>
        <time>2020-09-01T07:19:01Z</time>
      </trkpt>
      <trkpt lat="45.16858" lon="-0.56001">
        <ele>23.5</ele>
        <time>2020-09-01T07:19:03Z</time>
      </trkpt>
      <trkpt lat="45.16857" lon="-0.56001">
        <ele>23.5</ele>
        <time>2020-09-01T07:19:04Z</time>
      </trkpt>
      <trkpt lat="45.16856" lon="-0.56001">
        <ele>23.5</ele>
        <time>2020-09-01T07:19:05Z</time>
      </trkpt>
      <trkpt lat="45.16854" lon="-0.56">
        <ele>23.5</ele>
        <time>2020-09-01T07:19:06Z</time>
      </trkpt>
      <trkpt lat="45.16852" lon="-0.56">
        <ele>23.5</ele>
        <time>2020-09-01T07:19:07Z</time>
      </trkpt>
      <trkpt lat="45.16851" lon="-0.55999">
        <ele>23.5</ele>
        <time>2020-09-01T07:19:08Z</time>
      </trkpt>
      <trkpt lat="45.1685" lon="-0.55999">
        <ele>23.5</ele>
        <time>2020-09-01T07:19:09Z</time>
      </trkpt>
      <trkpt lat="45.16848" lon="-0.55998">
        <ele>23.5</ele>
        <time>2020-09-01T07:19:11Z</time>
      </trkpt>
      <trkpt lat="45.16847" lon="-0.55998">
        <ele>23.5</ele>
        <time>2020-09-01T07:19:12Z</time>
      </trkpt>
      <trkpt lat="45.16846" lon="-0.55997">
        <ele>23.5</ele>
        <time>2020-09-01T07:19:13Z</time>
      </trkpt>
      <trkpt lat="45.16844" lon="-0.55996">
        <ele>23.5</ele>
        <time>2020-09-01T07:19:15Z</time>
      </trkpt>
      <trkpt lat="45.16842" lon="-0.55995">
        <ele>23.6</ele>
        <time>2020-09-01T07:19:16Z</time>
      </trkpt>
      <trkpt lat="45.16841" lon="-0.55995">
        <ele>23.6</ele>
        <time>2020-09-01T07:19:17Z</time>
      </trkpt>
      <trkpt lat="45.1684" lon="-0.55994">
        <ele>23.6</ele>
        <time>2020-09-01T07:19:18Z</time>
      </trkpt>
      <trkpt lat="45.16838" lon="-0.55993">
        <ele>23.6</ele>
        <time>2020-09-01T07:19:20Z</time>
      </trkpt>
      <trkpt lat="45.16836" lon="-0.55991">
        <ele>23.6</ele>
        <time>2020-09-01T07:19:21Z</time>
      </trkpt>
      <trkpt lat="45.16834" lon="-0.55989">
        <ele>23.6</ele>
        <time>2020-09-01T07:19:22Z</time>
      </trkpt>
      <trkpt lat="45.16833" lon="-0.55988">
        <ele>23.6</ele>
        <time>2020-09-01T07:19:24Z</time>
      </trkpt>
      <trkpt lat="45.16832" lon="-0.55987">
        <ele>23.6</ele>
        <time>2020-09-01T07:19:25Z</time>
      </trkpt>
      <trkpt lat="45.1683" lon="-0.55985">
        <ele>23.6</ele>
        <time>2020-09-01T07:19:27Z</time>
      </trkpt>
      <trkpt lat="45.16829" lon="-0.55984">
        <ele>23.6</ele>
        <time>2020-09-01T07:19:28Z</time>
      </trkpt>
      <trkpt lat="45.16828" lon="-0.55982">
        <ele>23.6</ele>
        <time>2020-09-01T07:19:29Z</time>
      </trkpt>
      <trkpt lat="45.16827" lon="-0.55978">
        <ele>23.6</ele>
        <time>2020-09-01T07:19:31Z</time>
      </trkpt>
      <trkpt lat="45.16827" lon="-0.55978">
        <ele>23.6</ele>
        <time>2020-09-01T07:19:32Z</time>
      </trkpt>
      <trkpt lat="45.16826" lon="-0.55976">
        <ele>23.6</ele>
        <time>2020-09-01T07:19:33Z</time>
      </trkpt>
      <trkpt lat="45.16826" lon="-0.55974">
        <ele>23.6</ele>
        <time>2020-09-01T07:19:34Z</time>
      </trkpt>
      <trkpt lat="45.16824" lon="-0.55971">
        <ele>23.6</ele>
        <time>2020-09-01T07:19:36Z</time>
      </trkpt>
      <trkpt lat="45.16824" lon="-0.55969">
        <ele>23.6</ele>
        <time>2020-09-01T07:19:37Z</time>
      </trkpt>
      <trkpt lat="45.16823" lon="-0.55967">
        <ele>23.6</ele>
        <time>2020-09-01T07:19:38Z</time>
      </trkpt>
      <trkpt lat="45.16822" lon="-0.55963">
        <ele>23.6</ele>
        <time>2020-09-01T07:19:40Z</time>
      </trkpt>
      <trkpt lat="45.16821" lon="-0.55961">
        <ele>23.6</ele>
        <time>2020-09-01T07:19:41Z</time>
      </trkpt>
      <trkpt lat="45.16821" lon="-0.55958">
        <ele>23.6</ele>
        <time>2020-09-01T07:19:42Z</time>
      </trkpt>
      <trkpt lat="45.1682" lon="-0.55957">
        <ele>23.6</ele>
        <time>2020-09-01T07:19:44Z</time>
      </trkpt>
      <trkpt lat="45.1682" lon="-0.55956">
        <ele>23.6</ele>
        <time>2020-09-01T07:19:45Z</time>
      </trkpt>
      <trkpt lat="45.16819" lon="-0.55953">
        <ele>23.6</ele>
        <time>2020-09-01T07:19:46Z</time>
      </trkpt>
      <trkpt lat="45.16819" lon="-0.55951">
        <ele>23.7</ele>
        <time>2020-09-01T07:19:47Z</time>
      </trkpt>
      <trkpt lat="45.16818" lon="-0.55947">
        <ele>23.7</ele>
        <time>2020-09-01T07:19:49Z</time>
      </trkpt>
      <trkpt lat="45.16818" lon="-0.55946">
        <ele>23.7</ele>
        <time>2020-09-01T07:19:50Z</time>
      </trkpt>
      <trkpt lat="45.16817" lon="-0.55942">
        <ele>23.7</ele>
        <time>2020-09-01T07:19:51Z</time>
      </trkpt>
      <trkpt lat="45.16817" lon="-0.55941">
        <ele>23.7</ele>
        <time>2020-09-01T07:19:53Z</time>
      </trkpt>
      <trkpt lat="45.16816" lon="-0.55939">
        <ele>23.7</ele>
        <time>2020-09-01T07:19:54Z</time>
      </trkpt>
      <trkpt lat="45.16815" lon="-0.55935">
        <ele>23.7</ele>
        <time>2020-09-01T07:19:56Z</time>
      </trkpt>
      <trkpt lat="45.16814" lon="-0.55933">
        <ele>23.7</ele>
        <time>2020-09-01T07:19:57Z</time>
      </trkpt>
      <trkpt lat="45.16814" lon="-0.55932">
        <ele>23.7</ele>
        <time>2020-09-01T07:19:58Z</time>
      </trkpt>
      <trkpt lat="45.16814" lon="-0.55931">
        <ele>23.7</ele>
        <time>2020-09-01T07:19:59Z</time>
      </trkpt>
      <trkpt lat="45.16812" lon="-0.55927">
        <ele>23.7</ele>
        <time>2020-09-01T07:20:01Z</time>
      </trkpt>
      <trkpt lat="45.16812" lon="-0.55926">
        <ele>23.7</ele>
        <time>2020-09-01T07:20:02Z</time>
      </trkpt>
      <trkpt lat="45.16812" lon="-0.55924">
        <ele>23.7</ele>
        <time>2020-09-01T07:20:03Z</time>
      </trkpt>
      <trkpt lat="45.16811" lon="-0.55923">
        <ele>23.7</ele>
        <time>2020-09-01T07:20:04Z</time>
      </trkpt>
      <trkpt lat="45.1681" lon="-0.55919">
        <ele>23.7</ele>
        <time>2020-09-01T07:20:06Z</time>
      </trkpt>
      <trkpt lat="45.16809" lon="-0.55918">
        <ele>23.7</ele>
        <time>2020-09-01T07:20:07Z</time>
      </trkpt>
      <trkpt lat="45.16808" lon="-0.55916">
        <ele>23.7</ele>
        <time>2020-09-01T07:20:08Z</time>
      </trkpt>
      <trkpt lat="45.16808" lon="-0.55914">
        <ele>23.7</ele>
        <time>2020-09-01T07:20:10Z</time>
      </trkpt>
      <trkpt lat="45.16807" lon="-0.55913">
        <ele>23.7</ele>
        <time>2020-09-01T07:20:11Z</time>
      </trkpt>
      <trkpt lat="45.16806" lon="-0.5591">
        <ele>23.7</ele>
        <time>2020-09-01T07:20:12Z</time>
      </trkpt>
      <trkpt lat="45.16805" lon="-0.55908">
        <ele>23.7</ele>
        <time>2020-09-01T07:20:13Z</time>
      </trkpt>
      <trkpt lat="45.16804" lon="-0.55906">
        <ele>23.7</ele>
        <time>2020-09-01T07:20:15Z</time>
      </trkpt>
      <trkpt lat="45.16803" lon="-0.55905">
        <ele>23.7</ele>
        <time>2020-09-01T07:20:16Z</time>
      </trkpt>
      <trkpt lat="45.16802" lon="-0.55904">
        <ele>23.7</ele>
        <time>2020-09-01T07:20:17Z</time>
      </trkpt>
      <trkpt lat="45.16801" lon="-0.55904">
        <ele>23.7</ele>
        <time>2020-09-01T07:20:18Z</time>
      </trkpt>
      <trkpt lat="45.16799" lon="-0.55902">
        <ele>23.8</ele>
        <time>2020-09-01T07:20:20Z</time>
      </trkpt>
      <trkpt lat="45.16797" lon="-0.559">
        <ele>23.8</ele>
        <time>2020-09-01T07:20:21Z</time>
      </trkpt>
      <trkpt lat="45.16796" lon="-0.55899">
        <ele>23.8</ele>
        <time>2020-09-01T07:20:22Z</time>
      </trkpt>
      <trkpt lat="45.16796" lon="-0.55898">
        <ele>23.8</ele>
        <time>2020-09-01T07:20:23Z</time>
      </trkpt>
      <trkpt lat="45.16794" lon="-0.55897">
        <ele>23.8</ele>
        <time>2020-09-01T07:20:24Z</time>
      </trkpt>
      <trkpt lat="45.16793" lon="-0.55896">
        <ele>23.8</ele>
        <time>2020-09-01T07:20:26Z</time>
      </trkpt>
      <trkpt lat="45.16791" lon="-0.55894">
        <ele>23.8</ele>
        <time>2020-09-01T07:20:27Z</time>
      </trkpt>
      <trkpt lat="45.1679" lon="-0.55893">
        <ele>23.8</ele>
        <time>2020-09-01T07:20:28Z</time>
      </trkpt>
      <trkpt lat="45.16789" lon="-0.55891">
        <ele>23.8</ele>
        <time>2020-09-01T07:20:30Z</time>
      </trkpt>
      <trkpt lat="45.16788" lon="-0.5589">
        <ele>23.8</ele>
        <time>2020-09-01T07:20:31Z</time>
      </trkpt>
      <trkpt lat="45.16786" lon="-0.55889">
        <ele>23.8</ele>
        <time>2020-09-01T07:20:32Z</time>
      </trkpt>
      <trkpt lat="45.16786" lon="-0.55887">
        <ele>23.8</ele>
        <time>2020-09-01T07:20:33Z</time>
      </trkpt>
      <trkpt lat="45.16785" lon="-0.55885">
        <ele>23.8</ele>
        <time>2020-09-01T07:20:35Z</time>
      </trkpt>
      <trkpt lat="45.16784" lon="-0.55884">
        <ele>23.8</ele>
        <time>2020-09-01T07:20:36Z</time>
      </trkpt>
      <trkpt lat="45.16782" lon="-0.55881">
        <ele>23.8</ele>
        <time>2020-09-01T07:20:38Z</time>
      </trkpt>
      <trkpt lat="45.16781" lon="-0.55881">
        <ele>23.8</ele>
        <time>2020-09-01T07:20:39Z</time>
      </trkpt>
      <trkpt lat="45.1678" lon="-0.55879">
        <ele>23.8</ele>
        <time>2020-09-01T07:20:40Z</time>
      </trkpt>
      <trkpt lat="45.16778" lon="-0.55877">
        <ele>23.8</ele>
        <time>2020-09-01T07:20:42Z</time>
      </trkpt>
      <trkpt lat="45.16777" lon="-0.55876">
        <ele>23.8</ele>
        <time>2020-09-01T07:20:43Z</time>
      </trkpt>
      <trkpt lat="45.16776" lon="-0.55874">
        <ele>23.8</ele>
        <time>2020-09-01T07:20:44Z</time>
      </trkpt>
      <trkpt lat="45.16774" lon="-0.55872">
        <ele>23.8</ele>
        <time>2020-09-01T07:20:46Z</time>
      </trkpt>
      <trkpt lat="45.16773" lon="-0.55871">
        <ele>23.8</ele>
        <time>2020-09-01T07:20:47Z</time>
      </trkpt>
      <trkpt lat="45.16772" lon="-0.5587">
        <ele>23.8</ele>
        <time>2020-09-01T07:20:48Z</time>
      </trkpt>
      <trkpt lat="45.16771" lon="-0.55869">
        <ele>23.8</ele>
        <time>2020-09-01T07:20:49Z</time>
      </trkpt>
      <trkpt lat="45.1677" lon="-0.55867">
        <ele>23.8</ele>
        <time>2020-09-01T07:20:50Z</time>
      </trkpt>
      <trkpt lat="45.16769" lon="-0.55865">
        <ele>23.8</ele>
        <time>2020-09-01T07:20:51Z</time>
      </trkpt>
      <trkpt lat="45.16768" lon="-0.55864">
        <ele>23.9</ele>
        <time>2020-09-01T07:20:53Z</time>
      </trkpt>
      <trkpt lat="45.16767" lon="-0.55862">
        <ele>23.9</ele>
        <time>2020-09-01T07:20:54Z</time>
      </trkpt>
      <trkpt lat="45.16766" lon="-0.55861">
        <ele>23.9</ele>
        <time>2020-09-01T07:20:55Z</time>
      </trkpt>
      <trkpt lat="45.16765" lon="-0.55858">
        <ele>23.9</ele>
        <time>2020-09-01T07:20:57Z</time>
      </trkpt>
      <trkpt lat="45.16764" lon="-0.55856">
        <ele>23.9</ele>
        <time>2020-09-01T07:20:58Z</time>
      </trkpt>
      <trkpt lat="45.16763" lon="-0.55855">
        <ele>23.9</ele>
        <time>2020-09-01T07:20:59Z</time>
      </trkpt>
      <trkpt lat="45.16761" lon="-0.55851">
        <ele>23.9</ele>
        <time>2020-09-01T07:21:01Z</time>
      </trkpt>
      <trkpt lat="45.16761" lon="-0.5585">
        <ele>23.9</ele>
        <time>2020-09-01T07:21:02Z</time>
      </trkpt>
      <trkpt lat="45.1676" lon="-0.55848">
        <ele>23.9</ele>
        <time>2020-09-01T07:21:03Z</time>
      </trkpt>
      <trkpt lat="45.16759" lon="-0.55847">
        <ele>23.9</ele>
        <time>2020-09-01T07:21:05Z</time>
      </trkpt>
      <trkpt lat="45.16757" lon="-0.55844">
        <ele>23.9</ele>
        <time>2020-09-01T07:21:06Z</time>
      </trkpt>
      <trkpt lat="45.16756" lon="-0.55844">
        <ele>23.9</ele>
        <time>2020-09-01T07:21:07Z</time>
      </trkpt>
      <trkpt lat="45.16755" lon="-0.55841">
        <ele>23.9</ele>
        <time>2020-09-01T07:21:09Z</time>
      </trkpt>
      <trkpt lat="45.16754" lon="-0.55839">
        <ele>23.9</ele>
        <time>2020-09-01T07:21:10Z</time>
      </trkpt>
      <trkpt lat="45.16753" lon="-0.55837">
        <ele>23.9</ele>
        <time>2020-09-01T07:21:11Z</time>
      </trkpt>
      <trkpt lat="45.16751" lon="-0.55835">
        <ele>23.9</ele>
        <time>2020-09-01T07:21:13Z</time>
      </trkpt>
      <trkpt lat="45.16751" lon="-0.55834">
        <ele>23.9</ele>
        <time>2020-09-01T07:21:14Z</time>
      </trkpt>
      <trkpt lat="45.1675" lon="-0.55833">
        <ele>24</ele>
        <time>2020-09-01T07:21:15Z</time>
      </trkpt>
      <trkpt lat="45.16749" lon="-0.5583">
        <ele>24.1</ele>
        <time>2020-09-01T07:21:16Z</time>
      </trkpt>
      <trkpt lat="45.16747" lon="-0.55828">
        <ele>24.2</ele>
        <time>2020-09-01T07:21:18Z</time>
      </trkpt>
      <trkpt lat="45.16747" lon="-0.55827">
        <ele>24.2</ele>
        <time>2020-09-01T07:21:19Z</time>
      </trkpt>
      <trkpt lat="45.16746" lon="-0.55826">
        <ele>24.2</ele>
        <time>2020-09-01T07:21:20Z</time>
      </trkpt>
      <trkpt lat="45.16745" lon="-0.55823">
        <ele>24.3</ele>
        <time>2020-09-01T07:21:22Z</time>
      </trkpt>
      <trkpt lat="45.16744" lon="-0.55822">
        <ele>24.4</ele>
        <time>2020-09-01T07:21:23Z</time>
      </trkpt>
      <trkpt lat="45.16744" lon="-0.5582">
        <ele>24.4</ele>
        <time>2020-09-01T07:21:24Z</time>
      </trkpt>
      <trkpt lat="45.16743" lon="-0.55819">
        <ele>24.4</ele>
        <time>2020-09-01T07:21:25Z</time>
      </trkpt>
      <trkpt lat="45.16743" lon="-0.55818">
        <ele>24.5</ele>
        <time>2020-09-01T07:21:26Z</time>
      </trkpt>
      <trkpt lat="45.16742" lon="-0.55817">
        <ele>24.5</ele>
        <time>2020-09-01T07:21:27Z</time>
      </trkpt>
      <trkpt lat="45.16741" lon="-0.55815">
        <ele>24.5</ele>
        <time>2020-09-01T07:21:29Z</time>
      </trkpt>
      <trkpt lat="45.1674" lon="-0.55813">
        <ele>24.6</ele>
        <time>2020-09-01T07:21:30Z</time>
      </trkpt>
      <trkpt lat="45.16739" lon="-0.55809">
        <ele>24.7</ele>
        <time>2020-09-01T07:21:32Z</time>
      </trkpt>
      <trkpt lat="45.16738" lon="-0.55808">
        <ele>24.7</ele>
        <time>2020-09-01T07:21:33Z</time>
      </trkpt>
      <trkpt lat="45.16736" lon="-0.55806">
        <ele>24.8</ele>
        <time>2020-09-01T07:21:35Z</time>
      </trkpt>
      <trkpt lat="45.16736" lon="-0.55805">
        <ele>24.8</ele>
        <time>2020-09-01T07:21:36Z</time>
      </trkpt>
      <trkpt lat="45.16735" lon="-0.55803">
        <ele>24.9</ele>
        <time>2020-09-01T07:21:37Z</time>
      </trkpt>
      <trkpt lat="45.16734" lon="-0.55801">
        <ele>24.9</ele>
        <time>2020-09-01T07:21:38Z</time>
      </trkpt>
      <trkpt lat="45.16733" lon="-0.55799">
        <ele>24.9</ele>
        <time>2020-09-01T07:21:40Z</time>
      </trkpt>
      <trkpt lat="45.16733" lon="-0.55797">
        <ele>24.9</ele>
        <time>2020-09-01T07:21:41Z</time>
      </trkpt>
      <trkpt lat="45.16731" lon="-0.55795">
        <ele>25</ele>
        <time>2020-09-01T07:21:42Z</time>
      </trkpt>
      <trkpt lat="45.16731" lon="-0.55793">
        <ele>25</ele>
        <time>2020-09-01T07:21:43Z</time>
      </trkpt>
      <trkpt lat="45.1673" lon="-0.55792">
        <ele>25</ele>
        <time>2020-09-01T07:21:44Z</time>
      </trkpt>
      <trkpt lat="45.1673" lon="-0.5579">
        <ele>25</ele>
        <time>2020-09-01T07:21:45Z</time>
      </trkpt>
      <trkpt lat="45.16728" lon="-0.55787">
        <ele>25</ele>
        <time>2020-09-01T07:21:46Z</time>
      </trkpt>
      <trkpt lat="45.16727" lon="-0.55786">
        <ele>25</ele>
        <time>2020-09-01T07:21:48Z</time>
      </trkpt>
      <trkpt lat="45.16726" lon="-0.55784">
        <ele>25.1</ele>
        <time>2020-09-01T07:21:49Z</time>
      </trkpt>
      <trkpt lat="45.16726" lon="-0.55782">
        <ele>25.1</ele>
        <time>2020-09-01T07:21:50Z</time>
      </trkpt>
      <trkpt lat="45.16725" lon="-0.55781">
        <ele>25.1</ele>
        <time>2020-09-01T07:21:51Z</time>
      </trkpt>
      <trkpt lat="45.16724" lon="-0.5578">
        <ele>25.1</ele>
        <time>2020-09-01T07:21:53Z</time>
      </trkpt>
      <trkpt lat="45.16724" lon="-0.55779">
        <ele>25.1</ele>
        <time>2020-09-01T07:21:54Z</time>
      </trkpt>
      <trkpt lat="45.16723" lon="-0.55777">
        <ele>25.1</ele>
        <time>2020-09-01T07:21:55Z</time>
      </trkpt>
      <trkpt lat="45.16723" lon="-0.55776">
        <ele>25.2</ele>
        <time>2020-09-01T07:21:56Z</time>
      </trkpt>
      <trkpt lat="45.16722" lon="-0.55774">
        <ele>25.2</ele>
        <time>2020-09-01T07:21:57Z</time>
      </trkpt>
      <trkpt lat="45.1672" lon="-0.55772">
        <ele>25.3</ele>
        <time>2020-09-01T07:21:58Z</time>
      </trkpt>
      <trkpt lat="45.16719" lon="-0.55771">
        <ele>25.3</ele>
        <time>2020-09-01T07:22:00Z</time>
      </trkpt>
      <trkpt lat="45.16718" lon="-0.5577">
        <ele>25.4</ele>
        <time>2020-09-01T07:22:01Z</time>
      </trkpt>
      <trkpt lat="45.16716" lon="-0.55768">
        <ele>25.4</ele>
        <time>2020-09-01T07:22:02Z</time>
      </trkpt>
      <trkpt lat="45.16715" lon="-0.55766">
        <ele>25.5</ele>
        <time>2020-09-01T07:22:03Z</time>
      </trkpt>
      <trkpt lat="45.16714" lon="-0.55764">
        <ele>25.5</ele>
        <time>2020-09-01T07:22:05Z</time>
      </trkpt>
      <trkpt lat="45.16712" lon="-0.55761">
        <ele>25.6</ele>
        <time>2020-09-01T07:22:06Z</time>
      </trkpt>
      <trkpt lat="45.16711" lon="-0.5576">
        <ele>25.6</ele>
        <time>2020-09-01T07:22:07Z</time>
      </trkpt>
      <trkpt lat="45.1671" lon="-0.55758">
        <ele>25.6</ele>
        <time>2020-09-01T07:22:08Z</time>
      </trkpt>
      <trkpt lat="45.16708" lon="-0.55757">
        <ele>25.7</ele>
        <time>2020-09-01T07:22:10Z</time>
      </trkpt>
      <trkpt lat="45.16706" lon="-0.55754">
        <ele>25.7</ele>
        <time>2020-09-01T07:22:12Z</time>
      </trkpt>
      <trkpt lat="45.16705" lon="-0.55754">
        <ele>25.7</ele>
        <time>2020-09-01T07:22:13Z</time>
      </trkpt>
      <trkpt lat="45.16702" lon="-0.55752">
        <ele>25.7</ele>
        <time>2020-09-01T07:22:15Z</time>
      </trkpt>
      <trkpt lat="45.167" lon="-0.55751">
        <ele>25.7</ele>
        <time>2020-09-01T07:22:16Z</time>
      </trkpt>
      <trkpt lat="45.16699" lon="-0.5575">
        <ele>25.7</ele>
        <time>2020-09-01T07:22:18Z</time>
      </trkpt>
      <trkpt lat="45.16697" lon="-0.55749">
        <ele>25.7</ele>
        <time>2020-09-01T07:22:19Z</time>
      </trkpt>
      <trkpt lat="45.16695" lon="-0.55748">
        <ele>25.7</ele>
        <time>2020-09-01T07:22:21Z</time>
      </trkpt>
      <trkpt lat="45.16693" lon="-0.55747">
        <ele>25.7</ele>
        <time>2020-09-01T07:22:22Z</time>
      </trkpt>
      <trkpt lat="45.16692" lon="-0.55747">
        <ele>25.7</ele>
        <time>2020-09-01T07:22:23Z</time>
      </trkpt>
      <trkpt lat="45.16691" lon="-0.55747">
        <ele>25.7</ele>
        <time>2020-09-01T07:22:24Z</time>
      </trkpt>
      <trkpt lat="45.16689" lon="-0.55747">
        <ele>25.7</ele>
        <time>2020-09-01T07:22:25Z</time>
      </trkpt>
      <trkpt lat="45.16687" lon="-0.55746">
        <ele>25.7</ele>
        <time>2020-09-01T07:22:26Z</time>
      </trkpt>
      <trkpt lat="45.16685" lon="-0.55746">
        <ele>25.7</ele>
        <time>2020-09-01T07:22:28Z</time>
      </trkpt>
      <trkpt lat="45.16684" lon="-0.55746">
        <ele>25.7</ele>
        <time>2020-09-01T07:22:29Z</time>
      </trkpt>
      <trkpt lat="45.16683" lon="-0.55746">
        <ele>25.7</ele>
        <time>2020-09-01T07:22:30Z</time>
      </trkpt>
      <trkpt lat="45.1668" lon="-0.55746">
        <ele>25.7</ele>
        <time>2020-09-01T07:22:32Z</time>
      </trkpt>
      <trkpt lat="45.16679" lon="-0.55746">
        <ele>25.7</ele>
        <time>2020-09-01T07:22:33Z</time>
      </trkpt>
      <trkpt lat="45.16678" lon="-0.55746">
        <ele>25.7</ele>
        <time>2020-09-01T07:22:34Z</time>
      </trkpt>
      <trkpt lat="45.16677" lon="-0.55746">
        <ele>25.8</ele>
        <time>2020-09-01T07:22:35Z</time>
      </trkpt>
      <trkpt lat="45.16674" lon="-0.55746">
        <ele>25.8</ele>
        <time>2020-09-01T07:22:37Z</time>
      </trkpt>
      <trkpt lat="45.16673" lon="-0.55746">
        <ele>25.8</ele>
        <time>2020-09-01T07:22:38Z</time>
      </trkpt>
      <trkpt lat="45.16671" lon="-0.55747">
        <ele>25.9</ele>
        <time>2020-09-01T07:22:39Z</time>
      </trkpt>
      <trkpt lat="45.16668" lon="-0.55747">
        <ele>25.9</ele>
        <time>2020-09-01T07:22:42Z</time>
      </trkpt>
      <trkpt lat="45.16666" lon="-0.55747">
        <ele>26</ele>
        <time>2020-09-01T07:22:44Z</time>
      </trkpt>
      <trkpt lat="45.16663" lon="-0.55747">
        <ele>26</ele>
        <time>2020-09-01T07:22:46Z</time>
      </trkpt>
      <trkpt lat="45.16662" lon="-0.55747">
        <ele>26</ele>
        <time>2020-09-01T07:22:47Z</time>
      </trkpt>
      <trkpt lat="45.1666" lon="-0.55746">
        <ele>26</ele>
        <time>2020-09-01T07:22:49Z</time>
      </trkpt>
      <trkpt lat="45.16659" lon="-0.55746">
        <ele>26.1</ele>
        <time>2020-09-01T07:22:50Z</time>
      </trkpt>
      <trkpt lat="45.16657" lon="-0.55746">
        <ele>26.1</ele>
        <time>2020-09-01T07:22:52Z</time>
      </trkpt>
      <trkpt lat="45.16656" lon="-0.55746">
        <ele>26.1</ele>
        <time>2020-09-01T07:22:53Z</time>
      </trkpt>
      <trkpt lat="45.16655" lon="-0.55746">
        <ele>26.1</ele>
        <time>2020-09-01T07:22:54Z</time>
      </trkpt>
      <trkpt lat="45.16653" lon="-0.55746">
        <ele>26.2</ele>
        <time>2020-09-01T07:22:56Z</time>
      </trkpt>
      <trkpt lat="45.1665" lon="-0.55747">
        <ele>26.3</ele>
        <time>2020-09-01T07:22:58Z</time>
      </trkpt>
      <trkpt lat="45.16649" lon="-0.55747">
        <ele>26.3</ele>
        <time>2020-09-01T07:23:00Z</time>
      </trkpt>
      <trkpt lat="45.16646" lon="-0.55746">
        <ele>26.4</ele>
        <time>2020-09-01T07:23:02Z</time>
      </trkpt>
      <trkpt lat="45.16645" lon="-0.55746">
        <ele>26.4</ele>
        <time>2020-09-01T07:23:03Z</time>
      </trkpt>
      <trkpt lat="45.16644" lon="-0.55746">
        <ele>26.4</ele>
        <time>2020-09-01T07:23:04Z</time>
      </trkpt>
      <trkpt lat="45.16643" lon="-0.55746">
        <ele>26.5</ele>
        <time>2020-09-01T07:23:05Z</time>
      </trkpt>
      <trkpt lat="45.16642" lon="-0.55746">
        <ele>26.5</ele>
        <time>2020-09-01T07:23:06Z</time>
      </trkpt>
      <trkpt lat="45.1664" lon="-0.55746">
        <ele>26.6</ele>
        <time>2020-09-01T07:23:07Z</time>
      </trkpt>
      <trkpt lat="45.16638" lon="-0.55745">
        <ele>26.6</ele>
        <time>2020-09-01T07:23:09Z</time>
      </trkpt>
      <trkpt lat="45.16637" lon="-0.55745">
        <ele>26.6</ele>
        <time>2020-09-01T07:23:10Z</time>
      </trkpt>
      <trkpt lat="45.16633" lon="-0.55745">
        <ele>26.7</ele>
        <time>2020-09-01T07:23:12Z</time>
      </trkpt>
      <trkpt lat="45.16633" lon="-0.55745">
        <ele>26.7</ele>
        <time>2020-09-01T07:23:13Z</time>
      </trkpt>
      <trkpt lat="45.1663" lon="-0.55744">
        <ele>26.7</ele>
        <time>2020-09-01T07:23:15Z</time>
      </trkpt>
      <trkpt lat="45.16628" lon="-0.55744">
        <ele>26.7</ele>
        <time>2020-09-01T07:23:16Z</time>
      </trkpt>
      <trkpt lat="45.16626" lon="-0.55743">
        <ele>26.7</ele>
        <time>2020-09-01T07:23:17Z</time>
      </trkpt>
      <trkpt lat="45.16625" lon="-0.55743">
        <ele>26.7</ele>
        <time>2020-09-01T07:23:18Z</time>
      </trkpt>
      <trkpt lat="45.16624" lon="-0.55743">
        <ele>26.7</ele>
        <time>2020-09-01T07:23:19Z</time>
      </trkpt>
      <trkpt lat="45.16622" lon="-0.55743">
        <ele>26.7</ele>
        <time>2020-09-01T07:23:20Z</time>
      </trkpt>
      <trkpt lat="45.1662" lon="-0.55742">
        <ele>26.7</ele>
        <time>2020-09-01T07:23:21Z</time>
      </trkpt>
      <trkpt lat="45.16619" lon="-0.55742">
        <ele>26.7</ele>
        <time>2020-09-01T07:23:22Z</time>
      </trkpt>
      <trkpt lat="45.16618" lon="-0.55742">
        <ele>26.7</ele>
        <time>2020-09-01T07:23:24Z</time>
      </trkpt>
      <trkpt lat="45.16617" lon="-0.55742">
        <ele>26.7</ele>
        <time>2020-09-01T07:23:25Z</time>
      </trkpt>
      <trkpt lat="45.16614" lon="-0.55742">
        <ele>26.7</ele>
        <time>2020-09-01T07:23:27Z</time>
      </trkpt>
      <trkpt lat="45.16612" lon="-0.55742">
        <ele>26.7</ele>
        <time>2020-09-01T07:23:29Z</time>
      </trkpt>
      <trkpt lat="45.1661" lon="-0.55742">
        <ele>26.7</ele>
        <time>2020-09-01T07:23:30Z</time>
      </trkpt>
      <trkpt lat="45.16609" lon="-0.55743">
        <ele>26.7</ele>
        <time>2020-09-01T07:23:31Z</time>
      </trkpt>
      <trkpt lat="45.16607" lon="-0.55743">
        <ele>26.7</ele>
        <time>2020-09-01T07:23:32Z</time>
      </trkpt>
      <trkpt lat="45.16604" lon="-0.55743">
        <ele>26.7</ele>
        <time>2020-09-01T07:23:34Z</time>
      </trkpt>
      <trkpt lat="45.16604" lon="-0.55743">
        <ele>26.7</ele>
        <time>2020-09-01T07:23:35Z</time>
      </trkpt>
      <trkpt lat="45.16603" lon="-0.55743">
        <ele>26.7</ele>
        <time>2020-09-01T07:23:36Z</time>
      </trkpt>
      <trkpt lat="45.16601" lon="-0.55743">
        <ele>26.7</ele>
        <time>2020-09-01T07:23:37Z</time>
      </trkpt>
      <trkpt lat="45.166" lon="-0.55743">
        <ele>26.7</ele>
        <time>2020-09-01T07:23:38Z</time>
      </trkpt>
      <trkpt lat="45.16599" lon="-0.55743">
        <ele>26.7</ele>
        <time>2020-09-01T07:23:39Z</time>
      </trkpt>
      <trkpt lat="45.16597" lon="-0.55744">
        <ele>26.7</ele>
        <time>2020-09-01T07:23:40Z</time>
      </trkpt>
      <trkpt lat="45.16594" lon="-0.55744">
        <ele>26.7</ele>
        <time>2020-09-01T07:23:42Z</time>
      </trkpt>
      <trkpt lat="45.16593" lon="-0.55744">
        <ele>26.7</ele>
        <time>2020-09-01T07:23:43Z</time>
      </trkpt>
      <trkpt lat="45.16591" lon="-0.55744">
        <ele>26.7</ele>
        <time>2020-09-01T07:23:44Z</time>
      </trkpt>
      <trkpt lat="45.16589" lon="-0.55744">
        <ele>26.7</ele>
        <time>2020-09-01T07:23:46Z</time>
      </trkpt>
      <trkpt lat="45.16586" lon="-0.55744">
        <ele>26.7</ele>
        <time>2020-09-01T07:23:47Z</time>
      </trkpt>
      <trkpt lat="45.16585" lon="-0.55744">
        <ele>26.7</ele>
        <time>2020-09-01T07:23:48Z</time>
      </trkpt>
      <trkpt lat="45.16583" lon="-0.55744">
        <ele>26.7</ele>
        <time>2020-09-01T07:23:50Z</time>
      </trkpt>
      <trkpt lat="45.16582" lon="-0.55744">
        <ele>26.6</ele>
        <time>2020-09-01T07:23:51Z</time>
      </trkpt>
      <trkpt lat="45.1658" lon="-0.55744">
        <ele>26.6</ele>
        <time>2020-09-01T07:23:52Z</time>
      </trkpt>
      <trkpt lat="45.16579" lon="-0.55744">
        <ele>26.6</ele>
        <time>2020-09-01T07:23:53Z</time>
      </trkpt>
      <trkpt lat="45.16577" lon="-0.55744">
        <ele>26.6</ele>
        <time>2020-09-01T07:23:54Z</time>
      </trkpt>
      <trkpt lat="45.16577" lon="-0.55743">
        <ele>26.6</ele>
        <time>2020-09-01T07:23:56Z</time>
      </trkpt>
      <trkpt lat="45.16576" lon="-0.55743">
        <ele>26.6</ele>
        <time>2020-09-01T07:23:58Z</time>
      </trkpt>
      <trkpt lat="45.16576" lon="-0.55743">
        <ele>26.5</ele>
        <time>2020-09-01T07:24:00Z</time>
      </trkpt>
      <trkpt lat="45.16575" lon="-0.55743">
        <ele>26.5</ele>
        <time>2020-09-01T07:24:01Z</time>
      </trkpt>
      <trkpt lat="45.16575" lon="-0.55742">
        <ele>26.5</ele>
        <time>2020-09-01T07:24:03Z</time>
      </trkpt>
      <trkpt lat="45.16574" lon="-0.55742">
        <ele>26.5</ele>
        <time>2020-09-01T07:24:04Z</time>
      </trkpt>
      <trkpt lat="45.16574" lon="-0.55742">
        <ele>26.5</ele>
        <time>2020-09-01T07:24:05Z</time>
      </trkpt>
      <trkpt lat="45.16573" lon="-0.55742">
        <ele>26.5</ele>
        <time>2020-09-01T07:24:07Z</time>
      </trkpt>
      <trkpt lat="45.16573" lon="-0.55741">
        <ele>26.5</ele>
        <time>2020-09-01T07:24:08Z</time>
      </trkpt>
      <trkpt lat="45.16571" lon="-0.55741">
        <ele>26.4</ele>
        <time>2020-09-01T07:24:09Z</time>
      </trkpt>
      <trkpt lat="45.16569" lon="-0.55741">
        <ele>26.3</ele>
        <time>2020-09-01T07:24:11Z</time>
      </trkpt>
      <trkpt lat="45.16568" lon="-0.55741">
        <ele>26.3</ele>
        <time>2020-09-01T07:24:12Z</time>
      </trkpt>
      <trkpt lat="45.16567" lon="-0.5574">
        <ele>26.2</ele>
        <time>2020-09-01T07:24:13Z</time>
      </trkpt>
      <trkpt lat="45.16565" lon="-0.5574">
        <ele>26.2</ele>
        <time>2020-09-01T07:24:15Z</time>
      </trkpt>
      <trkpt lat="45.16563" lon="-0.55739">
        <ele>26.1</ele>
        <time>2020-09-01T07:24:16Z</time>
      </trkpt>
      <trkpt lat="45.16559" lon="-0.55739">
        <ele>26</ele>
        <time>2020-09-01T07:24:18Z</time>
      </trkpt>
      <trkpt lat="45.16558" lon="-0.55738">
        <ele>26</ele>
        <time>2020-09-01T07:24:19Z</time>
      </trkpt>
      <trkpt lat="45.16557" lon="-0.55738">
        <ele>26</ele>
        <time>2020-09-01T07:24:20Z</time>
      </trkpt>
      <trkpt lat="45.16554" lon="-0.55737">
        <ele>26</ele>
        <time>2020-09-01T07:24:22Z</time>
      </trkpt>
      <trkpt lat="45.16553" lon="-0.55737">
        <ele>25.9</ele>
        <time>2020-09-01T07:24:23Z</time>
      </trkpt>
      <trkpt lat="45.16552" lon="-0.55737">
        <ele>25.9</ele>
        <time>2020-09-01T07:24:24Z</time>
      </trkpt>
      <trkpt lat="45.16551" lon="-0.55736">
        <ele>25.9</ele>
        <time>2020-09-01T07:24:25Z</time>
      </trkpt>
      <trkpt lat="45.1655" lon="-0.55736">
        <ele>25.9</ele>
        <time>2020-09-01T07:24:26Z</time>
      </trkpt>
      <trkpt lat="45.16548" lon="-0.55735">
        <ele>25.8</ele>
        <time>2020-09-01T07:24:27Z</time>
      </trkpt>
      <trkpt lat="45.16546" lon="-0.55734">
        <ele>25.8</ele>
        <time>2020-09-01T07:24:29Z</time>
      </trkpt>
      <trkpt lat="45.16545" lon="-0.55734">
        <ele>25.7</ele>
        <time>2020-09-01T07:24:30Z</time>
      </trkpt>
      <trkpt lat="45.16544" lon="-0.55733">
        <ele>25.7</ele>
        <time>2020-09-01T07:24:31Z</time>
      </trkpt>
      <trkpt lat="45.16542" lon="-0.55732">
        <ele>25.6</ele>
        <time>2020-09-01T07:24:33Z</time>
      </trkpt>
      <trkpt lat="45.16541" lon="-0.55732">
        <ele>25.5</ele>
        <time>2020-09-01T07:24:34Z</time>
      </trkpt>
      <trkpt lat="45.1654" lon="-0.55731">
        <ele>25.5</ele>
        <time>2020-09-01T07:24:35Z</time>
      </trkpt>
      <trkpt lat="45.16537" lon="-0.55731">
        <ele>25.4</ele>
        <time>2020-09-01T07:24:37Z</time>
      </trkpt>
      <trkpt lat="45.16537" lon="-0.5573">
        <ele>25.4</ele>
        <time>2020-09-01T07:24:38Z</time>
      </trkpt>
      <trkpt lat="45.16536" lon="-0.55729">
        <ele>25.3</ele>
        <time>2020-09-01T07:24:39Z</time>
      </trkpt>
      <trkpt lat="45.16535" lon="-0.55728">
        <ele>25.3</ele>
        <time>2020-09-01T07:24:40Z</time>
      </trkpt>
      <trkpt lat="45.16532" lon="-0.55726">
        <ele>25.2</ele>
        <time>2020-09-01T07:24:42Z</time>
      </trkpt>
      <trkpt lat="45.16531" lon="-0.55726">
        <ele>25.2</ele>
        <time>2020-09-01T07:24:43Z</time>
      </trkpt>
      <trkpt lat="45.16529" lon="-0.55725">
        <ele>25.1</ele>
        <time>2020-09-01T07:24:44Z</time>
      </trkpt>
      <trkpt lat="45.16527" lon="-0.55724">
        <ele>25.1</ele>
        <time>2020-09-01T07:24:46Z</time>
      </trkpt>
      <trkpt lat="45.16524" lon="-0.55721">
        <ele>25</ele>
        <time>2020-09-01T07:24:48Z</time>
      </trkpt>
      <trkpt lat="45.16523" lon="-0.55721">
        <ele>25</ele>
        <time>2020-09-01T07:24:49Z</time>
      </trkpt>
      <trkpt lat="45.16522" lon="-0.5572">
        <ele>25</ele>
        <time>2020-09-01T07:24:50Z</time>
      </trkpt>
      <trkpt lat="45.16518" lon="-0.55719">
        <ele>25</ele>
        <time>2020-09-01T07:24:52Z</time>
      </trkpt>
      <trkpt lat="45.16518" lon="-0.5572">
        <ele>25</ele>
        <time>2020-09-01T07:24:53Z</time>
      </trkpt>
      <trkpt lat="45.16516" lon="-0.5572">
        <ele>25</ele>
        <time>2020-09-01T07:24:54Z</time>
      </trkpt>
      <trkpt lat="45.16515" lon="-0.5572">
        <ele>24.9</ele>
        <time>2020-09-01T07:24:55Z</time>
      </trkpt>
      <trkpt lat="45.16514" lon="-0.5572">
        <ele>24.9</ele>
        <time>2020-09-01T07:24:56Z</time>
      </trkpt>
      <trkpt lat="45.16513" lon="-0.55719">
        <ele>24.9</ele>
        <time>2020-09-01T07:24:57Z</time>
      </trkpt>
      <trkpt lat="45.16511" lon="-0.55718">
        <ele>24.9</ele>
        <time>2020-09-01T07:24:58Z</time>
      </trkpt>
      <trkpt lat="45.16509" lon="-0.55716">
        <ele>24.9</ele>
        <time>2020-09-01T07:25:00Z</time>
      </trkpt>
      <trkpt lat="45.16507" lon="-0.55715">
        <ele>24.9</ele>
        <time>2020-09-01T07:25:02Z</time>
      </trkpt>
      <trkpt lat="45.16506" lon="-0.55714">
        <ele>24.8</ele>
        <time>2020-09-01T07:25:03Z</time>
      </trkpt>
      <trkpt lat="45.16505" lon="-0.55714">
        <ele>24.8</ele>
        <time>2020-09-01T07:25:04Z</time>
      </trkpt>
      <trkpt lat="45.16503" lon="-0.55713">
        <ele>24.8</ele>
        <time>2020-09-01T07:25:06Z</time>
      </trkpt>
      <trkpt lat="45.16502" lon="-0.55712">
        <ele>24.8</ele>
        <time>2020-09-01T07:25:07Z</time>
      </trkpt>
      <trkpt lat="45.165" lon="-0.55711">
        <ele>24.8</ele>
        <time>2020-09-01T07:25:09Z</time>
      </trkpt>
      <trkpt lat="45.16499" lon="-0.55711">
        <ele>24.8</ele>
        <time>2020-09-01T07:25:10Z</time>
      </trkpt>
      <trkpt lat="45.16497" lon="-0.5571">
        <ele>24.8</ele>
        <time>2020-09-01T07:25:11Z</time>
      </trkpt>
      <trkpt lat="45.16495" lon="-0.55709">
        <ele>24.8</ele>
        <time>2020-09-01T07:25:13Z</time>
      </trkpt>
      <trkpt lat="45.16493" lon="-0.55708">
        <ele>24.8</ele>
        <time>2020-09-01T07:25:15Z</time>
      </trkpt>
      <trkpt lat="45.16491" lon="-0.55707">
        <ele>24.8</ele>
        <time>2020-09-01T07:25:16Z</time>
      </trkpt>
      <trkpt lat="45.16488" lon="-0.55706">
        <ele>24.8</ele>
        <time>2020-09-01T07:25:18Z</time>
      </trkpt>
      <trkpt lat="45.16487" lon="-0.55706">
        <ele>24.8</ele>
        <time>2020-09-01T07:25:19Z</time>
      </trkpt>
      <trkpt lat="45.16485" lon="-0.55705">
        <ele>24.8</ele>
        <time>2020-09-01T07:25:20Z</time>
      </trkpt>
      <trkpt lat="45.16482" lon="-0.55704">
        <ele>24.8</ele>
        <time>2020-09-01T07:25:22Z</time>
      </trkpt>
      <trkpt lat="45.16482" lon="-0.55704">
        <ele>24.8</ele>
        <time>2020-09-01T07:25:23Z</time>
      </trkpt>
      <trkpt lat="45.1648" lon="-0.55703">
        <ele>24.8</ele>
        <time>2020-09-01T07:25:24Z</time>
      </trkpt>
      <trkpt lat="45.16479" lon="-0.55702">
        <ele>24.7</ele>
        <time>2020-09-01T07:25:25Z</time>
      </trkpt>
      <trkpt lat="45.16477" lon="-0.55701">
        <ele>24.7</ele>
        <time>2020-09-01T07:25:26Z</time>
      </trkpt>
      <trkpt lat="45.16476" lon="-0.55701">
        <ele>24.7</ele>
        <time>2020-09-01T07:25:27Z</time>
      </trkpt>
      <trkpt lat="45.16474" lon="-0.557">
        <ele>24.7</ele>
        <time>2020-09-01T07:25:29Z</time>
      </trkpt>
      <trkpt lat="45.16473" lon="-0.55699">
        <ele>24.7</ele>
        <time>2020-09-01T07:25:30Z</time>
      </trkpt>
      <trkpt lat="45.16471" lon="-0.55699">
        <ele>24.6</ele>
        <time>2020-09-01T07:25:31Z</time>
      </trkpt>
      <trkpt lat="45.16469" lon="-0.55699">
        <ele>24.6</ele>
        <time>2020-09-01T07:25:33Z</time>
      </trkpt>
      <trkpt lat="45.16468" lon="-0.55698">
        <ele>24.6</ele>
        <time>2020-09-01T07:25:35Z</time>
      </trkpt>
      <trkpt lat="45.16466" lon="-0.55698">
        <ele>24.5</ele>
        <time>2020-09-01T07:25:36Z</time>
      </trkpt>
      <trkpt lat="45.16465" lon="-0.55697">
        <ele>24.5</ele>
        <time>2020-09-01T07:25:39Z</time>
      </trkpt>
      <trkpt lat="45.16464" lon="-0.55696">
        <ele>24.5</ele>
        <time>2020-09-01T07:25:40Z</time>
      </trkpt>
      <trkpt lat="45.16463" lon="-0.55696">
        <ele>24.5</ele>
        <time>2020-09-01T07:25:41Z</time>
      </trkpt>
      <trkpt lat="45.16462" lon="-0.55696">
        <ele>24.5</ele>
        <time>2020-09-01T07:25:42Z</time>
      </trkpt>
      <trkpt lat="45.16461" lon="-0.55694">
        <ele>24.5</ele>
        <time>2020-09-01T07:25:43Z</time>
      </trkpt>
      <trkpt lat="45.16458" lon="-0.55692">
        <ele>24.4</ele>
        <time>2020-09-01T07:25:45Z</time>
      </trkpt>
      <trkpt lat="45.16457" lon="-0.55691">
        <ele>24.4</ele>
        <time>2020-09-01T07:25:47Z</time>
      </trkpt>
      <trkpt lat="45.16455" lon="-0.55691">
        <ele>24.5</ele>
        <time>2020-09-01T07:25:49Z</time>
      </trkpt>
      <trkpt lat="45.16454" lon="-0.55691">
        <ele>24.5</ele>
        <time>2020-09-01T07:25:50Z</time>
      </trkpt>
      <trkpt lat="45.16452" lon="-0.5569">
        <ele>24.5</ele>
        <time>2020-09-01T07:25:52Z</time>
      </trkpt>
      <trkpt lat="45.16451" lon="-0.5569">
        <ele>24.5</ele>
        <time>2020-09-01T07:25:53Z</time>
      </trkpt>
      <trkpt lat="45.16448" lon="-0.5569">
        <ele>24.5</ele>
        <time>2020-09-01T07:25:54Z</time>
      </trkpt>
      <trkpt lat="45.16447" lon="-0.5569">
        <ele>24.6</ele>
        <time>2020-09-01T07:25:55Z</time>
      </trkpt>
      <trkpt lat="45.16444" lon="-0.5569">
        <ele>24.6</ele>
        <time>2020-09-01T07:25:56Z</time>
      </trkpt>
      <trkpt lat="45.16442" lon="-0.55689">
        <ele>24.7</ele>
        <time>2020-09-01T07:25:58Z</time>
      </trkpt>
      <trkpt lat="45.1644" lon="-0.5569">
        <ele>24.7</ele>
        <time>2020-09-01T07:25:59Z</time>
      </trkpt>
      <trkpt lat="45.16439" lon="-0.5569">
        <ele>24.7</ele>
        <time>2020-09-01T07:26:00Z</time>
      </trkpt>
      <trkpt lat="45.16438" lon="-0.5569">
        <ele>24.8</ele>
        <time>2020-09-01T07:26:01Z</time>
      </trkpt>
      <trkpt lat="45.16436" lon="-0.5569">
        <ele>24.8</ele>
        <time>2020-09-01T07:26:02Z</time>
      </trkpt>
      <trkpt lat="45.16434" lon="-0.5569">
        <ele>24.8</ele>
        <time>2020-09-01T07:26:03Z</time>
      </trkpt>
      <trkpt lat="45.16433" lon="-0.5569">
        <ele>24.9</ele>
        <time>2020-09-01T07:26:04Z</time>
      </trkpt>
      <trkpt lat="45.16431" lon="-0.55689">
        <ele>24.9</ele>
        <time>2020-09-01T07:26:06Z</time>
      </trkpt>
      <trkpt lat="45.1643" lon="-0.55689">
        <ele>24.9</ele>
        <time>2020-09-01T07:26:07Z</time>
      </trkpt>
      <trkpt lat="45.16428" lon="-0.55689">
        <ele>25</ele>
        <time>2020-09-01T07:26:08Z</time>
      </trkpt>
      <trkpt lat="45.16426" lon="-0.55689">
        <ele>25</ele>
        <time>2020-09-01T07:26:10Z</time>
      </trkpt>
      <trkpt lat="45.16425" lon="-0.55691">
        <ele>25</ele>
        <time>2020-09-01T07:26:11Z</time>
      </trkpt>
      <trkpt lat="45.16423" lon="-0.55691">
        <ele>25.1</ele>
        <time>2020-09-01T07:26:13Z</time>
      </trkpt>
      <trkpt lat="45.16422" lon="-0.55691">
        <ele>25.1</ele>
        <time>2020-09-01T07:26:14Z</time>
      </trkpt>
      <trkpt lat="45.16419" lon="-0.55692">
        <ele>25.1</ele>
        <time>2020-09-01T07:26:16Z</time>
      </trkpt>
      <trkpt lat="45.16419" lon="-0.55693">
        <ele>25.1</ele>
        <time>2020-09-01T07:26:17Z</time>
      </trkpt>
      <trkpt lat="45.16417" lon="-0.55693">
        <ele>25.2</ele>
        <time>2020-09-01T07:26:18Z</time>
      </trkpt>
      <trkpt lat="45.16416" lon="-0.55694">
        <ele>25.2</ele>
        <time>2020-09-01T07:26:19Z</time>
      </trkpt>
      <trkpt lat="45.16413" lon="-0.55694">
        <ele>25.2</ele>
        <time>2020-09-01T07:26:21Z</time>
      </trkpt>
      <trkpt lat="45.16412" lon="-0.55694">
        <ele>25.2</ele>
        <time>2020-09-01T07:26:22Z</time>
      </trkpt>
      <trkpt lat="45.16411" lon="-0.55694">
        <ele>25.2</ele>
        <time>2020-09-01T07:26:23Z</time>
      </trkpt>
      <trkpt lat="45.1641" lon="-0.55695">
        <ele>25.2</ele>
        <time>2020-09-01T07:26:24Z</time>
      </trkpt>
      <trkpt lat="45.16407" lon="-0.55695">
        <ele>25.2</ele>
        <time>2020-09-01T07:26:26Z</time>
      </trkpt>
      <trkpt lat="45.16407" lon="-0.55695">
        <ele>25.2</ele>
        <time>2020-09-01T07:26:27Z</time>
      </trkpt>
      <trkpt lat="45.16404" lon="-0.55696">
        <ele>25.2</ele>
        <time>2020-09-01T07:26:29Z</time>
      </trkpt>
      <trkpt lat="45.16402" lon="-0.55697">
        <ele>25.2</ele>
        <time>2020-09-01T07:26:31Z</time>
      </trkpt>
      <trkpt lat="45.164" lon="-0.55697">
        <ele>25.2</ele>
        <time>2020-09-01T07:26:33Z</time>
      </trkpt>
      <trkpt lat="45.164" lon="-0.55698">
        <ele>25.2</ele>
        <time>2020-09-01T07:26:34Z</time>
      </trkpt>
      <trkpt lat="45.16399" lon="-0.55698">
        <ele>25.2</ele>
        <time>2020-09-01T07:26:35Z</time>
      </trkpt>
      <trkpt lat="45.16397" lon="-0.557">
        <ele>25.2</ele>
        <time>2020-09-01T07:26:37Z</time>
      </trkpt>
      <trkpt lat="45.16396" lon="-0.557">
        <ele>25.2</ele>
        <time>2020-09-01T07:26:38Z</time>
      </trkpt>
      <trkpt lat="45.16395" lon="-0.55701">
        <ele>25.2</ele>
        <time>2020-09-01T07:26:40Z</time>
      </trkpt>
      <trkpt lat="45.16393" lon="-0.55701">
        <ele>25.2</ele>
        <time>2020-09-01T07:26:41Z</time>
      </trkpt>
      <trkpt lat="45.16391" lon="-0.55702">
        <ele>25.2</ele>
        <time>2020-09-01T07:26:42Z</time>
      </trkpt>
      <trkpt lat="45.1639" lon="-0.55703">
        <ele>25.2</ele>
        <time>2020-09-01T07:26:43Z</time>
      </trkpt>
      <trkpt lat="45.16389" lon="-0.55704">
        <ele>25.3</ele>
        <time>2020-09-01T07:26:44Z</time>
      </trkpt>
      <trkpt lat="45.16387" lon="-0.55705">
        <ele>25.3</ele>
        <time>2020-09-01T07:26:45Z</time>
      </trkpt>
      <trkpt lat="45.16386" lon="-0.55706">
        <ele>25.3</ele>
        <time>2020-09-01T07:26:47Z</time>
      </trkpt>
      <trkpt lat="45.16385" lon="-0.55706">
        <ele>25.3</ele>
        <time>2020-09-01T07:26:48Z</time>
      </trkpt>
      <trkpt lat="45.16383" lon="-0.55707">
        <ele>25.3</ele>
        <time>2020-09-01T07:26:50Z</time>
      </trkpt>
      <trkpt lat="45.1638" lon="-0.55708">
        <ele>25.3</ele>
        <time>2020-09-01T07:26:52Z</time>
      </trkpt>
      <trkpt lat="45.16378" lon="-0.55708">
        <ele>25.3</ele>
        <time>2020-09-01T07:26:54Z</time>
      </trkpt>
      <trkpt lat="45.16375" lon="-0.55709">
        <ele>25.3</ele>
        <time>2020-09-01T07:26:55Z</time>
      </trkpt>
      <trkpt lat="45.16374" lon="-0.55709">
        <ele>25.3</ele>
        <time>2020-09-01T07:26:56Z</time>
      </trkpt>
      <trkpt lat="45.16371" lon="-0.55709">
        <ele>25.4</ele>
        <time>2020-09-01T07:26:57Z</time>
      </trkpt>
      <trkpt lat="45.1637" lon="-0.55709">
        <ele>25.4</ele>
        <time>2020-09-01T07:26:58Z</time>
      </trkpt>
      <trkpt lat="45.16369" lon="-0.55709">
        <ele>25.4</ele>
        <time>2020-09-01T07:26:59Z</time>
      </trkpt>
      <trkpt lat="45.16367" lon="-0.5571">
        <ele>25.4</ele>
        <time>2020-09-01T07:27:01Z</time>
      </trkpt>
      <trkpt lat="45.16366" lon="-0.55711">
        <ele>25.5</ele>
        <time>2020-09-01T07:27:02Z</time>
      </trkpt>
      <trkpt lat="45.16364" lon="-0.55712">
        <ele>25.5</ele>
        <time>2020-09-01T07:27:03Z</time>
      </trkpt>
      <trkpt lat="45.16364" lon="-0.55713">
        <ele>25.5</ele>
        <time>2020-09-01T07:27:04Z</time>
      </trkpt>
      <trkpt lat="45.16363" lon="-0.55713">
        <ele>25.6</ele>
        <time>2020-09-01T07:27:06Z</time>
      </trkpt>
      <trkpt lat="45.16362" lon="-0.55713">
        <ele>25.6</ele>
        <time>2020-09-01T07:27:07Z</time>
      </trkpt>
      <trkpt lat="45.16361" lon="-0.55714">
        <ele>25.6</ele>
        <time>2020-09-01T07:27:08Z</time>
      </trkpt>
      <trkpt lat="45.16361" lon="-0.55715">
        <ele>25.6</ele>
        <time>2020-09-01T07:27:09Z</time>
      </trkpt>
      <trkpt lat="45.16359" lon="-0.55717">
        <ele>25.7</ele>
        <time>2020-09-01T07:27:11Z</time>
      </trkpt>
      <trkpt lat="45.16356" lon="-0.5572">
        <ele>25.8</ele>
        <time>2020-09-01T07:27:13Z</time>
      </trkpt>
      <trkpt lat="45.16355" lon="-0.55721">
        <ele>25.8</ele>
        <time>2020-09-01T07:27:14Z</time>
      </trkpt>
      <trkpt lat="45.16354" lon="-0.55722">
        <ele>25.9</ele>
        <time>2020-09-01T07:27:15Z</time>
      </trkpt>
      <trkpt lat="45.16352" lon="-0.55724">
        <ele>25.9</ele>
        <time>2020-09-01T07:27:17Z</time>
      </trkpt>
      <trkpt lat="45.1635" lon="-0.55727">
        <ele>26</ele>
        <time>2020-09-01T07:27:18Z</time>
      </trkpt>
      <trkpt lat="45.16348" lon="-0.55727">
        <ele>26</ele>
        <time>2020-09-01T07:27:20Z</time>
      </trkpt>
      <trkpt lat="45.16347" lon="-0.55728">
        <ele>26</ele>
        <time>2020-09-01T07:27:21Z</time>
      </trkpt>
      <trkpt lat="45.16343" lon="-0.5573">
        <ele>26</ele>
        <time>2020-09-01T07:27:23Z</time>
      </trkpt>
      <trkpt lat="45.16342" lon="-0.55731">
        <ele>26.1</ele>
        <time>2020-09-01T07:27:24Z</time>
      </trkpt>
      <trkpt lat="45.16341" lon="-0.55731">
        <ele>26.1</ele>
        <time>2020-09-01T07:27:25Z</time>
      </trkpt>
      <trkpt lat="45.1634" lon="-0.55731">
        <ele>26.1</ele>
        <time>2020-09-01T07:27:26Z</time>
      </trkpt>
      <trkpt lat="45.16338" lon="-0.55733">
        <ele>26.1</ele>
        <time>2020-09-01T07:27:27Z</time>
      </trkpt>
      <trkpt lat="45.16337" lon="-0.55733">
        <ele>26.1</ele>
        <time>2020-09-01T07:27:29Z</time>
      </trkpt>
      <trkpt lat="45.16335" lon="-0.55733">
        <ele>26.1</ele>
        <time>2020-09-01T07:27:30Z</time>
      </trkpt>
      <trkpt lat="45.16334" lon="-0.55733">
        <ele>26.1</ele>
        <time>2020-09-01T07:27:31Z</time>
      </trkpt>
      <trkpt lat="45.16331" lon="-0.55733">
        <ele>26.2</ele>
        <time>2020-09-01T07:27:33Z</time>
      </trkpt>
      <trkpt lat="45.1633" lon="-0.55733">
        <ele>26.2</ele>
        <time>2020-09-01T07:27:34Z</time>
      </trkpt>
      <trkpt lat="45.16328" lon="-0.55734">
        <ele>26.2</ele>
        <time>2020-09-01T07:27:36Z</time>
      </trkpt>
      <trkpt lat="45.16326" lon="-0.55734">
        <ele>26.2</ele>
        <time>2020-09-01T07:27:37Z</time>
      </trkpt>
      <trkpt lat="45.16324" lon="-0.55735">
        <ele>26.2</ele>
        <time>2020-09-01T07:27:38Z</time>
      </trkpt>
      <trkpt lat="45.16323" lon="-0.55736">
        <ele>26.3</ele>
        <time>2020-09-01T07:27:40Z</time>
      </trkpt>
      <trkpt lat="45.16321" lon="-0.55736">
        <ele>26.3</ele>
        <time>2020-09-01T07:27:41Z</time>
      </trkpt>
      <trkpt lat="45.1632" lon="-0.55736">
        <ele>26.3</ele>
        <time>2020-09-01T07:27:42Z</time>
      </trkpt>
      <trkpt lat="45.16318" lon="-0.55736">
        <ele>26.3</ele>
        <time>2020-09-01T07:27:43Z</time>
      </trkpt>
      <trkpt lat="45.16317" lon="-0.55737">
        <ele>26.4</ele>
        <time>2020-09-01T07:27:44Z</time>
      </trkpt>
      <trkpt lat="45.16314" lon="-0.55737">
        <ele>26.4</ele>
        <time>2020-09-01T07:27:46Z</time>
      </trkpt>
      <trkpt lat="45.16311" lon="-0.55738">
        <ele>26.5</ele>
        <time>2020-09-01T07:27:47Z</time>
      </trkpt>
      <trkpt lat="45.1631" lon="-0.55738">
        <ele>26.6</ele>
        <time>2020-09-01T07:27:48Z</time>
      </trkpt>
      <trkpt lat="45.16308" lon="-0.55738">
        <ele>26.6</ele>
        <time>2020-09-01T07:27:49Z</time>
      </trkpt>
      <trkpt lat="45.16306" lon="-0.55738">
        <ele>26.7</ele>
        <time>2020-09-01T07:27:51Z</time>
      </trkpt>
      <trkpt lat="45.16303" lon="-0.55738">
        <ele>26.7</ele>
        <time>2020-09-01T07:27:52Z</time>
      </trkpt>
      <trkpt lat="45.16303" lon="-0.55737">
        <ele>26.7</ele>
        <time>2020-09-01T07:27:53Z</time>
      </trkpt>
      <trkpt lat="45.16301" lon="-0.55737">
        <ele>26.7</ele>
        <time>2020-09-01T07:27:54Z</time>
      </trkpt>
      <trkpt lat="45.163" lon="-0.55736">
        <ele>26.8</ele>
        <time>2020-09-01T07:27:56Z</time>
      </trkpt>
      <trkpt lat="45.16297" lon="-0.55735">
        <ele>26.8</ele>
        <time>2020-09-01T07:27:57Z</time>
      </trkpt>
      <trkpt lat="45.16296" lon="-0.55735">
        <ele>26.8</ele>
        <time>2020-09-01T07:27:58Z</time>
      </trkpt>
      <trkpt lat="45.16295" lon="-0.55734">
        <ele>26.8</ele>
        <time>2020-09-01T07:27:59Z</time>
      </trkpt>
      <trkpt lat="45.16293" lon="-0.55733">
        <ele>26.8</ele>
        <time>2020-09-01T07:28:00Z</time>
      </trkpt>
      <trkpt lat="45.16292" lon="-0.55732">
        <ele>26.8</ele>
        <time>2020-09-01T07:28:02Z</time>
      </trkpt>
      <trkpt lat="45.16289" lon="-0.5573">
        <ele>26.9</ele>
        <time>2020-09-01T07:28:04Z</time>
      </trkpt>
      <trkpt lat="45.16288" lon="-0.55729">
        <ele>26.9</ele>
        <time>2020-09-01T07:28:05Z</time>
      </trkpt>
      <trkpt lat="45.16287" lon="-0.55727">
        <ele>26.9</ele>
        <time>2020-09-01T07:28:06Z</time>
      </trkpt>
      <trkpt lat="45.16284" lon="-0.55724">
        <ele>27</ele>
        <time>2020-09-01T07:28:08Z</time>
      </trkpt>
      <trkpt lat="45.16284" lon="-0.55722">
        <ele>27.1</ele>
        <time>2020-09-01T07:28:09Z</time>
      </trkpt>
      <trkpt lat="45.16283" lon="-0.55721">
        <ele>27.1</ele>
        <time>2020-09-01T07:28:10Z</time>
      </trkpt>
      <trkpt lat="45.16282" lon="-0.55719">
        <ele>27.2</ele>
        <time>2020-09-01T07:28:11Z</time>
      </trkpt>
      <trkpt lat="45.1628" lon="-0.55717">
        <ele>27.3</ele>
        <time>2020-09-01T07:28:12Z</time>
      </trkpt>
      <trkpt lat="45.16279" lon="-0.55714">
        <ele>27.4</ele>
        <time>2020-09-01T07:28:14Z</time>
      </trkpt>
      <trkpt lat="45.16279" lon="-0.55713">
        <ele>27.5</ele>
        <time>2020-09-01T07:28:15Z</time>
      </trkpt>
      <trkpt lat="45.16278" lon="-0.55712">
        <ele>27.6</ele>
        <time>2020-09-01T07:28:16Z</time>
      </trkpt>
      <trkpt lat="45.16277" lon="-0.55708">
        <ele>27.7</ele>
        <time>2020-09-01T07:28:18Z</time>
      </trkpt>
      <trkpt lat="45.16277" lon="-0.55707">
        <ele>27.7</ele>
        <time>2020-09-01T07:28:19Z</time>
      </trkpt>
      <trkpt lat="45.16276" lon="-0.55705">
        <ele>27.8</ele>
        <time>2020-09-01T07:28:20Z</time>
      </trkpt>
      <trkpt lat="45.16275" lon="-0.55703">
        <ele>27.8</ele>
        <time>2020-09-01T07:28:21Z</time>
      </trkpt>
      <trkpt lat="45.16274" lon="-0.55701">
        <ele>27.9</ele>
        <time>2020-09-01T07:28:22Z</time>
      </trkpt>
      <trkpt lat="45.16274" lon="-0.557">
        <ele>27.9</ele>
        <time>2020-09-01T07:28:23Z</time>
      </trkpt>
      <trkpt lat="45.16273" lon="-0.55698">
        <ele>27.9</ele>
        <time>2020-09-01T07:28:25Z</time>
      </trkpt>
      <trkpt lat="45.16272" lon="-0.55696">
        <ele>28</ele>
        <time>2020-09-01T07:28:26Z</time>
      </trkpt>
      <trkpt lat="45.16271" lon="-0.55694">
        <ele>28</ele>
        <time>2020-09-01T07:28:27Z</time>
      </trkpt>
      <trkpt lat="45.1627" lon="-0.55691">
        <ele>28</ele>
        <time>2020-09-01T07:28:28Z</time>
      </trkpt>
      <trkpt lat="45.1627" lon="-0.55691">
        <ele>28</ele>
        <time>2020-09-01T07:28:29Z</time>
      </trkpt>
      <trkpt lat="45.16269" lon="-0.5569">
        <ele>28.1</ele>
        <time>2020-09-01T07:28:31Z</time>
      </trkpt>
      <trkpt lat="45.16268" lon="-0.55688">
        <ele>28.1</ele>
        <time>2020-09-01T07:28:32Z</time>
      </trkpt>
      <trkpt lat="45.16267" lon="-0.55686">
        <ele>28.1</ele>
        <time>2020-09-01T07:28:33Z</time>
      </trkpt>
      <trkpt lat="45.16266" lon="-0.55683">
        <ele>28.1</ele>
        <time>2020-09-01T07:28:35Z</time>
      </trkpt>
      <trkpt lat="45.16265" lon="-0.5568">
        <ele>28.2</ele>
        <time>2020-09-01T07:28:36Z</time>
      </trkpt>
      <trkpt lat="45.16265" lon="-0.55679">
        <ele>28.2</ele>
        <time>2020-09-01T07:28:37Z</time>
      </trkpt>
      <trkpt lat="45.16265" lon="-0.55676">
        <ele>28.2</ele>
        <time>2020-09-01T07:28:39Z</time>
      </trkpt>
      <trkpt lat="45.16264" lon="-0.55673">
        <ele>28.2</ele>
        <time>2020-09-01T07:28:41Z</time>
      </trkpt>
      <trkpt lat="45.16264" lon="-0.55671">
        <ele>28.2</ele>
        <time>2020-09-01T07:28:42Z</time>
      </trkpt>
      <trkpt lat="45.16265" lon="-0.55669">
        <ele>28.3</ele>
        <time>2020-09-01T07:28:43Z</time>
      </trkpt>
      <trkpt lat="45.16265" lon="-0.55666">
        <ele>28.3</ele>
        <time>2020-09-01T07:28:44Z</time>
      </trkpt>
      <trkpt lat="45.16265" lon="-0.55663">
        <ele>28.3</ele>
        <time>2020-09-01T07:28:46Z</time>
      </trkpt>
      <trkpt lat="45.16265" lon="-0.55662">
        <ele>28.3</ele>
        <time>2020-09-01T07:28:47Z</time>
      </trkpt>
      <trkpt lat="45.16265" lon="-0.55661">
        <ele>28.3</ele>
        <time>2020-09-01T07:28:48Z</time>
      </trkpt>
      <trkpt lat="45.16265" lon="-0.55659">
        <ele>28.3</ele>
        <time>2020-09-01T07:28:49Z</time>
      </trkpt>
      <trkpt lat="45.16265" lon="-0.55657">
        <ele>28.3</ele>
        <time>2020-09-01T07:28:50Z</time>
      </trkpt>
      <trkpt lat="45.16265" lon="-0.55656">
        <ele>28.3</ele>
        <time>2020-09-01T07:28:51Z</time>
      </trkpt>
      <trkpt lat="45.16265" lon="-0.55654">
        <ele>28.3</ele>
        <time>2020-09-01T07:28:52Z</time>
      </trkpt>
      <trkpt lat="45.16265" lon="-0.55651">
        <ele>28.3</ele>
        <time>2020-09-01T07:28:54Z</time>
      </trkpt>
      <trkpt lat="45.16264" lon="-0.55649">
        <ele>28.4</ele>
        <time>2020-09-01T07:28:56Z</time>
      </trkpt>
      <trkpt lat="45.16264" lon="-0.55647">
        <ele>28.4</ele>
        <time>2020-09-01T07:28:57Z</time>
      </trkpt>
      <trkpt lat="45.16264" lon="-0.55642">
        <ele>28.4</ele>
        <time>2020-09-01T07:28:59Z</time>
      </trkpt>
      <trkpt lat="45.16264" lon="-0.55641">
        <ele>28.4</ele>
        <time>2020-09-01T07:29:00Z</time>
      </trkpt>
      <trkpt lat="45.16264" lon="-0.55639">
        <ele>28.4</ele>
        <time>2020-09-01T07:29:01Z</time>
      </trkpt>
      <trkpt lat="45.16265" lon="-0.55636">
        <ele>28.4</ele>
        <time>2020-09-01T07:29:03Z</time>
      </trkpt>
      <trkpt lat="45.16266" lon="-0.55633">
        <ele>28.4</ele>
        <time>2020-09-01T07:29:04Z</time>
      </trkpt>
      <trkpt lat="45.16266" lon="-0.55631">
        <ele>28.4</ele>
        <time>2020-09-01T07:29:06Z</time>
      </trkpt>
      <trkpt lat="45.16266" lon="-0.55628">
        <ele>28.4</ele>
        <time>2020-09-01T07:29:07Z</time>
      </trkpt>
      <trkpt lat="45.16265" lon="-0.55624">
        <ele>28.4</ele>
        <time>2020-09-01T07:29:09Z</time>
      </trkpt>
      <trkpt lat="45.16265" lon="-0.55623">
        <ele>28.5</ele>
        <time>2020-09-01T07:29:10Z</time>
      </trkpt>
      <trkpt lat="45.16266" lon="-0.5562">
        <ele>28.5</ele>
        <time>2020-09-01T07:29:11Z</time>
      </trkpt>
      <trkpt lat="45.16266" lon="-0.55617">
        <ele>28.5</ele>
        <time>2020-09-01T07:29:13Z</time>
      </trkpt>
      <trkpt lat="45.16266" lon="-0.55617">
        <ele>28.5</ele>
        <time>2020-09-01T07:29:14Z</time>
      </trkpt>
      <trkpt lat="45.16266" lon="-0.55613">
        <ele>28.5</ele>
        <time>2020-09-01T07:29:16Z</time>
      </trkpt>
      <trkpt lat="45.16267" lon="-0.55611">
        <ele>28.5</ele>
        <time>2020-09-01T07:29:17Z</time>
      </trkpt>
      <trkpt lat="45.16267" lon="-0.55609">
        <ele>28.5</ele>
        <time>2020-09-01T07:29:18Z</time>
      </trkpt>
      <trkpt lat="45.16268" lon="-0.55607">
        <ele>28.5</ele>
        <time>2020-09-01T07:29:19Z</time>
      </trkpt>
      <trkpt lat="45.16268" lon="-0.55604">
        <ele>28.5</ele>
        <time>2020-09-01T07:29:21Z</time>
      </trkpt>
      <trkpt lat="45.16268" lon="-0.556">
        <ele>28.5</ele>
        <time>2020-09-01T07:29:22Z</time>
      </trkpt>
      <trkpt lat="45.16269" lon="-0.55598">
        <ele>28.5</ele>
        <time>2020-09-01T07:29:23Z</time>
      </trkpt>
      <trkpt lat="45.16269" lon="-0.55597">
        <ele>28.5</ele>
        <time>2020-09-01T07:29:25Z</time>
      </trkpt>
      <trkpt lat="45.1627" lon="-0.55594">
        <ele>28.5</ele>
        <time>2020-09-01T07:29:26Z</time>
      </trkpt>
      <trkpt lat="45.1627" lon="-0.55592">
        <ele>28.5</ele>
        <time>2020-09-01T07:29:28Z</time>
      </trkpt>
      <trkpt lat="45.16271" lon="-0.5559">
        <ele>28.5</ele>
        <time>2020-09-01T07:29:29Z</time>
      </trkpt>
      <trkpt lat="45.16272" lon="-0.55588">
        <ele>28.5</ele>
        <time>2020-09-01T07:29:30Z</time>
      </trkpt>
      <trkpt lat="45.16272" lon="-0.55586">
        <ele>28.5</ele>
        <time>2020-09-01T07:29:31Z</time>
      </trkpt>
      <trkpt lat="45.16273" lon="-0.55584">
        <ele>28.5</ele>
        <time>2020-09-01T07:29:32Z</time>
      </trkpt>
      <trkpt lat="45.16273" lon="-0.55582">
        <ele>28.5</ele>
        <time>2020-09-01T07:29:34Z</time>
      </trkpt>
      <trkpt lat="45.16274" lon="-0.55579">
        <ele>28.4</ele>
        <time>2020-09-01T07:29:35Z</time>
      </trkpt>
      <trkpt lat="45.16274" lon="-0.55576">
        <ele>28.4</ele>
        <time>2020-09-01T07:29:37Z</time>
      </trkpt>
      <trkpt lat="45.16274" lon="-0.55575">
        <ele>28.4</ele>
        <time>2020-09-01T07:29:38Z</time>
      </trkpt>
      <trkpt lat="45.16274" lon="-0.55573">
        <ele>28.4</ele>
        <time>2020-09-01T07:29:39Z</time>
      </trkpt>
      <trkpt lat="45.16274" lon="-0.55571">
        <ele>28.3</ele>
        <time>2020-09-01T07:29:40Z</time>
      </trkpt>
      <trkpt lat="45.16275" lon="-0.55569">
        <ele>28.3</ele>
        <time>2020-09-01T07:29:42Z</time>
      </trkpt>
      <trkpt lat="45.16275" lon="-0.55567">
        <ele>28.3</ele>
        <time>2020-09-01T07:29:43Z</time>
      </trkpt>
      <trkpt lat="45.16274" lon="-0.55564">
        <ele>28.3</ele>
        <time>2020-09-01T07:29:45Z</time>
      </trkpt>
      <trkpt lat="45.16274" lon="-0.55563">
        <ele>28.3</ele>
        <time>2020-09-01T07:29:46Z</time>
      </trkpt>
      <trkpt lat="45.16274" lon="-0.55561">
        <ele>28.3</ele>
        <time>2020-09-01T07:29:47Z</time>
      </trkpt>
      <trkpt lat="45.16274" lon="-0.55559">
        <ele>28.2</ele>
        <time>2020-09-01T07:29:48Z</time>
      </trkpt>
      <trkpt lat="45.16274" lon="-0.55556">
        <ele>28.2</ele>
        <time>2020-09-01T07:29:50Z</time>
      </trkpt>
      <trkpt lat="45.16274" lon="-0.55554">
        <ele>28.2</ele>
        <time>2020-09-01T07:29:51Z</time>
      </trkpt>
      <trkpt lat="45.16274" lon="-0.55552">
        <ele>28.2</ele>
        <time>2020-09-01T07:29:52Z</time>
      </trkpt>
      <trkpt lat="45.16274" lon="-0.5555">
        <ele>28.2</ele>
        <time>2020-09-01T07:29:53Z</time>
      </trkpt>
      <trkpt lat="45.16274" lon="-0.55544">
        <ele>28.2</ele>
        <time>2020-09-01T07:29:55Z</time>
      </trkpt>
      <trkpt lat="45.16274" lon="-0.55541">
        <ele>28.2</ele>
        <time>2020-09-01T07:29:56Z</time>
      </trkpt>
      <trkpt lat="45.16274" lon="-0.55539">
        <ele>28.2</ele>
        <time>2020-09-01T07:29:58Z</time>
      </trkpt>
      <trkpt lat="45.16273" lon="-0.55537">
        <ele>28.3</ele>
        <time>2020-09-01T07:29:59Z</time>
      </trkpt>
      <trkpt lat="45.16273" lon="-0.55535">
        <ele>28.3</ele>
        <time>2020-09-01T07:30:00Z</time>
      </trkpt>
      <trkpt lat="45.16272" lon="-0.55533">
        <ele>28.3</ele>
        <time>2020-09-01T07:30:01Z</time>
      </trkpt>
      <trkpt lat="45.16272" lon="-0.55531">
        <ele>28.3</ele>
        <time>2020-09-01T07:30:02Z</time>
      </trkpt>
      <trkpt lat="45.1627" lon="-0.55529">
        <ele>28.3</ele>
        <time>2020-09-01T07:30:04Z</time>
      </trkpt>
      <trkpt lat="45.1627" lon="-0.55528">
        <ele>28.3</ele>
        <time>2020-09-01T07:30:05Z</time>
      </trkpt>
      <trkpt lat="45.16269" lon="-0.55526">
        <ele>28.4</ele>
        <time>2020-09-01T07:30:06Z</time>
      </trkpt>
      <trkpt lat="45.16268" lon="-0.55524">
        <ele>28.4</ele>
        <time>2020-09-01T07:30:08Z</time>
      </trkpt>
      <trkpt lat="45.16268" lon="-0.55523">
        <ele>28.4</ele>
        <time>2020-09-01T07:30:09Z</time>
      </trkpt>
      <trkpt lat="45.16267" lon="-0.55521">
        <ele>28.5</ele>
        <time>2020-09-01T07:30:11Z</time>
      </trkpt>
      <trkpt lat="45.16267" lon="-0.5552">
        <ele>28.5</ele>
        <time>2020-09-01T07:30:12Z</time>
      </trkpt>
      <trkpt lat="45.16267" lon="-0.55519">
        <ele>28.5</ele>
        <time>2020-09-01T07:30:13Z</time>
      </trkpt>
      <trkpt lat="45.16266" lon="-0.55516">
        <ele>28.6</ele>
        <time>2020-09-01T07:30:15Z</time>
      </trkpt>
      <trkpt lat="45.16265" lon="-0.55515">
        <ele>28.6</ele>
        <time>2020-09-01T07:30:16Z</time>
      </trkpt>
      <trkpt lat="45.16264" lon="-0.55513">
        <ele>28.7</ele>
        <time>2020-09-01T07:30:17Z</time>
      </trkpt>
      <trkpt lat="45.16263" lon="-0.55511">
        <ele>28.7</ele>
        <time>2020-09-01T07:30:19Z</time>
      </trkpt>
      <trkpt lat="45.16262" lon="-0.5551">
        <ele>28.8</ele>
        <time>2020-09-01T07:30:20Z</time>
      </trkpt>
      <trkpt lat="45.16262" lon="-0.55508">
        <ele>28.8</ele>
        <time>2020-09-01T07:30:21Z</time>
      </trkpt>
      <trkpt lat="45.16261" lon="-0.55507">
        <ele>28.9</ele>
        <time>2020-09-01T07:30:23Z</time>
      </trkpt>
      <trkpt lat="45.1626" lon="-0.55503">
        <ele>29</ele>
        <time>2020-09-01T07:30:24Z</time>
      </trkpt>
      <trkpt lat="45.1626" lon="-0.555">
        <ele>29.1</ele>
        <time>2020-09-01T07:30:25Z</time>
      </trkpt>
      <trkpt lat="45.16259" lon="-0.55499">
        <ele>29.2</ele>
        <time>2020-09-01T07:30:26Z</time>
      </trkpt>
      <trkpt lat="45.16258" lon="-0.55497">
        <ele>29.3</ele>
        <time>2020-09-01T07:30:27Z</time>
      </trkpt>
      <trkpt lat="45.16257" lon="-0.55495">
        <ele>29.3</ele>
        <time>2020-09-01T07:30:28Z</time>
      </trkpt>
      <trkpt lat="45.16256" lon="-0.55493">
        <ele>29.4</ele>
        <time>2020-09-01T07:30:30Z</time>
      </trkpt>
      <trkpt lat="45.16255" lon="-0.55492">
        <ele>29.4</ele>
        <time>2020-09-01T07:30:31Z</time>
      </trkpt>
      <trkpt lat="45.16254" lon="-0.55489">
        <ele>29.5</ele>
        <time>2020-09-01T07:30:33Z</time>
      </trkpt>
      <trkpt lat="45.16253" lon="-0.55488">
        <ele>29.5</ele>
        <time>2020-09-01T07:30:34Z</time>
      </trkpt>
      <trkpt lat="45.16252" lon="-0.55487">
        <ele>29.5</ele>
        <time>2020-09-01T07:30:35Z</time>
      </trkpt>
      <trkpt lat="45.16251" lon="-0.55487">
        <ele>29.5</ele>
        <time>2020-09-01T07:30:36Z</time>
      </trkpt>
      <trkpt lat="45.16248" lon="-0.55486">
        <ele>29.4</ele>
        <time>2020-09-01T07:30:37Z</time>
      </trkpt>
      <trkpt lat="45.16247" lon="-0.55486">
        <ele>29.4</ele>
        <time>2020-09-01T07:30:38Z</time>
      </trkpt>
      <trkpt lat="45.16246" lon="-0.55485">
        <ele>29.3</ele>
        <time>2020-09-01T07:30:39Z</time>
      </trkpt>
      <trkpt lat="45.16244" lon="-0.55485">
        <ele>29.3</ele>
        <time>2020-09-01T07:30:41Z</time>
      </trkpt>
      <trkpt lat="45.16243" lon="-0.55485">
        <ele>29.2</ele>
        <time>2020-09-01T07:30:42Z</time>
      </trkpt>
      <trkpt lat="45.1624" lon="-0.55484">
        <ele>29</ele>
        <time>2020-09-01T07:30:43Z</time>
      </trkpt>
      <trkpt lat="45.16238" lon="-0.55484">
        <ele>29</ele>
        <time>2020-09-01T07:30:45Z</time>
      </trkpt>
      <trkpt lat="45.16237" lon="-0.55485">
        <ele>29</ele>
        <time>2020-09-01T07:30:46Z</time>
      </trkpt>
      <trkpt lat="45.16235" lon="-0.55486">
        <ele>29</ele>
        <time>2020-09-01T07:30:47Z</time>
      </trkpt>
      <trkpt lat="45.16234" lon="-0.55487">
        <ele>29</ele>
        <time>2020-09-01T07:30:48Z</time>
      </trkpt>
      <trkpt lat="45.16232" lon="-0.55489">
        <ele>29</ele>
        <time>2020-09-01T07:30:50Z</time>
      </trkpt>
      <trkpt lat="45.16231" lon="-0.55491">
        <ele>29</ele>
        <time>2020-09-01T07:30:51Z</time>
      </trkpt>
      <trkpt lat="45.1623" lon="-0.55493">
        <ele>29.1</ele>
        <time>2020-09-01T07:30:52Z</time>
      </trkpt>
      <trkpt lat="45.16228" lon="-0.55494">
        <ele>29.1</ele>
        <time>2020-09-01T07:30:53Z</time>
      </trkpt>
      <trkpt lat="45.16227" lon="-0.55496">
        <ele>29.1</ele>
        <time>2020-09-01T07:30:54Z</time>
      </trkpt>
      <trkpt lat="45.16226" lon="-0.55497">
        <ele>29.1</ele>
        <time>2020-09-01T07:30:55Z</time>
      </trkpt>
      <trkpt lat="45.16226" lon="-0.55498">
        <ele>29.1</ele>
        <time>2020-09-01T07:30:56Z</time>
      </trkpt>
      <trkpt lat="45.16225" lon="-0.55499">
        <ele>29.1</ele>
        <time>2020-09-01T07:30:57Z</time>
      </trkpt>
      <trkpt lat="45.16223" lon="-0.55501">
        <ele>29.1</ele>
        <time>2020-09-01T07:30:58Z</time>
      </trkpt>
      <trkpt lat="45.16223" lon="-0.55502">
        <ele>29.1</ele>
        <time>2020-09-01T07:31:00Z</time>
      </trkpt>
      <trkpt lat="45.16222" lon="-0.55502">
        <ele>29.1</ele>
        <time>2020-09-01T07:31:01Z</time>
      </trkpt>
      <trkpt lat="45.1622" lon="-0.55503">
        <ele>29.1</ele>
        <time>2020-09-01T07:31:03Z</time>
      </trkpt>
      <trkpt lat="45.16219" lon="-0.55504">
        <ele>29.1</ele>
        <time>2020-09-01T07:31:04Z</time>
      </trkpt>
      <trkpt lat="45.16216" lon="-0.55505">
        <ele>29.2</ele>
        <time>2020-09-01T07:31:05Z</time>
      </trkpt>
      <trkpt lat="45.16216" lon="-0.55505">
        <ele>29.3</ele>
        <time>2020-09-01T07:31:06Z</time>
      </trkpt>
      <trkpt lat="45.16212" lon="-0.55506">
        <ele>29.4</ele>
        <time>2020-09-01T07:31:09Z</time>
      </trkpt>
      <trkpt lat="45.1621" lon="-0.55506">
        <ele>29.5</ele>
        <time>2020-09-01T07:31:10Z</time>
      </trkpt>
      <trkpt lat="45.16208" lon="-0.55506">
        <ele>29.6</ele>
        <time>2020-09-01T07:31:12Z</time>
      </trkpt>
      <trkpt lat="45.16204" lon="-0.55506">
        <ele>29.6</ele>
        <time>2020-09-01T07:31:14Z</time>
      </trkpt>
      <trkpt lat="45.16203" lon="-0.55506">
        <ele>29.7</ele>
        <time>2020-09-01T07:31:15Z</time>
      </trkpt>
      <trkpt lat="45.16202" lon="-0.55505">
        <ele>29.7</ele>
        <time>2020-09-01T07:31:17Z</time>
      </trkpt>
      <trkpt lat="45.162" lon="-0.55505">
        <ele>29.7</ele>
        <time>2020-09-01T07:31:18Z</time>
      </trkpt>
      <trkpt lat="45.16198" lon="-0.55505">
        <ele>29.7</ele>
        <time>2020-09-01T07:31:20Z</time>
      </trkpt>
      <trkpt lat="45.16197" lon="-0.55505">
        <ele>29.8</ele>
        <time>2020-09-01T07:31:21Z</time>
      </trkpt>
      <trkpt lat="45.16195" lon="-0.55505">
        <ele>29.8</ele>
        <time>2020-09-01T07:31:22Z</time>
      </trkpt>
      <trkpt lat="45.16193" lon="-0.55505">
        <ele>29.8</ele>
        <time>2020-09-01T07:31:24Z</time>
      </trkpt>
      <trkpt lat="45.16191" lon="-0.55505">
        <ele>29.9</ele>
        <time>2020-09-01T07:31:25Z</time>
      </trkpt>
      <trkpt lat="45.16189" lon="-0.55505">
        <ele>30</ele>
        <time>2020-09-01T07:31:27Z</time>
      </trkpt>
      <trkpt lat="45.16188" lon="-0.55505">
        <ele>30</ele>
        <time>2020-09-01T07:31:28Z</time>
      </trkpt>
      <trkpt lat="45.16186" lon="-0.55505">
        <ele>30.1</ele>
        <time>2020-09-01T07:31:29Z</time>
      </trkpt>
      <trkpt lat="45.16184" lon="-0.55504">
        <ele>30.2</ele>
        <time>2020-09-01T07:31:30Z</time>
      </trkpt>
      <trkpt lat="45.16183" lon="-0.55504">
        <ele>30.2</ele>
        <time>2020-09-01T07:31:31Z</time>
      </trkpt>
      <trkpt lat="45.16181" lon="-0.55503">
        <ele>30.3</ele>
        <time>2020-09-01T07:31:33Z</time>
      </trkpt>
      <trkpt lat="45.1618" lon="-0.55502">
        <ele>30.3</ele>
        <time>2020-09-01T07:31:34Z</time>
      </trkpt>
      <trkpt lat="45.16179" lon="-0.55499">
        <ele>30.4</ele>
        <time>2020-09-01T07:31:35Z</time>
      </trkpt>
      <trkpt lat="45.16178" lon="-0.55498">
        <ele>30.4</ele>
        <time>2020-09-01T07:31:36Z</time>
      </trkpt>
      <trkpt lat="45.16178" lon="-0.55497">
        <ele>30.4</ele>
        <time>2020-09-01T07:31:37Z</time>
      </trkpt>
      <trkpt lat="45.16177" lon="-0.55493">
        <ele>30.5</ele>
        <time>2020-09-01T07:31:38Z</time>
      </trkpt>
      <trkpt lat="45.16177" lon="-0.55491">
        <ele>30.5</ele>
        <time>2020-09-01T07:31:39Z</time>
      </trkpt>
      <trkpt lat="45.16177" lon="-0.55489">
        <ele>30.5</ele>
        <time>2020-09-01T07:31:40Z</time>
      </trkpt>
      <trkpt lat="45.16177" lon="-0.55488">
        <ele>30.5</ele>
        <time>2020-09-01T07:31:41Z</time>
      </trkpt>
      <trkpt lat="45.16177" lon="-0.55486">
        <ele>30.5</ele>
        <time>2020-09-01T07:31:42Z</time>
      </trkpt>
      <trkpt lat="45.16176" lon="-0.55484">
        <ele>30.6</ele>
        <time>2020-09-01T07:31:43Z</time>
      </trkpt>
      <trkpt lat="45.16176" lon="-0.55482">
        <ele>30.6</ele>
        <time>2020-09-01T07:31:45Z</time>
      </trkpt>
      <trkpt lat="45.16176" lon="-0.55479">
        <ele>30.6</ele>
        <time>2020-09-01T07:31:46Z</time>
      </trkpt>
      <trkpt lat="45.16176" lon="-0.55477">
        <ele>30.6</ele>
        <time>2020-09-01T07:31:47Z</time>
      </trkpt>
      <trkpt lat="45.16176" lon="-0.55474">
        <ele>30.7</ele>
        <time>2020-09-01T07:31:48Z</time>
      </trkpt>
      <trkpt lat="45.16175" lon="-0.55471">
        <ele>30.7</ele>
        <time>2020-09-01T07:31:50Z</time>
      </trkpt>
      <trkpt lat="45.16175" lon="-0.55468">
        <ele>30.7</ele>
        <time>2020-09-01T07:31:51Z</time>
      </trkpt>
      <trkpt lat="45.16174" lon="-0.55466">
        <ele>30.7</ele>
        <time>2020-09-01T07:31:52Z</time>
      </trkpt>
      <trkpt lat="45.16174" lon="-0.55465">
        <ele>30.8</ele>
        <time>2020-09-01T07:31:53Z</time>
      </trkpt>
      <trkpt lat="45.16173" lon="-0.55462">
        <ele>30.8</ele>
        <time>2020-09-01T07:31:55Z</time>
      </trkpt>
      <trkpt lat="45.16173" lon="-0.55461">
        <ele>30.8</ele>
        <time>2020-09-01T07:31:56Z</time>
      </trkpt>
      <trkpt lat="45.16172" lon="-0.5546">
        <ele>30.8</ele>
        <time>2020-09-01T07:31:57Z</time>
      </trkpt>
      <trkpt lat="45.16172" lon="-0.5546">
        <ele>30.8</ele>
        <time>2020-09-01T07:31:58Z</time>
      </trkpt>
      <trkpt lat="45.16171" lon="-0.55458">
        <ele>30.9</ele>
        <time>2020-09-01T07:31:59Z</time>
      </trkpt>
      <trkpt lat="45.16171" lon="-0.55455">
        <ele>30.9</ele>
        <time>2020-09-01T07:32:01Z</time>
      </trkpt>
      <trkpt lat="45.1617" lon="-0.55452">
        <ele>31</ele>
        <time>2020-09-01T07:32:03Z</time>
      </trkpt>
      <trkpt lat="45.1617" lon="-0.55451">
        <ele>31.1</ele>
        <time>2020-09-01T07:32:04Z</time>
      </trkpt>
      <trkpt lat="45.1617" lon="-0.55447">
        <ele>31.2</ele>
        <time>2020-09-01T07:32:06Z</time>
      </trkpt>
      <trkpt lat="45.16169" lon="-0.55445">
        <ele>31.3</ele>
        <time>2020-09-01T07:32:08Z</time>
      </trkpt>
      <trkpt lat="45.16169" lon="-0.55443">
        <ele>31.3</ele>
        <time>2020-09-01T07:32:09Z</time>
      </trkpt>
      <trkpt lat="45.16169" lon="-0.55441">
        <ele>31.4</ele>
        <time>2020-09-01T07:32:10Z</time>
      </trkpt>
      <trkpt lat="45.16168" lon="-0.55438">
        <ele>31.4</ele>
        <time>2020-09-01T07:32:11Z</time>
      </trkpt>
      <trkpt lat="45.16168" lon="-0.55436">
        <ele>31.5</ele>
        <time>2020-09-01T07:32:12Z</time>
      </trkpt>
      <trkpt lat="45.16167" lon="-0.55433">
        <ele>31.6</ele>
        <time>2020-09-01T07:32:14Z</time>
      </trkpt>
      <trkpt lat="45.16167" lon="-0.5543">
        <ele>31.7</ele>
        <time>2020-09-01T07:32:15Z</time>
      </trkpt>
      <trkpt lat="45.16167" lon="-0.55428">
        <ele>31.7</ele>
        <time>2020-09-01T07:32:16Z</time>
      </trkpt>
      <trkpt lat="45.16166" lon="-0.55427">
        <ele>31.8</ele>
        <time>2020-09-01T07:32:17Z</time>
      </trkpt>
      <trkpt lat="45.16166" lon="-0.55424">
        <ele>31.8</ele>
        <time>2020-09-01T07:32:19Z</time>
      </trkpt>
      <trkpt lat="45.16165" lon="-0.55422">
        <ele>31.9</ele>
        <time>2020-09-01T07:32:20Z</time>
      </trkpt>
      <trkpt lat="45.16165" lon="-0.5542">
        <ele>31.9</ele>
        <time>2020-09-01T07:32:21Z</time>
      </trkpt>
      <trkpt lat="45.16165" lon="-0.55419">
        <ele>32</ele>
        <time>2020-09-01T07:32:22Z</time>
      </trkpt>
      <trkpt lat="45.16164" lon="-0.55417">
        <ele>32</ele>
        <time>2020-09-01T07:32:23Z</time>
      </trkpt>
      <trkpt lat="45.16164" lon="-0.55414">
        <ele>32.1</ele>
        <time>2020-09-01T07:32:25Z</time>
      </trkpt>
      <trkpt lat="45.16163" lon="-0.55412">
        <ele>32.1</ele>
        <time>2020-09-01T07:32:26Z</time>
      </trkpt>
      <trkpt lat="45.16163" lon="-0.5541">
        <ele>32.2</ele>
        <time>2020-09-01T07:32:27Z</time>
      </trkpt>
      <trkpt lat="45.16162" lon="-0.55406">
        <ele>32.3</ele>
        <time>2020-09-01T07:32:29Z</time>
      </trkpt>
      <trkpt lat="45.16161" lon="-0.55405">
        <ele>32.4</ele>
        <time>2020-09-01T07:32:30Z</time>
      </trkpt>
      <trkpt lat="45.16161" lon="-0.554">
        <ele>32.5</ele>
        <time>2020-09-01T07:32:32Z</time>
      </trkpt>
      <trkpt lat="45.16161" lon="-0.55399">
        <ele>32.5</ele>
        <time>2020-09-01T07:32:33Z</time>
      </trkpt>
      <trkpt lat="45.1616" lon="-0.55395">
        <ele>32.6</ele>
        <time>2020-09-01T07:32:34Z</time>
      </trkpt>
      <trkpt lat="45.1616" lon="-0.55393">
        <ele>32.7</ele>
        <time>2020-09-01T07:32:36Z</time>
      </trkpt>
      <trkpt lat="45.1616" lon="-0.55391">
        <ele>32.7</ele>
        <time>2020-09-01T07:32:37Z</time>
      </trkpt>
      <trkpt lat="45.1616" lon="-0.55389">
        <ele>32.7</ele>
        <time>2020-09-01T07:32:38Z</time>
      </trkpt>
      <trkpt lat="45.1616" lon="-0.55386">
        <ele>32.8</ele>
        <time>2020-09-01T07:32:39Z</time>
      </trkpt>
      <trkpt lat="45.1616" lon="-0.55384">
        <ele>32.8</ele>
        <time>2020-09-01T07:32:40Z</time>
      </trkpt>
      <trkpt lat="45.1616" lon="-0.55383">
        <ele>32.8</ele>
        <time>2020-09-01T07:32:41Z</time>
      </trkpt>
      <trkpt lat="45.1616" lon="-0.55381">
        <ele>32.8</ele>
        <time>2020-09-01T07:32:43Z</time>
      </trkpt>
      <trkpt lat="45.1616" lon="-0.5538">
        <ele>32.9</ele>
        <time>2020-09-01T07:32:44Z</time>
      </trkpt>
      <trkpt lat="45.1616" lon="-0.55377">
        <ele>32.9</ele>
        <time>2020-09-01T07:32:45Z</time>
      </trkpt>
      <trkpt lat="45.1616" lon="-0.55377">
        <ele>32.9</ele>
        <time>2020-09-01T07:32:46Z</time>
      </trkpt>
      <trkpt lat="45.16159" lon="-0.55374">
        <ele>32.9</ele>
        <time>2020-09-01T07:32:48Z</time>
      </trkpt>
      <trkpt lat="45.16159" lon="-0.55373">
        <ele>33</ele>
        <time>2020-09-01T07:32:49Z</time>
      </trkpt>
      <trkpt lat="45.16158" lon="-0.5537">
        <ele>33</ele>
        <time>2020-09-01T07:32:50Z</time>
      </trkpt>
      <trkpt lat="45.16158" lon="-0.55369">
        <ele>33</ele>
        <time>2020-09-01T07:32:51Z</time>
      </trkpt>
      <trkpt lat="45.16157" lon="-0.55367">
        <ele>33.1</ele>
        <time>2020-09-01T07:32:53Z</time>
      </trkpt>
      <trkpt lat="45.16156" lon="-0.55364">
        <ele>33.1</ele>
        <time>2020-09-01T07:32:55Z</time>
      </trkpt>
      <trkpt lat="45.16155" lon="-0.55362">
        <ele>33.2</ele>
        <time>2020-09-01T07:32:56Z</time>
      </trkpt>
      <trkpt lat="45.16155" lon="-0.5536">
        <ele>33.2</ele>
        <time>2020-09-01T07:32:57Z</time>
      </trkpt>
      <trkpt lat="45.16155" lon="-0.55358">
        <ele>33.3</ele>
        <time>2020-09-01T07:32:58Z</time>
      </trkpt>
      <trkpt lat="45.16154" lon="-0.55356">
        <ele>33.3</ele>
        <time>2020-09-01T07:32:59Z</time>
      </trkpt>
      <trkpt lat="45.16153" lon="-0.55353">
        <ele>33.4</ele>
        <time>2020-09-01T07:33:01Z</time>
      </trkpt>
      <trkpt lat="45.16153" lon="-0.55352">
        <ele>33.5</ele>
        <time>2020-09-01T07:33:02Z</time>
      </trkpt>
      <trkpt lat="45.16152" lon="-0.5535">
        <ele>33.5</ele>
        <time>2020-09-01T07:33:03Z</time>
      </trkpt>
      <trkpt lat="45.16151" lon="-0.55347">
        <ele>33.6</ele>
        <time>2020-09-01T07:33:05Z</time>
      </trkpt>
      <trkpt lat="45.1615" lon="-0.55345">
        <ele>33.7</ele>
        <time>2020-09-01T07:33:06Z</time>
      </trkpt>
      <trkpt lat="45.1615" lon="-0.55344">
        <ele>33.7</ele>
        <time>2020-09-01T07:33:07Z</time>
      </trkpt>
      <trkpt lat="45.1615" lon="-0.55343">
        <ele>33.8</ele>
        <time>2020-09-01T07:33:08Z</time>
      </trkpt>
      <trkpt lat="45.1615" lon="-0.55342">
        <ele>33.8</ele>
        <time>2020-09-01T07:33:09Z</time>
      </trkpt>
      <trkpt lat="45.16149" lon="-0.5534">
        <ele>33.8</ele>
        <time>2020-09-01T07:33:10Z</time>
      </trkpt>
      <trkpt lat="45.16149" lon="-0.55339">
        <ele>33.9</ele>
        <time>2020-09-01T07:33:11Z</time>
      </trkpt>
      <trkpt lat="45.16149" lon="-0.55338">
        <ele>33.9</ele>
        <time>2020-09-01T07:33:12Z</time>
      </trkpt>
      <trkpt lat="45.16148" lon="-0.55337">
        <ele>33.9</ele>
        <time>2020-09-01T07:33:13Z</time>
      </trkpt>
      <trkpt lat="45.16148" lon="-0.55335">
        <ele>33.9</ele>
        <time>2020-09-01T07:33:14Z</time>
      </trkpt>
      <trkpt lat="45.16147" lon="-0.55333">
        <ele>34</ele>
        <time>2020-09-01T07:33:15Z</time>
      </trkpt>
      <trkpt lat="45.16146" lon="-0.55331">
        <ele>34</ele>
        <time>2020-09-01T07:33:17Z</time>
      </trkpt>
      <trkpt lat="45.16146" lon="-0.55329">
        <ele>34</ele>
        <time>2020-09-01T07:33:18Z</time>
      </trkpt>
      <trkpt lat="45.16145" lon="-0.55326">
        <ele>34.1</ele>
        <time>2020-09-01T07:33:20Z</time>
      </trkpt>
      <trkpt lat="45.16144" lon="-0.55325">
        <ele>34.1</ele>
        <time>2020-09-01T07:33:21Z</time>
      </trkpt>
      <trkpt lat="45.16144" lon="-0.55323">
        <ele>34.1</ele>
        <time>2020-09-01T07:33:22Z</time>
      </trkpt>
      <trkpt lat="45.16143" lon="-0.55321">
        <ele>34.1</ele>
        <time>2020-09-01T07:33:24Z</time>
      </trkpt>
      <trkpt lat="45.16143" lon="-0.55318">
        <ele>34.1</ele>
        <time>2020-09-01T07:33:25Z</time>
      </trkpt>
      <trkpt lat="45.16142" lon="-0.55317">
        <ele>34.1</ele>
        <time>2020-09-01T07:33:26Z</time>
      </trkpt>
      <trkpt lat="45.16141" lon="-0.55312">
        <ele>34.2</ele>
        <time>2020-09-01T07:33:27Z</time>
      </trkpt>
      <trkpt lat="45.16141" lon="-0.55311">
        <ele>34.2</ele>
        <time>2020-09-01T07:33:28Z</time>
      </trkpt>
      <trkpt lat="45.1614" lon="-0.55309">
        <ele>34.2</ele>
        <time>2020-09-01T07:33:29Z</time>
      </trkpt>
      <trkpt lat="45.1614" lon="-0.55307">
        <ele>34.3</ele>
        <time>2020-09-01T07:33:31Z</time>
      </trkpt>
      <trkpt lat="45.1614" lon="-0.55305">
        <ele>34.3</ele>
        <time>2020-09-01T07:33:32Z</time>
      </trkpt>
      <trkpt lat="45.16139" lon="-0.55303">
        <ele>34.3</ele>
        <time>2020-09-01T07:33:33Z</time>
      </trkpt>
      <trkpt lat="45.16138" lon="-0.55298">
        <ele>34.4</ele>
        <time>2020-09-01T07:33:35Z</time>
      </trkpt>
      <trkpt lat="45.16137" lon="-0.55296">
        <ele>34.5</ele>
        <time>2020-09-01T07:33:36Z</time>
      </trkpt>
      <trkpt lat="45.16137" lon="-0.55295">
        <ele>34.5</ele>
        <time>2020-09-01T07:33:37Z</time>
      </trkpt>
      <trkpt lat="45.16137" lon="-0.55294">
        <ele>34.5</ele>
        <time>2020-09-01T07:33:38Z</time>
      </trkpt>
      <trkpt lat="45.16136" lon="-0.55292">
        <ele>34.6</ele>
        <time>2020-09-01T07:33:39Z</time>
      </trkpt>
      <trkpt lat="45.16136" lon="-0.55288">
        <ele>34.7</ele>
        <time>2020-09-01T07:33:41Z</time>
      </trkpt>
      <trkpt lat="45.16135" lon="-0.55286">
        <ele>34.7</ele>
        <time>2020-09-01T07:33:42Z</time>
      </trkpt>
      <trkpt lat="45.16135" lon="-0.55284">
        <ele>34.8</ele>
        <time>2020-09-01T07:33:43Z</time>
      </trkpt>
      <trkpt lat="45.16134" lon="-0.5528">
        <ele>34.8</ele>
        <time>2020-09-01T07:33:45Z</time>
      </trkpt>
      <trkpt lat="45.16134" lon="-0.55279">
        <ele>34.8</ele>
        <time>2020-09-01T07:33:46Z</time>
      </trkpt>
      <trkpt lat="45.16133" lon="-0.55277">
        <ele>34.9</ele>
        <time>2020-09-01T07:33:47Z</time>
      </trkpt>
      <trkpt lat="45.16132" lon="-0.55275">
        <ele>34.9</ele>
        <time>2020-09-01T07:33:48Z</time>
      </trkpt>
      <trkpt lat="45.16132" lon="-0.55273">
        <ele>34.9</ele>
        <time>2020-09-01T07:33:49Z</time>
      </trkpt>
      <trkpt lat="45.16131" lon="-0.5527">
        <ele>35</ele>
        <time>2020-09-01T07:33:50Z</time>
      </trkpt>
      <trkpt lat="45.1613" lon="-0.55269">
        <ele>35</ele>
        <time>2020-09-01T07:33:52Z</time>
      </trkpt>
      <trkpt lat="45.1613" lon="-0.55267">
        <ele>35</ele>
        <time>2020-09-01T07:33:53Z</time>
      </trkpt>
      <trkpt lat="45.16129" lon="-0.55264">
        <ele>35</ele>
        <time>2020-09-01T07:33:55Z</time>
      </trkpt>
      <trkpt lat="45.16128" lon="-0.55263">
        <ele>35.1</ele>
        <time>2020-09-01T07:33:56Z</time>
      </trkpt>
      <trkpt lat="45.16127" lon="-0.5526">
        <ele>35.1</ele>
        <time>2020-09-01T07:33:57Z</time>
      </trkpt>
      <trkpt lat="45.16127" lon="-0.55259">
        <ele>35.1</ele>
        <time>2020-09-01T07:33:58Z</time>
      </trkpt>
      <trkpt lat="45.16127" lon="-0.55258">
        <ele>35.1</ele>
        <time>2020-09-01T07:33:59Z</time>
      </trkpt>
      <trkpt lat="45.16126" lon="-0.55255">
        <ele>35.1</ele>
        <time>2020-09-01T07:34:01Z</time>
      </trkpt>
      <trkpt lat="45.16125" lon="-0.55253">
        <ele>35.1</ele>
        <time>2020-09-01T07:34:02Z</time>
      </trkpt>
      <trkpt lat="45.16125" lon="-0.55251">
        <ele>35.1</ele>
        <time>2020-09-01T07:34:03Z</time>
      </trkpt>
      <trkpt lat="45.16124" lon="-0.5525">
        <ele>35.1</ele>
        <time>2020-09-01T07:34:05Z</time>
      </trkpt>
      <trkpt lat="45.16124" lon="-0.55248">
        <ele>35.2</ele>
        <time>2020-09-01T07:34:06Z</time>
      </trkpt>
      <trkpt lat="45.16124" lon="-0.55247">
        <ele>35.2</ele>
        <time>2020-09-01T07:34:07Z</time>
      </trkpt>
      <trkpt lat="45.16123" lon="-0.55244">
        <ele>35.2</ele>
        <time>2020-09-01T07:34:09Z</time>
      </trkpt>
      <trkpt lat="45.16122" lon="-0.5524">
        <ele>35.2</ele>
        <time>2020-09-01T07:34:10Z</time>
      </trkpt>
      <trkpt lat="45.16122" lon="-0.55239">
        <ele>35.2</ele>
        <time>2020-09-01T07:34:11Z</time>
      </trkpt>
      <trkpt lat="45.16121" lon="-0.55237">
        <ele>35.2</ele>
        <time>2020-09-01T07:34:12Z</time>
      </trkpt>
      <trkpt lat="45.16121" lon="-0.55236">
        <ele>35.2</ele>
        <time>2020-09-01T07:34:13Z</time>
      </trkpt>
      <trkpt lat="45.1612" lon="-0.55234">
        <ele>35.2</ele>
        <time>2020-09-01T07:34:14Z</time>
      </trkpt>
      <trkpt lat="45.16119" lon="-0.55231">
        <ele>35.2</ele>
        <time>2020-09-01T07:34:16Z</time>
      </trkpt>
      <trkpt lat="45.16119" lon="-0.55229">
        <ele>35.3</ele>
        <time>2020-09-01T07:34:18Z</time>
      </trkpt>
      <trkpt lat="45.16119" lon="-0.55227">
        <ele>35.3</ele>
        <time>2020-09-01T07:34:20Z</time>
      </trkpt>
      <trkpt lat="45.16118" lon="-0.55224">
        <ele>35.3</ele>
        <time>2020-09-01T07:34:21Z</time>
      </trkpt>
      <trkpt lat="45.16118" lon="-0.55222">
        <ele>35.3</ele>
        <time>2020-09-01T07:34:23Z</time>
      </trkpt>
      <trkpt lat="45.16117" lon="-0.5522">
        <ele>35.3</ele>
        <time>2020-09-01T07:34:24Z</time>
      </trkpt>
      <trkpt lat="45.16117" lon="-0.55218">
        <ele>35.3</ele>
        <time>2020-09-01T07:34:25Z</time>
      </trkpt>
      <trkpt lat="45.16117" lon="-0.55215">
        <ele>35.3</ele>
        <time>2020-09-01T07:34:27Z</time>
      </trkpt>
      <trkpt lat="45.16116" lon="-0.55213">
        <ele>35.3</ele>
        <time>2020-09-01T07:34:28Z</time>
      </trkpt>
      <trkpt lat="45.16116" lon="-0.55211">
        <ele>35.3</ele>
        <time>2020-09-01T07:34:29Z</time>
      </trkpt>
      <trkpt lat="45.16115" lon="-0.55208">
        <ele>35.4</ele>
        <time>2020-09-01T07:34:30Z</time>
      </trkpt>
      <trkpt lat="45.16115" lon="-0.55206">
        <ele>35.4</ele>
        <time>2020-09-01T07:34:32Z</time>
      </trkpt>
      <trkpt lat="45.16114" lon="-0.55204">
        <ele>35.4</ele>
        <time>2020-09-01T07:34:33Z</time>
      </trkpt>
      <trkpt lat="45.16113" lon="-0.55202">
        <ele>35.4</ele>
        <time>2020-09-01T07:34:34Z</time>
      </trkpt>
      <trkpt lat="45.16112" lon="-0.55201">
        <ele>35.4</ele>
        <time>2020-09-01T07:34:35Z</time>
      </trkpt>
      <trkpt lat="45.16112" lon="-0.55198">
        <ele>35.4</ele>
        <time>2020-09-01T07:34:37Z</time>
      </trkpt>
      <trkpt lat="45.16111" lon="-0.55196">
        <ele>35.4</ele>
        <time>2020-09-01T07:34:38Z</time>
      </trkpt>
      <trkpt lat="45.16111" lon="-0.55194">
        <ele>35.4</ele>
        <time>2020-09-01T07:34:39Z</time>
      </trkpt>
      <trkpt lat="45.1611" lon="-0.55192">
        <ele>35.4</ele>
        <time>2020-09-01T07:34:40Z</time>
      </trkpt>
      <trkpt lat="45.16109" lon="-0.55189">
        <ele>35.5</ele>
        <time>2020-09-01T07:34:42Z</time>
      </trkpt>
      <trkpt lat="45.16109" lon="-0.55188">
        <ele>35.5</ele>
        <time>2020-09-01T07:34:43Z</time>
      </trkpt>
      <trkpt lat="45.16108" lon="-0.55186">
        <ele>35.5</ele>
        <time>2020-09-01T07:34:44Z</time>
      </trkpt>
      <trkpt lat="45.16107" lon="-0.55183">
        <ele>35.5</ele>
        <time>2020-09-01T07:34:45Z</time>
      </trkpt>
      <trkpt lat="45.16107" lon="-0.55182">
        <ele>35.5</ele>
        <time>2020-09-01T07:34:46Z</time>
      </trkpt>
      <trkpt lat="45.16107" lon="-0.55179">
        <ele>35.5</ele>
        <time>2020-09-01T07:34:47Z</time>
      </trkpt>
      <trkpt lat="45.16106" lon="-0.55178">
        <ele>35.5</ele>
        <time>2020-09-01T07:34:48Z</time>
      </trkpt>
      <trkpt lat="45.16106" lon="-0.55177">
        <ele>35.5</ele>
        <time>2020-09-01T07:34:49Z</time>
      </trkpt>
      <trkpt lat="45.16106" lon="-0.55174">
        <ele>35.5</ele>
        <time>2020-09-01T07:34:50Z</time>
      </trkpt>
      <trkpt lat="45.16106" lon="-0.55172">
        <ele>35.5</ele>
        <time>2020-09-01T07:34:51Z</time>
      </trkpt>
      <trkpt lat="45.16106" lon="-0.55171">
        <ele>35.5</ele>
        <time>2020-09-01T07:34:52Z</time>
      </trkpt>
      <trkpt lat="45.16106" lon="-0.55169">
        <ele>35.5</ele>
        <time>2020-09-01T07:34:53Z</time>
      </trkpt>
      <trkpt lat="45.16106" lon="-0.55168">
        <ele>35.5</ele>
        <time>2020-09-01T07:34:54Z</time>
      </trkpt>
      <trkpt lat="45.16105" lon="-0.55165">
        <ele>35.6</ele>
        <time>2020-09-01T07:34:56Z</time>
      </trkpt>
      <trkpt lat="45.16105" lon="-0.55164">
        <ele>35.6</ele>
        <time>2020-09-01T07:34:57Z</time>
      </trkpt>
      <trkpt lat="45.16105" lon="-0.55162">
        <ele>35.6</ele>
        <time>2020-09-01T07:34:58Z</time>
      </trkpt>
      <trkpt lat="45.16105" lon="-0.5516">
        <ele>35.6</ele>
        <time>2020-09-01T07:34:59Z</time>
      </trkpt>
      <trkpt lat="45.16104" lon="-0.55158">
        <ele>35.6</ele>
        <time>2020-09-01T07:35:00Z</time>
      </trkpt>
      <trkpt lat="45.16104" lon="-0.55157">
        <ele>35.6</ele>
        <time>2020-09-01T07:35:02Z</time>
      </trkpt>
      <trkpt lat="45.16104" lon="-0.55155">
        <ele>35.6</ele>
        <time>2020-09-01T07:35:03Z</time>
      </trkpt>
      <trkpt lat="45.16104" lon="-0.55152">
        <ele>35.6</ele>
        <time>2020-09-01T07:35:04Z</time>
      </trkpt>
      <trkpt lat="45.16104" lon="-0.55151">
        <ele>35.6</ele>
        <time>2020-09-01T07:35:05Z</time>
      </trkpt>
      <trkpt lat="45.16104" lon="-0.55149">
        <ele>35.6</ele>
        <time>2020-09-01T07:35:06Z</time>
      </trkpt>
      <trkpt lat="45.16104" lon="-0.55147">
        <ele>35.6</ele>
        <time>2020-09-01T07:35:07Z</time>
      </trkpt>
      <trkpt lat="45.16104" lon="-0.55145">
        <ele>35.6</ele>
        <time>2020-09-01T07:35:09Z</time>
      </trkpt>
      <trkpt lat="45.16104" lon="-0.55141">
        <ele>35.6</ele>
        <time>2020-09-01T07:35:11Z</time>
      </trkpt>
      <trkpt lat="45.16104" lon="-0.5514">
        <ele>35.6</ele>
        <time>2020-09-01T07:35:12Z</time>
      </trkpt>
      <trkpt lat="45.16103" lon="-0.55137">
        <ele>35.6</ele>
        <time>2020-09-01T07:35:13Z</time>
      </trkpt>
      <trkpt lat="45.16104" lon="-0.55135">
        <ele>35.6</ele>
        <time>2020-09-01T07:35:14Z</time>
      </trkpt>
      <trkpt lat="45.16104" lon="-0.55134">
        <ele>35.6</ele>
        <time>2020-09-01T07:35:15Z</time>
      </trkpt>
      <trkpt lat="45.16104" lon="-0.55131">
        <ele>35.6</ele>
        <time>2020-09-01T07:35:16Z</time>
      </trkpt>
      <trkpt lat="45.16104" lon="-0.5513">
        <ele>35.6</ele>
        <time>2020-09-01T07:35:17Z</time>
      </trkpt>
      <trkpt lat="45.16104" lon="-0.55129">
        <ele>35.5</ele>
        <time>2020-09-01T07:35:18Z</time>
      </trkpt>
      <trkpt lat="45.16105" lon="-0.55125">
        <ele>35.5</ele>
        <time>2020-09-01T07:35:20Z</time>
      </trkpt>
      <trkpt lat="45.16105" lon="-0.55123">
        <ele>35.4</ele>
        <time>2020-09-01T07:35:21Z</time>
      </trkpt>
      <trkpt lat="45.16105" lon="-0.55121">
        <ele>35.4</ele>
        <time>2020-09-01T07:35:22Z</time>
      </trkpt>
      <trkpt lat="45.16105" lon="-0.5512">
        <ele>35.3</ele>
        <time>2020-09-01T07:35:23Z</time>
      </trkpt>
      <trkpt lat="45.16106" lon="-0.55115">
        <ele>35.1</ele>
        <time>2020-09-01T07:35:25Z</time>
      </trkpt>
      <trkpt lat="45.16106" lon="-0.55114">
        <ele>35</ele>
        <time>2020-09-01T07:35:26Z</time>
      </trkpt>
      <trkpt lat="45.16106" lon="-0.55113">
        <ele>34.9</ele>
        <time>2020-09-01T07:35:27Z</time>
      </trkpt>
      <trkpt lat="45.16106" lon="-0.55111">
        <ele>34.8</ele>
        <time>2020-09-01T07:35:28Z</time>
      </trkpt>
      <trkpt lat="45.16107" lon="-0.55107">
        <ele>34.4</ele>
        <time>2020-09-01T07:35:30Z</time>
      </trkpt>
      <trkpt lat="45.16107" lon="-0.55106">
        <ele>34.3</ele>
        <time>2020-09-01T07:35:31Z</time>
      </trkpt>
      <trkpt lat="45.16107" lon="-0.55105">
        <ele>34.2</ele>
        <time>2020-09-01T07:35:32Z</time>
      </trkpt>
      <trkpt lat="45.16107" lon="-0.55104">
        <ele>34</ele>
        <time>2020-09-01T07:35:33Z</time>
      </trkpt>
      <trkpt lat="45.16107" lon="-0.55103">
        <ele>33.9</ele>
        <time>2020-09-01T07:35:35Z</time>
      </trkpt>
      <trkpt lat="45.16107" lon="-0.551">
        <ele>33.5</ele>
        <time>2020-09-01T07:35:36Z</time>
      </trkpt>
      <trkpt lat="45.16108" lon="-0.55099">
        <ele>33.3</ele>
        <time>2020-09-01T07:35:37Z</time>
      </trkpt>
      <trkpt lat="45.16108" lon="-0.55095">
        <ele>32.6</ele>
        <time>2020-09-01T07:35:39Z</time>
      </trkpt>
      <trkpt lat="45.16108" lon="-0.55094">
        <ele>32.4</ele>
        <time>2020-09-01T07:35:40Z</time>
      </trkpt>
      <trkpt lat="45.16108" lon="-0.55092">
        <ele>32.1</ele>
        <time>2020-09-01T07:35:41Z</time>
      </trkpt>
      <trkpt lat="45.16108" lon="-0.5509">
        <ele>31.7</ele>
        <time>2020-09-01T07:35:42Z</time>
      </trkpt>
      <trkpt lat="45.16108" lon="-0.55088">
        <ele>31.3</ele>
        <time>2020-09-01T07:35:44Z</time>
      </trkpt>
      <trkpt lat="45.16108" lon="-0.55087">
        <ele>31</ele>
        <time>2020-09-01T07:35:45Z</time>
      </trkpt>
      <trkpt lat="45.16109" lon="-0.55083">
        <ele>31</ele>
        <time>2020-09-01T07:35:46Z</time>
      </trkpt>
      <trkpt lat="45.16109" lon="-0.5508">
        <ele>31.1</ele>
        <time>2020-09-01T07:35:48Z</time>
      </trkpt>
      <trkpt lat="45.16109" lon="-0.55079">
        <ele>31.1</ele>
        <time>2020-09-01T07:35:49Z</time>
      </trkpt>
      <trkpt lat="45.16109" lon="-0.55078">
        <ele>31.1</ele>
        <time>2020-09-01T07:35:50Z</time>
      </trkpt>
      <trkpt lat="45.1611" lon="-0.55075">
        <ele>31.2</ele>
        <time>2020-09-01T07:35:51Z</time>
      </trkpt>
      <trkpt lat="45.1611" lon="-0.55073">
        <ele>31.3</ele>
        <time>2020-09-01T07:35:53Z</time>
      </trkpt>
      <trkpt lat="45.1611" lon="-0.55071">
        <ele>31.3</ele>
        <time>2020-09-01T07:35:54Z</time>
      </trkpt>
      <trkpt lat="45.16111" lon="-0.55069">
        <ele>31.3</ele>
        <time>2020-09-01T07:35:55Z</time>
      </trkpt>
      <trkpt lat="45.16111" lon="-0.55065">
        <ele>31.4</ele>
        <time>2020-09-01T07:35:56Z</time>
      </trkpt>
      <trkpt lat="45.16112" lon="-0.55064">
        <ele>31.4</ele>
        <time>2020-09-01T07:35:57Z</time>
      </trkpt>
      <trkpt lat="45.16112" lon="-0.55061">
        <ele>31.5</ele>
        <time>2020-09-01T07:35:58Z</time>
      </trkpt>
      <trkpt lat="45.16112" lon="-0.5506">
        <ele>31.5</ele>
        <time>2020-09-01T07:35:59Z</time>
      </trkpt>
      <trkpt lat="45.16112" lon="-0.55058">
        <ele>31.5</ele>
        <time>2020-09-01T07:36:00Z</time>
      </trkpt>
      <trkpt lat="45.16113" lon="-0.55055">
        <ele>31.5</ele>
        <time>2020-09-01T07:36:02Z</time>
      </trkpt>
      <trkpt lat="45.16113" lon="-0.55054">
        <ele>31.5</ele>
        <time>2020-09-01T07:36:03Z</time>
      </trkpt>
      <trkpt lat="45.16114" lon="-0.55052">
        <ele>31.6</ele>
        <time>2020-09-01T07:36:04Z</time>
      </trkpt>
      <trkpt lat="45.16114" lon="-0.55049">
        <ele>31.6</ele>
        <time>2020-09-01T07:36:05Z</time>
      </trkpt>
      <trkpt lat="45.16114" lon="-0.55046">
        <ele>31.6</ele>
        <time>2020-09-01T07:36:06Z</time>
      </trkpt>
      <trkpt lat="45.16114" lon="-0.55045">
        <ele>31.6</ele>
        <time>2020-09-01T07:36:08Z</time>
      </trkpt>
      <trkpt lat="45.16114" lon="-0.55043">
        <ele>31.6</ele>
        <time>2020-09-01T07:36:09Z</time>
      </trkpt>
      <trkpt lat="45.16114" lon="-0.55041">
        <ele>31.6</ele>
        <time>2020-09-01T07:36:11Z</time>
      </trkpt>
      <trkpt lat="45.16114" lon="-0.5504">
        <ele>31.6</ele>
        <time>2020-09-01T07:36:12Z</time>
      </trkpt>
      <trkpt lat="45.16114" lon="-0.55038">
        <ele>31.6</ele>
        <time>2020-09-01T07:36:13Z</time>
      </trkpt>
      <trkpt lat="45.16114" lon="-0.55034">
        <ele>31.6</ele>
        <time>2020-09-01T07:36:14Z</time>
      </trkpt>
      <trkpt lat="45.16114" lon="-0.55032">
        <ele>31.7</ele>
        <time>2020-09-01T07:36:15Z</time>
      </trkpt>
      <trkpt lat="45.16115" lon="-0.55029">
        <ele>31.7</ele>
        <time>2020-09-01T07:36:17Z</time>
      </trkpt>
      <trkpt lat="45.16115" lon="-0.55028">
        <ele>31.7</ele>
        <time>2020-09-01T07:36:18Z</time>
      </trkpt>
      <trkpt lat="45.16115" lon="-0.55027">
        <ele>31.7</ele>
        <time>2020-09-01T07:36:19Z</time>
      </trkpt>
      <trkpt lat="45.16115" lon="-0.55024">
        <ele>31.7</ele>
        <time>2020-09-01T07:36:20Z</time>
      </trkpt>
      <trkpt lat="45.16115" lon="-0.55023">
        <ele>31.7</ele>
        <time>2020-09-01T07:36:22Z</time>
      </trkpt>
      <trkpt lat="45.16115" lon="-0.55022">
        <ele>31.7</ele>
        <time>2020-09-01T07:36:23Z</time>
      </trkpt>
      <trkpt lat="45.16116" lon="-0.5502">
        <ele>31.7</ele>
        <time>2020-09-01T07:36:24Z</time>
      </trkpt>
      <trkpt lat="45.16116" lon="-0.55018">
        <ele>31.7</ele>
        <time>2020-09-01T07:36:26Z</time>
      </trkpt>
      <trkpt lat="45.16116" lon="-0.55015">
        <ele>31.7</ele>
        <time>2020-09-01T07:36:28Z</time>
      </trkpt>
      <trkpt lat="45.16116" lon="-0.55014">
        <ele>31.8</ele>
        <time>2020-09-01T07:36:29Z</time>
      </trkpt>
      <trkpt lat="45.16117" lon="-0.5501">
        <ele>31.8</ele>
        <time>2020-09-01T07:36:30Z</time>
      </trkpt>
      <trkpt lat="45.16117" lon="-0.55008">
        <ele>31.8</ele>
        <time>2020-09-01T07:36:31Z</time>
      </trkpt>
      <trkpt lat="45.16117" lon="-0.55005">
        <ele>31.8</ele>
        <time>2020-09-01T07:36:33Z</time>
      </trkpt>
      <trkpt lat="45.16117" lon="-0.55003">
        <ele>31.8</ele>
        <time>2020-09-01T07:36:34Z</time>
      </trkpt>
      <trkpt lat="45.16118" lon="-0.55002">
        <ele>31.8</ele>
        <time>2020-09-01T07:36:35Z</time>
      </trkpt>
      <trkpt lat="45.16118" lon="-0.54998">
        <ele>31.9</ele>
        <time>2020-09-01T07:36:37Z</time>
      </trkpt>
      <trkpt lat="45.16118" lon="-0.54996">
        <ele>31.9</ele>
        <time>2020-09-01T07:36:38Z</time>
      </trkpt>
      <trkpt lat="45.16119" lon="-0.54994">
        <ele>31.9</ele>
        <time>2020-09-01T07:36:39Z</time>
      </trkpt>
      <trkpt lat="45.16119" lon="-0.54993">
        <ele>31.9</ele>
        <time>2020-09-01T07:36:40Z</time>
      </trkpt>
      <trkpt lat="45.16119" lon="-0.54987">
        <ele>32</ele>
        <time>2020-09-01T07:36:42Z</time>
      </trkpt>
      <trkpt lat="45.1612" lon="-0.54986">
        <ele>32</ele>
        <time>2020-09-01T07:36:43Z</time>
      </trkpt>
      <trkpt lat="45.1612" lon="-0.54984">
        <ele>32</ele>
        <time>2020-09-01T07:36:44Z</time>
      </trkpt>
      <trkpt lat="45.1612" lon="-0.54982">
        <ele>32</ele>
        <time>2020-09-01T07:36:45Z</time>
      </trkpt>
      <trkpt lat="45.1612" lon="-0.54981">
        <ele>32</ele>
        <time>2020-09-01T07:36:46Z</time>
      </trkpt>
      <trkpt lat="45.1612" lon="-0.54978">
        <ele>32.1</ele>
        <time>2020-09-01T07:36:48Z</time>
      </trkpt>
      <trkpt lat="45.1612" lon="-0.54976">
        <ele>32.1</ele>
        <time>2020-09-01T07:36:49Z</time>
      </trkpt>
      <trkpt lat="45.16121" lon="-0.54974">
        <ele>32.1</ele>
        <time>2020-09-01T07:36:50Z</time>
      </trkpt>
      <trkpt lat="45.16121" lon="-0.54969">
        <ele>32.2</ele>
        <time>2020-09-01T07:36:51Z</time>
      </trkpt>
      <trkpt lat="45.16121" lon="-0.54968">
        <ele>32.2</ele>
        <time>2020-09-01T07:36:52Z</time>
      </trkpt>
      <trkpt lat="45.16122" lon="-0.54965">
        <ele>32.2</ele>
        <time>2020-09-01T07:36:53Z</time>
      </trkpt>
      <trkpt lat="45.16122" lon="-0.54964">
        <ele>32.3</ele>
        <time>2020-09-01T07:36:54Z</time>
      </trkpt>
      <trkpt lat="45.16123" lon="-0.54962">
        <ele>32.3</ele>
        <time>2020-09-01T07:36:55Z</time>
      </trkpt>
      <trkpt lat="45.16123" lon="-0.54961">
        <ele>32.3</ele>
        <time>2020-09-01T07:36:56Z</time>
      </trkpt>
      <trkpt lat="45.16123" lon="-0.5496">
        <ele>32.3</ele>
        <time>2020-09-01T07:36:57Z</time>
      </trkpt>
      <trkpt lat="45.16124" lon="-0.54958">
        <ele>32.3</ele>
        <time>2020-09-01T07:36:58Z</time>
      </trkpt>
      <trkpt lat="45.16124" lon="-0.54956">
        <ele>32.4</ele>
        <time>2020-09-01T07:37:00Z</time>
      </trkpt>
      <trkpt lat="45.16124" lon="-0.54954">
        <ele>32.4</ele>
        <time>2020-09-01T07:37:01Z</time>
      </trkpt>
      <trkpt lat="45.16124" lon="-0.54953">
        <ele>32.4</ele>
        <time>2020-09-01T07:37:02Z</time>
      </trkpt>
      <trkpt lat="45.16125" lon="-0.5495">
        <ele>32.5</ele>
        <time>2020-09-01T07:37:03Z</time>
      </trkpt>
      <trkpt lat="45.16125" lon="-0.54948">
        <ele>32.5</ele>
        <time>2020-09-01T07:37:04Z</time>
      </trkpt>
      <trkpt lat="45.16125" lon="-0.54946">
        <ele>32.5</ele>
        <time>2020-09-01T07:37:05Z</time>
      </trkpt>
      <trkpt lat="45.16126" lon="-0.54945">
        <ele>32.5</ele>
        <time>2020-09-01T07:37:06Z</time>
      </trkpt>
      <trkpt lat="45.16126" lon="-0.54943">
        <ele>32.5</ele>
        <time>2020-09-01T07:37:08Z</time>
      </trkpt>
      <trkpt lat="45.16126" lon="-0.54942">
        <ele>32.6</ele>
        <time>2020-09-01T07:37:09Z</time>
      </trkpt>
      <trkpt lat="45.16125" lon="-0.5494">
        <ele>32.6</ele>
        <time>2020-09-01T07:37:10Z</time>
      </trkpt>
      <trkpt lat="45.16126" lon="-0.54937">
        <ele>32.6</ele>
        <time>2020-09-01T07:37:11Z</time>
      </trkpt>
      <trkpt lat="45.16126" lon="-0.54935">
        <ele>32.7</ele>
        <time>2020-09-01T07:37:13Z</time>
      </trkpt>
      <trkpt lat="45.16126" lon="-0.54933">
        <ele>32.7</ele>
        <time>2020-09-01T07:37:14Z</time>
      </trkpt>
      <trkpt lat="45.16127" lon="-0.54929">
        <ele>32.7</ele>
        <time>2020-09-01T07:37:16Z</time>
      </trkpt>
      <trkpt lat="45.16127" lon="-0.54928">
        <ele>32.7</ele>
        <time>2020-09-01T07:37:17Z</time>
      </trkpt>
      <trkpt lat="45.16127" lon="-0.54926">
        <ele>32.8</ele>
        <time>2020-09-01T07:37:18Z</time>
      </trkpt>
      <trkpt lat="45.16128" lon="-0.54924">
        <ele>32.8</ele>
        <time>2020-09-01T07:37:20Z</time>
      </trkpt>
      <trkpt lat="45.16128" lon="-0.54919">
        <ele>32.9</ele>
        <time>2020-09-01T07:37:22Z</time>
      </trkpt>
      <trkpt lat="45.16129" lon="-0.54918">
        <ele>32.9</ele>
        <time>2020-09-01T07:37:23Z</time>
      </trkpt>
      <trkpt lat="45.16129" lon="-0.54915">
        <ele>32.9</ele>
        <time>2020-09-01T07:37:24Z</time>
      </trkpt>
      <trkpt lat="45.16129" lon="-0.54913">
        <ele>33</ele>
        <time>2020-09-01T07:37:25Z</time>
      </trkpt>
      <trkpt lat="45.1613" lon="-0.54908">
        <ele>33</ele>
        <time>2020-09-01T07:37:27Z</time>
      </trkpt>
      <trkpt lat="45.1613" lon="-0.54906">
        <ele>33.1</ele>
        <time>2020-09-01T07:37:28Z</time>
      </trkpt>
      <trkpt lat="45.1613" lon="-0.54904">
        <ele>33.1</ele>
        <time>2020-09-01T07:37:29Z</time>
      </trkpt>
      <trkpt lat="45.1613" lon="-0.549">
        <ele>33.1</ele>
        <time>2020-09-01T07:37:31Z</time>
      </trkpt>
      <trkpt lat="45.16131" lon="-0.54899">
        <ele>33.2</ele>
        <time>2020-09-01T07:37:32Z</time>
      </trkpt>
      <trkpt lat="45.16131" lon="-0.54896">
        <ele>33.2</ele>
        <time>2020-09-01T07:37:33Z</time>
      </trkpt>
      <trkpt lat="45.16132" lon="-0.54894">
        <ele>33.2</ele>
        <time>2020-09-01T07:37:34Z</time>
      </trkpt>
      <trkpt lat="45.16132" lon="-0.54893">
        <ele>33.2</ele>
        <time>2020-09-01T07:37:35Z</time>
      </trkpt>
      <trkpt lat="45.16132" lon="-0.54891">
        <ele>33.3</ele>
        <time>2020-09-01T07:37:37Z</time>
      </trkpt>
      <trkpt lat="45.16132" lon="-0.54888">
        <ele>33.3</ele>
        <time>2020-09-01T07:37:38Z</time>
      </trkpt>
      <trkpt lat="45.16133" lon="-0.54886">
        <ele>33.3</ele>
        <time>2020-09-01T07:37:40Z</time>
      </trkpt>
      <trkpt lat="45.16133" lon="-0.54884">
        <ele>33.4</ele>
        <time>2020-09-01T07:37:41Z</time>
      </trkpt>
      <trkpt lat="45.16134" lon="-0.5488">
        <ele>33.4</ele>
        <time>2020-09-01T07:37:43Z</time>
      </trkpt>
      <trkpt lat="45.16134" lon="-0.54879">
        <ele>33.4</ele>
        <time>2020-09-01T07:37:44Z</time>
      </trkpt>
      <trkpt lat="45.16134" lon="-0.54878">
        <ele>33.5</ele>
        <time>2020-09-01T07:37:45Z</time>
      </trkpt>
      <trkpt lat="45.16135" lon="-0.54876">
        <ele>33.5</ele>
        <time>2020-09-01T07:37:46Z</time>
      </trkpt>
      <trkpt lat="45.16135" lon="-0.54873">
        <ele>33.5</ele>
        <time>2020-09-01T07:37:47Z</time>
      </trkpt>
      <trkpt lat="45.16136" lon="-0.54871">
        <ele>33.5</ele>
        <time>2020-09-01T07:37:48Z</time>
      </trkpt>
      <trkpt lat="45.16136" lon="-0.54869">
        <ele>33.6</ele>
        <time>2020-09-01T07:37:50Z</time>
      </trkpt>
      <trkpt lat="45.16137" lon="-0.54868">
        <ele>33.6</ele>
        <time>2020-09-01T07:37:51Z</time>
      </trkpt>
      <trkpt lat="45.16137" lon="-0.54867">
        <ele>33.6</ele>
        <time>2020-09-01T07:37:52Z</time>
      </trkpt>
      <trkpt lat="45.16137" lon="-0.54864">
        <ele>33.6</ele>
        <time>2020-09-01T07:37:53Z</time>
      </trkpt>
      <trkpt lat="45.16138" lon="-0.54863">
        <ele>33.6</ele>
        <time>2020-09-01T07:37:54Z</time>
      </trkpt>
      <trkpt lat="45.16138" lon="-0.5486">
        <ele>33.7</ele>
        <time>2020-09-01T07:37:56Z</time>
      </trkpt>
      <trkpt lat="45.16139" lon="-0.54859">
        <ele>33.7</ele>
        <time>2020-09-01T07:37:57Z</time>
      </trkpt>
      <trkpt lat="45.16139" lon="-0.54858">
        <ele>33.7</ele>
        <time>2020-09-01T07:37:58Z</time>
      </trkpt>
      <trkpt lat="45.16139" lon="-0.54857">
        <ele>33.7</ele>
        <time>2020-09-01T07:37:59Z</time>
      </trkpt>
      <trkpt lat="45.1614" lon="-0.54854">
        <ele>33.7</ele>
        <time>2020-09-01T07:38:01Z</time>
      </trkpt>
      <trkpt lat="45.16142" lon="-0.5485">
        <ele>33.8</ele>
        <time>2020-09-01T07:38:03Z</time>
      </trkpt>
      <trkpt lat="45.16142" lon="-0.54849">
        <ele>33.8</ele>
        <time>2020-09-01T07:38:04Z</time>
      </trkpt>
      <trkpt lat="45.16143" lon="-0.54846">
        <ele>33.9</ele>
        <time>2020-09-01T07:38:06Z</time>
      </trkpt>
      <trkpt lat="45.16144" lon="-0.54845">
        <ele>33.9</ele>
        <time>2020-09-01T07:38:07Z</time>
      </trkpt>
      <trkpt lat="45.16145" lon="-0.54841">
        <ele>34</ele>
        <time>2020-09-01T07:38:09Z</time>
      </trkpt>
      <trkpt lat="45.16145" lon="-0.5484">
        <ele>34.1</ele>
        <time>2020-09-01T07:38:10Z</time>
      </trkpt>
      <trkpt lat="45.16145" lon="-0.54839">
        <ele>34.1</ele>
        <time>2020-09-01T07:38:11Z</time>
      </trkpt>
      <trkpt lat="45.16146" lon="-0.54837">
        <ele>34.1</ele>
        <time>2020-09-01T07:38:12Z</time>
      </trkpt>
      <trkpt lat="45.16147" lon="-0.54833">
        <ele>34.3</ele>
        <time>2020-09-01T07:38:14Z</time>
      </trkpt>
      <trkpt lat="45.16147" lon="-0.54832">
        <ele>34.3</ele>
        <time>2020-09-01T07:38:15Z</time>
      </trkpt>
      <trkpt lat="45.16148" lon="-0.54828">
        <ele>34.4</ele>
        <time>2020-09-01T07:38:17Z</time>
      </trkpt>
      <trkpt lat="45.16149" lon="-0.54824">
        <ele>34.5</ele>
        <time>2020-09-01T07:38:18Z</time>
      </trkpt>
      <trkpt lat="45.16149" lon="-0.54822">
        <ele>34.6</ele>
        <time>2020-09-01T07:38:19Z</time>
      </trkpt>
      <trkpt lat="45.1615" lon="-0.5482">
        <ele>34.6</ele>
        <time>2020-09-01T07:38:20Z</time>
      </trkpt>
      <trkpt lat="45.1615" lon="-0.54818">
        <ele>34.7</ele>
        <time>2020-09-01T07:38:21Z</time>
      </trkpt>
      <trkpt lat="45.16151" lon="-0.54816">
        <ele>34.7</ele>
        <time>2020-09-01T07:38:22Z</time>
      </trkpt>
      <trkpt lat="45.16151" lon="-0.54812">
        <ele>34.8</ele>
        <time>2020-09-01T07:38:23Z</time>
      </trkpt>
      <trkpt lat="45.16152" lon="-0.5481">
        <ele>34.8</ele>
        <time>2020-09-01T07:38:25Z</time>
      </trkpt>
      <trkpt lat="45.16152" lon="-0.54809">
        <ele>34.9</ele>
        <time>2020-09-01T07:38:26Z</time>
      </trkpt>
      <trkpt lat="45.16153" lon="-0.54807">
        <ele>34.9</ele>
        <time>2020-09-01T07:38:27Z</time>
      </trkpt>
      <trkpt lat="45.16153" lon="-0.54805">
        <ele>34.9</ele>
        <time>2020-09-01T07:38:28Z</time>
      </trkpt>
      <trkpt lat="45.16154" lon="-0.54802">
        <ele>35</ele>
        <time>2020-09-01T07:38:30Z</time>
      </trkpt>
      <trkpt lat="45.16154" lon="-0.548">
        <ele>35.1</ele>
        <time>2020-09-01T07:38:31Z</time>
      </trkpt>
      <trkpt lat="45.16155" lon="-0.54798">
        <ele>35.2</ele>
        <time>2020-09-01T07:38:33Z</time>
      </trkpt>
      <trkpt lat="45.16156" lon="-0.54795">
        <ele>35.2</ele>
        <time>2020-09-01T07:38:35Z</time>
      </trkpt>
      <trkpt lat="45.16157" lon="-0.54793">
        <ele>35.3</ele>
        <time>2020-09-01T07:38:36Z</time>
      </trkpt>
      <trkpt lat="45.16157" lon="-0.5479">
        <ele>35.4</ele>
        <time>2020-09-01T07:38:38Z</time>
      </trkpt>
      <trkpt lat="45.16158" lon="-0.54789">
        <ele>35.4</ele>
        <time>2020-09-01T07:38:39Z</time>
      </trkpt>
      <trkpt lat="45.16158" lon="-0.54788">
        <ele>35.5</ele>
        <time>2020-09-01T07:38:40Z</time>
      </trkpt>
      <trkpt lat="45.16159" lon="-0.54786">
        <ele>35.5</ele>
        <time>2020-09-01T07:38:41Z</time>
      </trkpt>
      <trkpt lat="45.1616" lon="-0.54784">
        <ele>35.6</ele>
        <time>2020-09-01T07:38:43Z</time>
      </trkpt>
      <trkpt lat="45.1616" lon="-0.54782">
        <ele>35.6</ele>
        <time>2020-09-01T07:38:44Z</time>
      </trkpt>
      <trkpt lat="45.16161" lon="-0.5478">
        <ele>35.7</ele>
        <time>2020-09-01T07:38:45Z</time>
      </trkpt>
      <trkpt lat="45.16162" lon="-0.54777">
        <ele>35.8</ele>
        <time>2020-09-01T07:38:47Z</time>
      </trkpt>
      <trkpt lat="45.16163" lon="-0.54774">
        <ele>35.8</ele>
        <time>2020-09-01T07:38:48Z</time>
      </trkpt>
      <trkpt lat="45.16163" lon="-0.54771">
        <ele>35.9</ele>
        <time>2020-09-01T07:38:50Z</time>
      </trkpt>
      <trkpt lat="45.16164" lon="-0.54769">
        <ele>36</ele>
        <time>2020-09-01T07:38:51Z</time>
      </trkpt>
      <trkpt lat="45.16164" lon="-0.54767">
        <ele>36</ele>
        <time>2020-09-01T07:38:52Z</time>
      </trkpt>
      <trkpt lat="45.16165" lon="-0.54765">
        <ele>36.1</ele>
        <time>2020-09-01T07:38:53Z</time>
      </trkpt>
      <trkpt lat="45.16165" lon="-0.54762">
        <ele>36.2</ele>
        <time>2020-09-01T07:38:55Z</time>
      </trkpt>
      <trkpt lat="45.16166" lon="-0.5476">
        <ele>36.2</ele>
        <time>2020-09-01T07:38:56Z</time>
      </trkpt>
      <trkpt lat="45.16166" lon="-0.54758">
        <ele>36.2</ele>
        <time>2020-09-01T07:38:57Z</time>
      </trkpt>
      <trkpt lat="45.16167" lon="-0.54754">
        <ele>36.3</ele>
        <time>2020-09-01T07:38:58Z</time>
      </trkpt>
      <trkpt lat="45.16167" lon="-0.54753">
        <ele>36.4</ele>
        <time>2020-09-01T07:38:59Z</time>
      </trkpt>
      <trkpt lat="45.16168" lon="-0.54749">
        <ele>36.5</ele>
        <time>2020-09-01T07:39:01Z</time>
      </trkpt>
      <trkpt lat="45.16169" lon="-0.54747">
        <ele>36.5</ele>
        <time>2020-09-01T07:39:02Z</time>
      </trkpt>
      <trkpt lat="45.16169" lon="-0.54745">
        <ele>36.5</ele>
        <time>2020-09-01T07:39:03Z</time>
      </trkpt>
      <trkpt lat="45.16169" lon="-0.54744">
        <ele>36.5</ele>
        <time>2020-09-01T07:39:04Z</time>
      </trkpt>
      <trkpt lat="45.16169" lon="-0.54743">
        <ele>36.6</ele>
        <time>2020-09-01T07:39:05Z</time>
      </trkpt>
      <trkpt lat="45.1617" lon="-0.54739">
        <ele>36.6</ele>
        <time>2020-09-01T07:39:07Z</time>
      </trkpt>
      <trkpt lat="45.16171" lon="-0.54738">
        <ele>36.7</ele>
        <time>2020-09-01T07:39:08Z</time>
      </trkpt>
      <trkpt lat="45.16171" lon="-0.54736">
        <ele>36.7</ele>
        <time>2020-09-01T07:39:09Z</time>
      </trkpt>
      <trkpt lat="45.16172" lon="-0.54734">
        <ele>36.7</ele>
        <time>2020-09-01T07:39:10Z</time>
      </trkpt>
      <trkpt lat="45.16172" lon="-0.54733">
        <ele>36.8</ele>
        <time>2020-09-01T07:39:11Z</time>
      </trkpt>
      <trkpt lat="45.16173" lon="-0.5473">
        <ele>36.8</ele>
        <time>2020-09-01T07:39:13Z</time>
      </trkpt>
      <trkpt lat="45.16174" lon="-0.54728">
        <ele>36.9</ele>
        <time>2020-09-01T07:39:14Z</time>
      </trkpt>
      <trkpt lat="45.16174" lon="-0.54726">
        <ele>36.9</ele>
        <time>2020-09-01T07:39:15Z</time>
      </trkpt>
      <trkpt lat="45.16175" lon="-0.54724">
        <ele>36.9</ele>
        <time>2020-09-01T07:39:17Z</time>
      </trkpt>
      <trkpt lat="45.16175" lon="-0.54722">
        <ele>37</ele>
        <time>2020-09-01T07:39:18Z</time>
      </trkpt>
      <trkpt lat="45.16177" lon="-0.54718">
        <ele>37.1</ele>
        <time>2020-09-01T07:39:20Z</time>
      </trkpt>
      <trkpt lat="45.16177" lon="-0.54716">
        <ele>37.1</ele>
        <time>2020-09-01T07:39:21Z</time>
      </trkpt>
      <trkpt lat="45.16178" lon="-0.54714">
        <ele>37.2</ele>
        <time>2020-09-01T07:39:22Z</time>
      </trkpt>
      <trkpt lat="45.16178" lon="-0.54713">
        <ele>37.2</ele>
        <time>2020-09-01T07:39:23Z</time>
      </trkpt>
      <trkpt lat="45.16179" lon="-0.54711">
        <ele>37.3</ele>
        <time>2020-09-01T07:39:24Z</time>
      </trkpt>
      <trkpt lat="45.16179" lon="-0.54709">
        <ele>37.3</ele>
        <time>2020-09-01T07:39:26Z</time>
      </trkpt>
      <trkpt lat="45.1618" lon="-0.54708">
        <ele>37.3</ele>
        <time>2020-09-01T07:39:27Z</time>
      </trkpt>
      <trkpt lat="45.16181" lon="-0.54705">
        <ele>37.4</ele>
        <time>2020-09-01T07:39:28Z</time>
      </trkpt>
      <trkpt lat="45.16181" lon="-0.54704">
        <ele>37.5</ele>
        <time>2020-09-01T07:39:29Z</time>
      </trkpt>
      <trkpt lat="45.16182" lon="-0.54701">
        <ele>37.5</ele>
        <time>2020-09-01T07:39:31Z</time>
      </trkpt>
      <trkpt lat="45.16182" lon="-0.547">
        <ele>37.6</ele>
        <time>2020-09-01T07:39:32Z</time>
      </trkpt>
      <trkpt lat="45.16183" lon="-0.54697">
        <ele>37.6</ele>
        <time>2020-09-01T07:39:33Z</time>
      </trkpt>
      <trkpt lat="45.16183" lon="-0.54695">
        <ele>37.7</ele>
        <time>2020-09-01T07:39:35Z</time>
      </trkpt>
      <trkpt lat="45.16184" lon="-0.54693">
        <ele>37.7</ele>
        <time>2020-09-01T07:39:36Z</time>
      </trkpt>
      <trkpt lat="45.16184" lon="-0.5469">
        <ele>37.8</ele>
        <time>2020-09-01T07:39:38Z</time>
      </trkpt>
      <trkpt lat="45.16185" lon="-0.54688">
        <ele>37.9</ele>
        <time>2020-09-01T07:39:39Z</time>
      </trkpt>
      <trkpt lat="45.16186" lon="-0.54685">
        <ele>38</ele>
        <time>2020-09-01T07:39:41Z</time>
      </trkpt>
      <trkpt lat="45.16186" lon="-0.54683">
        <ele>38</ele>
        <time>2020-09-01T07:39:42Z</time>
      </trkpt>
      <trkpt lat="45.16187" lon="-0.54681">
        <ele>38.1</ele>
        <time>2020-09-01T07:39:43Z</time>
      </trkpt>
      <trkpt lat="45.16188" lon="-0.54677">
        <ele>38.2</ele>
        <time>2020-09-01T07:39:45Z</time>
      </trkpt>
      <trkpt lat="45.16188" lon="-0.54675">
        <ele>38.2</ele>
        <time>2020-09-01T07:39:46Z</time>
      </trkpt>
      <trkpt lat="45.1619" lon="-0.54671">
        <ele>38.3</ele>
        <time>2020-09-01T07:39:48Z</time>
      </trkpt>
      <trkpt lat="45.1619" lon="-0.5467">
        <ele>38.4</ele>
        <time>2020-09-01T07:39:50Z</time>
      </trkpt>
      <trkpt lat="45.1619" lon="-0.54668">
        <ele>38.4</ele>
        <time>2020-09-01T07:39:51Z</time>
      </trkpt>
      <trkpt lat="45.16191" lon="-0.54664">
        <ele>38.5</ele>
        <time>2020-09-01T07:39:53Z</time>
      </trkpt>
      <trkpt lat="45.16191" lon="-0.54662">
        <ele>38.5</ele>
        <time>2020-09-01T07:39:54Z</time>
      </trkpt>
      <trkpt lat="45.16192" lon="-0.5466">
        <ele>38.6</ele>
        <time>2020-09-01T07:39:56Z</time>
      </trkpt>
      <trkpt lat="45.16192" lon="-0.54659">
        <ele>38.6</ele>
        <time>2020-09-01T07:39:57Z</time>
      </trkpt>
      <trkpt lat="45.16193" lon="-0.54655">
        <ele>38.7</ele>
        <time>2020-09-01T07:39:58Z</time>
      </trkpt>
      <trkpt lat="45.16193" lon="-0.54653">
        <ele>38.7</ele>
        <time>2020-09-01T07:40:00Z</time>
      </trkpt>
      <trkpt lat="45.16194" lon="-0.54651">
        <ele>38.8</ele>
        <time>2020-09-01T07:40:01Z</time>
      </trkpt>
      <trkpt lat="45.16194" lon="-0.54649">
        <ele>38.8</ele>
        <time>2020-09-01T07:40:02Z</time>
      </trkpt>
      <trkpt lat="45.16195" lon="-0.54644">
        <ele>38.9</ele>
        <time>2020-09-01T07:40:04Z</time>
      </trkpt>
      <trkpt lat="45.16196" lon="-0.54644">
        <ele>38.9</ele>
        <time>2020-09-01T07:40:05Z</time>
      </trkpt>
      <trkpt lat="45.16196" lon="-0.54642">
        <ele>39</ele>
        <time>2020-09-01T07:40:06Z</time>
      </trkpt>
      <trkpt lat="45.16197" lon="-0.54638">
        <ele>39.1</ele>
        <time>2020-09-01T07:40:08Z</time>
      </trkpt>
      <trkpt lat="45.16198" lon="-0.54636">
        <ele>39.1</ele>
        <time>2020-09-01T07:40:09Z</time>
      </trkpt>
      <trkpt lat="45.16199" lon="-0.54633">
        <ele>39.2</ele>
        <time>2020-09-01T07:40:11Z</time>
      </trkpt>
      <trkpt lat="45.162" lon="-0.54628">
        <ele>39.3</ele>
        <time>2020-09-01T07:40:13Z</time>
      </trkpt>
      <trkpt lat="45.16201" lon="-0.54626">
        <ele>39.3</ele>
        <time>2020-09-01T07:40:14Z</time>
      </trkpt>
      <trkpt lat="45.16201" lon="-0.54624">
        <ele>39.3</ele>
        <time>2020-09-01T07:40:15Z</time>
      </trkpt>
      <trkpt lat="45.16203" lon="-0.54619">
        <ele>39.4</ele>
        <time>2020-09-01T07:40:17Z</time>
      </trkpt>
      <trkpt lat="45.16203" lon="-0.54616">
        <ele>39.4</ele>
        <time>2020-09-01T07:40:18Z</time>
      </trkpt>
      <trkpt lat="45.16203" lon="-0.54615">
        <ele>39.4</ele>
        <time>2020-09-01T07:40:19Z</time>
      </trkpt>
      <trkpt lat="45.16204" lon="-0.54614">
        <ele>39.4</ele>
        <time>2020-09-01T07:40:21Z</time>
      </trkpt>
      <trkpt lat="45.16204" lon="-0.54612">
        <ele>39.5</ele>
        <time>2020-09-01T07:40:22Z</time>
      </trkpt>
      <trkpt lat="45.16205" lon="-0.54609">
        <ele>39.5</ele>
        <time>2020-09-01T07:40:23Z</time>
      </trkpt>
      <trkpt lat="45.16206" lon="-0.54607">
        <ele>39.5</ele>
        <time>2020-09-01T07:40:25Z</time>
      </trkpt>
      <trkpt lat="45.16206" lon="-0.54605">
        <ele>39.5</ele>
        <time>2020-09-01T07:40:26Z</time>
      </trkpt>
      <trkpt lat="45.16206" lon="-0.54604">
        <ele>39.6</ele>
        <time>2020-09-01T07:40:27Z</time>
      </trkpt>
      <trkpt lat="45.16207" lon="-0.54602">
        <ele>39.6</ele>
        <time>2020-09-01T07:40:28Z</time>
      </trkpt>
      <trkpt lat="45.16207" lon="-0.546">
        <ele>39.6</ele>
        <time>2020-09-01T07:40:30Z</time>
      </trkpt>
      <trkpt lat="45.16208" lon="-0.54598">
        <ele>39.6</ele>
        <time>2020-09-01T07:40:31Z</time>
      </trkpt>
      <trkpt lat="45.16209" lon="-0.54595">
        <ele>39.7</ele>
        <time>2020-09-01T07:40:32Z</time>
      </trkpt>
      <trkpt lat="45.16209" lon="-0.54593">
        <ele>39.7</ele>
        <time>2020-09-01T07:40:33Z</time>
      </trkpt>
      <trkpt lat="45.1621" lon="-0.5459">
        <ele>39.8</ele>
        <time>2020-09-01T07:40:34Z</time>
      </trkpt>
      <trkpt lat="45.1621" lon="-0.54589">
        <ele>39.8</ele>
        <time>2020-09-01T07:40:36Z</time>
      </trkpt>
      <trkpt lat="45.1621" lon="-0.54587">
        <ele>39.8</ele>
        <time>2020-09-01T07:40:37Z</time>
      </trkpt>
      <trkpt lat="45.16211" lon="-0.54583">
        <ele>39.9</ele>
        <time>2020-09-01T07:40:39Z</time>
      </trkpt>
      <trkpt lat="45.16212" lon="-0.54581">
        <ele>39.9</ele>
        <time>2020-09-01T07:40:40Z</time>
      </trkpt>
      <trkpt lat="45.16212" lon="-0.54579">
        <ele>40</ele>
        <time>2020-09-01T07:40:41Z</time>
      </trkpt>
      <trkpt lat="45.16212" lon="-0.54577">
        <ele>40</ele>
        <time>2020-09-01T07:40:42Z</time>
      </trkpt>
      <trkpt lat="45.16213" lon="-0.54575">
        <ele>40.1</ele>
        <time>2020-09-01T07:40:44Z</time>
      </trkpt>
      <trkpt lat="45.16213" lon="-0.54573">
        <ele>40.1</ele>
        <time>2020-09-01T07:40:45Z</time>
      </trkpt>
      <trkpt lat="45.16214" lon="-0.54571">
        <ele>40.2</ele>
        <time>2020-09-01T07:40:46Z</time>
      </trkpt>
      <trkpt lat="45.16214" lon="-0.54569">
        <ele>40.2</ele>
        <time>2020-09-01T07:40:47Z</time>
      </trkpt>
      <trkpt lat="45.16215" lon="-0.54567">
        <ele>40.3</ele>
        <time>2020-09-01T07:40:48Z</time>
      </trkpt>
      <trkpt lat="45.16215" lon="-0.54565">
        <ele>40.3</ele>
        <time>2020-09-01T07:40:50Z</time>
      </trkpt>
      <trkpt lat="45.16216" lon="-0.54562">
        <ele>40.4</ele>
        <time>2020-09-01T07:40:52Z</time>
      </trkpt>
      <trkpt lat="45.16216" lon="-0.54561">
        <ele>40.4</ele>
        <time>2020-09-01T07:40:53Z</time>
      </trkpt>
      <trkpt lat="45.16216" lon="-0.54557">
        <ele>40.4</ele>
        <time>2020-09-01T07:40:54Z</time>
      </trkpt>
      <trkpt lat="45.16216" lon="-0.54556">
        <ele>40.5</ele>
        <time>2020-09-01T07:40:55Z</time>
      </trkpt>
      <trkpt lat="45.16217" lon="-0.54554">
        <ele>40.5</ele>
        <time>2020-09-01T07:40:57Z</time>
      </trkpt>
      <trkpt lat="45.16218" lon="-0.54551">
        <ele>40.5</ele>
        <time>2020-09-01T07:40:58Z</time>
      </trkpt>
      <trkpt lat="45.16218" lon="-0.54549">
        <ele>40.5</ele>
        <time>2020-09-01T07:41:00Z</time>
      </trkpt>
      <trkpt lat="45.16218" lon="-0.54548">
        <ele>40.5</ele>
        <time>2020-09-01T07:41:01Z</time>
      </trkpt>
      <trkpt lat="45.16219" lon="-0.54545">
        <ele>40.6</ele>
        <time>2020-09-01T07:41:03Z</time>
      </trkpt>
      <trkpt lat="45.1622" lon="-0.54543">
        <ele>40.6</ele>
        <time>2020-09-01T07:41:04Z</time>
      </trkpt>
      <trkpt lat="45.1622" lon="-0.54541">
        <ele>40.6</ele>
        <time>2020-09-01T07:41:05Z</time>
      </trkpt>
      <trkpt lat="45.16221" lon="-0.54536">
        <ele>40.7</ele>
        <time>2020-09-01T07:41:07Z</time>
      </trkpt>
      <trkpt lat="45.16222" lon="-0.54535">
        <ele>40.7</ele>
        <time>2020-09-01T07:41:08Z</time>
      </trkpt>
      <trkpt lat="45.16222" lon="-0.54534">
        <ele>40.7</ele>
        <time>2020-09-01T07:41:09Z</time>
      </trkpt>
      <trkpt lat="45.16223" lon="-0.54531">
        <ele>40.7</ele>
        <time>2020-09-01T07:41:10Z</time>
      </trkpt>
      <trkpt lat="45.16224" lon="-0.54528">
        <ele>40.8</ele>
        <time>2020-09-01T07:41:13Z</time>
      </trkpt>
      <trkpt lat="45.16225" lon="-0.54525">
        <ele>40.9</ele>
        <time>2020-09-01T07:41:14Z</time>
      </trkpt>
      <trkpt lat="45.16226" lon="-0.54524">
        <ele>40.9</ele>
        <time>2020-09-01T07:41:15Z</time>
      </trkpt>
      <trkpt lat="45.16227" lon="-0.54522">
        <ele>40.9</ele>
        <time>2020-09-01T07:41:16Z</time>
      </trkpt>
      <trkpt lat="45.16227" lon="-0.5452">
        <ele>41</ele>
        <time>2020-09-01T07:41:17Z</time>
      </trkpt>
      <trkpt lat="45.16228" lon="-0.54518">
        <ele>41</ele>
        <time>2020-09-01T07:41:19Z</time>
      </trkpt>
      <trkpt lat="45.16229" lon="-0.54516">
        <ele>41.1</ele>
        <time>2020-09-01T07:41:20Z</time>
      </trkpt>
      <trkpt lat="45.1623" lon="-0.54513">
        <ele>41.1</ele>
        <time>2020-09-01T07:41:21Z</time>
      </trkpt>
      <trkpt lat="45.1623" lon="-0.54511">
        <ele>41.2</ele>
        <time>2020-09-01T07:41:22Z</time>
      </trkpt>
      <trkpt lat="45.16231" lon="-0.5451">
        <ele>41.2</ele>
        <time>2020-09-01T07:41:23Z</time>
      </trkpt>
      <trkpt lat="45.16231" lon="-0.54508">
        <ele>41.3</ele>
        <time>2020-09-01T07:41:24Z</time>
      </trkpt>
      <trkpt lat="45.16232" lon="-0.54506">
        <ele>41.3</ele>
        <time>2020-09-01T07:41:25Z</time>
      </trkpt>
      <trkpt lat="45.16233" lon="-0.54504">
        <ele>41.3</ele>
        <time>2020-09-01T07:41:27Z</time>
      </trkpt>
      <trkpt lat="45.16233" lon="-0.54502">
        <ele>41.4</ele>
        <time>2020-09-01T07:41:28Z</time>
      </trkpt>
      <trkpt lat="45.16234" lon="-0.54499">
        <ele>41.4</ele>
        <time>2020-09-01T07:41:30Z</time>
      </trkpt>
      <trkpt lat="45.16234" lon="-0.54497">
        <ele>41.5</ele>
        <time>2020-09-01T07:41:31Z</time>
      </trkpt>
      <trkpt lat="45.16235" lon="-0.54495">
        <ele>41.5</ele>
        <time>2020-09-01T07:41:32Z</time>
      </trkpt>
      <trkpt lat="45.16235" lon="-0.54492">
        <ele>41.5</ele>
        <time>2020-09-01T07:41:34Z</time>
      </trkpt>
      <trkpt lat="45.16236" lon="-0.5449">
        <ele>41.6</ele>
        <time>2020-09-01T07:41:35Z</time>
      </trkpt>
      <trkpt lat="45.16236" lon="-0.54488">
        <ele>41.6</ele>
        <time>2020-09-01T07:41:36Z</time>
      </trkpt>
      <trkpt lat="45.16237" lon="-0.54485">
        <ele>41.6</ele>
        <time>2020-09-01T07:41:38Z</time>
      </trkpt>
      <trkpt lat="45.16237" lon="-0.54483">
        <ele>41.6</ele>
        <time>2020-09-01T07:41:39Z</time>
      </trkpt>
      <trkpt lat="45.16238" lon="-0.54481">
        <ele>41.7</ele>
        <time>2020-09-01T07:41:40Z</time>
      </trkpt>
      <trkpt lat="45.16238" lon="-0.54479">
        <ele>41.7</ele>
        <time>2020-09-01T07:41:41Z</time>
      </trkpt>
      <trkpt lat="45.16239" lon="-0.54478">
        <ele>41.7</ele>
        <time>2020-09-01T07:41:42Z</time>
      </trkpt>
      <trkpt lat="45.16239" lon="-0.54477">
        <ele>41.7</ele>
        <time>2020-09-01T07:41:43Z</time>
      </trkpt>
      <trkpt lat="45.1624" lon="-0.54475">
        <ele>41.7</ele>
        <time>2020-09-01T07:41:44Z</time>
      </trkpt>
      <trkpt lat="45.1624" lon="-0.54474">
        <ele>41.7</ele>
        <time>2020-09-01T07:41:45Z</time>
      </trkpt>
      <trkpt lat="45.1624" lon="-0.54473">
        <ele>41.7</ele>
        <time>2020-09-01T07:41:47Z</time>
      </trkpt>
      <trkpt lat="45.1624" lon="-0.54473">
        <ele>41.7</ele>
        <time>2020-09-01T07:41:48Z</time>
      </trkpt>
      <trkpt lat="45.1624" lon="-0.54472">
        <ele>41.8</ele>
        <time>2020-09-01T07:41:50Z</time>
      </trkpt>
      <trkpt lat="45.1624" lon="-0.54471">
        <ele>41.8</ele>
        <time>2020-09-01T07:41:51Z</time>
      </trkpt>
      <trkpt lat="45.16241" lon="-0.54471">
        <ele>41.8</ele>
        <time>2020-09-01T07:41:52Z</time>
      </trkpt>
      <trkpt lat="45.16241" lon="-0.5447">
        <ele>41.8</ele>
        <time>2020-09-01T07:41:54Z</time>
      </trkpt>
      <trkpt lat="45.16241" lon="-0.54469">
        <ele>41.8</ele>
        <time>2020-09-01T07:41:55Z</time>
      </trkpt>
      <trkpt lat="45.16241" lon="-0.54469">
        <ele>41.8</ele>
        <time>2020-09-01T07:41:57Z</time>
      </trkpt>
      <trkpt lat="45.16241" lon="-0.54468">
        <ele>41.8</ele>
        <time>2020-09-01T07:41:59Z</time>
      </trkpt>
      <trkpt lat="45.16241" lon="-0.54468">
        <ele>41.8</ele>
        <time>2020-09-01T07:42:00Z</time>
      </trkpt>
      <trkpt lat="45.16241" lon="-0.54467">
        <ele>41.8</ele>
        <time>2020-09-01T07:42:01Z</time>
      </trkpt>
      <trkpt lat="45.16241" lon="-0.54466">
        <ele>41.8</ele>
        <time>2020-09-01T07:42:03Z</time>
      </trkpt>
      <trkpt lat="45.16242" lon="-0.54466">
        <ele>41.8</ele>
        <time>2020-09-01T07:42:04Z</time>
      </trkpt>
      <trkpt lat="45.16242" lon="-0.54465">
        <ele>41.8</ele>
        <time>2020-09-01T07:42:05Z</time>
      </trkpt>
      <trkpt lat="45.16242" lon="-0.54464">
        <ele>41.9</ele>
        <time>2020-09-01T07:42:06Z</time>
      </trkpt>
      <trkpt lat="45.16242" lon="-0.54464">
        <ele>41.9</ele>
        <time>2020-09-01T07:42:08Z</time>
      </trkpt>
      <trkpt lat="45.16242" lon="-0.54463">
        <ele>41.9</ele>
        <time>2020-09-01T07:42:10Z</time>
      </trkpt>
      <trkpt lat="45.16242" lon="-0.54463">
        <ele>41.9</ele>
        <time>2020-09-01T07:42:11Z</time>
      </trkpt>
      <trkpt lat="45.16243" lon="-0.54461">
        <ele>41.9</ele>
        <time>2020-09-01T07:42:12Z</time>
      </trkpt>
      <trkpt lat="45.16243" lon="-0.54459">
        <ele>42</ele>
        <time>2020-09-01T07:42:13Z</time>
      </trkpt>
      <trkpt lat="45.16244" lon="-0.54456">
        <ele>42</ele>
        <time>2020-09-01T07:42:14Z</time>
      </trkpt>
      <trkpt lat="45.16245" lon="-0.54455">
        <ele>42.1</ele>
        <time>2020-09-01T07:42:15Z</time>
      </trkpt>
      <trkpt lat="45.16245" lon="-0.54454">
        <ele>42.1</ele>
        <time>2020-09-01T07:42:16Z</time>
      </trkpt>
      <trkpt lat="45.16245" lon="-0.54451">
        <ele>42.1</ele>
        <time>2020-09-01T07:42:17Z</time>
      </trkpt>
      <trkpt lat="45.16246" lon="-0.54449">
        <ele>42.2</ele>
        <time>2020-09-01T07:42:18Z</time>
      </trkpt>
      <trkpt lat="45.16247" lon="-0.54446">
        <ele>42.2</ele>
        <time>2020-09-01T07:42:20Z</time>
      </trkpt>
      <trkpt lat="45.16247" lon="-0.54444">
        <ele>42.3</ele>
        <time>2020-09-01T07:42:21Z</time>
      </trkpt>
      <trkpt lat="45.16247" lon="-0.54442">
        <ele>42.3</ele>
        <time>2020-09-01T07:42:22Z</time>
      </trkpt>
      <trkpt lat="45.16248" lon="-0.5444">
        <ele>42.4</ele>
        <time>2020-09-01T07:42:23Z</time>
      </trkpt>
      <trkpt lat="45.16248" lon="-0.54438">
        <ele>42.4</ele>
        <time>2020-09-01T07:42:24Z</time>
      </trkpt>
      <trkpt lat="45.16249" lon="-0.54435">
        <ele>42.5</ele>
        <time>2020-09-01T07:42:26Z</time>
      </trkpt>
      <trkpt lat="45.16249" lon="-0.54433">
        <ele>42.5</ele>
        <time>2020-09-01T07:42:27Z</time>
      </trkpt>
      <trkpt lat="45.1625" lon="-0.54431">
        <ele>42.6</ele>
        <time>2020-09-01T07:42:29Z</time>
      </trkpt>
      <trkpt lat="45.16251" lon="-0.54429">
        <ele>42.6</ele>
        <time>2020-09-01T07:42:30Z</time>
      </trkpt>
      <trkpt lat="45.16252" lon="-0.54427">
        <ele>42.6</ele>
        <time>2020-09-01T07:42:31Z</time>
      </trkpt>
      <trkpt lat="45.16252" lon="-0.54425">
        <ele>42.7</ele>
        <time>2020-09-01T07:42:33Z</time>
      </trkpt>
      <trkpt lat="45.16253" lon="-0.54423">
        <ele>42.7</ele>
        <time>2020-09-01T07:42:34Z</time>
      </trkpt>
      <trkpt lat="45.16254" lon="-0.54419">
        <ele>42.8</ele>
        <time>2020-09-01T07:42:36Z</time>
      </trkpt>
      <trkpt lat="45.16254" lon="-0.54418">
        <ele>42.8</ele>
        <time>2020-09-01T07:42:37Z</time>
      </trkpt>
      <trkpt lat="45.16254" lon="-0.54416">
        <ele>42.8</ele>
        <time>2020-09-01T07:42:38Z</time>
      </trkpt>
      <trkpt lat="45.16254" lon="-0.54414">
        <ele>42.8</ele>
        <time>2020-09-01T07:42:40Z</time>
      </trkpt>
      <trkpt lat="45.16254" lon="-0.54413">
        <ele>42.8</ele>
        <time>2020-09-01T07:42:41Z</time>
      </trkpt>
      <trkpt lat="45.16254" lon="-0.54411">
        <ele>42.8</ele>
        <time>2020-09-01T07:42:42Z</time>
      </trkpt>
      <trkpt lat="45.16255" lon="-0.54409">
        <ele>42.9</ele>
        <time>2020-09-01T07:42:43Z</time>
      </trkpt>
      <trkpt lat="45.16255" lon="-0.54406">
        <ele>42.9</ele>
        <time>2020-09-01T07:42:44Z</time>
      </trkpt>
      <trkpt lat="45.16256" lon="-0.54404">
        <ele>42.9</ele>
        <time>2020-09-01T07:42:45Z</time>
      </trkpt>
      <trkpt lat="45.16256" lon="-0.54402">
        <ele>43</ele>
        <time>2020-09-01T07:42:47Z</time>
      </trkpt>
      <trkpt lat="45.16257" lon="-0.544">
        <ele>43</ele>
        <time>2020-09-01T07:42:48Z</time>
      </trkpt>
      <trkpt lat="45.16257" lon="-0.54398">
        <ele>43</ele>
        <time>2020-09-01T07:42:49Z</time>
      </trkpt>
      <trkpt lat="45.16258" lon="-0.54395">
        <ele>43</ele>
        <time>2020-09-01T07:42:51Z</time>
      </trkpt>
      <trkpt lat="45.16259" lon="-0.54394">
        <ele>43.1</ele>
        <time>2020-09-01T07:42:52Z</time>
      </trkpt>
      <trkpt lat="45.1626" lon="-0.54391">
        <ele>43.1</ele>
        <time>2020-09-01T07:42:54Z</time>
      </trkpt>
      <trkpt lat="45.1626" lon="-0.5439">
        <ele>43.2</ele>
        <time>2020-09-01T07:42:55Z</time>
      </trkpt>
      <trkpt lat="45.1626" lon="-0.54388">
        <ele>43.2</ele>
        <time>2020-09-01T07:42:56Z</time>
      </trkpt>
      <trkpt lat="45.16261" lon="-0.54387">
        <ele>43.2</ele>
        <time>2020-09-01T07:42:57Z</time>
      </trkpt>
      <trkpt lat="45.16262" lon="-0.54383">
        <ele>43.3</ele>
        <time>2020-09-01T07:42:59Z</time>
      </trkpt>
      <trkpt lat="45.16262" lon="-0.54382">
        <ele>43.3</ele>
        <time>2020-09-01T07:43:00Z</time>
      </trkpt>
      <trkpt lat="45.16263" lon="-0.54379">
        <ele>43.4</ele>
        <time>2020-09-01T07:43:01Z</time>
      </trkpt>
      <trkpt lat="45.16263" lon="-0.54377">
        <ele>43.4</ele>
        <time>2020-09-01T07:43:02Z</time>
      </trkpt>
      <trkpt lat="45.16264" lon="-0.54375">
        <ele>43.5</ele>
        <time>2020-09-01T07:43:03Z</time>
      </trkpt>
      <trkpt lat="45.16264" lon="-0.54371">
        <ele>43.5</ele>
        <time>2020-09-01T07:43:05Z</time>
      </trkpt>
      <trkpt lat="45.16265" lon="-0.54367">
        <ele>43.6</ele>
        <time>2020-09-01T07:43:06Z</time>
      </trkpt>
      <trkpt lat="45.16265" lon="-0.54365">
        <ele>43.6</ele>
        <time>2020-09-01T07:43:07Z</time>
      </trkpt>
      <trkpt lat="45.16266" lon="-0.54364">
        <ele>43.6</ele>
        <time>2020-09-01T07:43:08Z</time>
      </trkpt>
      <trkpt lat="45.16266" lon="-0.54362">
        <ele>43.6</ele>
        <time>2020-09-01T07:43:09Z</time>
      </trkpt>
      <trkpt lat="45.16267" lon="-0.54359">
        <ele>43.7</ele>
        <time>2020-09-01T07:43:11Z</time>
      </trkpt>
      <trkpt lat="45.16268" lon="-0.54357">
        <ele>43.7</ele>
        <time>2020-09-01T07:43:12Z</time>
      </trkpt>
      <trkpt lat="45.16268" lon="-0.54355">
        <ele>43.7</ele>
        <time>2020-09-01T07:43:13Z</time>
      </trkpt>
      <trkpt lat="45.16269" lon="-0.54351">
        <ele>43.7</ele>
        <time>2020-09-01T07:43:15Z</time>
      </trkpt>
      <trkpt lat="45.1627" lon="-0.5435">
        <ele>43.7</ele>
        <time>2020-09-01T07:43:16Z</time>
      </trkpt>
      <trkpt lat="45.1627" lon="-0.54347">
        <ele>43.7</ele>
        <time>2020-09-01T07:43:18Z</time>
      </trkpt>
      <trkpt lat="45.16271" lon="-0.54345">
        <ele>43.8</ele>
        <time>2020-09-01T07:43:19Z</time>
      </trkpt>
      <trkpt lat="45.16272" lon="-0.54342">
        <ele>43.8</ele>
        <time>2020-09-01T07:43:21Z</time>
      </trkpt>
      <trkpt lat="45.16272" lon="-0.54341">
        <ele>43.8</ele>
        <time>2020-09-01T07:43:22Z</time>
      </trkpt>
      <trkpt lat="45.16273" lon="-0.54339">
        <ele>43.8</ele>
        <time>2020-09-01T07:43:23Z</time>
      </trkpt>
      <trkpt lat="45.16274" lon="-0.54337">
        <ele>43.8</ele>
        <time>2020-09-01T07:43:24Z</time>
      </trkpt>
      <trkpt lat="45.16274" lon="-0.54334">
        <ele>43.8</ele>
        <time>2020-09-01T07:43:25Z</time>
      </trkpt>
      <trkpt lat="45.16275" lon="-0.54331">
        <ele>43.9</ele>
        <time>2020-09-01T07:43:27Z</time>
      </trkpt>
      <trkpt lat="45.16275" lon="-0.54329">
        <ele>43.9</ele>
        <time>2020-09-01T07:43:28Z</time>
      </trkpt>
      <trkpt lat="45.16276" lon="-0.54327">
        <ele>43.9</ele>
        <time>2020-09-01T07:43:29Z</time>
      </trkpt>
      <trkpt lat="45.16276" lon="-0.54325">
        <ele>43.9</ele>
        <time>2020-09-01T07:43:30Z</time>
      </trkpt>
      <trkpt lat="45.16277" lon="-0.54323">
        <ele>44</ele>
        <time>2020-09-01T07:43:31Z</time>
      </trkpt>
      <trkpt lat="45.16277" lon="-0.54321">
        <ele>44</ele>
        <time>2020-09-01T07:43:32Z</time>
      </trkpt>
      <trkpt lat="45.16278" lon="-0.54319">
        <ele>44</ele>
        <time>2020-09-01T07:43:34Z</time>
      </trkpt>
      <trkpt lat="45.16278" lon="-0.54317">
        <ele>44</ele>
        <time>2020-09-01T07:43:35Z</time>
      </trkpt>
      <trkpt lat="45.16279" lon="-0.54315">
        <ele>44.1</ele>
        <time>2020-09-01T07:43:36Z</time>
      </trkpt>
      <trkpt lat="45.16279" lon="-0.54311">
        <ele>44.1</ele>
        <time>2020-09-01T07:43:38Z</time>
      </trkpt>
      <trkpt lat="45.1628" lon="-0.54309">
        <ele>44.1</ele>
        <time>2020-09-01T07:43:39Z</time>
      </trkpt>
      <trkpt lat="45.1628" lon="-0.54307">
        <ele>44.2</ele>
        <time>2020-09-01T07:43:40Z</time>
      </trkpt>
      <trkpt lat="45.16281" lon="-0.54304">
        <ele>44.2</ele>
        <time>2020-09-01T07:43:41Z</time>
      </trkpt>
      <trkpt lat="45.16282" lon="-0.54301">
        <ele>44.3</ele>
        <time>2020-09-01T07:43:43Z</time>
      </trkpt>
      <trkpt lat="45.16282" lon="-0.54299">
        <ele>44.3</ele>
        <time>2020-09-01T07:43:44Z</time>
      </trkpt>
      <trkpt lat="45.16282" lon="-0.54297">
        <ele>44.3</ele>
        <time>2020-09-01T07:43:45Z</time>
      </trkpt>
      <trkpt lat="45.16282" lon="-0.54296">
        <ele>44.3</ele>
        <time>2020-09-01T07:43:46Z</time>
      </trkpt>
      <trkpt lat="45.16283" lon="-0.54294">
        <ele>44.4</ele>
        <time>2020-09-01T07:43:48Z</time>
      </trkpt>
      <trkpt lat="45.16283" lon="-0.54292">
        <ele>44.4</ele>
        <time>2020-09-01T07:43:49Z</time>
      </trkpt>
      <trkpt lat="45.16283" lon="-0.5429">
        <ele>44.4</ele>
        <time>2020-09-01T07:43:50Z</time>
      </trkpt>
      <trkpt lat="45.16284" lon="-0.54287">
        <ele>44.5</ele>
        <time>2020-09-01T07:43:51Z</time>
      </trkpt>
      <trkpt lat="45.16284" lon="-0.54285">
        <ele>44.5</ele>
        <time>2020-09-01T07:43:52Z</time>
      </trkpt>
      <trkpt lat="45.16285" lon="-0.5428">
        <ele>44.6</ele>
        <time>2020-09-01T07:43:54Z</time>
      </trkpt>
      <trkpt lat="45.16285" lon="-0.54279">
        <ele>44.6</ele>
        <time>2020-09-01T07:43:55Z</time>
      </trkpt>
      <trkpt lat="45.16285" lon="-0.54277">
        <ele>44.6</ele>
        <time>2020-09-01T07:43:56Z</time>
      </trkpt>
      <trkpt lat="45.16286" lon="-0.54275">
        <ele>44.6</ele>
        <time>2020-09-01T07:43:58Z</time>
      </trkpt>
      <trkpt lat="45.16287" lon="-0.54273">
        <ele>44.7</ele>
        <time>2020-09-01T07:43:59Z</time>
      </trkpt>
      <trkpt lat="45.16288" lon="-0.5427">
        <ele>44.7</ele>
        <time>2020-09-01T07:44:01Z</time>
      </trkpt>
      <trkpt lat="45.16288" lon="-0.54267">
        <ele>44.7</ele>
        <time>2020-09-01T07:44:03Z</time>
      </trkpt>
      <trkpt lat="45.16289" lon="-0.54264">
        <ele>44.8</ele>
        <time>2020-09-01T07:44:05Z</time>
      </trkpt>
      <trkpt lat="45.1629" lon="-0.54263">
        <ele>44.8</ele>
        <time>2020-09-01T07:44:06Z</time>
      </trkpt>
      <trkpt lat="45.16291" lon="-0.54263">
        <ele>44.8</ele>
        <time>2020-09-01T07:44:08Z</time>
      </trkpt>
      <trkpt lat="45.16292" lon="-0.54262">
        <ele>44.8</ele>
        <time>2020-09-01T07:44:09Z</time>
      </trkpt>
      <trkpt lat="45.16293" lon="-0.5426">
        <ele>44.8</ele>
        <time>2020-09-01T07:44:10Z</time>
      </trkpt>
      <trkpt lat="45.16294" lon="-0.54259">
        <ele>44.8</ele>
        <time>2020-09-01T07:44:12Z</time>
      </trkpt>
      <trkpt lat="45.16294" lon="-0.54257">
        <ele>44.8</ele>
        <time>2020-09-01T07:44:13Z</time>
      </trkpt>
      <trkpt lat="45.16295" lon="-0.54253">
        <ele>44.9</ele>
        <time>2020-09-01T07:44:15Z</time>
      </trkpt>
      <trkpt lat="45.16295" lon="-0.54252">
        <ele>44.9</ele>
        <time>2020-09-01T07:44:16Z</time>
      </trkpt>
      <trkpt lat="45.16296" lon="-0.5425">
        <ele>44.9</ele>
        <time>2020-09-01T07:44:17Z</time>
      </trkpt>
      <trkpt lat="45.16296" lon="-0.54246">
        <ele>44.9</ele>
        <time>2020-09-01T07:44:19Z</time>
      </trkpt>
      <trkpt lat="45.16297" lon="-0.54244">
        <ele>44.9</ele>
        <time>2020-09-01T07:44:20Z</time>
      </trkpt>
      <trkpt lat="45.16297" lon="-0.54242">
        <ele>44.9</ele>
        <time>2020-09-01T07:44:21Z</time>
      </trkpt>
      <trkpt lat="45.16298" lon="-0.5424">
        <ele>45</ele>
        <time>2020-09-01T07:44:22Z</time>
      </trkpt>
      <trkpt lat="45.163" lon="-0.54237">
        <ele>45</ele>
        <time>2020-09-01T07:44:24Z</time>
      </trkpt>
      <trkpt lat="45.16301" lon="-0.54233">
        <ele>45</ele>
        <time>2020-09-01T07:44:25Z</time>
      </trkpt>
      <trkpt lat="45.16302" lon="-0.54228">
        <ele>45</ele>
        <time>2020-09-01T07:44:27Z</time>
      </trkpt>
      <trkpt lat="45.16303" lon="-0.54227">
        <ele>45</ele>
        <time>2020-09-01T07:44:28Z</time>
      </trkpt>
      <trkpt lat="45.16303" lon="-0.54224">
        <ele>45.1</ele>
        <time>2020-09-01T07:44:29Z</time>
      </trkpt>
      <trkpt lat="45.16304" lon="-0.54223">
        <ele>45.1</ele>
        <time>2020-09-01T07:44:30Z</time>
      </trkpt>
      <trkpt lat="45.16305" lon="-0.54219">
        <ele>45.1</ele>
        <time>2020-09-01T07:44:32Z</time>
      </trkpt>
      <trkpt lat="45.16305" lon="-0.54217">
        <ele>45.1</ele>
        <time>2020-09-01T07:44:33Z</time>
      </trkpt>
      <trkpt lat="45.16305" lon="-0.54215">
        <ele>45.1</ele>
        <time>2020-09-01T07:44:35Z</time>
      </trkpt>
      <trkpt lat="45.16306" lon="-0.54213">
        <ele>45.1</ele>
        <time>2020-09-01T07:44:36Z</time>
      </trkpt>
      <trkpt lat="45.16306" lon="-0.54211">
        <ele>45.1</ele>
        <time>2020-09-01T07:44:37Z</time>
      </trkpt>
      <trkpt lat="45.16306" lon="-0.54208">
        <ele>45.1</ele>
        <time>2020-09-01T07:44:38Z</time>
      </trkpt>
      <trkpt lat="45.16307" lon="-0.54206">
        <ele>45.1</ele>
        <time>2020-09-01T07:44:40Z</time>
      </trkpt>
      <trkpt lat="45.16307" lon="-0.54204">
        <ele>45.1</ele>
        <time>2020-09-01T07:44:41Z</time>
      </trkpt>
      <trkpt lat="45.16308" lon="-0.54201">
        <ele>45.1</ele>
        <time>2020-09-01T07:44:42Z</time>
      </trkpt>
      <trkpt lat="45.16309" lon="-0.54198">
        <ele>45.1</ele>
        <time>2020-09-01T07:44:44Z</time>
      </trkpt>
      <trkpt lat="45.16309" lon="-0.54196">
        <ele>45.1</ele>
        <time>2020-09-01T07:44:45Z</time>
      </trkpt>
      <trkpt lat="45.1631" lon="-0.54194">
        <ele>45.2</ele>
        <time>2020-09-01T07:44:46Z</time>
      </trkpt>
      <trkpt lat="45.1631" lon="-0.54192">
        <ele>45.2</ele>
        <time>2020-09-01T07:44:47Z</time>
      </trkpt>
      <trkpt lat="45.1631" lon="-0.5419">
        <ele>45.2</ele>
        <time>2020-09-01T07:44:49Z</time>
      </trkpt>
      <trkpt lat="45.16311" lon="-0.54188">
        <ele>45.2</ele>
        <time>2020-09-01T07:44:50Z</time>
      </trkpt>
      <trkpt lat="45.16312" lon="-0.54185">
        <ele>45.2</ele>
        <time>2020-09-01T07:44:51Z</time>
      </trkpt>
      <trkpt lat="45.16312" lon="-0.54183">
        <ele>45.2</ele>
        <time>2020-09-01T07:44:52Z</time>
      </trkpt>
      <trkpt lat="45.16313" lon="-0.54181">
        <ele>45.2</ele>
        <time>2020-09-01T07:44:53Z</time>
      </trkpt>
      <trkpt lat="45.16313" lon="-0.54177">
        <ele>45.2</ele>
        <time>2020-09-01T07:44:55Z</time>
      </trkpt>
      <trkpt lat="45.16314" lon="-0.54176">
        <ele>45.3</ele>
        <time>2020-09-01T07:44:56Z</time>
      </trkpt>
      <trkpt lat="45.16314" lon="-0.54172">
        <ele>45.3</ele>
        <time>2020-09-01T07:44:57Z</time>
      </trkpt>
      <trkpt lat="45.16315" lon="-0.54171">
        <ele>45.3</ele>
        <time>2020-09-01T07:44:59Z</time>
      </trkpt>
      <trkpt lat="45.16315" lon="-0.54169">
        <ele>45.3</ele>
        <time>2020-09-01T07:45:00Z</time>
      </trkpt>
      <trkpt lat="45.16315" lon="-0.54167">
        <ele>45.3</ele>
        <time>2020-09-01T07:45:01Z</time>
      </trkpt>
      <trkpt lat="45.16316" lon="-0.54166">
        <ele>45.4</ele>
        <time>2020-09-01T07:45:02Z</time>
      </trkpt>
      <trkpt lat="45.16317" lon="-0.54163">
        <ele>45.4</ele>
        <time>2020-09-01T07:45:04Z</time>
      </trkpt>
      <trkpt lat="45.16317" lon="-0.54161">
        <ele>45.4</ele>
        <time>2020-09-01T07:45:05Z</time>
      </trkpt>
      <trkpt lat="45.16318" lon="-0.54159">
        <ele>45.5</ele>
        <time>2020-09-01T07:45:06Z</time>
      </trkpt>
      <trkpt lat="45.16318" lon="-0.54157">
        <ele>45.5</ele>
        <time>2020-09-01T07:45:07Z</time>
      </trkpt>
      <trkpt lat="45.16319" lon="-0.54153">
        <ele>45.6</ele>
        <time>2020-09-01T07:45:08Z</time>
      </trkpt>
      <trkpt lat="45.16319" lon="-0.54151">
        <ele>45.6</ele>
        <time>2020-09-01T07:45:09Z</time>
      </trkpt>
      <trkpt lat="45.1632" lon="-0.5415">
        <ele>45.6</ele>
        <time>2020-09-01T07:45:10Z</time>
      </trkpt>
      <trkpt lat="45.16321" lon="-0.54146">
        <ele>45.6</ele>
        <time>2020-09-01T07:45:12Z</time>
      </trkpt>
      <trkpt lat="45.16322" lon="-0.54142">
        <ele>45.7</ele>
        <time>2020-09-01T07:45:14Z</time>
      </trkpt>
      <trkpt lat="45.16322" lon="-0.5414">
        <ele>45.7</ele>
        <time>2020-09-01T07:45:15Z</time>
      </trkpt>
      <trkpt lat="45.16322" lon="-0.54137">
        <ele>45.7</ele>
        <time>2020-09-01T07:45:16Z</time>
      </trkpt>
      <trkpt lat="45.16323" lon="-0.54136">
        <ele>45.7</ele>
        <time>2020-09-01T07:45:17Z</time>
      </trkpt>
      <trkpt lat="45.16325" lon="-0.54132">
        <ele>45.8</ele>
        <time>2020-09-01T07:45:19Z</time>
      </trkpt>
      <trkpt lat="45.16325" lon="-0.54131">
        <ele>45.8</ele>
        <time>2020-09-01T07:45:20Z</time>
      </trkpt>
      <trkpt lat="45.16326" lon="-0.54128">
        <ele>45.8</ele>
        <time>2020-09-01T07:45:21Z</time>
      </trkpt>
      <trkpt lat="45.16326" lon="-0.54126">
        <ele>45.8</ele>
        <time>2020-09-01T07:45:23Z</time>
      </trkpt>
      <trkpt lat="45.16327" lon="-0.54125">
        <ele>45.8</ele>
        <time>2020-09-01T07:45:24Z</time>
      </trkpt>
      <trkpt lat="45.16327" lon="-0.54123">
        <ele>45.8</ele>
        <time>2020-09-01T07:45:25Z</time>
      </trkpt>
      <trkpt lat="45.16328" lon="-0.54122">
        <ele>45.8</ele>
        <time>2020-09-01T07:45:26Z</time>
      </trkpt>
      <trkpt lat="45.16329" lon="-0.54119">
        <ele>45.8</ele>
        <time>2020-09-01T07:45:27Z</time>
      </trkpt>
      <trkpt lat="45.16329" lon="-0.54116">
        <ele>45.8</ele>
        <time>2020-09-01T07:45:29Z</time>
      </trkpt>
      <trkpt lat="45.16329" lon="-0.54114">
        <ele>45.8</ele>
        <time>2020-09-01T07:45:30Z</time>
      </trkpt>
      <trkpt lat="45.1633" lon="-0.54113">
        <ele>45.8</ele>
        <time>2020-09-01T07:45:31Z</time>
      </trkpt>
      <trkpt lat="45.16331" lon="-0.5411">
        <ele>45.9</ele>
        <time>2020-09-01T07:45:32Z</time>
      </trkpt>
      <trkpt lat="45.16331" lon="-0.54109">
        <ele>45.9</ele>
        <time>2020-09-01T07:45:33Z</time>
      </trkpt>
      <trkpt lat="45.16332" lon="-0.54107">
        <ele>45.9</ele>
        <time>2020-09-01T07:45:34Z</time>
      </trkpt>
      <trkpt lat="45.16332" lon="-0.54105">
        <ele>45.9</ele>
        <time>2020-09-01T07:45:36Z</time>
      </trkpt>
      <trkpt lat="45.16333" lon="-0.54102">
        <ele>45.9</ele>
        <time>2020-09-01T07:45:38Z</time>
      </trkpt>
      <trkpt lat="45.16333" lon="-0.541">
        <ele>45.9</ele>
        <time>2020-09-01T07:45:39Z</time>
      </trkpt>
      <trkpt lat="45.16334" lon="-0.54097">
        <ele>45.9</ele>
        <time>2020-09-01T07:45:40Z</time>
      </trkpt>
      <trkpt lat="45.16334" lon="-0.54096">
        <ele>45.9</ele>
        <time>2020-09-01T07:45:41Z</time>
      </trkpt>
      <trkpt lat="45.16335" lon="-0.54095">
        <ele>45.9</ele>
        <time>2020-09-01T07:45:42Z</time>
      </trkpt>
      <trkpt lat="45.16335" lon="-0.54093">
        <ele>45.9</ele>
        <time>2020-09-01T07:45:43Z</time>
      </trkpt>
      <trkpt lat="45.16336" lon="-0.54091">
        <ele>45.9</ele>
        <time>2020-09-01T07:45:44Z</time>
      </trkpt>
      <trkpt lat="45.16336" lon="-0.54089">
        <ele>45.9</ele>
        <time>2020-09-01T07:45:45Z</time>
      </trkpt>
      <trkpt lat="45.16337" lon="-0.54087">
        <ele>45.9</ele>
        <time>2020-09-01T07:45:46Z</time>
      </trkpt>
      <trkpt lat="45.16338" lon="-0.54084">
        <ele>46</ele>
        <time>2020-09-01T07:45:47Z</time>
      </trkpt>
      <trkpt lat="45.16338" lon="-0.54083">
        <ele>46</ele>
        <time>2020-09-01T07:45:48Z</time>
      </trkpt>
      <trkpt lat="45.16339" lon="-0.5408">
        <ele>46</ele>
        <time>2020-09-01T07:45:50Z</time>
      </trkpt>
      <trkpt lat="45.16339" lon="-0.54079">
        <ele>46</ele>
        <time>2020-09-01T07:45:51Z</time>
      </trkpt>
      <trkpt lat="45.16339" lon="-0.54078">
        <ele>46</ele>
        <time>2020-09-01T07:45:52Z</time>
      </trkpt>
      <trkpt lat="45.1634" lon="-0.54076">
        <ele>46</ele>
        <time>2020-09-01T07:45:53Z</time>
      </trkpt>
      <trkpt lat="45.1634" lon="-0.54073">
        <ele>46</ele>
        <time>2020-09-01T07:45:55Z</time>
      </trkpt>
      <trkpt lat="45.16341" lon="-0.54071">
        <ele>46</ele>
        <time>2020-09-01T07:45:56Z</time>
      </trkpt>
      <trkpt lat="45.16342" lon="-0.5407">
        <ele>46</ele>
        <time>2020-09-01T07:45:57Z</time>
      </trkpt>
      <trkpt lat="45.16342" lon="-0.54068">
        <ele>46</ele>
        <time>2020-09-01T07:45:59Z</time>
      </trkpt>
      <trkpt lat="45.16343" lon="-0.54065">
        <ele>46.1</ele>
        <time>2020-09-01T07:46:00Z</time>
      </trkpt>
      <trkpt lat="45.16344" lon="-0.54062">
        <ele>46.1</ele>
        <time>2020-09-01T07:46:02Z</time>
      </trkpt>
      <trkpt lat="45.16344" lon="-0.54061">
        <ele>46.1</ele>
        <time>2020-09-01T07:46:03Z</time>
      </trkpt>
      <trkpt lat="45.16345" lon="-0.5406">
        <ele>46.1</ele>
        <time>2020-09-01T07:46:04Z</time>
      </trkpt>
      <trkpt lat="45.16346" lon="-0.54057">
        <ele>46.1</ele>
        <time>2020-09-01T07:46:05Z</time>
      </trkpt>
      <trkpt lat="45.16346" lon="-0.54056">
        <ele>46.1</ele>
        <time>2020-09-01T07:46:06Z</time>
      </trkpt>
      <trkpt lat="45.16347" lon="-0.54052">
        <ele>46.2</ele>
        <time>2020-09-01T07:46:08Z</time>
      </trkpt>
      <trkpt lat="45.16347" lon="-0.5405">
        <ele>46.2</ele>
        <time>2020-09-01T07:46:10Z</time>
      </trkpt>
      <trkpt lat="45.16348" lon="-0.54048">
        <ele>46.2</ele>
        <time>2020-09-01T07:46:11Z</time>
      </trkpt>
      <trkpt lat="45.16348" lon="-0.54046">
        <ele>46.2</ele>
        <time>2020-09-01T07:46:12Z</time>
      </trkpt>
      <trkpt lat="45.16349" lon="-0.54044">
        <ele>46.2</ele>
        <time>2020-09-01T07:46:13Z</time>
      </trkpt>
      <trkpt lat="45.16349" lon="-0.54043">
        <ele>46.3</ele>
        <time>2020-09-01T07:46:14Z</time>
      </trkpt>
      <trkpt lat="45.1635" lon="-0.5404">
        <ele>46.3</ele>
        <time>2020-09-01T07:46:15Z</time>
      </trkpt>
      <trkpt lat="45.1635" lon="-0.54039">
        <ele>46.3</ele>
        <time>2020-09-01T07:46:16Z</time>
      </trkpt>
      <trkpt lat="45.16351" lon="-0.54038">
        <ele>46.3</ele>
        <time>2020-09-01T07:46:17Z</time>
      </trkpt>
      <trkpt lat="45.16351" lon="-0.54035">
        <ele>46.3</ele>
        <time>2020-09-01T07:46:19Z</time>
      </trkpt>
      <trkpt lat="45.16352" lon="-0.54034">
        <ele>46.3</ele>
        <time>2020-09-01T07:46:20Z</time>
      </trkpt>
      <trkpt lat="45.16352" lon="-0.54031">
        <ele>46.4</ele>
        <time>2020-09-01T07:46:21Z</time>
      </trkpt>
      <trkpt lat="45.16353" lon="-0.54029">
        <ele>46.4</ele>
        <time>2020-09-01T07:46:22Z</time>
      </trkpt>
      <trkpt lat="45.16354" lon="-0.54027">
        <ele>46.4</ele>
        <time>2020-09-01T07:46:23Z</time>
      </trkpt>
      <trkpt lat="45.16354" lon="-0.54025">
        <ele>46.4</ele>
        <time>2020-09-01T07:46:24Z</time>
      </trkpt>
      <trkpt lat="45.16355" lon="-0.54023">
        <ele>46.4</ele>
        <time>2020-09-01T07:46:25Z</time>
      </trkpt>
      <trkpt lat="45.16355" lon="-0.54022">
        <ele>46.5</ele>
        <time>2020-09-01T07:46:26Z</time>
      </trkpt>
      <trkpt lat="45.16356" lon="-0.5402">
        <ele>46.5</ele>
        <time>2020-09-01T07:46:28Z</time>
      </trkpt>
      <trkpt lat="45.16357" lon="-0.54017">
        <ele>46.5</ele>
        <time>2020-09-01T07:46:29Z</time>
      </trkpt>
      <trkpt lat="45.16357" lon="-0.54016">
        <ele>46.5</ele>
        <time>2020-09-01T07:46:30Z</time>
      </trkpt>
      <trkpt lat="45.16358" lon="-0.54015">
        <ele>46.5</ele>
        <time>2020-09-01T07:46:31Z</time>
      </trkpt>
      <trkpt lat="45.16358" lon="-0.54013">
        <ele>46.5</ele>
        <time>2020-09-01T07:46:33Z</time>
      </trkpt>
      <trkpt lat="45.16359" lon="-0.5401">
        <ele>46.6</ele>
        <time>2020-09-01T07:46:34Z</time>
      </trkpt>
      <trkpt lat="45.1636" lon="-0.54007">
        <ele>46.6</ele>
        <time>2020-09-01T07:46:36Z</time>
      </trkpt>
      <trkpt lat="45.1636" lon="-0.54005">
        <ele>46.6</ele>
        <time>2020-09-01T07:46:37Z</time>
      </trkpt>
      <trkpt lat="45.16361" lon="-0.54004">
        <ele>46.6</ele>
        <time>2020-09-01T07:46:38Z</time>
      </trkpt>
      <trkpt lat="45.16361" lon="-0.54001">
        <ele>46.6</ele>
        <time>2020-09-01T07:46:40Z</time>
      </trkpt>
      <trkpt lat="45.16362" lon="-0.54">
        <ele>46.6</ele>
        <time>2020-09-01T07:46:41Z</time>
      </trkpt>
      <trkpt lat="45.16363" lon="-0.53997">
        <ele>46.6</ele>
        <time>2020-09-01T07:46:43Z</time>
      </trkpt>
      <trkpt lat="45.16363" lon="-0.53995">
        <ele>46.7</ele>
        <time>2020-09-01T07:46:44Z</time>
      </trkpt>
      <trkpt lat="45.16364" lon="-0.53992">
        <ele>46.7</ele>
        <time>2020-09-01T07:46:46Z</time>
      </trkpt>
      <trkpt lat="45.16364" lon="-0.5399">
        <ele>46.7</ele>
        <time>2020-09-01T07:46:47Z</time>
      </trkpt>
      <trkpt lat="45.16365" lon="-0.53988">
        <ele>46.7</ele>
        <time>2020-09-01T07:46:48Z</time>
      </trkpt>
      <trkpt lat="45.16365" lon="-0.53986">
        <ele>46.7</ele>
        <time>2020-09-01T07:46:49Z</time>
      </trkpt>
      <trkpt lat="45.16366" lon="-0.53985">
        <ele>46.7</ele>
        <time>2020-09-01T07:46:50Z</time>
      </trkpt>
      <trkpt lat="45.16366" lon="-0.53981">
        <ele>46.7</ele>
        <time>2020-09-01T07:46:52Z</time>
      </trkpt>
      <trkpt lat="45.16367" lon="-0.53979">
        <ele>46.7</ele>
        <time>2020-09-01T07:46:53Z</time>
      </trkpt>
      <trkpt lat="45.16367" lon="-0.53976">
        <ele>46.7</ele>
        <time>2020-09-01T07:46:54Z</time>
      </trkpt>
      <trkpt lat="45.16368" lon="-0.53974">
        <ele>46.7</ele>
        <time>2020-09-01T07:46:55Z</time>
      </trkpt>
      <trkpt lat="45.16368" lon="-0.53973">
        <ele>46.7</ele>
        <time>2020-09-01T07:46:56Z</time>
      </trkpt>
      <trkpt lat="45.16368" lon="-0.53971">
        <ele>46.7</ele>
        <time>2020-09-01T07:46:58Z</time>
      </trkpt>
      <trkpt lat="45.16368" lon="-0.5397">
        <ele>46.7</ele>
        <time>2020-09-01T07:46:59Z</time>
      </trkpt>
      <trkpt lat="45.16369" lon="-0.5397">
        <ele>46.7</ele>
        <time>2020-09-01T07:47:00Z</time>
      </trkpt>
      <trkpt lat="45.16369" lon="-0.53969">
        <ele>46.7</ele>
        <time>2020-09-01T07:47:02Z</time>
      </trkpt>
      <trkpt lat="45.16369" lon="-0.53969">
        <ele>46.7</ele>
        <time>2020-09-01T07:47:03Z</time>
      </trkpt>
      <trkpt lat="45.16369" lon="-0.53969">
        <ele>46.7</ele>
        <time>2020-09-01T07:47:05Z</time>
      </trkpt>
      <trkpt lat="45.16369" lon="-0.5397">
        <ele>46.7</ele>
        <time>2020-09-01T07:47:07Z</time>
      </trkpt>
      <trkpt lat="45.16369" lon="-0.5397">
        <ele>46.6</ele>
        <time>2020-09-01T07:47:09Z</time>
      </trkpt>
      <trkpt lat="45.16368" lon="-0.53971">
        <ele>46.6</ele>
        <time>2020-09-01T07:47:10Z</time>
      </trkpt>
      <trkpt lat="45.16369" lon="-0.53971">
        <ele>46.6</ele>
        <time>2020-09-01T07:47:11Z</time>
      </trkpt>
      <trkpt lat="45.1637" lon="-0.5397">
        <ele>46.6</ele>
        <time>2020-09-01T07:47:12Z</time>
      </trkpt>
      <trkpt lat="45.16372" lon="-0.53969">
        <ele>46.6</ele>
        <time>2020-09-01T07:47:14Z</time>
      </trkpt>
      <trkpt lat="45.16372" lon="-0.53969">
        <ele>46.6</ele>
        <time>2020-09-01T07:47:16Z</time>
      </trkpt>
      <trkpt lat="45.16373" lon="-0.53969">
        <ele>46.6</ele>
        <time>2020-09-01T07:47:17Z</time>
      </trkpt>
      <trkpt lat="45.16373" lon="-0.53969">
        <ele>46.6</ele>
        <time>2020-09-01T07:47:18Z</time>
      </trkpt>
      <trkpt lat="45.16373" lon="-0.5397">
        <ele>46.6</ele>
        <time>2020-09-01T07:47:19Z</time>
      </trkpt>
      <trkpt lat="45.16374" lon="-0.53971">
        <ele>46.6</ele>
        <time>2020-09-01T07:47:20Z</time>
      </trkpt>
      <trkpt lat="45.16377" lon="-0.53971">
        <ele>46.6</ele>
        <time>2020-09-01T07:47:21Z</time>
      </trkpt>
      <trkpt lat="45.16377" lon="-0.53972">
        <ele>46.6</ele>
        <time>2020-09-01T07:47:22Z</time>
      </trkpt>
      <trkpt lat="45.16378" lon="-0.53972">
        <ele>46.6</ele>
        <time>2020-09-01T07:47:23Z</time>
      </trkpt>
      <trkpt lat="45.1638" lon="-0.53973">
        <ele>46.6</ele>
        <time>2020-09-01T07:47:24Z</time>
      </trkpt>
      <trkpt lat="45.16381" lon="-0.53974">
        <ele>46.5</ele>
        <time>2020-09-01T07:47:25Z</time>
      </trkpt>
      <trkpt lat="45.16382" lon="-0.53975">
        <ele>46.5</ele>
        <time>2020-09-01T07:47:27Z</time>
      </trkpt>
      <trkpt lat="45.16384" lon="-0.53976">
        <ele>46.5</ele>
        <time>2020-09-01T07:47:29Z</time>
      </trkpt>
      <trkpt lat="45.16385" lon="-0.53976">
        <ele>46.5</ele>
        <time>2020-09-01T07:47:30Z</time>
      </trkpt>
      <trkpt lat="45.16386" lon="-0.53976">
        <ele>46.4</ele>
        <time>2020-09-01T07:47:31Z</time>
      </trkpt>
      <trkpt lat="45.16388" lon="-0.53977">
        <ele>46.4</ele>
        <time>2020-09-01T07:47:32Z</time>
      </trkpt>
      <trkpt lat="45.16389" lon="-0.53977">
        <ele>46.4</ele>
        <time>2020-09-01T07:47:33Z</time>
      </trkpt>
      <trkpt lat="45.1639" lon="-0.53978">
        <ele>46.4</ele>
        <time>2020-09-01T07:47:34Z</time>
      </trkpt>
      <trkpt lat="45.16393" lon="-0.5398">
        <ele>46.3</ele>
        <time>2020-09-01T07:47:36Z</time>
      </trkpt>
      <trkpt lat="45.16395" lon="-0.53982">
        <ele>46.2</ele>
        <time>2020-09-01T07:47:37Z</time>
      </trkpt>
      <trkpt lat="45.16396" lon="-0.53983">
        <ele>46.2</ele>
        <time>2020-09-01T07:47:38Z</time>
      </trkpt>
      <trkpt lat="45.16399" lon="-0.53985">
        <ele>46.1</ele>
        <time>2020-09-01T07:47:41Z</time>
      </trkpt>
      <trkpt lat="45.164" lon="-0.53986">
        <ele>46.1</ele>
        <time>2020-09-01T07:47:42Z</time>
      </trkpt>
      <trkpt lat="45.16401" lon="-0.53987">
        <ele>46.1</ele>
        <time>2020-09-01T07:47:44Z</time>
      </trkpt>
      <trkpt lat="45.16402" lon="-0.53988">
        <ele>46.1</ele>
        <time>2020-09-01T07:47:45Z</time>
      </trkpt>
      <trkpt lat="45.16404" lon="-0.53989">
        <ele>46</ele>
        <time>2020-09-01T07:47:46Z</time>
      </trkpt>
      <trkpt lat="45.16405" lon="-0.5399">
        <ele>46</ele>
        <time>2020-09-01T07:47:47Z</time>
      </trkpt>
      <trkpt lat="45.16407" lon="-0.53991">
        <ele>46</ele>
        <time>2020-09-01T07:47:49Z</time>
      </trkpt>
      <trkpt lat="45.16409" lon="-0.53993">
        <ele>45.9</ele>
        <time>2020-09-01T07:47:51Z</time>
      </trkpt>
      <trkpt lat="45.16411" lon="-0.53995">
        <ele>45.8</ele>
        <time>2020-09-01T07:47:52Z</time>
      </trkpt>
      <trkpt lat="45.16413" lon="-0.53996">
        <ele>45.8</ele>
        <time>2020-09-01T07:47:54Z</time>
      </trkpt>
      <trkpt lat="45.16414" lon="-0.53998">
        <ele>45.8</ele>
        <time>2020-09-01T07:47:55Z</time>
      </trkpt>
      <trkpt lat="45.16417" lon="-0.53999">
        <ele>45.7</ele>
        <time>2020-09-01T07:47:57Z</time>
      </trkpt>
      <trkpt lat="45.16419" lon="-0.54001">
        <ele>45.6</ele>
        <time>2020-09-01T07:47:58Z</time>
      </trkpt>
      <trkpt lat="45.1642" lon="-0.54002">
        <ele>45.6</ele>
        <time>2020-09-01T07:47:59Z</time>
      </trkpt>
      <trkpt lat="45.16422" lon="-0.54003">
        <ele>45.6</ele>
        <time>2020-09-01T07:48:01Z</time>
      </trkpt>
      <trkpt lat="45.16425" lon="-0.54006">
        <ele>45.5</ele>
        <time>2020-09-01T07:48:03Z</time>
      </trkpt>
      <trkpt lat="45.16428" lon="-0.54007">
        <ele>45.5</ele>
        <time>2020-09-01T07:48:04Z</time>
      </trkpt>
      <trkpt lat="45.16429" lon="-0.54008">
        <ele>45.5</ele>
        <time>2020-09-01T07:48:05Z</time>
      </trkpt>
      <trkpt lat="45.1643" lon="-0.54009">
        <ele>45.5</ele>
        <time>2020-09-01T07:48:06Z</time>
      </trkpt>
      <trkpt lat="45.16432" lon="-0.5401">
        <ele>45.5</ele>
        <time>2020-09-01T07:48:08Z</time>
      </trkpt>
      <trkpt lat="45.16434" lon="-0.54012">
        <ele>45.5</ele>
        <time>2020-09-01T07:48:10Z</time>
      </trkpt>
      <trkpt lat="45.16437" lon="-0.54013">
        <ele>45.5</ele>
        <time>2020-09-01T07:48:12Z</time>
      </trkpt>
      <trkpt lat="45.1644" lon="-0.54014">
        <ele>45.4</ele>
        <time>2020-09-01T07:48:14Z</time>
      </trkpt>
      <trkpt lat="45.16441" lon="-0.54015">
        <ele>45.4</ele>
        <time>2020-09-01T07:48:15Z</time>
      </trkpt>
      <trkpt lat="45.16442" lon="-0.54016">
        <ele>45.4</ele>
        <time>2020-09-01T07:48:16Z</time>
      </trkpt>
      <trkpt lat="45.16444" lon="-0.54017">
        <ele>45.4</ele>
        <time>2020-09-01T07:48:18Z</time>
      </trkpt>
      <trkpt lat="45.16445" lon="-0.54018">
        <ele>45.4</ele>
        <time>2020-09-01T07:48:19Z</time>
      </trkpt>
      <trkpt lat="45.16448" lon="-0.5402">
        <ele>45.3</ele>
        <time>2020-09-01T07:48:21Z</time>
      </trkpt>
      <trkpt lat="45.16449" lon="-0.5402">
        <ele>45.3</ele>
        <time>2020-09-01T07:48:22Z</time>
      </trkpt>
      <trkpt lat="45.16451" lon="-0.54021">
        <ele>45.3</ele>
        <time>2020-09-01T07:48:23Z</time>
      </trkpt>
      <trkpt lat="45.16452" lon="-0.54022">
        <ele>45.2</ele>
        <time>2020-09-01T07:48:24Z</time>
      </trkpt>
      <trkpt lat="45.16453" lon="-0.54022">
        <ele>45.2</ele>
        <time>2020-09-01T07:48:25Z</time>
      </trkpt>
      <trkpt lat="45.16456" lon="-0.54024">
        <ele>45.2</ele>
        <time>2020-09-01T07:48:27Z</time>
      </trkpt>
      <trkpt lat="45.16457" lon="-0.54024">
        <ele>45.2</ele>
        <time>2020-09-01T07:48:28Z</time>
      </trkpt>
      <trkpt lat="45.16458" lon="-0.54025">
        <ele>45.1</ele>
        <time>2020-09-01T07:48:29Z</time>
      </trkpt>
      <trkpt lat="45.16461" lon="-0.54026">
        <ele>45.1</ele>
        <time>2020-09-01T07:48:31Z</time>
      </trkpt>
      <trkpt lat="45.16462" lon="-0.54027">
        <ele>45.1</ele>
        <time>2020-09-01T07:48:32Z</time>
      </trkpt>
      <trkpt lat="45.16464" lon="-0.54028">
        <ele>45</ele>
        <time>2020-09-01T07:48:34Z</time>
      </trkpt>
      <trkpt lat="45.16465" lon="-0.54029">
        <ele>45</ele>
        <time>2020-09-01T07:48:35Z</time>
      </trkpt>
      <trkpt lat="45.16467" lon="-0.54031">
        <ele>45</ele>
        <time>2020-09-01T07:48:37Z</time>
      </trkpt>
      <trkpt lat="45.16469" lon="-0.54032">
        <ele>45</ele>
        <time>2020-09-01T07:48:38Z</time>
      </trkpt>
      <trkpt lat="45.16471" lon="-0.54033">
        <ele>44.9</ele>
        <time>2020-09-01T07:48:40Z</time>
      </trkpt>
      <trkpt lat="45.16473" lon="-0.54034">
        <ele>44.9</ele>
        <time>2020-09-01T07:48:41Z</time>
      </trkpt>
      <trkpt lat="45.16475" lon="-0.54035">
        <ele>44.9</ele>
        <time>2020-09-01T07:48:43Z</time>
      </trkpt>
      <trkpt lat="45.16477" lon="-0.54036">
        <ele>44.8</ele>
        <time>2020-09-01T07:48:44Z</time>
      </trkpt>
      <trkpt lat="45.16478" lon="-0.54036">
        <ele>44.8</ele>
        <time>2020-09-01T07:48:45Z</time>
      </trkpt>
      <trkpt lat="45.16479" lon="-0.54036">
        <ele>44.8</ele>
        <time>2020-09-01T07:48:46Z</time>
      </trkpt>
      <trkpt lat="45.16482" lon="-0.54037">
        <ele>44.8</ele>
        <time>2020-09-01T07:48:48Z</time>
      </trkpt>
      <trkpt lat="45.16482" lon="-0.54038">
        <ele>44.7</ele>
        <time>2020-09-01T07:48:49Z</time>
      </trkpt>
      <trkpt lat="45.16484" lon="-0.54038">
        <ele>44.7</ele>
        <time>2020-09-01T07:48:50Z</time>
      </trkpt>
      <trkpt lat="45.16485" lon="-0.54039">
        <ele>44.7</ele>
        <time>2020-09-01T07:48:51Z</time>
      </trkpt>
      <trkpt lat="45.16488" lon="-0.5404">
        <ele>44.6</ele>
        <time>2020-09-01T07:48:52Z</time>
      </trkpt>
      <trkpt lat="45.16489" lon="-0.5404">
        <ele>44.6</ele>
        <time>2020-09-01T07:48:53Z</time>
      </trkpt>
      <trkpt lat="45.16491" lon="-0.54041">
        <ele>44.6</ele>
        <time>2020-09-01T07:48:55Z</time>
      </trkpt>
      <trkpt lat="45.16493" lon="-0.54041">
        <ele>44.6</ele>
        <time>2020-09-01T07:48:56Z</time>
      </trkpt>
      <trkpt lat="45.16494" lon="-0.54042">
        <ele>44.5</ele>
        <time>2020-09-01T07:48:57Z</time>
      </trkpt>
      <trkpt lat="45.16495" lon="-0.54042">
        <ele>44.5</ele>
        <time>2020-09-01T07:48:58Z</time>
      </trkpt>
      <trkpt lat="45.16496" lon="-0.54043">
        <ele>44.5</ele>
        <time>2020-09-01T07:48:59Z</time>
      </trkpt>
      <trkpt lat="45.16498" lon="-0.54044">
        <ele>44.4</ele>
        <time>2020-09-01T07:49:01Z</time>
      </trkpt>
      <trkpt lat="45.16501" lon="-0.54045">
        <ele>44.4</ele>
        <time>2020-09-01T07:49:02Z</time>
      </trkpt>
      <trkpt lat="45.16502" lon="-0.54045">
        <ele>44.4</ele>
        <time>2020-09-01T07:49:04Z</time>
      </trkpt>
      <trkpt lat="45.16503" lon="-0.54046">
        <ele>44.3</ele>
        <time>2020-09-01T07:49:06Z</time>
      </trkpt>
      <trkpt lat="45.16505" lon="-0.54046">
        <ele>44.3</ele>
        <time>2020-09-01T07:49:07Z</time>
      </trkpt>
      <trkpt lat="45.16508" lon="-0.54048">
        <ele>44.2</ele>
        <time>2020-09-01T07:49:09Z</time>
      </trkpt>
      <trkpt lat="45.16509" lon="-0.54049">
        <ele>44.2</ele>
        <time>2020-09-01T07:49:10Z</time>
      </trkpt>
      <trkpt lat="45.16513" lon="-0.54051">
        <ele>44.1</ele>
        <time>2020-09-01T07:49:12Z</time>
      </trkpt>
      <trkpt lat="45.16514" lon="-0.54052">
        <ele>44.1</ele>
        <time>2020-09-01T07:49:13Z</time>
      </trkpt>
      <trkpt lat="45.16515" lon="-0.54052">
        <ele>44.1</ele>
        <time>2020-09-01T07:49:14Z</time>
      </trkpt>
      <trkpt lat="45.16517" lon="-0.54054">
        <ele>44</ele>
        <time>2020-09-01T07:49:16Z</time>
      </trkpt>
      <trkpt lat="45.16519" lon="-0.54054">
        <ele>44</ele>
        <time>2020-09-01T07:49:17Z</time>
      </trkpt>
      <trkpt lat="45.16521" lon="-0.54056">
        <ele>44</ele>
        <time>2020-09-01T07:49:18Z</time>
      </trkpt>
      <trkpt lat="45.16522" lon="-0.54056">
        <ele>43.9</ele>
        <time>2020-09-01T07:49:20Z</time>
      </trkpt>
      <trkpt lat="45.16524" lon="-0.54057">
        <ele>43.9</ele>
        <time>2020-09-01T07:49:21Z</time>
      </trkpt>
      <trkpt lat="45.16525" lon="-0.54058">
        <ele>43.9</ele>
        <time>2020-09-01T07:49:22Z</time>
      </trkpt>
      <trkpt lat="45.16528" lon="-0.5406">
        <ele>43.9</ele>
        <time>2020-09-01T07:49:24Z</time>
      </trkpt>
      <trkpt lat="45.16528" lon="-0.54061">
        <ele>43.8</ele>
        <time>2020-09-01T07:49:25Z</time>
      </trkpt>
      <trkpt lat="45.1653" lon="-0.54062">
        <ele>43.8</ele>
        <time>2020-09-01T07:49:26Z</time>
      </trkpt>
      <trkpt lat="45.16532" lon="-0.54063">
        <ele>43.8</ele>
        <time>2020-09-01T07:49:28Z</time>
      </trkpt>
      <trkpt lat="45.16533" lon="-0.54064">
        <ele>43.8</ele>
        <time>2020-09-01T07:49:29Z</time>
      </trkpt>
      <trkpt lat="45.16535" lon="-0.54065">
        <ele>43.7</ele>
        <time>2020-09-01T07:49:30Z</time>
      </trkpt>
      <trkpt lat="45.16537" lon="-0.54066">
        <ele>43.7</ele>
        <time>2020-09-01T07:49:32Z</time>
      </trkpt>
      <trkpt lat="45.16538" lon="-0.54067">
        <ele>43.7</ele>
        <time>2020-09-01T07:49:33Z</time>
      </trkpt>
      <trkpt lat="45.1654" lon="-0.54068">
        <ele>43.6</ele>
        <time>2020-09-01T07:49:34Z</time>
      </trkpt>
      <trkpt lat="45.16542" lon="-0.54069">
        <ele>43.6</ele>
        <time>2020-09-01T07:49:36Z</time>
      </trkpt>
      <trkpt lat="45.16544" lon="-0.54071">
        <ele>43.5</ele>
        <time>2020-09-01T07:49:37Z</time>
      </trkpt>
      <trkpt lat="45.16544" lon="-0.54072">
        <ele>43.5</ele>
        <time>2020-09-01T07:49:38Z</time>
      </trkpt>
      <trkpt lat="45.16545" lon="-0.54073">
        <ele>43.5</ele>
        <time>2020-09-01T07:49:39Z</time>
      </trkpt>
      <trkpt lat="45.16547" lon="-0.54076">
        <ele>43.4</ele>
        <time>2020-09-01T07:49:41Z</time>
      </trkpt>
      <trkpt lat="45.16548" lon="-0.54077">
        <ele>43.4</ele>
        <time>2020-09-01T07:49:42Z</time>
      </trkpt>
      <trkpt lat="45.16549" lon="-0.54078">
        <ele>43.4</ele>
        <time>2020-09-01T07:49:43Z</time>
      </trkpt>
      <trkpt lat="45.16551" lon="-0.54079">
        <ele>43.4</ele>
        <time>2020-09-01T07:49:45Z</time>
      </trkpt>
      <trkpt lat="45.16552" lon="-0.5408">
        <ele>43.3</ele>
        <time>2020-09-01T07:49:46Z</time>
      </trkpt>
      <trkpt lat="45.16554" lon="-0.54082">
        <ele>43.3</ele>
        <time>2020-09-01T07:49:48Z</time>
      </trkpt>
      <trkpt lat="45.16555" lon="-0.54083">
        <ele>43.3</ele>
        <time>2020-09-01T07:49:49Z</time>
      </trkpt>
      <trkpt lat="45.16556" lon="-0.54084">
        <ele>43.3</ele>
        <time>2020-09-01T07:49:50Z</time>
      </trkpt>
      <trkpt lat="45.16556" lon="-0.54085">
        <ele>43.2</ele>
        <time>2020-09-01T07:49:51Z</time>
      </trkpt>
      <trkpt lat="45.16558" lon="-0.54087">
        <ele>43.2</ele>
        <time>2020-09-01T07:49:53Z</time>
      </trkpt>
      <trkpt lat="45.16559" lon="-0.54088">
        <ele>43.2</ele>
        <time>2020-09-01T07:49:54Z</time>
      </trkpt>
      <trkpt lat="45.16561" lon="-0.54089">
        <ele>43.2</ele>
        <time>2020-09-01T07:49:56Z</time>
      </trkpt>
      <trkpt lat="45.16563" lon="-0.54091">
        <ele>43.1</ele>
        <time>2020-09-01T07:49:58Z</time>
      </trkpt>
      <trkpt lat="45.16564" lon="-0.54092">
        <ele>43.1</ele>
        <time>2020-09-01T07:49:59Z</time>
      </trkpt>
      <trkpt lat="45.16565" lon="-0.54094">
        <ele>43.1</ele>
        <time>2020-09-01T07:50:00Z</time>
      </trkpt>
      <trkpt lat="45.16567" lon="-0.54096">
        <ele>43.1</ele>
        <time>2020-09-01T07:50:02Z</time>
      </trkpt>
      <trkpt lat="45.16568" lon="-0.54097">
        <ele>43</ele>
        <time>2020-09-01T07:50:03Z</time>
      </trkpt>
      <trkpt lat="45.16569" lon="-0.54099">
        <ele>43</ele>
        <time>2020-09-01T07:50:04Z</time>
      </trkpt>
      <trkpt lat="45.1657" lon="-0.541">
        <ele>43</ele>
        <time>2020-09-01T07:50:05Z</time>
      </trkpt>
      <trkpt lat="45.16573" lon="-0.54102">
        <ele>42.9</ele>
        <time>2020-09-01T07:50:07Z</time>
      </trkpt>
      <trkpt lat="45.16574" lon="-0.54103">
        <ele>42.9</ele>
        <time>2020-09-01T07:50:08Z</time>
      </trkpt>
      <trkpt lat="45.16576" lon="-0.54103">
        <ele>42.9</ele>
        <time>2020-09-01T07:50:10Z</time>
      </trkpt>
      <trkpt lat="45.16577" lon="-0.54105">
        <ele>42.8</ele>
        <time>2020-09-01T07:50:11Z</time>
      </trkpt>
      <trkpt lat="45.16579" lon="-0.54106">
        <ele>42.8</ele>
        <time>2020-09-01T07:50:12Z</time>
      </trkpt>
      <trkpt lat="45.1658" lon="-0.54106">
        <ele>42.8</ele>
        <time>2020-09-01T07:50:13Z</time>
      </trkpt>
      <trkpt lat="45.16581" lon="-0.54107">
        <ele>42.7</ele>
        <time>2020-09-01T07:50:14Z</time>
      </trkpt>
      <trkpt lat="45.16583" lon="-0.54108">
        <ele>42.7</ele>
        <time>2020-09-01T07:50:15Z</time>
      </trkpt>
      <trkpt lat="45.16586" lon="-0.5411">
        <ele>42.6</ele>
        <time>2020-09-01T07:50:17Z</time>
      </trkpt>
      <trkpt lat="45.16587" lon="-0.54111">
        <ele>42.6</ele>
        <time>2020-09-01T07:50:19Z</time>
      </trkpt>
      <trkpt lat="45.16589" lon="-0.54112">
        <ele>42.6</ele>
        <time>2020-09-01T07:50:20Z</time>
      </trkpt>
      <trkpt lat="45.1659" lon="-0.54114">
        <ele>42.6</ele>
        <time>2020-09-01T07:50:21Z</time>
      </trkpt>
      <trkpt lat="45.16591" lon="-0.54115">
        <ele>42.6</ele>
        <time>2020-09-01T07:50:22Z</time>
      </trkpt>
      <trkpt lat="45.16593" lon="-0.54118">
        <ele>42.5</ele>
        <time>2020-09-01T07:50:24Z</time>
      </trkpt>
      <trkpt lat="45.16594" lon="-0.54119">
        <ele>42.5</ele>
        <time>2020-09-01T07:50:26Z</time>
      </trkpt>
      <trkpt lat="45.16597" lon="-0.54122">
        <ele>42.5</ele>
        <time>2020-09-01T07:50:27Z</time>
      </trkpt>
      <trkpt lat="45.16598" lon="-0.54122">
        <ele>42.4</ele>
        <time>2020-09-01T07:50:28Z</time>
      </trkpt>
      <trkpt lat="45.16599" lon="-0.54123">
        <ele>42.4</ele>
        <time>2020-09-01T07:50:29Z</time>
      </trkpt>
      <trkpt lat="45.166" lon="-0.54124">
        <ele>42.4</ele>
        <time>2020-09-01T07:50:31Z</time>
      </trkpt>
      <trkpt lat="45.16602" lon="-0.54126">
        <ele>42.4</ele>
        <time>2020-09-01T07:50:32Z</time>
      </trkpt>
      <trkpt lat="45.16603" lon="-0.54127">
        <ele>42.4</ele>
        <time>2020-09-01T07:50:33Z</time>
      </trkpt>
      <trkpt lat="45.16606" lon="-0.54128">
        <ele>42.3</ele>
        <time>2020-09-01T07:50:35Z</time>
      </trkpt>
      <trkpt lat="45.16607" lon="-0.54129">
        <ele>42.3</ele>
        <time>2020-09-01T07:50:36Z</time>
      </trkpt>
      <trkpt lat="45.16608" lon="-0.54131">
        <ele>42.3</ele>
        <time>2020-09-01T07:50:38Z</time>
      </trkpt>
      <trkpt lat="45.16611" lon="-0.54133">
        <ele>42.3</ele>
        <time>2020-09-01T07:50:40Z</time>
      </trkpt>
      <trkpt lat="45.16612" lon="-0.54134">
        <ele>42.2</ele>
        <time>2020-09-01T07:50:41Z</time>
      </trkpt>
      <trkpt lat="45.16614" lon="-0.54135">
        <ele>42.2</ele>
        <time>2020-09-01T07:50:42Z</time>
      </trkpt>
      <trkpt lat="45.16617" lon="-0.54136">
        <ele>42.2</ele>
        <time>2020-09-01T07:50:43Z</time>
      </trkpt>
      <trkpt lat="45.16617" lon="-0.54137">
        <ele>42.2</ele>
        <time>2020-09-01T07:50:44Z</time>
      </trkpt>
      <trkpt lat="45.1662" lon="-0.54139">
        <ele>42.1</ele>
        <time>2020-09-01T07:50:46Z</time>
      </trkpt>
      <trkpt lat="45.16621" lon="-0.54139">
        <ele>42.1</ele>
        <time>2020-09-01T07:50:47Z</time>
      </trkpt>
      <trkpt lat="45.16624" lon="-0.54141">
        <ele>42.1</ele>
        <time>2020-09-01T07:50:49Z</time>
      </trkpt>
      <trkpt lat="45.16625" lon="-0.54141">
        <ele>42</ele>
        <time>2020-09-01T07:50:50Z</time>
      </trkpt>
      <trkpt lat="45.16626" lon="-0.54141">
        <ele>42</ele>
        <time>2020-09-01T07:50:51Z</time>
      </trkpt>
      <trkpt lat="45.16628" lon="-0.54142">
        <ele>42</ele>
        <time>2020-09-01T07:50:53Z</time>
      </trkpt>
      <trkpt lat="45.1663" lon="-0.54143">
        <ele>41.9</ele>
        <time>2020-09-01T07:50:54Z</time>
      </trkpt>
      <trkpt lat="45.16632" lon="-0.54144">
        <ele>41.9</ele>
        <time>2020-09-01T07:50:55Z</time>
      </trkpt>
      <trkpt lat="45.16633" lon="-0.54145">
        <ele>41.9</ele>
        <time>2020-09-01T07:50:56Z</time>
      </trkpt>
      <trkpt lat="45.16635" lon="-0.54145">
        <ele>41.8</ele>
        <time>2020-09-01T07:50:57Z</time>
      </trkpt>
      <trkpt lat="45.16638" lon="-0.54146">
        <ele>41.7</ele>
        <time>2020-09-01T07:50:59Z</time>
      </trkpt>
      <trkpt lat="45.16639" lon="-0.54147">
        <ele>41.7</ele>
        <time>2020-09-01T07:51:00Z</time>
      </trkpt>
      <trkpt lat="45.1664" lon="-0.54147">
        <ele>41.6</ele>
        <time>2020-09-01T07:51:01Z</time>
      </trkpt>
      <trkpt lat="45.16642" lon="-0.54148">
        <ele>41.6</ele>
        <time>2020-09-01T07:51:03Z</time>
      </trkpt>
      <trkpt lat="45.16645" lon="-0.54149">
        <ele>41.5</ele>
        <time>2020-09-01T07:51:05Z</time>
      </trkpt>
      <trkpt lat="45.16646" lon="-0.54149">
        <ele>41.4</ele>
        <time>2020-09-01T07:51:06Z</time>
      </trkpt>
      <trkpt lat="45.16647" lon="-0.54149">
        <ele>41.4</ele>
        <time>2020-09-01T07:51:07Z</time>
      </trkpt>
      <trkpt lat="45.16649" lon="-0.54148">
        <ele>41.3</ele>
        <time>2020-09-01T07:51:09Z</time>
      </trkpt>
      <trkpt lat="45.16651" lon="-0.54148">
        <ele>41.3</ele>
        <time>2020-09-01T07:51:10Z</time>
      </trkpt>
      <trkpt lat="45.16653" lon="-0.54148">
        <ele>41.2</ele>
        <time>2020-09-01T07:51:11Z</time>
      </trkpt>
      <trkpt lat="45.16656" lon="-0.54148">
        <ele>41.1</ele>
        <time>2020-09-01T07:51:13Z</time>
      </trkpt>
      <trkpt lat="45.16657" lon="-0.54148">
        <ele>41.1</ele>
        <time>2020-09-01T07:51:14Z</time>
      </trkpt>
      <trkpt lat="45.1666" lon="-0.54148">
        <ele>41</ele>
        <time>2020-09-01T07:51:16Z</time>
      </trkpt>
      <trkpt lat="45.16661" lon="-0.54148">
        <ele>41</ele>
        <time>2020-09-01T07:51:17Z</time>
      </trkpt>
      <trkpt lat="45.16663" lon="-0.54149">
        <ele>41</ele>
        <time>2020-09-01T07:51:19Z</time>
      </trkpt>
      <trkpt lat="45.16665" lon="-0.54149">
        <ele>40.9</ele>
        <time>2020-09-01T07:51:20Z</time>
      </trkpt>
      <trkpt lat="45.16667" lon="-0.54149">
        <ele>40.9</ele>
        <time>2020-09-01T07:51:22Z</time>
      </trkpt>
      <trkpt lat="45.1667" lon="-0.54149">
        <ele>40.8</ele>
        <time>2020-09-01T07:51:23Z</time>
      </trkpt>
      <trkpt lat="45.16672" lon="-0.5415">
        <ele>40.8</ele>
        <time>2020-09-01T07:51:25Z</time>
      </trkpt>
      <trkpt lat="45.16674" lon="-0.54151">
        <ele>40.8</ele>
        <time>2020-09-01T07:51:26Z</time>
      </trkpt>
      <trkpt lat="45.16674" lon="-0.54152">
        <ele>40.8</ele>
        <time>2020-09-01T07:51:27Z</time>
      </trkpt>
      <trkpt lat="45.16675" lon="-0.54152">
        <ele>40.8</ele>
        <time>2020-09-01T07:51:28Z</time>
      </trkpt>
      <trkpt lat="45.16678" lon="-0.54154">
        <ele>40.7</ele>
        <time>2020-09-01T07:51:29Z</time>
      </trkpt>
      <trkpt lat="45.16679" lon="-0.54156">
        <ele>40.7</ele>
        <time>2020-09-01T07:51:31Z</time>
      </trkpt>
      <trkpt lat="45.16681" lon="-0.54157">
        <ele>40.7</ele>
        <time>2020-09-01T07:51:33Z</time>
      </trkpt>
      <trkpt lat="45.16682" lon="-0.54158">
        <ele>40.7</ele>
        <time>2020-09-01T07:51:34Z</time>
      </trkpt>
      <trkpt lat="45.16684" lon="-0.54159">
        <ele>40.6</ele>
        <time>2020-09-01T07:51:36Z</time>
      </trkpt>
      <trkpt lat="45.16685" lon="-0.54161">
        <ele>40.6</ele>
        <time>2020-09-01T07:51:37Z</time>
      </trkpt>
      <trkpt lat="45.16688" lon="-0.54163">
        <ele>40.6</ele>
        <time>2020-09-01T07:51:39Z</time>
      </trkpt>
      <trkpt lat="45.16688" lon="-0.54164">
        <ele>40.6</ele>
        <time>2020-09-01T07:51:40Z</time>
      </trkpt>
      <trkpt lat="45.1669" lon="-0.54165">
        <ele>40.6</ele>
        <time>2020-09-01T07:51:42Z</time>
      </trkpt>
      <trkpt lat="45.16691" lon="-0.54167">
        <ele>40.5</ele>
        <time>2020-09-01T07:51:43Z</time>
      </trkpt>
      <trkpt lat="45.16693" lon="-0.54169">
        <ele>40.5</ele>
        <time>2020-09-01T07:51:45Z</time>
      </trkpt>
      <trkpt lat="45.16694" lon="-0.54169">
        <ele>40.5</ele>
        <time>2020-09-01T07:51:46Z</time>
      </trkpt>
      <trkpt lat="45.16695" lon="-0.5417">
        <ele>40.4</ele>
        <time>2020-09-01T07:51:47Z</time>
      </trkpt>
      <trkpt lat="45.16697" lon="-0.54172">
        <ele>40.4</ele>
        <time>2020-09-01T07:51:48Z</time>
      </trkpt>
      <trkpt lat="45.16698" lon="-0.54173">
        <ele>40.4</ele>
        <time>2020-09-01T07:51:49Z</time>
      </trkpt>
      <trkpt lat="45.167" lon="-0.54174">
        <ele>40.3</ele>
        <time>2020-09-01T07:51:50Z</time>
      </trkpt>
      <trkpt lat="45.16702" lon="-0.54176">
        <ele>40.2</ele>
        <time>2020-09-01T07:51:52Z</time>
      </trkpt>
      <trkpt lat="45.16703" lon="-0.54177">
        <ele>40.2</ele>
        <time>2020-09-01T07:51:53Z</time>
      </trkpt>
      <trkpt lat="45.16705" lon="-0.5418">
        <ele>40.1</ele>
        <time>2020-09-01T07:51:55Z</time>
      </trkpt>
      <trkpt lat="45.16706" lon="-0.54181">
        <ele>40.1</ele>
        <time>2020-09-01T07:51:57Z</time>
      </trkpt>
      <trkpt lat="45.16708" lon="-0.54182">
        <ele>40.1</ele>
        <time>2020-09-01T07:51:58Z</time>
      </trkpt>
      <trkpt lat="45.16709" lon="-0.54184">
        <ele>40</ele>
        <time>2020-09-01T07:51:59Z</time>
      </trkpt>
      <trkpt lat="45.1671" lon="-0.54185">
        <ele>40</ele>
        <time>2020-09-01T07:52:00Z</time>
      </trkpt>
      <trkpt lat="45.16712" lon="-0.54187">
        <ele>40</ele>
        <time>2020-09-01T07:52:02Z</time>
      </trkpt>
      <trkpt lat="45.16713" lon="-0.54188">
        <ele>40</ele>
        <time>2020-09-01T07:52:03Z</time>
      </trkpt>
      <trkpt lat="45.16715" lon="-0.54189">
        <ele>39.9</ele>
        <time>2020-09-01T07:52:05Z</time>
      </trkpt>
      <trkpt lat="45.16716" lon="-0.5419">
        <ele>39.9</ele>
        <time>2020-09-01T07:52:06Z</time>
      </trkpt>
      <trkpt lat="45.16718" lon="-0.54191">
        <ele>39.9</ele>
        <time>2020-09-01T07:52:07Z</time>
      </trkpt>
      <trkpt lat="45.16719" lon="-0.54192">
        <ele>39.9</ele>
        <time>2020-09-01T07:52:08Z</time>
      </trkpt>
      <trkpt lat="45.16722" lon="-0.54194">
        <ele>39.8</ele>
        <time>2020-09-01T07:52:10Z</time>
      </trkpt>
      <trkpt lat="45.16723" lon="-0.54195">
        <ele>39.8</ele>
        <time>2020-09-01T07:52:11Z</time>
      </trkpt>
      <trkpt lat="45.16724" lon="-0.54196">
        <ele>39.8</ele>
        <time>2020-09-01T07:52:13Z</time>
      </trkpt>
      <trkpt lat="45.16726" lon="-0.54197">
        <ele>39.8</ele>
        <time>2020-09-01T07:52:14Z</time>
      </trkpt>
      <trkpt lat="45.16727" lon="-0.54198">
        <ele>39.7</ele>
        <time>2020-09-01T07:52:15Z</time>
      </trkpt>
      <trkpt lat="45.16729" lon="-0.54199">
        <ele>39.7</ele>
        <time>2020-09-01T07:52:17Z</time>
      </trkpt>
      <trkpt lat="45.1673" lon="-0.54201">
        <ele>39.7</ele>
        <time>2020-09-01T07:52:18Z</time>
      </trkpt>
      <trkpt lat="45.16731" lon="-0.54202">
        <ele>39.6</ele>
        <time>2020-09-01T07:52:19Z</time>
      </trkpt>
      <trkpt lat="45.16733" lon="-0.54203">
        <ele>39.6</ele>
        <time>2020-09-01T07:52:20Z</time>
      </trkpt>
      <trkpt lat="45.16734" lon="-0.54204">
        <ele>39.6</ele>
        <time>2020-09-01T07:52:21Z</time>
      </trkpt>
      <trkpt lat="45.16736" lon="-0.54205">
        <ele>39.5</ele>
        <time>2020-09-01T07:52:22Z</time>
      </trkpt>
      <trkpt lat="45.16737" lon="-0.54207">
        <ele>39.5</ele>
        <time>2020-09-01T07:52:23Z</time>
      </trkpt>
      <trkpt lat="45.16739" lon="-0.54209">
        <ele>39.4</ele>
        <time>2020-09-01T07:52:24Z</time>
      </trkpt>
      <trkpt lat="45.16739" lon="-0.5421">
        <ele>39.4</ele>
        <time>2020-09-01T07:52:25Z</time>
      </trkpt>
      <trkpt lat="45.1674" lon="-0.54211">
        <ele>39.4</ele>
        <time>2020-09-01T07:52:26Z</time>
      </trkpt>
      <trkpt lat="45.16742" lon="-0.54214">
        <ele>39.3</ele>
        <time>2020-09-01T07:52:28Z</time>
      </trkpt>
      <trkpt lat="45.16742" lon="-0.54215">
        <ele>39.3</ele>
        <time>2020-09-01T07:52:29Z</time>
      </trkpt>
      <trkpt lat="45.16744" lon="-0.54217">
        <ele>39.2</ele>
        <time>2020-09-01T07:52:31Z</time>
      </trkpt>
      <trkpt lat="45.16745" lon="-0.54218">
        <ele>39.1</ele>
        <time>2020-09-01T07:52:32Z</time>
      </trkpt>
      <trkpt lat="45.16747" lon="-0.5422">
        <ele>39.1</ele>
        <time>2020-09-01T07:52:33Z</time>
      </trkpt>
      <trkpt lat="45.16747" lon="-0.54221">
        <ele>39.1</ele>
        <time>2020-09-01T07:52:34Z</time>
      </trkpt>
      <trkpt lat="45.16748" lon="-0.54222">
        <ele>39</ele>
        <time>2020-09-01T07:52:35Z</time>
      </trkpt>
      <trkpt lat="45.1675" lon="-0.54224">
        <ele>39</ele>
        <time>2020-09-01T07:52:37Z</time>
      </trkpt>
      <trkpt lat="45.1675" lon="-0.54224">
        <ele>38.9</ele>
        <time>2020-09-01T07:52:38Z</time>
      </trkpt>
      <trkpt lat="45.16751" lon="-0.54225">
        <ele>38.9</ele>
        <time>2020-09-01T07:52:39Z</time>
      </trkpt>
      <trkpt lat="45.16754" lon="-0.54227">
        <ele>38.8</ele>
        <time>2020-09-01T07:52:40Z</time>
      </trkpt>
      <trkpt lat="45.16755" lon="-0.54228">
        <ele>38.8</ele>
        <time>2020-09-01T07:52:42Z</time>
      </trkpt>
      <trkpt lat="45.16756" lon="-0.54228">
        <ele>38.7</ele>
        <time>2020-09-01T07:52:43Z</time>
      </trkpt>
      <trkpt lat="45.16758" lon="-0.54229">
        <ele>38.7</ele>
        <time>2020-09-01T07:52:44Z</time>
      </trkpt>
      <trkpt lat="45.16759" lon="-0.54231">
        <ele>38.7</ele>
        <time>2020-09-01T07:52:46Z</time>
      </trkpt>
      <trkpt lat="45.1676" lon="-0.54231">
        <ele>38.6</ele>
        <time>2020-09-01T07:52:47Z</time>
      </trkpt>
      <trkpt lat="45.16762" lon="-0.54233">
        <ele>38.6</ele>
        <time>2020-09-01T07:52:48Z</time>
      </trkpt>
      <trkpt lat="45.16763" lon="-0.54235">
        <ele>38.5</ele>
        <time>2020-09-01T07:52:50Z</time>
      </trkpt>
      <trkpt lat="45.16764" lon="-0.54236">
        <ele>38.5</ele>
        <time>2020-09-01T07:52:51Z</time>
      </trkpt>
      <trkpt lat="45.16765" lon="-0.54237">
        <ele>38.5</ele>
        <time>2020-09-01T07:52:52Z</time>
      </trkpt>
      <trkpt lat="45.16766" lon="-0.54238">
        <ele>38.5</ele>
        <time>2020-09-01T07:52:53Z</time>
      </trkpt>
      <trkpt lat="45.16767" lon="-0.54239">
        <ele>38.4</ele>
        <time>2020-09-01T07:52:54Z</time>
      </trkpt>
      <trkpt lat="45.16769" lon="-0.5424">
        <ele>38.4</ele>
        <time>2020-09-01T07:52:55Z</time>
      </trkpt>
      <trkpt lat="45.1677" lon="-0.54241">
        <ele>38.4</ele>
        <time>2020-09-01T07:52:56Z</time>
      </trkpt>
      <trkpt lat="45.16772" lon="-0.54242">
        <ele>38.4</ele>
        <time>2020-09-01T07:52:58Z</time>
      </trkpt>
      <trkpt lat="45.16773" lon="-0.54243">
        <ele>38.3</ele>
        <time>2020-09-01T07:52:59Z</time>
      </trkpt>
      <trkpt lat="45.16774" lon="-0.54244">
        <ele>38.3</ele>
        <time>2020-09-01T07:53:00Z</time>
      </trkpt>
      <trkpt lat="45.16775" lon="-0.54245">
        <ele>38.3</ele>
        <time>2020-09-01T07:53:02Z</time>
      </trkpt>
      <trkpt lat="45.16777" lon="-0.54247">
        <ele>38.2</ele>
        <time>2020-09-01T07:53:03Z</time>
      </trkpt>
      <trkpt lat="45.16778" lon="-0.54248">
        <ele>38.2</ele>
        <time>2020-09-01T07:53:04Z</time>
      </trkpt>
      <trkpt lat="45.16779" lon="-0.54249">
        <ele>38.2</ele>
        <time>2020-09-01T07:53:05Z</time>
      </trkpt>
      <trkpt lat="45.1678" lon="-0.5425">
        <ele>38.2</ele>
        <time>2020-09-01T07:53:06Z</time>
      </trkpt>
      <trkpt lat="45.16781" lon="-0.54251">
        <ele>38.1</ele>
        <time>2020-09-01T07:53:07Z</time>
      </trkpt>
      <trkpt lat="45.16783" lon="-0.54252">
        <ele>38.1</ele>
        <time>2020-09-01T07:53:09Z</time>
      </trkpt>
      <trkpt lat="45.16784" lon="-0.54253">
        <ele>38.1</ele>
        <time>2020-09-01T07:53:10Z</time>
      </trkpt>
      <trkpt lat="45.16786" lon="-0.54254">
        <ele>38</ele>
        <time>2020-09-01T07:53:12Z</time>
      </trkpt>
      <trkpt lat="45.16787" lon="-0.54255">
        <ele>38</ele>
        <time>2020-09-01T07:53:13Z</time>
      </trkpt>
      <trkpt lat="45.16788" lon="-0.54257">
        <ele>37.9</ele>
        <time>2020-09-01T07:53:14Z</time>
      </trkpt>
      <trkpt lat="45.1679" lon="-0.54258">
        <ele>37.9</ele>
        <time>2020-09-01T07:53:15Z</time>
      </trkpt>
      <trkpt lat="45.1679" lon="-0.54259">
        <ele>37.9</ele>
        <time>2020-09-01T07:53:16Z</time>
      </trkpt>
      <trkpt lat="45.16791" lon="-0.5426">
        <ele>37.8</ele>
        <time>2020-09-01T07:53:17Z</time>
      </trkpt>
      <trkpt lat="45.16792" lon="-0.54261">
        <ele>37.8</ele>
        <time>2020-09-01T07:53:18Z</time>
      </trkpt>
      <trkpt lat="45.16793" lon="-0.54262">
        <ele>37.8</ele>
        <time>2020-09-01T07:53:20Z</time>
      </trkpt>
      <trkpt lat="45.16796" lon="-0.54265">
        <ele>37.7</ele>
        <time>2020-09-01T07:53:21Z</time>
      </trkpt>
      <trkpt lat="45.16798" lon="-0.54268">
        <ele>37.6</ele>
        <time>2020-09-01T07:53:23Z</time>
      </trkpt>
      <trkpt lat="45.16799" lon="-0.54269">
        <ele>37.6</ele>
        <time>2020-09-01T07:53:25Z</time>
      </trkpt>
      <trkpt lat="45.168" lon="-0.5427">
        <ele>37.6</ele>
        <time>2020-09-01T07:53:26Z</time>
      </trkpt>
      <trkpt lat="45.168" lon="-0.54271">
        <ele>37.5</ele>
        <time>2020-09-01T07:53:27Z</time>
      </trkpt>
      <trkpt lat="45.16801" lon="-0.54271">
        <ele>37.5</ele>
        <time>2020-09-01T07:53:28Z</time>
      </trkpt>
      <trkpt lat="45.16803" lon="-0.54272">
        <ele>37.5</ele>
        <time>2020-09-01T07:53:29Z</time>
      </trkpt>
      <trkpt lat="45.16804" lon="-0.54274">
        <ele>37.4</ele>
        <time>2020-09-01T07:53:30Z</time>
      </trkpt>
      <trkpt lat="45.16806" lon="-0.54276">
        <ele>37.4</ele>
        <time>2020-09-01T07:53:31Z</time>
      </trkpt>
      <trkpt lat="45.16807" lon="-0.54276">
        <ele>37.4</ele>
        <time>2020-09-01T07:53:32Z</time>
      </trkpt>
      <trkpt lat="45.16807" lon="-0.54277">
        <ele>37.3</ele>
        <time>2020-09-01T07:53:33Z</time>
      </trkpt>
      <trkpt lat="45.16808" lon="-0.54278">
        <ele>37.3</ele>
        <time>2020-09-01T07:53:34Z</time>
      </trkpt>
      <trkpt lat="45.1681" lon="-0.54279">
        <ele>37.3</ele>
        <time>2020-09-01T07:53:35Z</time>
      </trkpt>
      <trkpt lat="45.16811" lon="-0.54281">
        <ele>37.2</ele>
        <time>2020-09-01T07:53:37Z</time>
      </trkpt>
      <trkpt lat="45.16813" lon="-0.54282">
        <ele>37.2</ele>
        <time>2020-09-01T07:53:38Z</time>
      </trkpt>
      <trkpt lat="45.16814" lon="-0.54283">
        <ele>37.2</ele>
        <time>2020-09-01T07:53:40Z</time>
      </trkpt>
      <trkpt lat="45.16816" lon="-0.54285">
        <ele>37.2</ele>
        <time>2020-09-01T07:53:41Z</time>
      </trkpt>
      <trkpt lat="45.16817" lon="-0.54287">
        <ele>37.1</ele>
        <time>2020-09-01T07:53:43Z</time>
      </trkpt>
      <trkpt lat="45.16819" lon="-0.54289">
        <ele>37.1</ele>
        <time>2020-09-01T07:53:44Z</time>
      </trkpt>
      <trkpt lat="45.16821" lon="-0.54291">
        <ele>37.1</ele>
        <time>2020-09-01T07:53:45Z</time>
      </trkpt>
      <trkpt lat="45.16821" lon="-0.54292">
        <ele>37.1</ele>
        <time>2020-09-01T07:53:46Z</time>
      </trkpt>
      <trkpt lat="45.16822" lon="-0.54293">
        <ele>37</ele>
        <time>2020-09-01T07:53:47Z</time>
      </trkpt>
      <trkpt lat="45.16824" lon="-0.54296">
        <ele>37</ele>
        <time>2020-09-01T07:53:49Z</time>
      </trkpt>
      <trkpt lat="45.16824" lon="-0.54297">
        <ele>37</ele>
        <time>2020-09-01T07:53:50Z</time>
      </trkpt>
      <trkpt lat="45.16825" lon="-0.54299">
        <ele>37</ele>
        <time>2020-09-01T07:53:51Z</time>
      </trkpt>
      <trkpt lat="45.16826" lon="-0.543">
        <ele>36.9</ele>
        <time>2020-09-01T07:53:52Z</time>
      </trkpt>
      <trkpt lat="45.16827" lon="-0.54301">
        <ele>36.9</ele>
        <time>2020-09-01T07:53:53Z</time>
      </trkpt>
      <trkpt lat="45.16828" lon="-0.54303">
        <ele>36.9</ele>
        <time>2020-09-01T07:53:54Z</time>
      </trkpt>
      <trkpt lat="45.16829" lon="-0.54304">
        <ele>36.9</ele>
        <time>2020-09-01T07:53:56Z</time>
      </trkpt>
      <trkpt lat="45.16831" lon="-0.54306">
        <ele>36.9</ele>
        <time>2020-09-01T07:53:57Z</time>
      </trkpt>
      <trkpt lat="45.16831" lon="-0.54306">
        <ele>36.8</ele>
        <time>2020-09-01T07:53:58Z</time>
      </trkpt>
      <trkpt lat="45.16832" lon="-0.54307">
        <ele>36.8</ele>
        <time>2020-09-01T07:53:59Z</time>
      </trkpt>
      <trkpt lat="45.16833" lon="-0.54309">
        <ele>36.8</ele>
        <time>2020-09-01T07:54:00Z</time>
      </trkpt>
      <trkpt lat="45.16834" lon="-0.5431">
        <ele>36.8</ele>
        <time>2020-09-01T07:54:01Z</time>
      </trkpt>
      <trkpt lat="45.16835" lon="-0.54311">
        <ele>36.8</ele>
        <time>2020-09-01T07:54:02Z</time>
      </trkpt>
      <trkpt lat="45.16835" lon="-0.54312">
        <ele>36.8</ele>
        <time>2020-09-01T07:54:03Z</time>
      </trkpt>
      <trkpt lat="45.16836" lon="-0.54313">
        <ele>36.7</ele>
        <time>2020-09-01T07:54:04Z</time>
      </trkpt>
      <trkpt lat="45.16837" lon="-0.54314">
        <ele>36.7</ele>
        <time>2020-09-01T07:54:05Z</time>
      </trkpt>
      <trkpt lat="45.16839" lon="-0.54315">
        <ele>36.7</ele>
        <time>2020-09-01T07:54:06Z</time>
      </trkpt>
      <trkpt lat="45.1684" lon="-0.54316">
        <ele>36.7</ele>
        <time>2020-09-01T07:54:07Z</time>
      </trkpt>
      <trkpt lat="45.16841" lon="-0.54318">
        <ele>36.7</ele>
        <time>2020-09-01T07:54:09Z</time>
      </trkpt>
      <trkpt lat="45.16843" lon="-0.54319">
        <ele>36.7</ele>
        <time>2020-09-01T07:54:10Z</time>
      </trkpt>
      <trkpt lat="45.16844" lon="-0.54321">
        <ele>36.6</ele>
        <time>2020-09-01T07:54:11Z</time>
      </trkpt>
      <trkpt lat="45.16845" lon="-0.54322">
        <ele>36.6</ele>
        <time>2020-09-01T07:54:12Z</time>
      </trkpt>
      <trkpt lat="45.16847" lon="-0.54324">
        <ele>36.6</ele>
        <time>2020-09-01T07:54:14Z</time>
      </trkpt>
      <trkpt lat="45.16848" lon="-0.54325">
        <ele>36.6</ele>
        <time>2020-09-01T07:54:15Z</time>
      </trkpt>
      <trkpt lat="45.16849" lon="-0.54326">
        <ele>36.6</ele>
        <time>2020-09-01T07:54:16Z</time>
      </trkpt>
      <trkpt lat="45.1685" lon="-0.54327">
        <ele>36.6</ele>
        <time>2020-09-01T07:54:17Z</time>
      </trkpt>
      <trkpt lat="45.16851" lon="-0.54328">
        <ele>36.6</ele>
        <time>2020-09-01T07:54:18Z</time>
      </trkpt>
      <trkpt lat="45.16852" lon="-0.54329">
        <ele>36.6</ele>
        <time>2020-09-01T07:54:20Z</time>
      </trkpt>
      <trkpt lat="45.16853" lon="-0.54331">
        <ele>36.6</ele>
        <time>2020-09-01T07:54:21Z</time>
      </trkpt>
      <trkpt lat="45.16854" lon="-0.54333">
        <ele>36.6</ele>
        <time>2020-09-01T07:54:22Z</time>
      </trkpt>
      <trkpt lat="45.16856" lon="-0.54335">
        <ele>36.6</ele>
        <time>2020-09-01T07:54:23Z</time>
      </trkpt>
      <trkpt lat="45.16857" lon="-0.54336">
        <ele>36.6</ele>
        <time>2020-09-01T07:54:24Z</time>
      </trkpt>
      <trkpt lat="45.16857" lon="-0.54336">
        <ele>36.6</ele>
        <time>2020-09-01T07:54:25Z</time>
      </trkpt>
      <trkpt lat="45.16859" lon="-0.54338">
        <ele>36.6</ele>
        <time>2020-09-01T07:54:27Z</time>
      </trkpt>
      <trkpt lat="45.1686" lon="-0.54339">
        <ele>36.6</ele>
        <time>2020-09-01T07:54:29Z</time>
      </trkpt>
      <trkpt lat="45.16861" lon="-0.5434">
        <ele>36.5</ele>
        <time>2020-09-01T07:54:30Z</time>
      </trkpt>
      <trkpt lat="45.16862" lon="-0.54341">
        <ele>36.5</ele>
        <time>2020-09-01T07:54:31Z</time>
      </trkpt>
      <trkpt lat="45.16862" lon="-0.54342">
        <ele>36.5</ele>
        <time>2020-09-01T07:54:32Z</time>
      </trkpt>
      <trkpt lat="45.16863" lon="-0.54344">
        <ele>36.5</ele>
        <time>2020-09-01T07:54:33Z</time>
      </trkpt>
      <trkpt lat="45.16864" lon="-0.54346">
        <ele>36.6</ele>
        <time>2020-09-01T07:54:35Z</time>
      </trkpt>
      <trkpt lat="45.16863" lon="-0.54347">
        <ele>36.6</ele>
        <time>2020-09-01T07:54:36Z</time>
      </trkpt>
      <trkpt lat="45.16863" lon="-0.5435">
        <ele>36.6</ele>
        <time>2020-09-01T07:54:38Z</time>
      </trkpt>
      <trkpt lat="45.16863" lon="-0.54351">
        <ele>36.6</ele>
        <time>2020-09-01T07:54:39Z</time>
      </trkpt>
      <trkpt lat="45.16864" lon="-0.54353">
        <ele>36.6</ele>
        <time>2020-09-01T07:54:40Z</time>
      </trkpt>
      <trkpt lat="45.16865" lon="-0.54354">
        <ele>36.7</ele>
        <time>2020-09-01T07:54:41Z</time>
      </trkpt>
      <trkpt lat="45.16865" lon="-0.54355">
        <ele>36.7</ele>
        <time>2020-09-01T07:54:42Z</time>
      </trkpt>
      <trkpt lat="45.16866" lon="-0.54356">
        <ele>36.7</ele>
        <time>2020-09-01T07:54:43Z</time>
      </trkpt>
      <trkpt lat="45.16868" lon="-0.54358">
        <ele>36.7</ele>
        <time>2020-09-01T07:54:45Z</time>
      </trkpt>
      <trkpt lat="45.16869" lon="-0.5436">
        <ele>36.7</ele>
        <time>2020-09-01T07:54:46Z</time>
      </trkpt>
      <trkpt lat="45.16869" lon="-0.54361">
        <ele>36.6</ele>
        <time>2020-09-01T07:54:47Z</time>
      </trkpt>
      <trkpt lat="45.16871" lon="-0.54364">
        <ele>36.6</ele>
        <time>2020-09-01T07:54:48Z</time>
      </trkpt>
      <trkpt lat="45.16872" lon="-0.54365">
        <ele>36.6</ele>
        <time>2020-09-01T07:54:49Z</time>
      </trkpt>
      <trkpt lat="45.16873" lon="-0.54367">
        <ele>36.6</ele>
        <time>2020-09-01T07:54:50Z</time>
      </trkpt>
      <trkpt lat="45.16874" lon="-0.54368">
        <ele>36.6</ele>
        <time>2020-09-01T07:54:51Z</time>
      </trkpt>
      <trkpt lat="45.16875" lon="-0.54369">
        <ele>36.6</ele>
        <time>2020-09-01T07:54:52Z</time>
      </trkpt>
      <trkpt lat="45.16877" lon="-0.54369">
        <ele>36.6</ele>
        <time>2020-09-01T07:54:53Z</time>
      </trkpt>
      <trkpt lat="45.16878" lon="-0.5437">
        <ele>36.6</ele>
        <time>2020-09-01T07:54:55Z</time>
      </trkpt>
      <trkpt lat="45.16879" lon="-0.5437">
        <ele>36.6</ele>
        <time>2020-09-01T07:54:56Z</time>
      </trkpt>
      <trkpt lat="45.16881" lon="-0.5437">
        <ele>36.6</ele>
        <time>2020-09-01T07:54:57Z</time>
      </trkpt>
      <trkpt lat="45.16882" lon="-0.5437">
        <ele>36.6</ele>
        <time>2020-09-01T07:54:58Z</time>
      </trkpt>
      <trkpt lat="45.16883" lon="-0.5437">
        <ele>36.6</ele>
        <time>2020-09-01T07:54:59Z</time>
      </trkpt>
      <trkpt lat="45.16884" lon="-0.54369">
        <ele>36.6</ele>
        <time>2020-09-01T07:55:01Z</time>
      </trkpt>
      <trkpt lat="45.16886" lon="-0.54369">
        <ele>36.6</ele>
        <time>2020-09-01T07:55:02Z</time>
      </trkpt>
      <trkpt lat="45.16887" lon="-0.54369">
        <ele>36.5</ele>
        <time>2020-09-01T07:55:03Z</time>
      </trkpt>
      <trkpt lat="45.16888" lon="-0.54368">
        <ele>36.5</ele>
        <time>2020-09-01T07:55:04Z</time>
      </trkpt>
      <trkpt lat="45.1689" lon="-0.54368">
        <ele>36.5</ele>
        <time>2020-09-01T07:55:05Z</time>
      </trkpt>
      <trkpt lat="45.16892" lon="-0.54368">
        <ele>36.5</ele>
        <time>2020-09-01T07:55:06Z</time>
      </trkpt>
      <trkpt lat="45.16895" lon="-0.54368">
        <ele>36.5</ele>
        <time>2020-09-01T07:55:07Z</time>
      </trkpt>
      <trkpt lat="45.16895" lon="-0.54368">
        <ele>36.5</ele>
        <time>2020-09-01T07:55:08Z</time>
      </trkpt>
      <trkpt lat="45.16897" lon="-0.54367">
        <ele>36.5</ele>
        <time>2020-09-01T07:55:09Z</time>
      </trkpt>
      <trkpt lat="45.16898" lon="-0.54367">
        <ele>36.5</ele>
        <time>2020-09-01T07:55:10Z</time>
      </trkpt>
      <trkpt lat="45.16899" lon="-0.54367">
        <ele>36.5</ele>
        <time>2020-09-01T07:55:11Z</time>
      </trkpt>
      <trkpt lat="45.16902" lon="-0.54366">
        <ele>36.5</ele>
        <time>2020-09-01T07:55:13Z</time>
      </trkpt>
      <trkpt lat="45.16903" lon="-0.54366">
        <ele>36.5</ele>
        <time>2020-09-01T07:55:14Z</time>
      </trkpt>
      <trkpt lat="45.16904" lon="-0.54366">
        <ele>36.5</ele>
        <time>2020-09-01T07:55:15Z</time>
      </trkpt>
      <trkpt lat="45.16907" lon="-0.54366">
        <ele>36.5</ele>
        <time>2020-09-01T07:55:17Z</time>
      </trkpt>
      <trkpt lat="45.16908" lon="-0.54366">
        <ele>36.4</ele>
        <time>2020-09-01T07:55:18Z</time>
      </trkpt>
      <trkpt lat="45.1691" lon="-0.54366">
        <ele>36.4</ele>
        <time>2020-09-01T07:55:19Z</time>
      </trkpt>
      <trkpt lat="45.16913" lon="-0.54365">
        <ele>36.2</ele>
        <time>2020-09-01T07:55:21Z</time>
      </trkpt>
      <trkpt lat="45.16915" lon="-0.54365">
        <ele>36.1</ele>
        <time>2020-09-01T07:55:22Z</time>
      </trkpt>
      <trkpt lat="45.16916" lon="-0.54365">
        <ele>36.1</ele>
        <time>2020-09-01T07:55:23Z</time>
      </trkpt>
      <trkpt lat="45.16918" lon="-0.54365">
        <ele>36</ele>
        <time>2020-09-01T07:55:25Z</time>
      </trkpt>
      <trkpt lat="45.16919" lon="-0.54365">
        <ele>36</ele>
        <time>2020-09-01T07:55:26Z</time>
      </trkpt>
      <trkpt lat="45.16921" lon="-0.54365">
        <ele>35.9</ele>
        <time>2020-09-01T07:55:27Z</time>
      </trkpt>
      <trkpt lat="45.16923" lon="-0.54365">
        <ele>35.8</ele>
        <time>2020-09-01T07:55:28Z</time>
      </trkpt>
      <trkpt lat="45.16924" lon="-0.54365">
        <ele>35.8</ele>
        <time>2020-09-01T07:55:30Z</time>
      </trkpt>
      <trkpt lat="45.16926" lon="-0.54365">
        <ele>35.7</ele>
        <time>2020-09-01T07:55:31Z</time>
      </trkpt>
      <trkpt lat="45.16928" lon="-0.54365">
        <ele>35.7</ele>
        <time>2020-09-01T07:55:32Z</time>
      </trkpt>
      <trkpt lat="45.16929" lon="-0.54365">
        <ele>35.7</ele>
        <time>2020-09-01T07:55:33Z</time>
      </trkpt>
      <trkpt lat="45.1693" lon="-0.54365">
        <ele>35.6</ele>
        <time>2020-09-01T07:55:34Z</time>
      </trkpt>
      <trkpt lat="45.16932" lon="-0.54365">
        <ele>35.6</ele>
        <time>2020-09-01T07:55:36Z</time>
      </trkpt>
      <trkpt lat="45.16933" lon="-0.54366">
        <ele>35.5</ele>
        <time>2020-09-01T07:55:37Z</time>
      </trkpt>
      <trkpt lat="45.16934" lon="-0.54366">
        <ele>35.5</ele>
        <time>2020-09-01T07:55:38Z</time>
      </trkpt>
      <trkpt lat="45.16936" lon="-0.54366">
        <ele>35.5</ele>
        <time>2020-09-01T07:55:39Z</time>
      </trkpt>
      <trkpt lat="45.16937" lon="-0.54366">
        <ele>35.5</ele>
        <time>2020-09-01T07:55:40Z</time>
      </trkpt>
      <trkpt lat="45.16939" lon="-0.54367">
        <ele>35.4</ele>
        <time>2020-09-01T07:55:41Z</time>
      </trkpt>
      <trkpt lat="45.1694" lon="-0.54367">
        <ele>35.4</ele>
        <time>2020-09-01T07:55:42Z</time>
      </trkpt>
      <trkpt lat="45.16941" lon="-0.54367">
        <ele>35.4</ele>
        <time>2020-09-01T07:55:43Z</time>
      </trkpt>
      <trkpt lat="45.16942" lon="-0.54368">
        <ele>35.4</ele>
        <time>2020-09-01T07:55:45Z</time>
      </trkpt>
      <trkpt lat="45.16944" lon="-0.54368">
        <ele>35.3</ele>
        <time>2020-09-01T07:55:46Z</time>
      </trkpt>
      <trkpt lat="45.16946" lon="-0.54368">
        <ele>35.3</ele>
        <time>2020-09-01T07:55:47Z</time>
      </trkpt>
      <trkpt lat="45.16947" lon="-0.54369">
        <ele>35.3</ele>
        <time>2020-09-01T07:55:49Z</time>
      </trkpt>
      <trkpt lat="45.16949" lon="-0.54369">
        <ele>35.3</ele>
        <time>2020-09-01T07:55:50Z</time>
      </trkpt>
      <trkpt lat="45.1695" lon="-0.54369">
        <ele>35.2</ele>
        <time>2020-09-01T07:55:51Z</time>
      </trkpt>
      <trkpt lat="45.16952" lon="-0.5437">
        <ele>35.2</ele>
        <time>2020-09-01T07:55:52Z</time>
      </trkpt>
      <trkpt lat="45.16953" lon="-0.5437">
        <ele>35.2</ele>
        <time>2020-09-01T07:55:54Z</time>
      </trkpt>
      <trkpt lat="45.16955" lon="-0.5437">
        <ele>35.1</ele>
        <time>2020-09-01T07:55:55Z</time>
      </trkpt>
      <trkpt lat="45.16956" lon="-0.5437">
        <ele>35.1</ele>
        <time>2020-09-01T07:55:56Z</time>
      </trkpt>
      <trkpt lat="45.16957" lon="-0.54371">
        <ele>35.1</ele>
        <time>2020-09-01T07:55:57Z</time>
      </trkpt>
      <trkpt lat="45.16959" lon="-0.54371">
        <ele>35.1</ele>
        <time>2020-09-01T07:55:59Z</time>
      </trkpt>
      <trkpt lat="45.16963" lon="-0.54371">
        <ele>35</ele>
        <time>2020-09-01T07:56:01Z</time>
      </trkpt>
      <trkpt lat="45.16964" lon="-0.54371">
        <ele>35</ele>
        <time>2020-09-01T07:56:02Z</time>
      </trkpt>
      <trkpt lat="45.16965" lon="-0.54371">
        <ele>35</ele>
        <time>2020-09-01T07:56:03Z</time>
      </trkpt>
      <trkpt lat="45.16967" lon="-0.54371">
        <ele>34.9</ele>
        <time>2020-09-01T07:56:05Z</time>
      </trkpt>
      <trkpt lat="45.16968" lon="-0.5437">
        <ele>34.9</ele>
        <time>2020-09-01T07:56:06Z</time>
      </trkpt>
      <trkpt lat="45.1697" lon="-0.5437">
        <ele>34.9</ele>
        <time>2020-09-01T07:56:07Z</time>
      </trkpt>
      <trkpt lat="45.16973" lon="-0.54369">
        <ele>34.8</ele>
        <time>2020-09-01T07:56:08Z</time>
      </trkpt>
      <trkpt lat="45.16974" lon="-0.54369">
        <ele>34.8</ele>
        <time>2020-09-01T07:56:09Z</time>
      </trkpt>
      <trkpt lat="45.16976" lon="-0.54368">
        <ele>34.8</ele>
        <time>2020-09-01T07:56:10Z</time>
      </trkpt>
      <trkpt lat="45.16977" lon="-0.54368">
        <ele>34.8</ele>
        <time>2020-09-01T07:56:11Z</time>
      </trkpt>
      <trkpt lat="45.16978" lon="-0.54367">
        <ele>34.8</ele>
        <time>2020-09-01T07:56:12Z</time>
      </trkpt>
      <trkpt lat="45.1698" lon="-0.54367">
        <ele>34.8</ele>
        <time>2020-09-01T07:56:14Z</time>
      </trkpt>
      <trkpt lat="45.16981" lon="-0.54366">
        <ele>34.7</ele>
        <time>2020-09-01T07:56:15Z</time>
      </trkpt>
      <trkpt lat="45.16982" lon="-0.54366">
        <ele>34.7</ele>
        <time>2020-09-01T07:56:16Z</time>
      </trkpt>
      <trkpt lat="45.16984" lon="-0.54365">
        <ele>34.7</ele>
        <time>2020-09-01T07:56:17Z</time>
      </trkpt>
      <trkpt lat="45.16986" lon="-0.54364">
        <ele>34.7</ele>
        <time>2020-09-01T07:56:19Z</time>
      </trkpt>
      <trkpt lat="45.16988" lon="-0.54364">
        <ele>34.7</ele>
        <time>2020-09-01T07:56:20Z</time>
      </trkpt>
      <trkpt lat="45.1699" lon="-0.54363">
        <ele>34.7</ele>
        <time>2020-09-01T07:56:21Z</time>
      </trkpt>
      <trkpt lat="45.16991" lon="-0.54363">
        <ele>34.6</ele>
        <time>2020-09-01T07:56:22Z</time>
      </trkpt>
      <trkpt lat="45.16993" lon="-0.54363">
        <ele>34.6</ele>
        <time>2020-09-01T07:56:23Z</time>
      </trkpt>
      <trkpt lat="45.16996" lon="-0.54361">
        <ele>34.6</ele>
        <time>2020-09-01T07:56:25Z</time>
      </trkpt>
      <trkpt lat="45.16997" lon="-0.5436">
        <ele>34.6</ele>
        <time>2020-09-01T07:56:26Z</time>
      </trkpt>
      <trkpt lat="45.16998" lon="-0.5436">
        <ele>34.6</ele>
        <time>2020-09-01T07:56:28Z</time>
      </trkpt>
      <trkpt lat="45.16999" lon="-0.54359">
        <ele>34.6</ele>
        <time>2020-09-01T07:56:29Z</time>
      </trkpt>
      <trkpt lat="45.17002" lon="-0.54358">
        <ele>34.6</ele>
        <time>2020-09-01T07:56:30Z</time>
      </trkpt>
      <trkpt lat="45.17003" lon="-0.54357">
        <ele>34.6</ele>
        <time>2020-09-01T07:56:31Z</time>
      </trkpt>
      <trkpt lat="45.17004" lon="-0.54357">
        <ele>34.6</ele>
        <time>2020-09-01T07:56:32Z</time>
      </trkpt>
      <trkpt lat="45.17005" lon="-0.54356">
        <ele>34.6</ele>
        <time>2020-09-01T07:56:34Z</time>
      </trkpt>
      <trkpt lat="45.17006" lon="-0.54355">
        <ele>34.6</ele>
        <time>2020-09-01T07:56:36Z</time>
      </trkpt>
      <trkpt lat="45.17008" lon="-0.54355">
        <ele>34.6</ele>
        <time>2020-09-01T07:56:37Z</time>
      </trkpt>
      <trkpt lat="45.17008" lon="-0.54355">
        <ele>34.6</ele>
        <time>2020-09-01T07:56:38Z</time>
      </trkpt>
      <trkpt lat="45.17009" lon="-0.54354">
        <ele>34.6</ele>
        <time>2020-09-01T07:56:39Z</time>
      </trkpt>
      <trkpt lat="45.1701" lon="-0.54353">
        <ele>34.6</ele>
        <time>2020-09-01T07:56:40Z</time>
      </trkpt>
      <trkpt lat="45.17011" lon="-0.54352">
        <ele>34.6</ele>
        <time>2020-09-01T07:56:42Z</time>
      </trkpt>
      <trkpt lat="45.17012" lon="-0.54352">
        <ele>34.6</ele>
        <time>2020-09-01T07:56:43Z</time>
      </trkpt>
      <trkpt lat="45.17014" lon="-0.5435">
        <ele>34.6</ele>
        <time>2020-09-01T07:56:44Z</time>
      </trkpt>
      <trkpt lat="45.17015" lon="-0.54349">
        <ele>34.6</ele>
        <time>2020-09-01T07:56:45Z</time>
      </trkpt>
      <trkpt lat="45.17016" lon="-0.54348">
        <ele>34.7</ele>
        <time>2020-09-01T07:56:46Z</time>
      </trkpt>
      <trkpt lat="45.17018" lon="-0.54347">
        <ele>34.7</ele>
        <time>2020-09-01T07:56:47Z</time>
      </trkpt>
      <trkpt lat="45.17018" lon="-0.54346">
        <ele>34.7</ele>
        <time>2020-09-01T07:56:48Z</time>
      </trkpt>
      <trkpt lat="45.1702" lon="-0.54345">
        <ele>34.7</ele>
        <time>2020-09-01T07:56:50Z</time>
      </trkpt>
      <trkpt lat="45.17022" lon="-0.54343">
        <ele>34.7</ele>
        <time>2020-09-01T07:56:51Z</time>
      </trkpt>
      <trkpt lat="45.17024" lon="-0.54341">
        <ele>34.7</ele>
        <time>2020-09-01T07:56:53Z</time>
      </trkpt>
      <trkpt lat="45.17025" lon="-0.5434">
        <ele>34.7</ele>
        <time>2020-09-01T07:56:54Z</time>
      </trkpt>
      <trkpt lat="45.17026" lon="-0.54339">
        <ele>34.6</ele>
        <time>2020-09-01T07:56:55Z</time>
      </trkpt>
      <trkpt lat="45.17028" lon="-0.54338">
        <ele>34.6</ele>
        <time>2020-09-01T07:56:56Z</time>
      </trkpt>
      <trkpt lat="45.17029" lon="-0.54337">
        <ele>34.6</ele>
        <time>2020-09-01T07:56:57Z</time>
      </trkpt>
      <trkpt lat="45.1703" lon="-0.54336">
        <ele>34.6</ele>
        <time>2020-09-01T07:56:58Z</time>
      </trkpt>
      <trkpt lat="45.17033" lon="-0.54335">
        <ele>34.6</ele>
        <time>2020-09-01T07:57:00Z</time>
      </trkpt>
      <trkpt lat="45.17034" lon="-0.54334">
        <ele>34.6</ele>
        <time>2020-09-01T07:57:01Z</time>
      </trkpt>
      <trkpt lat="45.17035" lon="-0.54334">
        <ele>34.6</ele>
        <time>2020-09-01T07:57:02Z</time>
      </trkpt>
      <trkpt lat="45.17037" lon="-0.54332">
        <ele>34.6</ele>
        <time>2020-09-01T07:57:03Z</time>
      </trkpt>
      <trkpt lat="45.17038" lon="-0.54332">
        <ele>34.6</ele>
        <time>2020-09-01T07:57:04Z</time>
      </trkpt>
      <trkpt lat="45.17039" lon="-0.54331">
        <ele>34.6</ele>
        <time>2020-09-01T07:57:05Z</time>
      </trkpt>
      <trkpt lat="45.17042" lon="-0.54331">
        <ele>34.6</ele>
        <time>2020-09-01T07:57:07Z</time>
      </trkpt>
      <trkpt lat="45.17043" lon="-0.5433">
        <ele>34.6</ele>
        <time>2020-09-01T07:57:08Z</time>
      </trkpt>
      <trkpt lat="45.17045" lon="-0.5433">
        <ele>34.6</ele>
        <time>2020-09-01T07:57:09Z</time>
      </trkpt>
      <trkpt lat="45.17046" lon="-0.54329">
        <ele>34.6</ele>
        <time>2020-09-01T07:57:10Z</time>
      </trkpt>
      <trkpt lat="45.17048" lon="-0.54328">
        <ele>34.6</ele>
        <time>2020-09-01T07:57:11Z</time>
      </trkpt>
      <trkpt lat="45.17049" lon="-0.54328">
        <ele>34.6</ele>
        <time>2020-09-01T07:57:12Z</time>
      </trkpt>
      <trkpt lat="45.17051" lon="-0.54326">
        <ele>34.6</ele>
        <time>2020-09-01T07:57:14Z</time>
      </trkpt>
      <trkpt lat="45.17053" lon="-0.54325">
        <ele>34.6</ele>
        <time>2020-09-01T07:57:16Z</time>
      </trkpt>
      <trkpt lat="45.17054" lon="-0.54324">
        <ele>34.6</ele>
        <time>2020-09-01T07:57:17Z</time>
      </trkpt>
      <trkpt lat="45.17056" lon="-0.54323">
        <ele>34.6</ele>
        <time>2020-09-01T07:57:18Z</time>
      </trkpt>
      <trkpt lat="45.17057" lon="-0.54322">
        <ele>34.6</ele>
        <time>2020-09-01T07:57:19Z</time>
      </trkpt>
      <trkpt lat="45.17058" lon="-0.54322">
        <ele>34.6</ele>
        <time>2020-09-01T07:57:20Z</time>
      </trkpt>
      <trkpt lat="45.1706" lon="-0.5432">
        <ele>34.6</ele>
        <time>2020-09-01T07:57:21Z</time>
      </trkpt>
      <trkpt lat="45.17061" lon="-0.5432">
        <ele>34.6</ele>
        <time>2020-09-01T07:57:22Z</time>
      </trkpt>
      <trkpt lat="45.17061" lon="-0.54319">
        <ele>34.6</ele>
        <time>2020-09-01T07:57:23Z</time>
      </trkpt>
      <trkpt lat="45.17062" lon="-0.54319">
        <ele>34.6</ele>
        <time>2020-09-01T07:57:24Z</time>
      </trkpt>
      <trkpt lat="45.17065" lon="-0.54317">
        <ele>34.6</ele>
        <time>2020-09-01T07:57:26Z</time>
      </trkpt>
      <trkpt lat="45.17065" lon="-0.54317">
        <ele>34.6</ele>
        <time>2020-09-01T07:57:27Z</time>
      </trkpt>
      <trkpt lat="45.17066" lon="-0.54316">
        <ele>34.6</ele>
        <time>2020-09-01T07:57:28Z</time>
      </trkpt>
      <trkpt lat="45.17067" lon="-0.54315">
        <ele>34.6</ele>
        <time>2020-09-01T07:57:29Z</time>
      </trkpt>
      <trkpt lat="45.17068" lon="-0.54314">
        <ele>34.6</ele>
        <time>2020-09-01T07:57:30Z</time>
      </trkpt>
      <trkpt lat="45.1707" lon="-0.54313">
        <ele>34.6</ele>
        <time>2020-09-01T07:57:31Z</time>
      </trkpt>
      <trkpt lat="45.17072" lon="-0.54312">
        <ele>34.6</ele>
        <time>2020-09-01T07:57:32Z</time>
      </trkpt>
      <trkpt lat="45.17073" lon="-0.54311">
        <ele>34.6</ele>
        <time>2020-09-01T07:57:34Z</time>
      </trkpt>
      <trkpt lat="45.17074" lon="-0.54311">
        <ele>34.6</ele>
        <time>2020-09-01T07:57:35Z</time>
      </trkpt>
      <trkpt lat="45.17075" lon="-0.5431">
        <ele>34.6</ele>
        <time>2020-09-01T07:57:36Z</time>
      </trkpt>
      <trkpt lat="45.17076" lon="-0.5431">
        <ele>34.6</ele>
        <time>2020-09-01T07:57:37Z</time>
      </trkpt>
      <trkpt lat="45.17077" lon="-0.54309">
        <ele>34.6</ele>
        <time>2020-09-01T07:57:38Z</time>
      </trkpt>
      <trkpt lat="45.17079" lon="-0.54307">
        <ele>34.6</ele>
        <time>2020-09-01T07:57:40Z</time>
      </trkpt>
      <trkpt lat="45.1708" lon="-0.54307">
        <ele>34.6</ele>
        <time>2020-09-01T07:57:41Z</time>
      </trkpt>
      <trkpt lat="45.17081" lon="-0.54306">
        <ele>34.6</ele>
        <time>2020-09-01T07:57:42Z</time>
      </trkpt>
      <trkpt lat="45.17083" lon="-0.54305">
        <ele>34.6</ele>
        <time>2020-09-01T07:57:43Z</time>
      </trkpt>
      <trkpt lat="45.17084" lon="-0.54304">
        <ele>34.6</ele>
        <time>2020-09-01T07:57:45Z</time>
      </trkpt>
      <trkpt lat="45.17085" lon="-0.54304">
        <ele>34.7</ele>
        <time>2020-09-01T07:57:46Z</time>
      </trkpt>
      <trkpt lat="45.17087" lon="-0.54302">
        <ele>34.7</ele>
        <time>2020-09-01T07:57:47Z</time>
      </trkpt>
      <trkpt lat="45.17088" lon="-0.54302">
        <ele>34.7</ele>
        <time>2020-09-01T07:57:48Z</time>
      </trkpt>
      <trkpt lat="45.17089" lon="-0.54301">
        <ele>34.7</ele>
        <time>2020-09-01T07:57:49Z</time>
      </trkpt>
      <trkpt lat="45.1709" lon="-0.54301">
        <ele>34.7</ele>
        <time>2020-09-01T07:57:50Z</time>
      </trkpt>
      <trkpt lat="45.17092" lon="-0.54299">
        <ele>34.7</ele>
        <time>2020-09-01T07:57:51Z</time>
      </trkpt>
      <trkpt lat="45.17093" lon="-0.54299">
        <ele>34.7</ele>
        <time>2020-09-01T07:57:53Z</time>
      </trkpt>
      <trkpt lat="45.17095" lon="-0.54298">
        <ele>34.8</ele>
        <time>2020-09-01T07:57:54Z</time>
      </trkpt>
      <trkpt lat="45.17096" lon="-0.54297">
        <ele>34.8</ele>
        <time>2020-09-01T07:57:55Z</time>
      </trkpt>
      <trkpt lat="45.17098" lon="-0.54297">
        <ele>34.8</ele>
        <time>2020-09-01T07:57:56Z</time>
      </trkpt>
      <trkpt lat="45.17099" lon="-0.54296">
        <ele>34.8</ele>
        <time>2020-09-01T07:57:57Z</time>
      </trkpt>
      <trkpt lat="45.171" lon="-0.54295">
        <ele>34.8</ele>
        <time>2020-09-01T07:57:59Z</time>
      </trkpt>
      <trkpt lat="45.17101" lon="-0.54295">
        <ele>34.8</ele>
        <time>2020-09-01T07:58:00Z</time>
      </trkpt>
      <trkpt lat="45.17103" lon="-0.54294">
        <ele>34.8</ele>
        <time>2020-09-01T07:58:02Z</time>
      </trkpt>
      <trkpt lat="45.17105" lon="-0.54293">
        <ele>34.9</ele>
        <time>2020-09-01T07:58:03Z</time>
      </trkpt>
      <trkpt lat="45.17106" lon="-0.54292">
        <ele>34.9</ele>
        <time>2020-09-01T07:58:04Z</time>
      </trkpt>
      <trkpt lat="45.17107" lon="-0.54292">
        <ele>34.9</ele>
        <time>2020-09-01T07:58:05Z</time>
      </trkpt>
      <trkpt lat="45.17109" lon="-0.54291">
        <ele>34.9</ele>
        <time>2020-09-01T07:58:06Z</time>
      </trkpt>
      <trkpt lat="45.1711" lon="-0.5429">
        <ele>34.9</ele>
        <time>2020-09-01T07:58:07Z</time>
      </trkpt>
      <trkpt lat="45.17112" lon="-0.54289">
        <ele>35</ele>
        <time>2020-09-01T07:58:08Z</time>
      </trkpt>
      <trkpt lat="45.17113" lon="-0.54288">
        <ele>35</ele>
        <time>2020-09-01T07:58:09Z</time>
      </trkpt>
      <trkpt lat="45.17114" lon="-0.54288">
        <ele>35</ele>
        <time>2020-09-01T07:58:10Z</time>
      </trkpt>
      <trkpt lat="45.17116" lon="-0.54287">
        <ele>35</ele>
        <time>2020-09-01T07:58:12Z</time>
      </trkpt>
      <trkpt lat="45.17117" lon="-0.54286">
        <ele>35</ele>
        <time>2020-09-01T07:58:13Z</time>
      </trkpt>
      <trkpt lat="45.1712" lon="-0.54284">
        <ele>35.1</ele>
        <time>2020-09-01T07:58:14Z</time>
      </trkpt>
      <trkpt lat="45.1712" lon="-0.54284">
        <ele>35.1</ele>
        <time>2020-09-01T07:58:15Z</time>
      </trkpt>
      <trkpt lat="45.17122" lon="-0.54283">
        <ele>35.1</ele>
        <time>2020-09-01T07:58:16Z</time>
      </trkpt>
      <trkpt lat="45.17123" lon="-0.54282">
        <ele>35.1</ele>
        <time>2020-09-01T07:58:18Z</time>
      </trkpt>
      <trkpt lat="45.17124" lon="-0.54282">
        <ele>35.2</ele>
        <time>2020-09-01T07:58:19Z</time>
      </trkpt>
      <trkpt lat="45.17125" lon="-0.5428">
        <ele>35.2</ele>
        <time>2020-09-01T07:58:20Z</time>
      </trkpt>
      <trkpt lat="45.17127" lon="-0.54279">
        <ele>35.2</ele>
        <time>2020-09-01T07:58:21Z</time>
      </trkpt>
      <trkpt lat="45.17128" lon="-0.54277">
        <ele>35.2</ele>
        <time>2020-09-01T07:58:22Z</time>
      </trkpt>
      <trkpt lat="45.17129" lon="-0.54277">
        <ele>35.2</ele>
        <time>2020-09-01T07:58:23Z</time>
      </trkpt>
      <trkpt lat="45.1713" lon="-0.54276">
        <ele>35.2</ele>
        <time>2020-09-01T07:58:24Z</time>
      </trkpt>
      <trkpt lat="45.17131" lon="-0.54275">
        <ele>35.3</ele>
        <time>2020-09-01T07:58:25Z</time>
      </trkpt>
      <trkpt lat="45.17132" lon="-0.54274">
        <ele>35.3</ele>
        <time>2020-09-01T07:58:27Z</time>
      </trkpt>
      <trkpt lat="45.17134" lon="-0.54273">
        <ele>35.3</ele>
        <time>2020-09-01T07:58:28Z</time>
      </trkpt>
      <trkpt lat="45.17135" lon="-0.54272">
        <ele>35.3</ele>
        <time>2020-09-01T07:58:29Z</time>
      </trkpt>
      <trkpt lat="45.17138" lon="-0.5427">
        <ele>35.4</ele>
        <time>2020-09-01T07:58:30Z</time>
      </trkpt>
      <trkpt lat="45.17139" lon="-0.54269">
        <ele>35.4</ele>
        <time>2020-09-01T07:58:31Z</time>
      </trkpt>
      <trkpt lat="45.17141" lon="-0.54268">
        <ele>35.4</ele>
        <time>2020-09-01T07:58:33Z</time>
      </trkpt>
      <trkpt lat="45.17141" lon="-0.54267">
        <ele>35.4</ele>
        <time>2020-09-01T07:58:34Z</time>
      </trkpt>
      <trkpt lat="45.17142" lon="-0.54267">
        <ele>35.4</ele>
        <time>2020-09-01T07:58:35Z</time>
      </trkpt>
      <trkpt lat="45.17144" lon="-0.54265">
        <ele>35.4</ele>
        <time>2020-09-01T07:58:36Z</time>
      </trkpt>
      <trkpt lat="45.17145" lon="-0.54265">
        <ele>35.5</ele>
        <time>2020-09-01T07:58:37Z</time>
      </trkpt>
      <trkpt lat="45.17146" lon="-0.54263">
        <ele>35.5</ele>
        <time>2020-09-01T07:58:38Z</time>
      </trkpt>
      <trkpt lat="45.17147" lon="-0.54263">
        <ele>35.5</ele>
        <time>2020-09-01T07:58:39Z</time>
      </trkpt>
      <trkpt lat="45.17148" lon="-0.54262">
        <ele>35.5</ele>
        <time>2020-09-01T07:58:40Z</time>
      </trkpt>
      <trkpt lat="45.17151" lon="-0.5426">
        <ele>35.5</ele>
        <time>2020-09-01T07:58:42Z</time>
      </trkpt>
      <trkpt lat="45.17152" lon="-0.5426">
        <ele>35.5</ele>
        <time>2020-09-01T07:58:43Z</time>
      </trkpt>
      <trkpt lat="45.17153" lon="-0.54259">
        <ele>35.5</ele>
        <time>2020-09-01T07:58:44Z</time>
      </trkpt>
      <trkpt lat="45.17155" lon="-0.54259">
        <ele>35.5</ele>
        <time>2020-09-01T07:58:45Z</time>
      </trkpt>
      <trkpt lat="45.17158" lon="-0.54257">
        <ele>35.5</ele>
        <time>2020-09-01T07:58:46Z</time>
      </trkpt>
      <trkpt lat="45.17159" lon="-0.54256">
        <ele>35.5</ele>
        <time>2020-09-01T07:58:48Z</time>
      </trkpt>
      <trkpt lat="45.1716" lon="-0.54256">
        <ele>35.5</ele>
        <time>2020-09-01T07:58:50Z</time>
      </trkpt>
      <trkpt lat="45.17161" lon="-0.54255">
        <ele>35.5</ele>
        <time>2020-09-01T07:58:51Z</time>
      </trkpt>
      <trkpt lat="45.17162" lon="-0.54255">
        <ele>35.5</ele>
        <time>2020-09-01T07:58:52Z</time>
      </trkpt>
      <trkpt lat="45.17163" lon="-0.54255">
        <ele>35.5</ele>
        <time>2020-09-01T07:58:53Z</time>
      </trkpt>
      <trkpt lat="45.17164" lon="-0.54254">
        <ele>35.5</ele>
        <time>2020-09-01T07:58:54Z</time>
      </trkpt>
      <trkpt lat="45.17164" lon="-0.54252">
        <ele>35.5</ele>
        <time>2020-09-01T07:58:55Z</time>
      </trkpt>
      <trkpt lat="45.17166" lon="-0.5425">
        <ele>35.6</ele>
        <time>2020-09-01T07:58:57Z</time>
      </trkpt>
      <trkpt lat="45.17167" lon="-0.54249">
        <ele>35.6</ele>
        <time>2020-09-01T07:58:58Z</time>
      </trkpt>
      <trkpt lat="45.17168" lon="-0.54249">
        <ele>35.6</ele>
        <time>2020-09-01T07:58:59Z</time>
      </trkpt>
      <trkpt lat="45.17169" lon="-0.54248">
        <ele>35.6</ele>
        <time>2020-09-01T07:59:00Z</time>
      </trkpt>
      <trkpt lat="45.1717" lon="-0.54247">
        <ele>35.6</ele>
        <time>2020-09-01T07:59:01Z</time>
      </trkpt>
      <trkpt lat="45.17173" lon="-0.54246">
        <ele>35.7</ele>
        <time>2020-09-01T07:59:03Z</time>
      </trkpt>
      <trkpt lat="45.17174" lon="-0.54245">
        <ele>35.7</ele>
        <time>2020-09-01T07:59:04Z</time>
      </trkpt>
      <trkpt lat="45.17176" lon="-0.54244">
        <ele>35.7</ele>
        <time>2020-09-01T07:59:05Z</time>
      </trkpt>
      <trkpt lat="45.17177" lon="-0.54243">
        <ele>35.7</ele>
        <time>2020-09-01T07:59:07Z</time>
      </trkpt>
      <trkpt lat="45.17178" lon="-0.54242">
        <ele>35.7</ele>
        <time>2020-09-01T07:59:08Z</time>
      </trkpt>
      <trkpt lat="45.1718" lon="-0.54241">
        <ele>35.8</ele>
        <time>2020-09-01T07:59:09Z</time>
      </trkpt>
      <trkpt lat="45.17181" lon="-0.5424">
        <ele>35.8</ele>
        <time>2020-09-01T07:59:10Z</time>
      </trkpt>
      <trkpt lat="45.17183" lon="-0.54239">
        <ele>35.8</ele>
        <time>2020-09-01T07:59:11Z</time>
      </trkpt>
      <trkpt lat="45.17184" lon="-0.54239">
        <ele>35.8</ele>
        <time>2020-09-01T07:59:12Z</time>
      </trkpt>
      <trkpt lat="45.17186" lon="-0.54238">
        <ele>35.9</ele>
        <time>2020-09-01T07:59:14Z</time>
      </trkpt>
      <trkpt lat="45.17187" lon="-0.54238">
        <ele>35.9</ele>
        <time>2020-09-01T07:59:15Z</time>
      </trkpt>
      <trkpt lat="45.17189" lon="-0.54238">
        <ele>35.9</ele>
        <time>2020-09-01T07:59:16Z</time>
      </trkpt>
      <trkpt lat="45.1719" lon="-0.54238">
        <ele>35.9</ele>
        <time>2020-09-01T07:59:17Z</time>
      </trkpt>
      <trkpt lat="45.17191" lon="-0.54237">
        <ele>35.9</ele>
        <time>2020-09-01T07:59:18Z</time>
      </trkpt>
      <trkpt lat="45.17192" lon="-0.54238">
        <ele>35.9</ele>
        <time>2020-09-01T07:59:20Z</time>
      </trkpt>
      <trkpt lat="45.17193" lon="-0.54238">
        <ele>35.9</ele>
        <time>2020-09-01T07:59:21Z</time>
      </trkpt>
      <trkpt lat="45.17194" lon="-0.5424">
        <ele>35.9</ele>
        <time>2020-09-01T07:59:22Z</time>
      </trkpt>
      <trkpt lat="45.17195" lon="-0.54241">
        <ele>35.9</ele>
        <time>2020-09-01T07:59:23Z</time>
      </trkpt>
      <trkpt lat="45.17196" lon="-0.54243">
        <ele>35.9</ele>
        <time>2020-09-01T07:59:24Z</time>
      </trkpt>
      <trkpt lat="45.17197" lon="-0.54247">
        <ele>35.9</ele>
        <time>2020-09-01T07:59:25Z</time>
      </trkpt>
      <trkpt lat="45.17198" lon="-0.54248">
        <ele>35.8</ele>
        <time>2020-09-01T07:59:26Z</time>
      </trkpt>
      <trkpt lat="45.17199" lon="-0.54251">
        <ele>35.8</ele>
        <time>2020-09-01T07:59:27Z</time>
      </trkpt>
      <trkpt lat="45.17199" lon="-0.54252">
        <ele>35.8</ele>
        <time>2020-09-01T07:59:29Z</time>
      </trkpt>
      <trkpt lat="45.17199" lon="-0.54254">
        <ele>35.8</ele>
        <time>2020-09-01T07:59:30Z</time>
      </trkpt>
      <trkpt lat="45.17199" lon="-0.54256">
        <ele>35.8</ele>
        <time>2020-09-01T07:59:31Z</time>
      </trkpt>
      <trkpt lat="45.172" lon="-0.5426">
        <ele>35.8</ele>
        <time>2020-09-01T07:59:33Z</time>
      </trkpt>
      <trkpt lat="45.17199" lon="-0.54261">
        <ele>35.8</ele>
        <time>2020-09-01T07:59:34Z</time>
      </trkpt>
      <trkpt lat="45.17199" lon="-0.54265">
        <ele>35.8</ele>
        <time>2020-09-01T07:59:36Z</time>
      </trkpt>
      <trkpt lat="45.17199" lon="-0.54268">
        <ele>35.7</ele>
        <time>2020-09-01T07:59:38Z</time>
      </trkpt>
      <trkpt lat="45.172" lon="-0.54272">
        <ele>35.7</ele>
        <time>2020-09-01T07:59:40Z</time>
      </trkpt>
      <trkpt lat="45.172" lon="-0.54275">
        <ele>35.7</ele>
        <time>2020-09-01T07:59:41Z</time>
      </trkpt>
      <trkpt lat="45.172" lon="-0.5428">
        <ele>35.7</ele>
        <time>2020-09-01T07:59:43Z</time>
      </trkpt>
      <trkpt lat="45.172" lon="-0.54282">
        <ele>35.7</ele>
        <time>2020-09-01T07:59:44Z</time>
      </trkpt>
      <trkpt lat="45.172" lon="-0.54284">
        <ele>35.7</ele>
        <time>2020-09-01T07:59:45Z</time>
      </trkpt>
      <trkpt lat="45.172" lon="-0.54288">
        <ele>35.6</ele>
        <time>2020-09-01T07:59:47Z</time>
      </trkpt>
      <trkpt lat="45.172" lon="-0.54289">
        <ele>35.6</ele>
        <time>2020-09-01T07:59:48Z</time>
      </trkpt>
      <trkpt lat="45.17199" lon="-0.54291">
        <ele>35.6</ele>
        <time>2020-09-01T07:59:49Z</time>
      </trkpt>
      <trkpt lat="45.17198" lon="-0.54293">
        <ele>35.6</ele>
        <time>2020-09-01T07:59:50Z</time>
      </trkpt>
      <trkpt lat="45.17197" lon="-0.54296">
        <ele>35.6</ele>
        <time>2020-09-01T07:59:51Z</time>
      </trkpt>
      <trkpt lat="45.17197" lon="-0.54298">
        <ele>35.6</ele>
        <time>2020-09-01T07:59:52Z</time>
      </trkpt>
      <trkpt lat="45.17195" lon="-0.54302">
        <ele>35.5</ele>
        <time>2020-09-01T07:59:53Z</time>
      </trkpt>
      <trkpt lat="45.17195" lon="-0.54303">
        <ele>35.5</ele>
        <time>2020-09-01T07:59:54Z</time>
      </trkpt>
      <trkpt lat="45.17194" lon="-0.54304">
        <ele>35.5</ele>
        <time>2020-09-01T07:59:55Z</time>
      </trkpt>
      <trkpt lat="45.17193" lon="-0.54306">
        <ele>35.5</ele>
        <time>2020-09-01T07:59:57Z</time>
      </trkpt>
      <trkpt lat="45.17191" lon="-0.5431">
        <ele>35.5</ele>
        <time>2020-09-01T07:59:58Z</time>
      </trkpt>
      <trkpt lat="45.17191" lon="-0.54311">
        <ele>35.5</ele>
        <time>2020-09-01T07:59:59Z</time>
      </trkpt>
      <trkpt lat="45.1719" lon="-0.54313">
        <ele>35.5</ele>
        <time>2020-09-01T08:00:00Z</time>
      </trkpt>
      <trkpt lat="45.1719" lon="-0.54315">
        <ele>35.5</ele>
        <time>2020-09-01T08:00:02Z</time>
      </trkpt>
      <trkpt lat="45.1719" lon="-0.54317">
        <ele>35.5</ele>
        <time>2020-09-01T08:00:03Z</time>
      </trkpt>
      <trkpt lat="45.17189" lon="-0.54319">
        <ele>35.4</ele>
        <time>2020-09-01T08:00:04Z</time>
      </trkpt>
      <trkpt lat="45.17189" lon="-0.5432">
        <ele>35.4</ele>
        <time>2020-09-01T08:00:05Z</time>
      </trkpt>
      <trkpt lat="45.17189" lon="-0.54322">
        <ele>35.4</ele>
        <time>2020-09-01T08:00:07Z</time>
      </trkpt>
      <trkpt lat="45.17188" lon="-0.54323">
        <ele>35.4</ele>
        <time>2020-09-01T08:00:08Z</time>
      </trkpt>
      <trkpt lat="45.17188" lon="-0.54324">
        <ele>35.4</ele>
        <time>2020-09-01T08:00:09Z</time>
      </trkpt>
      <trkpt lat="45.17188" lon="-0.54325">
        <ele>35.4</ele>
        <time>2020-09-01T08:00:10Z</time>
      </trkpt>
      <trkpt lat="45.17187" lon="-0.54327">
        <ele>35.4</ele>
        <time>2020-09-01T08:00:11Z</time>
      </trkpt>
      <trkpt lat="45.17186" lon="-0.5433">
        <ele>35.4</ele>
        <time>2020-09-01T08:00:12Z</time>
      </trkpt>
      <trkpt lat="45.17186" lon="-0.54332">
        <ele>35.4</ele>
        <time>2020-09-01T08:00:14Z</time>
      </trkpt>
      <trkpt lat="45.17186" lon="-0.54333">
        <ele>35.4</ele>
        <time>2020-09-01T08:00:15Z</time>
      </trkpt>
      <trkpt lat="45.17186" lon="-0.54334">
        <ele>35.4</ele>
        <time>2020-09-01T08:00:16Z</time>
      </trkpt>
      <trkpt lat="45.17185" lon="-0.54336">
        <ele>35.3</ele>
        <time>2020-09-01T08:00:17Z</time>
      </trkpt>
      <trkpt lat="45.17185" lon="-0.54337">
        <ele>35.3</ele>
        <time>2020-09-01T08:00:18Z</time>
      </trkpt>
      <trkpt lat="45.17185" lon="-0.54338">
        <ele>35.3</ele>
        <time>2020-09-01T08:00:19Z</time>
      </trkpt>
      <trkpt lat="45.17185" lon="-0.54341">
        <ele>35.3</ele>
        <time>2020-09-01T08:00:21Z</time>
      </trkpt>
      <trkpt lat="45.17185" lon="-0.54343">
        <ele>35.3</ele>
        <time>2020-09-01T08:00:22Z</time>
      </trkpt>
      <trkpt lat="45.17186" lon="-0.54345">
        <ele>35.3</ele>
        <time>2020-09-01T08:00:23Z</time>
      </trkpt>
      <trkpt lat="45.17186" lon="-0.54347">
        <ele>35.3</ele>
        <time>2020-09-01T08:00:24Z</time>
      </trkpt>
      <trkpt lat="45.17187" lon="-0.54349">
        <ele>35.3</ele>
        <time>2020-09-01T08:00:25Z</time>
      </trkpt>
      <trkpt lat="45.17188" lon="-0.54352">
        <ele>35.3</ele>
        <time>2020-09-01T08:00:26Z</time>
      </trkpt>
      <trkpt lat="45.17189" lon="-0.54353">
        <ele>35.2</ele>
        <time>2020-09-01T08:00:27Z</time>
      </trkpt>
      <trkpt lat="45.17191" lon="-0.54356">
        <ele>35.2</ele>
        <time>2020-09-01T08:00:29Z</time>
      </trkpt>
      <trkpt lat="45.17191" lon="-0.54357">
        <ele>35.2</ele>
        <time>2020-09-01T08:00:30Z</time>
      </trkpt>
      <trkpt lat="45.17193" lon="-0.54359">
        <ele>35.2</ele>
        <time>2020-09-01T08:00:31Z</time>
      </trkpt>
      <trkpt lat="45.17194" lon="-0.5436">
        <ele>35.2</ele>
        <time>2020-09-01T08:00:33Z</time>
      </trkpt>
      <trkpt lat="45.17194" lon="-0.54362">
        <ele>35.2</ele>
        <time>2020-09-01T08:00:34Z</time>
      </trkpt>
      <trkpt lat="45.17195" lon="-0.54364">
        <ele>35.2</ele>
        <time>2020-09-01T08:00:35Z</time>
      </trkpt>
      <trkpt lat="45.17196" lon="-0.54368">
        <ele>35.2</ele>
        <time>2020-09-01T08:00:36Z</time>
      </trkpt>
      <trkpt lat="45.17196" lon="-0.54369">
        <ele>35.1</ele>
        <time>2020-09-01T08:00:37Z</time>
      </trkpt>
      <trkpt lat="45.17197" lon="-0.54371">
        <ele>35.1</ele>
        <time>2020-09-01T08:00:38Z</time>
      </trkpt>
      <trkpt lat="45.17197" lon="-0.54373">
        <ele>35.1</ele>
        <time>2020-09-01T08:00:39Z</time>
      </trkpt>
      <trkpt lat="45.17198" lon="-0.54375">
        <ele>35.1</ele>
        <time>2020-09-01T08:00:41Z</time>
      </trkpt>
      <trkpt lat="45.17198" lon="-0.54377">
        <ele>35.1</ele>
        <time>2020-09-01T08:00:42Z</time>
      </trkpt>
      <trkpt lat="45.17199" lon="-0.54379">
        <ele>35.1</ele>
        <time>2020-09-01T08:00:43Z</time>
      </trkpt>
      <trkpt lat="45.17199" lon="-0.54381">
        <ele>35.1</ele>
        <time>2020-09-01T08:00:44Z</time>
      </trkpt>
      <trkpt lat="45.172" lon="-0.54383">
        <ele>35.1</ele>
        <time>2020-09-01T08:00:45Z</time>
      </trkpt>
      <trkpt lat="45.17201" lon="-0.54387">
        <ele>35</ele>
        <time>2020-09-01T08:00:47Z</time>
      </trkpt>
      <trkpt lat="45.17202" lon="-0.5439">
        <ele>35</ele>
        <time>2020-09-01T08:00:49Z</time>
      </trkpt>
      <trkpt lat="45.17203" lon="-0.54391">
        <ele>35</ele>
        <time>2020-09-01T08:00:50Z</time>
      </trkpt>
      <trkpt lat="45.17205" lon="-0.54396">
        <ele>35</ele>
        <time>2020-09-01T08:00:52Z</time>
      </trkpt>
      <trkpt lat="45.17206" lon="-0.54398">
        <ele>35</ele>
        <time>2020-09-01T08:00:54Z</time>
      </trkpt>
      <trkpt lat="45.17206" lon="-0.544">
        <ele>35</ele>
        <time>2020-09-01T08:00:55Z</time>
      </trkpt>
      <trkpt lat="45.17207" lon="-0.54403">
        <ele>34.9</ele>
        <time>2020-09-01T08:00:56Z</time>
      </trkpt>
      <trkpt lat="45.17208" lon="-0.54404">
        <ele>34.9</ele>
        <time>2020-09-01T08:00:57Z</time>
      </trkpt>
      <trkpt lat="45.17208" lon="-0.54405">
        <ele>34.9</ele>
        <time>2020-09-01T08:00:58Z</time>
      </trkpt>
      <trkpt lat="45.17209" lon="-0.54407">
        <ele>34.9</ele>
        <time>2020-09-01T08:00:59Z</time>
      </trkpt>
      <trkpt lat="45.17209" lon="-0.54409">
        <ele>34.9</ele>
        <time>2020-09-01T08:01:00Z</time>
      </trkpt>
      <trkpt lat="45.17209" lon="-0.5441">
        <ele>34.9</ele>
        <time>2020-09-01T08:01:01Z</time>
      </trkpt>
      <trkpt lat="45.1721" lon="-0.54412">
        <ele>34.9</ele>
        <time>2020-09-01T08:01:03Z</time>
      </trkpt>
      <trkpt lat="45.1721" lon="-0.54413">
        <ele>34.9</ele>
        <time>2020-09-01T08:01:04Z</time>
      </trkpt>
      <trkpt lat="45.17211" lon="-0.54416">
        <ele>34.9</ele>
        <time>2020-09-01T08:01:05Z</time>
      </trkpt>
      <trkpt lat="45.17213" lon="-0.5442">
        <ele>34.8</ele>
        <time>2020-09-01T08:01:07Z</time>
      </trkpt>
      <trkpt lat="45.17213" lon="-0.54421">
        <ele>34.8</ele>
        <time>2020-09-01T08:01:08Z</time>
      </trkpt>
      <trkpt lat="45.17214" lon="-0.54422">
        <ele>34.8</ele>
        <time>2020-09-01T08:01:09Z</time>
      </trkpt>
      <trkpt lat="45.17214" lon="-0.54423">
        <ele>34.8</ele>
        <time>2020-09-01T08:01:10Z</time>
      </trkpt>
      <trkpt lat="45.17215" lon="-0.54425">
        <ele>34.8</ele>
        <time>2020-09-01T08:01:11Z</time>
      </trkpt>
      <trkpt lat="45.17215" lon="-0.54428">
        <ele>34.8</ele>
        <time>2020-09-01T08:01:12Z</time>
      </trkpt>
      <trkpt lat="45.17215" lon="-0.5443">
        <ele>34.8</ele>
        <time>2020-09-01T08:01:14Z</time>
      </trkpt>
      <trkpt lat="45.17216" lon="-0.54432">
        <ele>34.8</ele>
        <time>2020-09-01T08:01:15Z</time>
      </trkpt>
      <trkpt lat="45.17216" lon="-0.54436">
        <ele>34.8</ele>
        <time>2020-09-01T08:01:16Z</time>
      </trkpt>
      <trkpt lat="45.17217" lon="-0.54437">
        <ele>34.7</ele>
        <time>2020-09-01T08:01:17Z</time>
      </trkpt>
      <trkpt lat="45.17217" lon="-0.54438">
        <ele>34.7</ele>
        <time>2020-09-01T08:01:18Z</time>
      </trkpt>
      <trkpt lat="45.17218" lon="-0.5444">
        <ele>34.7</ele>
        <time>2020-09-01T08:01:19Z</time>
      </trkpt>
      <trkpt lat="45.17219" lon="-0.54441">
        <ele>34.7</ele>
        <time>2020-09-01T08:01:21Z</time>
      </trkpt>
      <trkpt lat="45.1722" lon="-0.54444">
        <ele>34.7</ele>
        <time>2020-09-01T08:01:22Z</time>
      </trkpt>
      <trkpt lat="45.1722" lon="-0.54445">
        <ele>34.7</ele>
        <time>2020-09-01T08:01:23Z</time>
      </trkpt>
      <trkpt lat="45.17221" lon="-0.54447">
        <ele>34.7</ele>
        <time>2020-09-01T08:01:24Z</time>
      </trkpt>
      <trkpt lat="45.17222" lon="-0.54448">
        <ele>34.7</ele>
        <time>2020-09-01T08:01:25Z</time>
      </trkpt>
      <trkpt lat="45.17223" lon="-0.5445">
        <ele>34.7</ele>
        <time>2020-09-01T08:01:27Z</time>
      </trkpt>
      <trkpt lat="45.17224" lon="-0.54453">
        <ele>34.6</ele>
        <time>2020-09-01T08:01:28Z</time>
      </trkpt>
      <trkpt lat="45.17224" lon="-0.54454">
        <ele>34.6</ele>
        <time>2020-09-01T08:01:29Z</time>
      </trkpt>
      <trkpt lat="45.17225" lon="-0.54455">
        <ele>34.6</ele>
        <time>2020-09-01T08:01:30Z</time>
      </trkpt>
      <trkpt lat="45.17226" lon="-0.54457">
        <ele>34.6</ele>
        <time>2020-09-01T08:01:32Z</time>
      </trkpt>
      <trkpt lat="45.17227" lon="-0.54459">
        <ele>34.6</ele>
        <time>2020-09-01T08:01:33Z</time>
      </trkpt>
      <trkpt lat="45.17228" lon="-0.5446">
        <ele>34.6</ele>
        <time>2020-09-01T08:01:34Z</time>
      </trkpt>
      <trkpt lat="45.17228" lon="-0.54462">
        <ele>34.6</ele>
        <time>2020-09-01T08:01:35Z</time>
      </trkpt>
      <trkpt lat="45.1723" lon="-0.54466">
        <ele>34.6</ele>
        <time>2020-09-01T08:01:37Z</time>
      </trkpt>
      <trkpt lat="45.17231" lon="-0.54466">
        <ele>34.6</ele>
        <time>2020-09-01T08:01:38Z</time>
      </trkpt>
      <trkpt lat="45.17232" lon="-0.54468">
        <ele>34.5</ele>
        <time>2020-09-01T08:01:40Z</time>
      </trkpt>
      <trkpt lat="45.17233" lon="-0.5447">
        <ele>34.5</ele>
        <time>2020-09-01T08:01:41Z</time>
      </trkpt>
      <trkpt lat="45.17233" lon="-0.54472">
        <ele>34.5</ele>
        <time>2020-09-01T08:01:42Z</time>
      </trkpt>
      <trkpt lat="45.17234" lon="-0.54473">
        <ele>34.5</ele>
        <time>2020-09-01T08:01:43Z</time>
      </trkpt>
      <trkpt lat="45.17234" lon="-0.54475">
        <ele>34.5</ele>
        <time>2020-09-01T08:01:44Z</time>
      </trkpt>
      <trkpt lat="45.17235" lon="-0.54477">
        <ele>34.5</ele>
        <time>2020-09-01T08:01:45Z</time>
      </trkpt>
      <trkpt lat="45.17236" lon="-0.54479">
        <ele>34.5</ele>
        <time>2020-09-01T08:01:47Z</time>
      </trkpt>
      <trkpt lat="45.17236" lon="-0.54482">
        <ele>34.5</ele>
        <time>2020-09-01T08:01:48Z</time>
      </trkpt>
      <trkpt lat="45.17237" lon="-0.54483">
        <ele>34.5</ele>
        <time>2020-09-01T08:01:49Z</time>
      </trkpt>
      <trkpt lat="45.17237" lon="-0.54485">
        <ele>34.4</ele>
        <time>2020-09-01T08:01:50Z</time>
      </trkpt>
      <trkpt lat="45.17238" lon="-0.54487">
        <ele>34.4</ele>
        <time>2020-09-01T08:01:52Z</time>
      </trkpt>
      <trkpt lat="45.17238" lon="-0.5449">
        <ele>34.4</ele>
        <time>2020-09-01T08:01:54Z</time>
      </trkpt>
      <trkpt lat="45.17239" lon="-0.54492">
        <ele>34.4</ele>
        <time>2020-09-01T08:01:55Z</time>
      </trkpt>
      <trkpt lat="45.17239" lon="-0.54494">
        <ele>34.4</ele>
        <time>2020-09-01T08:01:56Z</time>
      </trkpt>
      <trkpt lat="45.17239" lon="-0.54497">
        <ele>34.4</ele>
        <time>2020-09-01T08:01:57Z</time>
      </trkpt>
      <trkpt lat="45.1724" lon="-0.545">
        <ele>34.4</ele>
        <time>2020-09-01T08:01:59Z</time>
      </trkpt>
      <trkpt lat="45.1724" lon="-0.54504">
        <ele>34.3</ele>
        <time>2020-09-01T08:02:00Z</time>
      </trkpt>
      <trkpt lat="45.1724" lon="-0.54505">
        <ele>34.3</ele>
        <time>2020-09-01T08:02:01Z</time>
      </trkpt>
      <trkpt lat="45.1724" lon="-0.54507">
        <ele>34.3</ele>
        <time>2020-09-01T08:02:02Z</time>
      </trkpt>
      <trkpt lat="45.17241" lon="-0.54509">
        <ele>34.3</ele>
        <time>2020-09-01T08:02:03Z</time>
      </trkpt>
      <trkpt lat="45.17241" lon="-0.54511">
        <ele>34.3</ele>
        <time>2020-09-01T08:02:04Z</time>
      </trkpt>
      <trkpt lat="45.17241" lon="-0.54512">
        <ele>34.3</ele>
        <time>2020-09-01T08:02:05Z</time>
      </trkpt>
      <trkpt lat="45.17242" lon="-0.54515">
        <ele>34.3</ele>
        <time>2020-09-01T08:02:06Z</time>
      </trkpt>
      <trkpt lat="45.17243" lon="-0.54518">
        <ele>34.3</ele>
        <time>2020-09-01T08:02:08Z</time>
      </trkpt>
      <trkpt lat="45.17243" lon="-0.54519">
        <ele>34.3</ele>
        <time>2020-09-01T08:02:09Z</time>
      </trkpt>
      <trkpt lat="45.17244" lon="-0.54521">
        <ele>34.2</ele>
        <time>2020-09-01T08:02:10Z</time>
      </trkpt>
      <trkpt lat="45.17244" lon="-0.54523">
        <ele>34.2</ele>
        <time>2020-09-01T08:02:11Z</time>
      </trkpt>
      <trkpt lat="45.17245" lon="-0.54524">
        <ele>34.2</ele>
        <time>2020-09-01T08:02:12Z</time>
      </trkpt>
      <trkpt lat="45.17245" lon="-0.54525">
        <ele>34.2</ele>
        <time>2020-09-01T08:02:13Z</time>
      </trkpt>
      <trkpt lat="45.17247" lon="-0.54527">
        <ele>34.2</ele>
        <time>2020-09-01T08:02:15Z</time>
      </trkpt>
      <trkpt lat="45.17247" lon="-0.54528">
        <ele>34.2</ele>
        <time>2020-09-01T08:02:16Z</time>
      </trkpt>
      <trkpt lat="45.17248" lon="-0.54531">
        <ele>34.2</ele>
        <time>2020-09-01T08:02:17Z</time>
      </trkpt>
      <trkpt lat="45.17249" lon="-0.54532">
        <ele>34.2</ele>
        <time>2020-09-01T08:02:19Z</time>
      </trkpt>
      <trkpt lat="45.1725" lon="-0.54533">
        <ele>34.2</ele>
        <time>2020-09-01T08:02:20Z</time>
      </trkpt>
      <trkpt lat="45.1725" lon="-0.54535">
        <ele>34.2</ele>
        <time>2020-09-01T08:02:21Z</time>
      </trkpt>
      <trkpt lat="45.17251" lon="-0.54536">
        <ele>34.1</ele>
        <time>2020-09-01T08:02:22Z</time>
      </trkpt>
      <trkpt lat="45.17251" lon="-0.54537">
        <ele>34.1</ele>
        <time>2020-09-01T08:02:23Z</time>
      </trkpt>
      <trkpt lat="45.17252" lon="-0.54538">
        <ele>34.1</ele>
        <time>2020-09-01T08:02:24Z</time>
      </trkpt>
      <trkpt lat="45.17252" lon="-0.5454">
        <ele>34.1</ele>
        <time>2020-09-01T08:02:25Z</time>
      </trkpt>
      <trkpt lat="45.17253" lon="-0.54541">
        <ele>34.1</ele>
        <time>2020-09-01T08:02:26Z</time>
      </trkpt>
      <trkpt lat="45.17254" lon="-0.54544">
        <ele>34.1</ele>
        <time>2020-09-01T08:02:27Z</time>
      </trkpt>
      <trkpt lat="45.17255" lon="-0.54546">
        <ele>34.1</ele>
        <time>2020-09-01T08:02:29Z</time>
      </trkpt>
      <trkpt lat="45.17255" lon="-0.54548">
        <ele>34.1</ele>
        <time>2020-09-01T08:02:31Z</time>
      </trkpt>
      <trkpt lat="45.17255" lon="-0.54549">
        <ele>34.1</ele>
        <time>2020-09-01T08:02:32Z</time>
      </trkpt>
      <trkpt lat="45.17256" lon="-0.5455">
        <ele>34.1</ele>
        <time>2020-09-01T08:02:33Z</time>
      </trkpt>
      <trkpt lat="45.17257" lon="-0.54553">
        <ele>34</ele>
        <time>2020-09-01T08:02:35Z</time>
      </trkpt>
      <trkpt lat="45.17257" lon="-0.54555">
        <ele>34</ele>
        <time>2020-09-01T08:02:36Z</time>
      </trkpt>
      <trkpt lat="45.17257" lon="-0.54557">
        <ele>34</ele>
        <time>2020-09-01T08:02:37Z</time>
      </trkpt>
      <trkpt lat="45.17258" lon="-0.54562">
        <ele>34</ele>
        <time>2020-09-01T08:02:39Z</time>
      </trkpt>
      <trkpt lat="45.17259" lon="-0.54563">
        <ele>34</ele>
        <time>2020-09-01T08:02:40Z</time>
      </trkpt>
      <trkpt lat="45.17259" lon="-0.54565">
        <ele>34</ele>
        <time>2020-09-01T08:02:41Z</time>
      </trkpt>
      <trkpt lat="45.1726" lon="-0.54569">
        <ele>33.9</ele>
        <time>2020-09-01T08:02:43Z</time>
      </trkpt>
      <trkpt lat="45.17261" lon="-0.54571">
        <ele>33.9</ele>
        <time>2020-09-01T08:02:44Z</time>
      </trkpt>
      <trkpt lat="45.17262" lon="-0.54572">
        <ele>33.9</ele>
        <time>2020-09-01T08:02:45Z</time>
      </trkpt>
      <trkpt lat="45.17263" lon="-0.54575">
        <ele>33.9</ele>
        <time>2020-09-01T08:02:47Z</time>
      </trkpt>
      <trkpt lat="45.17264" lon="-0.54578">
        <ele>33.9</ele>
        <time>2020-09-01T08:02:49Z</time>
      </trkpt>
      <trkpt lat="45.17265" lon="-0.5458">
        <ele>33.9</ele>
        <time>2020-09-01T08:02:50Z</time>
      </trkpt>
      <trkpt lat="45.17266" lon="-0.54582">
        <ele>33.9</ele>
        <time>2020-09-01T08:02:51Z</time>
      </trkpt>
      <trkpt lat="45.17267" lon="-0.54586">
        <ele>33.8</ele>
        <time>2020-09-01T08:02:52Z</time>
      </trkpt>
      <trkpt lat="45.17268" lon="-0.54587">
        <ele>33.8</ele>
        <time>2020-09-01T08:02:53Z</time>
      </trkpt>
      <trkpt lat="45.17268" lon="-0.54588">
        <ele>33.8</ele>
        <time>2020-09-01T08:02:54Z</time>
      </trkpt>
      <trkpt lat="45.17269" lon="-0.5459">
        <ele>33.8</ele>
        <time>2020-09-01T08:02:55Z</time>
      </trkpt>
      <trkpt lat="45.1727" lon="-0.54592">
        <ele>33.8</ele>
        <time>2020-09-01T08:02:56Z</time>
      </trkpt>
      <trkpt lat="45.17271" lon="-0.54594">
        <ele>33.8</ele>
        <time>2020-09-01T08:02:57Z</time>
      </trkpt>
      <trkpt lat="45.17272" lon="-0.54597">
        <ele>33.8</ele>
        <time>2020-09-01T08:02:58Z</time>
      </trkpt>
      <trkpt lat="45.17273" lon="-0.54598">
        <ele>33.8</ele>
        <time>2020-09-01T08:03:00Z</time>
      </trkpt>
      <trkpt lat="45.17273" lon="-0.54599">
        <ele>33.8</ele>
        <time>2020-09-01T08:03:01Z</time>
      </trkpt>
      <trkpt lat="45.17274" lon="-0.54602">
        <ele>33.7</ele>
        <time>2020-09-01T08:03:02Z</time>
      </trkpt>
      <trkpt lat="45.17275" lon="-0.54603">
        <ele>33.7</ele>
        <time>2020-09-01T08:03:03Z</time>
      </trkpt>
      <trkpt lat="45.17275" lon="-0.54605">
        <ele>33.7</ele>
        <time>2020-09-01T08:03:04Z</time>
      </trkpt>
      <trkpt lat="45.17276" lon="-0.54607">
        <ele>33.7</ele>
        <time>2020-09-01T08:03:05Z</time>
      </trkpt>
      <trkpt lat="45.17276" lon="-0.54609">
        <ele>33.7</ele>
        <time>2020-09-01T08:03:07Z</time>
      </trkpt>
      <trkpt lat="45.17277" lon="-0.54612">
        <ele>33.7</ele>
        <time>2020-09-01T08:03:09Z</time>
      </trkpt>
      <trkpt lat="45.17277" lon="-0.54615">
        <ele>33.7</ele>
        <time>2020-09-01T08:03:10Z</time>
      </trkpt>
      <trkpt lat="45.17277" lon="-0.54617">
        <ele>33.7</ele>
        <time>2020-09-01T08:03:11Z</time>
      </trkpt>
      <trkpt lat="45.17278" lon="-0.54618">
        <ele>33.6</ele>
        <time>2020-09-01T08:03:12Z</time>
      </trkpt>
      <trkpt lat="45.17278" lon="-0.5462">
        <ele>33.6</ele>
        <time>2020-09-01T08:03:13Z</time>
      </trkpt>
      <trkpt lat="45.17278" lon="-0.54622">
        <ele>33.6</ele>
        <time>2020-09-01T08:03:14Z</time>
      </trkpt>
      <trkpt lat="45.17279" lon="-0.54623">
        <ele>33.6</ele>
        <time>2020-09-01T08:03:15Z</time>
      </trkpt>
      <trkpt lat="45.17279" lon="-0.54625">
        <ele>33.6</ele>
        <time>2020-09-01T08:03:16Z</time>
      </trkpt>
      <trkpt lat="45.17279" lon="-0.54627">
        <ele>33.6</ele>
        <time>2020-09-01T08:03:17Z</time>
      </trkpt>
      <trkpt lat="45.1728" lon="-0.54629">
        <ele>33.6</ele>
        <time>2020-09-01T08:03:18Z</time>
      </trkpt>
      <trkpt lat="45.1728" lon="-0.5463">
        <ele>33.6</ele>
        <time>2020-09-01T08:03:19Z</time>
      </trkpt>
      <trkpt lat="45.1728" lon="-0.54632">
        <ele>33.6</ele>
        <time>2020-09-01T08:03:20Z</time>
      </trkpt>
      <trkpt lat="45.17281" lon="-0.54636">
        <ele>33.5</ele>
        <time>2020-09-01T08:03:23Z</time>
      </trkpt>
      <trkpt lat="45.17281" lon="-0.54637">
        <ele>33.5</ele>
        <time>2020-09-01T08:03:24Z</time>
      </trkpt>
      <trkpt lat="45.17282" lon="-0.54639">
        <ele>33.5</ele>
        <time>2020-09-01T08:03:25Z</time>
      </trkpt>
      <trkpt lat="45.17282" lon="-0.54641">
        <ele>33.5</ele>
        <time>2020-09-01T08:03:26Z</time>
      </trkpt>
      <trkpt lat="45.17283" lon="-0.54644">
        <ele>33.5</ele>
        <time>2020-09-01T08:03:27Z</time>
      </trkpt>
      <trkpt lat="45.17283" lon="-0.54646">
        <ele>33.5</ele>
        <time>2020-09-01T08:03:28Z</time>
      </trkpt>
      <trkpt lat="45.17284" lon="-0.54648">
        <ele>33.5</ele>
        <time>2020-09-01T08:03:30Z</time>
      </trkpt>
      <trkpt lat="45.17285" lon="-0.5465">
        <ele>33.5</ele>
        <time>2020-09-01T08:03:31Z</time>
      </trkpt>
      <trkpt lat="45.17285" lon="-0.54653">
        <ele>33.5</ele>
        <time>2020-09-01T08:03:32Z</time>
      </trkpt>
      <trkpt lat="45.17286" lon="-0.54654">
        <ele>33.4</ele>
        <time>2020-09-01T08:03:33Z</time>
      </trkpt>
      <trkpt lat="45.17286" lon="-0.54657">
        <ele>33.4</ele>
        <time>2020-09-01T08:03:35Z</time>
      </trkpt>
      <trkpt lat="45.17287" lon="-0.54658">
        <ele>33.4</ele>
        <time>2020-09-01T08:03:36Z</time>
      </trkpt>
      <trkpt lat="45.17288" lon="-0.54661">
        <ele>33.4</ele>
        <time>2020-09-01T08:03:37Z</time>
      </trkpt>
      <trkpt lat="45.17288" lon="-0.54662">
        <ele>33.4</ele>
        <time>2020-09-01T08:03:38Z</time>
      </trkpt>
      <trkpt lat="45.17289" lon="-0.54663">
        <ele>33.4</ele>
        <time>2020-09-01T08:03:39Z</time>
      </trkpt>
      <trkpt lat="45.17289" lon="-0.54665">
        <ele>33.4</ele>
        <time>2020-09-01T08:03:40Z</time>
      </trkpt>
      <trkpt lat="45.1729" lon="-0.54666">
        <ele>33.4</ele>
        <time>2020-09-01T08:03:41Z</time>
      </trkpt>
      <trkpt lat="45.17291" lon="-0.54668">
        <ele>33.4</ele>
        <time>2020-09-01T08:03:43Z</time>
      </trkpt>
      <trkpt lat="45.17291" lon="-0.54669">
        <ele>33.4</ele>
        <time>2020-09-01T08:03:44Z</time>
      </trkpt>
      <trkpt lat="45.17293" lon="-0.54672">
        <ele>33.3</ele>
        <time>2020-09-01T08:03:46Z</time>
      </trkpt>
      <trkpt lat="45.17294" lon="-0.54675">
        <ele>33.3</ele>
        <time>2020-09-01T08:03:47Z</time>
      </trkpt>
      <trkpt lat="45.17295" lon="-0.54677">
        <ele>33.3</ele>
        <time>2020-09-01T08:03:49Z</time>
      </trkpt>
      <trkpt lat="45.17296" lon="-0.54679">
        <ele>33.3</ele>
        <time>2020-09-01T08:03:50Z</time>
      </trkpt>
      <trkpt lat="45.17297" lon="-0.54681">
        <ele>33.3</ele>
        <time>2020-09-01T08:03:51Z</time>
      </trkpt>
      <trkpt lat="45.17298" lon="-0.54684">
        <ele>33.3</ele>
        <time>2020-09-01T08:03:52Z</time>
      </trkpt>
      <trkpt lat="45.17298" lon="-0.54685">
        <ele>33.3</ele>
        <time>2020-09-01T08:03:53Z</time>
      </trkpt>
      <trkpt lat="45.17299" lon="-0.54686">
        <ele>33.2</ele>
        <time>2020-09-01T08:03:54Z</time>
      </trkpt>
      <trkpt lat="45.17299" lon="-0.54688">
        <ele>33.2</ele>
        <time>2020-09-01T08:03:55Z</time>
      </trkpt>
      <trkpt lat="45.173" lon="-0.54689">
        <ele>33.2</ele>
        <time>2020-09-01T08:03:57Z</time>
      </trkpt>
      <trkpt lat="45.173" lon="-0.54691">
        <ele>33.2</ele>
        <time>2020-09-01T08:03:58Z</time>
      </trkpt>
      <trkpt lat="45.17301" lon="-0.54693">
        <ele>33.2</ele>
        <time>2020-09-01T08:03:59Z</time>
      </trkpt>
      <trkpt lat="45.17301" lon="-0.54694">
        <ele>33.2</ele>
        <time>2020-09-01T08:04:00Z</time>
      </trkpt>
      <trkpt lat="45.17301" lon="-0.54697">
        <ele>33.2</ele>
        <time>2020-09-01T08:04:01Z</time>
      </trkpt>
      <trkpt lat="45.17302" lon="-0.54698">
        <ele>33.2</ele>
        <time>2020-09-01T08:04:02Z</time>
      </trkpt>
      <trkpt lat="45.17302" lon="-0.547">
        <ele>33.2</ele>
        <time>2020-09-01T08:04:03Z</time>
      </trkpt>
      <trkpt lat="45.17302" lon="-0.54701">
        <ele>33.2</ele>
        <time>2020-09-01T08:04:04Z</time>
      </trkpt>
      <trkpt lat="45.17302" lon="-0.54702">
        <ele>33.2</ele>
        <time>2020-09-01T08:04:05Z</time>
      </trkpt>
      <trkpt lat="45.17302" lon="-0.54704">
        <ele>33.1</ele>
        <time>2020-09-01T08:04:06Z</time>
      </trkpt>
      <trkpt lat="45.17301" lon="-0.54708">
        <ele>33.1</ele>
        <time>2020-09-01T08:04:08Z</time>
      </trkpt>
      <trkpt lat="45.17301" lon="-0.54709">
        <ele>33.1</ele>
        <time>2020-09-01T08:04:09Z</time>
      </trkpt>
      <trkpt lat="45.173" lon="-0.54711">
        <ele>33.1</ele>
        <time>2020-09-01T08:04:10Z</time>
      </trkpt>
      <trkpt lat="45.17299" lon="-0.54713">
        <ele>33.1</ele>
        <time>2020-09-01T08:04:11Z</time>
      </trkpt>
      <trkpt lat="45.17298" lon="-0.54716">
        <ele>33.1</ele>
        <time>2020-09-01T08:04:13Z</time>
      </trkpt>
      <trkpt lat="45.17297" lon="-0.54717">
        <ele>33.1</ele>
        <time>2020-09-01T08:04:15Z</time>
      </trkpt>
      <trkpt lat="45.17296" lon="-0.54718">
        <ele>33.1</ele>
        <time>2020-09-01T08:04:16Z</time>
      </trkpt>
      <trkpt lat="45.17294" lon="-0.5472">
        <ele>33</ele>
        <time>2020-09-01T08:04:17Z</time>
      </trkpt>
      <trkpt lat="45.17293" lon="-0.5472">
        <ele>33</ele>
        <time>2020-09-01T08:04:19Z</time>
      </trkpt>
      <trkpt lat="45.17292" lon="-0.5472">
        <ele>33</ele>
        <time>2020-09-01T08:04:20Z</time>
      </trkpt>
      <trkpt lat="45.17291" lon="-0.54721">
        <ele>33</ele>
        <time>2020-09-01T08:04:22Z</time>
      </trkpt>
      <trkpt lat="45.17289" lon="-0.54722">
        <ele>33</ele>
        <time>2020-09-01T08:04:23Z</time>
      </trkpt>
      <trkpt lat="45.17288" lon="-0.54722">
        <ele>33</ele>
        <time>2020-09-01T08:04:24Z</time>
      </trkpt>
      <trkpt lat="45.17287" lon="-0.54723">
        <ele>33</ele>
        <time>2020-09-01T08:04:25Z</time>
      </trkpt>
      <trkpt lat="45.17286" lon="-0.54723">
        <ele>33</ele>
        <time>2020-09-01T08:04:26Z</time>
      </trkpt>
      <trkpt lat="45.17285" lon="-0.54724">
        <ele>33</ele>
        <time>2020-09-01T08:04:27Z</time>
      </trkpt>
      <trkpt lat="45.17284" lon="-0.54725">
        <ele>33</ele>
        <time>2020-09-01T08:04:28Z</time>
      </trkpt>
      <trkpt lat="45.17282" lon="-0.54726">
        <ele>32.9</ele>
        <time>2020-09-01T08:04:30Z</time>
      </trkpt>
      <trkpt lat="45.17281" lon="-0.54728">
        <ele>32.9</ele>
        <time>2020-09-01T08:04:31Z</time>
      </trkpt>
      <trkpt lat="45.17279" lon="-0.54729">
        <ele>32.9</ele>
        <time>2020-09-01T08:04:32Z</time>
      </trkpt>
      <trkpt lat="45.17279" lon="-0.54729">
        <ele>32.9</ele>
        <time>2020-09-01T08:04:33Z</time>
      </trkpt>
      <trkpt lat="45.17278" lon="-0.5473">
        <ele>32.9</ele>
        <time>2020-09-01T08:04:34Z</time>
      </trkpt>
      <trkpt lat="45.17278" lon="-0.54731">
        <ele>32.9</ele>
        <time>2020-09-01T08:04:35Z</time>
      </trkpt>
      <trkpt lat="45.17277" lon="-0.54732">
        <ele>32.9</ele>
        <time>2020-09-01T08:04:37Z</time>
      </trkpt>
      <trkpt lat="45.17275" lon="-0.54734">
        <ele>32.9</ele>
        <time>2020-09-01T08:04:39Z</time>
      </trkpt>
      <trkpt lat="45.17274" lon="-0.54734">
        <ele>32.9</ele>
        <time>2020-09-01T08:04:40Z</time>
      </trkpt>
      <trkpt lat="45.17273" lon="-0.54735">
        <ele>32.9</ele>
        <time>2020-09-01T08:04:42Z</time>
      </trkpt>
      <trkpt lat="45.17272" lon="-0.54735">
        <ele>32.8</ele>
        <time>2020-09-01T08:04:43Z</time>
      </trkpt>
      <trkpt lat="45.17272" lon="-0.54735">
        <ele>32.8</ele>
        <time>2020-09-01T08:04:44Z</time>
      </trkpt>
      <trkpt lat="45.17271" lon="-0.54735">
        <ele>32.8</ele>
        <time>2020-09-01T08:04:45Z</time>
      </trkpt>
      <trkpt lat="45.1727" lon="-0.54734">
        <ele>32.8</ele>
        <time>2020-09-01T08:04:47Z</time>
      </trkpt>
      <trkpt lat="45.17269" lon="-0.54734">
        <ele>32.8</ele>
        <time>2020-09-01T08:04:48Z</time>
      </trkpt>
      <trkpt lat="45.17268" lon="-0.54734">
        <ele>32.8</ele>
        <time>2020-09-01T08:04:49Z</time>
      </trkpt>
      <trkpt lat="45.17267" lon="-0.54735">
        <ele>32.8</ele>
        <time>2020-09-01T08:04:50Z</time>
      </trkpt>
      <trkpt lat="45.17266" lon="-0.54735">
        <ele>32.8</ele>
        <time>2020-09-01T08:04:52Z</time>
      </trkpt>
      <trkpt lat="45.17264" lon="-0.54736">
        <ele>32.8</ele>
        <time>2020-09-01T08:04:53Z</time>
      </trkpt>
      <trkpt lat="45.17262" lon="-0.54737">
        <ele>32.8</ele>
        <time>2020-09-01T08:04:54Z</time>
      </trkpt>
      <trkpt lat="45.1726" lon="-0.54738">
        <ele>32.8</ele>
        <time>2020-09-01T08:04:56Z</time>
      </trkpt>
      <trkpt lat="45.17258" lon="-0.54741">
        <ele>32.7</ele>
        <time>2020-09-01T08:04:57Z</time>
      </trkpt>
      <trkpt lat="45.17257" lon="-0.54741">
        <ele>32.7</ele>
        <time>2020-09-01T08:04:58Z</time>
      </trkpt>
      <trkpt lat="45.17256" lon="-0.54744">
        <ele>32.7</ele>
        <time>2020-09-01T08:04:59Z</time>
      </trkpt>
      <trkpt lat="45.17255" lon="-0.54746">
        <ele>32.7</ele>
        <time>2020-09-01T08:05:00Z</time>
      </trkpt>
      <trkpt lat="45.17253" lon="-0.5475">
        <ele>32.7</ele>
        <time>2020-09-01T08:05:02Z</time>
      </trkpt>
      <trkpt lat="45.17252" lon="-0.54752">
        <ele>32.7</ele>
        <time>2020-09-01T08:05:03Z</time>
      </trkpt>
      <trkpt lat="45.1725" lon="-0.54756">
        <ele>32.6</ele>
        <time>2020-09-01T08:05:05Z</time>
      </trkpt>
      <trkpt lat="45.17248" lon="-0.5476">
        <ele>32.6</ele>
        <time>2020-09-01T08:05:07Z</time>
      </trkpt>
      <trkpt lat="45.17247" lon="-0.54762">
        <ele>32.6</ele>
        <time>2020-09-01T08:05:08Z</time>
      </trkpt>
      <trkpt lat="45.17246" lon="-0.54764">
        <ele>32.6</ele>
        <time>2020-09-01T08:05:10Z</time>
      </trkpt>
      <trkpt lat="45.17243" lon="-0.54767">
        <ele>32.5</ele>
        <time>2020-09-01T08:05:11Z</time>
      </trkpt>
      <trkpt lat="45.17242" lon="-0.54768">
        <ele>32.5</ele>
        <time>2020-09-01T08:05:12Z</time>
      </trkpt>
      <trkpt lat="45.17241" lon="-0.54769">
        <ele>32.5</ele>
        <time>2020-09-01T08:05:13Z</time>
      </trkpt>
      <trkpt lat="45.17239" lon="-0.5477">
        <ele>32.5</ele>
        <time>2020-09-01T08:05:15Z</time>
      </trkpt>
      <trkpt lat="45.17236" lon="-0.54773">
        <ele>32.5</ele>
        <time>2020-09-01T08:05:17Z</time>
      </trkpt>
      <trkpt lat="45.17235" lon="-0.54774">
        <ele>32.5</ele>
        <time>2020-09-01T08:05:18Z</time>
      </trkpt>
      <trkpt lat="45.17232" lon="-0.54775">
        <ele>32.5</ele>
        <time>2020-09-01T08:05:20Z</time>
      </trkpt>
      <trkpt lat="45.1723" lon="-0.54777">
        <ele>32.4</ele>
        <time>2020-09-01T08:05:21Z</time>
      </trkpt>
      <trkpt lat="45.17229" lon="-0.54777">
        <ele>32.4</ele>
        <time>2020-09-01T08:05:22Z</time>
      </trkpt>
      <trkpt lat="45.17227" lon="-0.54779">
        <ele>32.4</ele>
        <time>2020-09-01T08:05:24Z</time>
      </trkpt>
      <trkpt lat="45.17226" lon="-0.5478">
        <ele>32.4</ele>
        <time>2020-09-01T08:05:25Z</time>
      </trkpt>
      <trkpt lat="45.17224" lon="-0.54781">
        <ele>32.4</ele>
        <time>2020-09-01T08:05:26Z</time>
      </trkpt>
      <trkpt lat="45.17223" lon="-0.54781">
        <ele>32.4</ele>
        <time>2020-09-01T08:05:27Z</time>
      </trkpt>
      <trkpt lat="45.17222" lon="-0.54782">
        <ele>32.4</ele>
        <time>2020-09-01T08:05:28Z</time>
      </trkpt>
      <trkpt lat="45.1722" lon="-0.54784">
        <ele>32.3</ele>
        <time>2020-09-01T08:05:30Z</time>
      </trkpt>
      <trkpt lat="45.17217" lon="-0.54786">
        <ele>32.3</ele>
        <time>2020-09-01T08:05:32Z</time>
      </trkpt>
      <trkpt lat="45.17216" lon="-0.54787">
        <ele>32.3</ele>
        <time>2020-09-01T08:05:33Z</time>
      </trkpt>
      <trkpt lat="45.17214" lon="-0.54789">
        <ele>32.3</ele>
        <time>2020-09-01T08:05:35Z</time>
      </trkpt>
      <trkpt lat="45.17212" lon="-0.54791">
        <ele>32.3</ele>
        <time>2020-09-01T08:05:36Z</time>
      </trkpt>
      <trkpt lat="45.17211" lon="-0.54791">
        <ele>32.3</ele>
        <time>2020-09-01T08:05:37Z</time>
      </trkpt>
      <trkpt lat="45.17211" lon="-0.54792">
        <ele>32.3</ele>
        <time>2020-09-01T08:05:38Z</time>
      </trkpt>
      <trkpt lat="45.17208" lon="-0.54795">
        <ele>32.2</ele>
        <time>2020-09-01T08:05:40Z</time>
      </trkpt>
      <trkpt lat="45.17208" lon="-0.54796">
        <ele>32.2</ele>
        <time>2020-09-01T08:05:41Z</time>
      </trkpt>
      <trkpt lat="45.17206" lon="-0.54799">
        <ele>32.2</ele>
        <time>2020-09-01T08:05:42Z</time>
      </trkpt>
      <trkpt lat="45.17206" lon="-0.548">
        <ele>32.2</ele>
        <time>2020-09-01T08:05:43Z</time>
      </trkpt>
      <trkpt lat="45.17205" lon="-0.54801">
        <ele>32.2</ele>
        <time>2020-09-01T08:05:44Z</time>
      </trkpt>
      <trkpt lat="45.17204" lon="-0.54805">
        <ele>32.2</ele>
        <time>2020-09-01T08:05:45Z</time>
      </trkpt>
      <trkpt lat="45.17203" lon="-0.54807">
        <ele>32.2</ele>
        <time>2020-09-01T08:05:47Z</time>
      </trkpt>
      <trkpt lat="45.17202" lon="-0.54808">
        <ele>32.2</ele>
        <time>2020-09-01T08:05:48Z</time>
      </trkpt>
      <trkpt lat="45.17202" lon="-0.5481">
        <ele>32.1</ele>
        <time>2020-09-01T08:05:49Z</time>
      </trkpt>
      <trkpt lat="45.17201" lon="-0.54813">
        <ele>32.1</ele>
        <time>2020-09-01T08:05:51Z</time>
      </trkpt>
      <trkpt lat="45.172" lon="-0.54815">
        <ele>32.1</ele>
        <time>2020-09-01T08:05:52Z</time>
      </trkpt>
      <trkpt lat="45.17199" lon="-0.54817">
        <ele>32.1</ele>
        <time>2020-09-01T08:05:53Z</time>
      </trkpt>
      <trkpt lat="45.17198" lon="-0.54819">
        <ele>32.1</ele>
        <time>2020-09-01T08:05:54Z</time>
      </trkpt>
      <trkpt lat="45.17197" lon="-0.54821">
        <ele>32.1</ele>
        <time>2020-09-01T08:05:55Z</time>
      </trkpt>
      <trkpt lat="45.17196" lon="-0.54823">
        <ele>32.1</ele>
        <time>2020-09-01T08:05:56Z</time>
      </trkpt>
      <trkpt lat="45.17196" lon="-0.54824">
        <ele>32.1</ele>
        <time>2020-09-01T08:05:57Z</time>
      </trkpt>
      <trkpt lat="45.17194" lon="-0.54827">
        <ele>32</ele>
        <time>2020-09-01T08:05:59Z</time>
      </trkpt>
      <trkpt lat="45.17193" lon="-0.54828">
        <ele>32</ele>
        <time>2020-09-01T08:06:01Z</time>
      </trkpt>
      <trkpt lat="45.17192" lon="-0.5483">
        <ele>32</ele>
        <time>2020-09-01T08:06:02Z</time>
      </trkpt>
      <trkpt lat="45.1719" lon="-0.54833">
        <ele>32</ele>
        <time>2020-09-01T08:06:04Z</time>
      </trkpt>
      <trkpt lat="45.17189" lon="-0.54835">
        <ele>32</ele>
        <time>2020-09-01T08:06:05Z</time>
      </trkpt>
      <trkpt lat="45.17188" lon="-0.54836">
        <ele>32</ele>
        <time>2020-09-01T08:06:06Z</time>
      </trkpt>
      <trkpt lat="45.17187" lon="-0.54837">
        <ele>32</ele>
        <time>2020-09-01T08:06:07Z</time>
      </trkpt>
      <trkpt lat="45.17185" lon="-0.54838">
        <ele>31.9</ele>
        <time>2020-09-01T08:06:08Z</time>
      </trkpt>
      <trkpt lat="45.17183" lon="-0.5484">
        <ele>31.9</ele>
        <time>2020-09-01T08:06:10Z</time>
      </trkpt>
      <trkpt lat="45.17183" lon="-0.5484">
        <ele>31.9</ele>
        <time>2020-09-01T08:06:11Z</time>
      </trkpt>
      <trkpt lat="45.17181" lon="-0.54841">
        <ele>31.9</ele>
        <time>2020-09-01T08:06:13Z</time>
      </trkpt>
      <trkpt lat="45.1718" lon="-0.54841">
        <ele>31.9</ele>
        <time>2020-09-01T08:06:14Z</time>
      </trkpt>
      <trkpt lat="45.17179" lon="-0.54844">
        <ele>31.9</ele>
        <time>2020-09-01T08:06:16Z</time>
      </trkpt>
      <trkpt lat="45.17179" lon="-0.54846">
        <ele>31.9</ele>
        <time>2020-09-01T08:06:17Z</time>
      </trkpt>
      <trkpt lat="45.17178" lon="-0.54849">
        <ele>31.9</ele>
        <time>2020-09-01T08:06:18Z</time>
      </trkpt>
      <trkpt lat="45.17178" lon="-0.54851">
        <ele>31.9</ele>
        <time>2020-09-01T08:06:19Z</time>
      </trkpt>
      <trkpt lat="45.17179" lon="-0.54853">
        <ele>31.8</ele>
        <time>2020-09-01T08:06:20Z</time>
      </trkpt>
      <trkpt lat="45.17179" lon="-0.54858">
        <ele>31.8</ele>
        <time>2020-09-01T08:06:22Z</time>
      </trkpt>
      <trkpt lat="45.17179" lon="-0.5486">
        <ele>31.8</ele>
        <time>2020-09-01T08:06:23Z</time>
      </trkpt>
      <trkpt lat="45.1718" lon="-0.54862">
        <ele>31.8</ele>
        <time>2020-09-01T08:06:24Z</time>
      </trkpt>
      <trkpt lat="45.17181" lon="-0.54865">
        <ele>31.8</ele>
        <time>2020-09-01T08:06:26Z</time>
      </trkpt>
      <trkpt lat="45.17181" lon="-0.54867">
        <ele>31.8</ele>
        <time>2020-09-01T08:06:27Z</time>
      </trkpt>
      <trkpt lat="45.17182" lon="-0.5487">
        <ele>31.7</ele>
        <time>2020-09-01T08:06:28Z</time>
      </trkpt>
      <trkpt lat="45.17182" lon="-0.54872">
        <ele>31.7</ele>
        <time>2020-09-01T08:06:29Z</time>
      </trkpt>
      <trkpt lat="45.17182" lon="-0.54874">
        <ele>31.7</ele>
        <time>2020-09-01T08:06:30Z</time>
      </trkpt>
      <trkpt lat="45.17182" lon="-0.54876">
        <ele>31.7</ele>
        <time>2020-09-01T08:06:32Z</time>
      </trkpt>
      <trkpt lat="45.17182" lon="-0.54879">
        <ele>31.7</ele>
        <time>2020-09-01T08:06:33Z</time>
      </trkpt>
      <trkpt lat="45.17182" lon="-0.54882">
        <ele>31.7</ele>
        <time>2020-09-01T08:06:34Z</time>
      </trkpt>
      <trkpt lat="45.17181" lon="-0.54883">
        <ele>31.7</ele>
        <time>2020-09-01T08:06:35Z</time>
      </trkpt>
      <trkpt lat="45.17181" lon="-0.54886">
        <ele>31.7</ele>
        <time>2020-09-01T08:06:36Z</time>
      </trkpt>
      <trkpt lat="45.17181" lon="-0.54888">
        <ele>31.6</ele>
        <time>2020-09-01T08:06:38Z</time>
      </trkpt>
      <trkpt lat="45.1718" lon="-0.5489">
        <ele>31.6</ele>
        <time>2020-09-01T08:06:39Z</time>
      </trkpt>
      <trkpt lat="45.1718" lon="-0.54893">
        <ele>31.6</ele>
        <time>2020-09-01T08:06:40Z</time>
      </trkpt>
      <trkpt lat="45.1718" lon="-0.54894">
        <ele>31.6</ele>
        <time>2020-09-01T08:06:41Z</time>
      </trkpt>
      <trkpt lat="45.17181" lon="-0.54896">
        <ele>31.6</ele>
        <time>2020-09-01T08:06:42Z</time>
      </trkpt>
      <trkpt lat="45.17181" lon="-0.54898">
        <ele>31.6</ele>
        <time>2020-09-01T08:06:44Z</time>
      </trkpt>
      <trkpt lat="45.1718" lon="-0.54901">
        <ele>31.6</ele>
        <time>2020-09-01T08:06:45Z</time>
      </trkpt>
      <trkpt lat="45.1718" lon="-0.54902">
        <ele>31.6</ele>
        <time>2020-09-01T08:06:46Z</time>
      </trkpt>
      <trkpt lat="45.17179" lon="-0.54905">
        <ele>31.6</ele>
        <time>2020-09-01T08:06:47Z</time>
      </trkpt>
      <trkpt lat="45.17179" lon="-0.54906">
        <ele>31.5</ele>
        <time>2020-09-01T08:06:48Z</time>
      </trkpt>
      <trkpt lat="45.17179" lon="-0.54907">
        <ele>31.5</ele>
        <time>2020-09-01T08:06:49Z</time>
      </trkpt>
      <trkpt lat="45.17178" lon="-0.54909">
        <ele>31.5</ele>
        <time>2020-09-01T08:06:51Z</time>
      </trkpt>
      <trkpt lat="45.17177" lon="-0.54911">
        <ele>31.5</ele>
        <time>2020-09-01T08:06:52Z</time>
      </trkpt>
      <trkpt lat="45.17176" lon="-0.54914">
        <ele>31.5</ele>
        <time>2020-09-01T08:06:53Z</time>
      </trkpt>
      <trkpt lat="45.17175" lon="-0.54916">
        <ele>31.5</ele>
        <time>2020-09-01T08:06:55Z</time>
      </trkpt>
      <trkpt lat="45.17174" lon="-0.54919">
        <ele>31.5</ele>
        <time>2020-09-01T08:06:56Z</time>
      </trkpt>
      <trkpt lat="45.17174" lon="-0.5492">
        <ele>31.4</ele>
        <time>2020-09-01T08:06:57Z</time>
      </trkpt>
      <trkpt lat="45.17174" lon="-0.54921">
        <ele>31.4</ele>
        <time>2020-09-01T08:06:58Z</time>
      </trkpt>
      <trkpt lat="45.17173" lon="-0.54924">
        <ele>31.4</ele>
        <time>2020-09-01T08:06:59Z</time>
      </trkpt>
      <trkpt lat="45.17172" lon="-0.54925">
        <ele>31.4</ele>
        <time>2020-09-01T08:07:00Z</time>
      </trkpt>
      <trkpt lat="45.17172" lon="-0.54926">
        <ele>31.3</ele>
        <time>2020-09-01T08:07:01Z</time>
      </trkpt>
      <trkpt lat="45.17171" lon="-0.54928">
        <ele>31.3</ele>
        <time>2020-09-01T08:07:03Z</time>
      </trkpt>
      <trkpt lat="45.17171" lon="-0.5493">
        <ele>31.3</ele>
        <time>2020-09-01T08:07:04Z</time>
      </trkpt>
      <trkpt lat="45.1717" lon="-0.54932">
        <ele>31.3</ele>
        <time>2020-09-01T08:07:05Z</time>
      </trkpt>
      <trkpt lat="45.17169" lon="-0.54936">
        <ele>31.2</ele>
        <time>2020-09-01T08:07:07Z</time>
      </trkpt>
      <trkpt lat="45.17168" lon="-0.54938">
        <ele>31.2</ele>
        <time>2020-09-01T08:07:08Z</time>
      </trkpt>
      <trkpt lat="45.17168" lon="-0.5494">
        <ele>31.1</ele>
        <time>2020-09-01T08:07:09Z</time>
      </trkpt>
      <trkpt lat="45.17167" lon="-0.54943">
        <ele>31.1</ele>
        <time>2020-09-01T08:07:10Z</time>
      </trkpt>
      <trkpt lat="45.17167" lon="-0.54944">
        <ele>31.1</ele>
        <time>2020-09-01T08:07:11Z</time>
      </trkpt>
      <trkpt lat="45.17167" lon="-0.54945">
        <ele>31.1</ele>
        <time>2020-09-01T08:07:12Z</time>
      </trkpt>
      <trkpt lat="45.17167" lon="-0.54948">
        <ele>31</ele>
        <time>2020-09-01T08:07:13Z</time>
      </trkpt>
      <trkpt lat="45.17167" lon="-0.54951">
        <ele>31</ele>
        <time>2020-09-01T08:07:15Z</time>
      </trkpt>
      <trkpt lat="45.17167" lon="-0.54954">
        <ele>30.9</ele>
        <time>2020-09-01T08:07:16Z</time>
      </trkpt>
      <trkpt lat="45.17168" lon="-0.54956">
        <ele>30.9</ele>
        <time>2020-09-01T08:07:17Z</time>
      </trkpt>
      <trkpt lat="45.17168" lon="-0.54957">
        <ele>30.9</ele>
        <time>2020-09-01T08:07:18Z</time>
      </trkpt>
      <trkpt lat="45.17168" lon="-0.5496">
        <ele>30.9</ele>
        <time>2020-09-01T08:07:20Z</time>
      </trkpt>
      <trkpt lat="45.17168" lon="-0.54962">
        <ele>30.8</ele>
        <time>2020-09-01T08:07:21Z</time>
      </trkpt>
      <trkpt lat="45.17169" lon="-0.54966">
        <ele>30.8</ele>
        <time>2020-09-01T08:07:23Z</time>
      </trkpt>
      <trkpt lat="45.17169" lon="-0.54969">
        <ele>30.7</ele>
        <time>2020-09-01T08:07:24Z</time>
      </trkpt>
      <trkpt lat="45.17169" lon="-0.5497">
        <ele>30.7</ele>
        <time>2020-09-01T08:07:25Z</time>
      </trkpt>
      <trkpt lat="45.17169" lon="-0.54971">
        <ele>30.7</ele>
        <time>2020-09-01T08:07:26Z</time>
      </trkpt>
      <trkpt lat="45.1717" lon="-0.54974">
        <ele>30.7</ele>
        <time>2020-09-01T08:07:28Z</time>
      </trkpt>
      <trkpt lat="45.17171" lon="-0.54975">
        <ele>30.6</ele>
        <time>2020-09-01T08:07:29Z</time>
      </trkpt>
      <trkpt lat="45.17172" lon="-0.54976">
        <ele>30.6</ele>
        <time>2020-09-01T08:07:30Z</time>
      </trkpt>
      <trkpt lat="45.17174" lon="-0.54977">
        <ele>30.6</ele>
        <time>2020-09-01T08:07:31Z</time>
      </trkpt>
      <trkpt lat="45.17175" lon="-0.54977">
        <ele>30.6</ele>
        <time>2020-09-01T08:07:32Z</time>
      </trkpt>
      <trkpt lat="45.17176" lon="-0.54978">
        <ele>30.5</ele>
        <time>2020-09-01T08:07:33Z</time>
      </trkpt>
      <trkpt lat="45.17177" lon="-0.54978">
        <ele>30.5</ele>
        <time>2020-09-01T08:07:35Z</time>
      </trkpt>
      <trkpt lat="45.17179" lon="-0.54978">
        <ele>30.5</ele>
        <time>2020-09-01T08:07:36Z</time>
      </trkpt>
      <trkpt lat="45.1718" lon="-0.54977">
        <ele>30.5</ele>
        <time>2020-09-01T08:07:37Z</time>
      </trkpt>
      <trkpt lat="45.17181" lon="-0.54977">
        <ele>30.5</ele>
        <time>2020-09-01T08:07:38Z</time>
      </trkpt>
      <trkpt lat="45.17183" lon="-0.54977">
        <ele>30.5</ele>
        <time>2020-09-01T08:07:39Z</time>
      </trkpt>
      <trkpt lat="45.17183" lon="-0.54976">
        <ele>30.5</ele>
        <time>2020-09-01T08:07:40Z</time>
      </trkpt>
      <trkpt lat="45.17183" lon="-0.54975">
        <ele>30.5</ele>
        <time>2020-09-01T08:07:41Z</time>
      </trkpt>
      <trkpt lat="45.17184" lon="-0.54975">
        <ele>30.5</ele>
        <time>2020-09-01T08:07:43Z</time>
      </trkpt>
      <trkpt lat="45.17183" lon="-0.54975">
        <ele>30.5</ele>
        <time>2020-09-01T08:07:44Z</time>
      </trkpt>
      <trkpt lat="45.17183" lon="-0.54974">
        <ele>30.5</ele>
        <time>2020-09-01T08:07:45Z</time>
      </trkpt>
      <trkpt lat="45.17183" lon="-0.54972">
        <ele>30.5</ele>
        <time>2020-09-01T08:07:47Z</time>
      </trkpt>
      <trkpt lat="45.17183" lon="-0.54972">
        <ele>30.5</ele>
        <time>2020-09-01T08:07:49Z</time>
      </trkpt>
      <trkpt lat="45.17183" lon="-0.54971">
        <ele>30.5</ele>
        <time>2020-09-01T08:07:50Z</time>
      </trkpt>
      <trkpt lat="45.17183" lon="-0.54971">
        <ele>30.5</ele>
        <time>2020-09-01T08:07:51Z</time>
      </trkpt>
      <trkpt lat="45.17182" lon="-0.54971">
        <ele>30.5</ele>
        <time>2020-09-01T08:07:53Z</time>
      </trkpt>
      <trkpt lat="45.17182" lon="-0.54971">
        <ele>30.5</ele>
        <time>2020-09-01T08:07:54Z</time>
      </trkpt>
      <trkpt lat="45.17182" lon="-0.5497">
        <ele>30.5</ele>
        <time>2020-09-01T08:07:55Z</time>
      </trkpt>
      <trkpt lat="45.17183" lon="-0.5497">
        <ele>30.5</ele>
        <time>2020-09-01T08:07:57Z</time>
      </trkpt>
      <trkpt lat="45.17184" lon="-0.5497">
        <ele>30.5</ele>
        <time>2020-09-01T08:07:58Z</time>
      </trkpt>
      <trkpt lat="45.17184" lon="-0.5497">
        <ele>30.5</ele>
        <time>2020-09-01T08:07:59Z</time>
      </trkpt>
      <trkpt lat="45.17186" lon="-0.5497">
        <ele>30.5</ele>
        <time>2020-09-01T08:08:01Z</time>
      </trkpt>
      <trkpt lat="45.17187" lon="-0.54968">
        <ele>30.5</ele>
        <time>2020-09-01T08:08:02Z</time>
      </trkpt>
      <trkpt lat="45.1719" lon="-0.54966">
        <ele>30.5</ele>
        <time>2020-09-01T08:08:04Z</time>
      </trkpt>
      <trkpt lat="45.17192" lon="-0.54964">
        <ele>30.5</ele>
        <time>2020-09-01T08:08:05Z</time>
      </trkpt>
      <trkpt lat="45.17193" lon="-0.54963">
        <ele>30.5</ele>
        <time>2020-09-01T08:08:06Z</time>
      </trkpt>
      <trkpt lat="45.17195" lon="-0.54962">
        <ele>30.5</ele>
        <time>2020-09-01T08:08:08Z</time>
      </trkpt>
      <trkpt lat="45.17196" lon="-0.54961">
        <ele>30.5</ele>
        <time>2020-09-01T08:08:09Z</time>
      </trkpt>
      <trkpt lat="45.17198" lon="-0.54959">
        <ele>30.5</ele>
        <time>2020-09-01T08:08:10Z</time>
      </trkpt>
      <trkpt lat="45.172" lon="-0.54958">
        <ele>30.5</ele>
        <time>2020-09-01T08:08:12Z</time>
      </trkpt>
      <trkpt lat="45.17203" lon="-0.54958">
        <ele>30.5</ele>
        <time>2020-09-01T08:08:13Z</time>
      </trkpt>
      <trkpt lat="45.17205" lon="-0.54956">
        <ele>30.5</ele>
        <time>2020-09-01T08:08:14Z</time>
      </trkpt>
      <trkpt lat="45.17206" lon="-0.54956">
        <ele>30.4</ele>
        <time>2020-09-01T08:08:15Z</time>
      </trkpt>
      <trkpt lat="45.17208" lon="-0.54955">
        <ele>30.4</ele>
        <time>2020-09-01T08:08:16Z</time>
      </trkpt>
      <trkpt lat="45.17211" lon="-0.54954">
        <ele>30.4</ele>
        <time>2020-09-01T08:08:18Z</time>
      </trkpt>
      <trkpt lat="45.17212" lon="-0.54953">
        <ele>30.4</ele>
        <time>2020-09-01T08:08:19Z</time>
      </trkpt>
      <trkpt lat="45.17214" lon="-0.54953">
        <ele>30.4</ele>
        <time>2020-09-01T08:08:20Z</time>
      </trkpt>
      <trkpt lat="45.17215" lon="-0.54953">
        <ele>30.4</ele>
        <time>2020-09-01T08:08:21Z</time>
      </trkpt>
      <trkpt lat="45.17217" lon="-0.54952">
        <ele>30.4</ele>
        <time>2020-09-01T08:08:22Z</time>
      </trkpt>
      <trkpt lat="45.17219" lon="-0.54952">
        <ele>30.3</ele>
        <time>2020-09-01T08:08:24Z</time>
      </trkpt>
      <trkpt lat="45.17221" lon="-0.54952">
        <ele>30.3</ele>
        <time>2020-09-01T08:08:25Z</time>
      </trkpt>
      <trkpt lat="45.17223" lon="-0.54952">
        <ele>30.3</ele>
        <time>2020-09-01T08:08:26Z</time>
      </trkpt>
      <trkpt lat="45.17226" lon="-0.54952">
        <ele>30.3</ele>
        <time>2020-09-01T08:08:28Z</time>
      </trkpt>
      <trkpt lat="45.17227" lon="-0.54952">
        <ele>30.3</ele>
        <time>2020-09-01T08:08:29Z</time>
      </trkpt>
      <trkpt lat="45.17228" lon="-0.54952">
        <ele>30.3</ele>
        <time>2020-09-01T08:08:30Z</time>
      </trkpt>
      <trkpt lat="45.1723" lon="-0.54952">
        <ele>30.2</ele>
        <time>2020-09-01T08:08:31Z</time>
      </trkpt>
      <trkpt lat="45.17231" lon="-0.54952">
        <ele>30.2</ele>
        <time>2020-09-01T08:08:32Z</time>
      </trkpt>
      <trkpt lat="45.17233" lon="-0.54952">
        <ele>30.2</ele>
        <time>2020-09-01T08:08:34Z</time>
      </trkpt>
      <trkpt lat="45.17235" lon="-0.54952">
        <ele>30.2</ele>
        <time>2020-09-01T08:08:35Z</time>
      </trkpt>
      <trkpt lat="45.17236" lon="-0.54952">
        <ele>30.2</ele>
        <time>2020-09-01T08:08:36Z</time>
      </trkpt>
      <trkpt lat="45.17237" lon="-0.54952">
        <ele>30.2</ele>
        <time>2020-09-01T08:08:37Z</time>
      </trkpt>
      <trkpt lat="45.17238" lon="-0.54952">
        <ele>30.2</ele>
        <time>2020-09-01T08:08:38Z</time>
      </trkpt>
      <trkpt lat="45.17239" lon="-0.54952">
        <ele>30.2</ele>
        <time>2020-09-01T08:08:39Z</time>
      </trkpt>
      <trkpt lat="45.17242" lon="-0.54953">
        <ele>30.2</ele>
        <time>2020-09-01T08:08:40Z</time>
      </trkpt>
      <trkpt lat="45.17243" lon="-0.54953">
        <ele>30.2</ele>
        <time>2020-09-01T08:08:42Z</time>
      </trkpt>
      <trkpt lat="45.17245" lon="-0.54953">
        <ele>30.2</ele>
        <time>2020-09-01T08:08:44Z</time>
      </trkpt>
      <trkpt lat="45.17246" lon="-0.54953">
        <ele>30.2</ele>
        <time>2020-09-01T08:08:45Z</time>
      </trkpt>
      <trkpt lat="45.17247" lon="-0.54953">
        <ele>30.2</ele>
        <time>2020-09-01T08:08:46Z</time>
      </trkpt>
      <trkpt lat="45.17249" lon="-0.54954">
        <ele>30.2</ele>
        <time>2020-09-01T08:08:47Z</time>
      </trkpt>
      <trkpt lat="45.17253" lon="-0.54955">
        <ele>30.1</ele>
        <time>2020-09-01T08:08:49Z</time>
      </trkpt>
      <trkpt lat="45.17254" lon="-0.54955">
        <ele>30.1</ele>
        <time>2020-09-01T08:08:50Z</time>
      </trkpt>
      <trkpt lat="45.17255" lon="-0.54955">
        <ele>30.1</ele>
        <time>2020-09-01T08:08:51Z</time>
      </trkpt>
      <trkpt lat="45.17256" lon="-0.54956">
        <ele>30.1</ele>
        <time>2020-09-01T08:08:52Z</time>
      </trkpt>
      <trkpt lat="45.17257" lon="-0.54956">
        <ele>30.1</ele>
        <time>2020-09-01T08:08:53Z</time>
      </trkpt>
      <trkpt lat="45.1726" lon="-0.54956">
        <ele>30.1</ele>
        <time>2020-09-01T08:08:55Z</time>
      </trkpt>
      <trkpt lat="45.17262" lon="-0.54956">
        <ele>30.1</ele>
        <time>2020-09-01T08:08:56Z</time>
      </trkpt>
      <trkpt lat="45.17263" lon="-0.54956">
        <ele>30.1</ele>
        <time>2020-09-01T08:08:57Z</time>
      </trkpt>
      <trkpt lat="45.17265" lon="-0.54956">
        <ele>30.1</ele>
        <time>2020-09-01T08:08:59Z</time>
      </trkpt>
      <trkpt lat="45.17268" lon="-0.54956">
        <ele>30.1</ele>
        <time>2020-09-01T08:09:01Z</time>
      </trkpt>
      <trkpt lat="45.1727" lon="-0.54956">
        <ele>30.1</ele>
        <time>2020-09-01T08:09:02Z</time>
      </trkpt>
      <trkpt lat="45.17272" lon="-0.54957">
        <ele>30.1</ele>
        <time>2020-09-01T08:09:03Z</time>
      </trkpt>
      <trkpt lat="45.17273" lon="-0.54957">
        <ele>30.1</ele>
        <time>2020-09-01T08:09:04Z</time>
      </trkpt>
      <trkpt lat="45.17274" lon="-0.54957">
        <ele>30.1</ele>
        <time>2020-09-01T08:09:05Z</time>
      </trkpt>
      <trkpt lat="45.17276" lon="-0.54957">
        <ele>30.1</ele>
        <time>2020-09-01T08:09:06Z</time>
      </trkpt>
      <trkpt lat="45.17277" lon="-0.54957">
        <ele>30.2</ele>
        <time>2020-09-01T08:09:07Z</time>
      </trkpt>
      <trkpt lat="45.17279" lon="-0.54957">
        <ele>30.2</ele>
        <time>2020-09-01T08:09:09Z</time>
      </trkpt>
      <trkpt lat="45.1728" lon="-0.54957">
        <ele>30.2</ele>
        <time>2020-09-01T08:09:10Z</time>
      </trkpt>
      <trkpt lat="45.1728" lon="-0.54957">
        <ele>30.2</ele>
        <time>2020-09-01T08:09:11Z</time>
      </trkpt>
      <trkpt lat="45.17282" lon="-0.54956">
        <ele>30.2</ele>
        <time>2020-09-01T08:09:12Z</time>
      </trkpt>
      <trkpt lat="45.17284" lon="-0.54956">
        <ele>30.2</ele>
        <time>2020-09-01T08:09:14Z</time>
      </trkpt>
      <trkpt lat="45.17285" lon="-0.54956">
        <ele>30.2</ele>
        <time>2020-09-01T08:09:15Z</time>
      </trkpt>
      <trkpt lat="45.17287" lon="-0.54955">
        <ele>30.2</ele>
        <time>2020-09-01T08:09:16Z</time>
      </trkpt>
      <trkpt lat="45.17288" lon="-0.54955">
        <ele>30.2</ele>
        <time>2020-09-01T08:09:17Z</time>
      </trkpt>
      <trkpt lat="45.1729" lon="-0.54955">
        <ele>30.2</ele>
        <time>2020-09-01T08:09:19Z</time>
      </trkpt>
      <trkpt lat="45.17291" lon="-0.54955">
        <ele>30.3</ele>
        <time>2020-09-01T08:09:20Z</time>
      </trkpt>
      <trkpt lat="45.17293" lon="-0.54955">
        <ele>30.3</ele>
        <time>2020-09-01T08:09:21Z</time>
      </trkpt>
      <trkpt lat="45.17294" lon="-0.54955">
        <ele>30.3</ele>
        <time>2020-09-01T08:09:22Z</time>
      </trkpt>
      <trkpt lat="45.17297" lon="-0.54955">
        <ele>30.3</ele>
        <time>2020-09-01T08:09:24Z</time>
      </trkpt>
      <trkpt lat="45.17298" lon="-0.54955">
        <ele>30.3</ele>
        <time>2020-09-01T08:09:25Z</time>
      </trkpt>
      <trkpt lat="45.173" lon="-0.54955">
        <ele>30.3</ele>
        <time>2020-09-01T08:09:27Z</time>
      </trkpt>
      <trkpt lat="45.17301" lon="-0.54954">
        <ele>30.4</ele>
        <time>2020-09-01T08:09:28Z</time>
      </trkpt>
      <trkpt lat="45.17303" lon="-0.54954">
        <ele>30.4</ele>
        <time>2020-09-01T08:09:29Z</time>
      </trkpt>
      <trkpt lat="45.17304" lon="-0.54954">
        <ele>30.4</ele>
        <time>2020-09-01T08:09:30Z</time>
      </trkpt>
      <trkpt lat="45.17307" lon="-0.54953">
        <ele>30.4</ele>
        <time>2020-09-01T08:09:32Z</time>
      </trkpt>
      <trkpt lat="45.17308" lon="-0.54953">
        <ele>30.4</ele>
        <time>2020-09-01T08:09:33Z</time>
      </trkpt>
      <trkpt lat="45.17309" lon="-0.54953">
        <ele>30.4</ele>
        <time>2020-09-01T08:09:34Z</time>
      </trkpt>
      <trkpt lat="45.1731" lon="-0.54953">
        <ele>30.4</ele>
        <time>2020-09-01T08:09:35Z</time>
      </trkpt>
      <trkpt lat="45.17312" lon="-0.54952">
        <ele>30.5</ele>
        <time>2020-09-01T08:09:37Z</time>
      </trkpt>
      <trkpt lat="45.17313" lon="-0.54952">
        <ele>30.5</ele>
        <time>2020-09-01T08:09:38Z</time>
      </trkpt>
      <trkpt lat="45.17316" lon="-0.54951">
        <ele>30.5</ele>
        <time>2020-09-01T08:09:40Z</time>
      </trkpt>
      <trkpt lat="45.17317" lon="-0.54951">
        <ele>30.5</ele>
        <time>2020-09-01T08:09:41Z</time>
      </trkpt>
      <trkpt lat="45.17318" lon="-0.54951">
        <ele>30.5</ele>
        <time>2020-09-01T08:09:42Z</time>
      </trkpt>
      <trkpt lat="45.17319" lon="-0.54951">
        <ele>30.6</ele>
        <time>2020-09-01T08:09:43Z</time>
      </trkpt>
      <trkpt lat="45.17321" lon="-0.5495">
        <ele>30.6</ele>
        <time>2020-09-01T08:09:44Z</time>
      </trkpt>
      <trkpt lat="45.17322" lon="-0.5495">
        <ele>30.6</ele>
        <time>2020-09-01T08:09:45Z</time>
      </trkpt>
      <trkpt lat="45.17323" lon="-0.5495">
        <ele>30.7</ele>
        <time>2020-09-01T08:09:46Z</time>
      </trkpt>
      <trkpt lat="45.17324" lon="-0.54949">
        <ele>30.7</ele>
        <time>2020-09-01T08:09:47Z</time>
      </trkpt>
      <trkpt lat="45.17326" lon="-0.54948">
        <ele>30.7</ele>
        <time>2020-09-01T08:09:48Z</time>
      </trkpt>
      <trkpt lat="45.17328" lon="-0.54947">
        <ele>30.7</ele>
        <time>2020-09-01T08:09:49Z</time>
      </trkpt>
      <trkpt lat="45.17329" lon="-0.54947">
        <ele>30.8</ele>
        <time>2020-09-01T08:09:50Z</time>
      </trkpt>
      <trkpt lat="45.17329" lon="-0.54947">
        <ele>30.8</ele>
        <time>2020-09-01T08:09:51Z</time>
      </trkpt>
      <trkpt lat="45.17331" lon="-0.54946">
        <ele>30.8</ele>
        <time>2020-09-01T08:09:52Z</time>
      </trkpt>
      <trkpt lat="45.17332" lon="-0.54946">
        <ele>30.8</ele>
        <time>2020-09-01T08:09:53Z</time>
      </trkpt>
      <trkpt lat="45.17334" lon="-0.54944">
        <ele>30.9</ele>
        <time>2020-09-01T08:09:54Z</time>
      </trkpt>
      <trkpt lat="45.17335" lon="-0.54944">
        <ele>30.9</ele>
        <time>2020-09-01T08:09:55Z</time>
      </trkpt>
      <trkpt lat="45.17336" lon="-0.54943">
        <ele>30.9</ele>
        <time>2020-09-01T08:09:56Z</time>
      </trkpt>
      <trkpt lat="45.17337" lon="-0.54942">
        <ele>30.9</ele>
        <time>2020-09-01T08:09:57Z</time>
      </trkpt>
      <trkpt lat="45.17339" lon="-0.54941">
        <ele>30.9</ele>
        <time>2020-09-01T08:09:58Z</time>
      </trkpt>
      <trkpt lat="45.17342" lon="-0.5494">
        <ele>31</ele>
        <time>2020-09-01T08:10:00Z</time>
      </trkpt>
      <trkpt lat="45.17344" lon="-0.54939">
        <ele>31</ele>
        <time>2020-09-01T08:10:01Z</time>
      </trkpt>
      <trkpt lat="45.17345" lon="-0.54938">
        <ele>31</ele>
        <time>2020-09-01T08:10:02Z</time>
      </trkpt>
      <trkpt lat="45.17346" lon="-0.54938">
        <ele>31</ele>
        <time>2020-09-01T08:10:03Z</time>
      </trkpt>
      <trkpt lat="45.17348" lon="-0.54937">
        <ele>31</ele>
        <time>2020-09-01T08:10:05Z</time>
      </trkpt>
      <trkpt lat="45.1735" lon="-0.54938">
        <ele>31</ele>
        <time>2020-09-01T08:10:07Z</time>
      </trkpt>
      <trkpt lat="45.1735" lon="-0.54938">
        <ele>31</ele>
        <time>2020-09-01T08:10:08Z</time>
      </trkpt>
      <trkpt lat="45.1735" lon="-0.54938">
        <ele>31</ele>
        <time>2020-09-01T08:10:10Z</time>
      </trkpt>
      <trkpt lat="45.17349" lon="-0.5494">
        <ele>31</ele>
        <time>2020-09-01T08:10:11Z</time>
      </trkpt>
      <trkpt lat="45.1735" lon="-0.54942">
        <ele>31</ele>
        <time>2020-09-01T08:10:12Z</time>
      </trkpt>
      <trkpt lat="45.1735" lon="-0.54944">
        <ele>30.9</ele>
        <time>2020-09-01T08:10:13Z</time>
      </trkpt>
      <trkpt lat="45.1735" lon="-0.54946">
        <ele>30.9</ele>
        <time>2020-09-01T08:10:14Z</time>
      </trkpt>
      <trkpt lat="45.1735" lon="-0.54948">
        <ele>30.9</ele>
        <time>2020-09-01T08:10:15Z</time>
      </trkpt>
      <trkpt lat="45.17351" lon="-0.5495">
        <ele>30.9</ele>
        <time>2020-09-01T08:10:16Z</time>
      </trkpt>
      <trkpt lat="45.17351" lon="-0.54953">
        <ele>30.9</ele>
        <time>2020-09-01T08:10:18Z</time>
      </trkpt>
      <trkpt lat="45.17351" lon="-0.54954">
        <ele>30.9</ele>
        <time>2020-09-01T08:10:19Z</time>
      </trkpt>
      <trkpt lat="45.17351" lon="-0.54956">
        <ele>30.9</ele>
        <time>2020-09-01T08:10:20Z</time>
      </trkpt>
      <trkpt lat="45.17351" lon="-0.54958">
        <ele>30.9</ele>
        <time>2020-09-01T08:10:22Z</time>
      </trkpt>
      <trkpt lat="45.17351" lon="-0.5496">
        <ele>30.9</ele>
        <time>2020-09-01T08:10:23Z</time>
      </trkpt>
      <trkpt lat="45.17351" lon="-0.54962">
        <ele>30.9</ele>
        <time>2020-09-01T08:10:25Z</time>
      </trkpt>
      <trkpt lat="45.17351" lon="-0.54963">
        <ele>30.9</ele>
        <time>2020-09-01T08:10:26Z</time>
      </trkpt>
      <trkpt lat="45.17352" lon="-0.54966">
        <ele>30.9</ele>
        <time>2020-09-01T08:10:27Z</time>
      </trkpt>
      <trkpt lat="45.17352" lon="-0.54967">
        <ele>30.9</ele>
        <time>2020-09-01T08:10:28Z</time>
      </trkpt>
      <trkpt lat="45.17352" lon="-0.54968">
        <ele>30.9</ele>
        <time>2020-09-01T08:10:29Z</time>
      </trkpt>
      <trkpt lat="45.17352" lon="-0.54969">
        <ele>30.9</ele>
        <time>2020-09-01T08:10:30Z</time>
      </trkpt>
      <trkpt lat="45.17352" lon="-0.54972">
        <ele>30.9</ele>
        <time>2020-09-01T08:10:32Z</time>
      </trkpt>
      <trkpt lat="45.17352" lon="-0.54973">
        <ele>30.9</ele>
        <time>2020-09-01T08:10:33Z</time>
      </trkpt>
      <trkpt lat="45.17352" lon="-0.54974">
        <ele>30.9</ele>
        <time>2020-09-01T08:10:34Z</time>
      </trkpt>
      <trkpt lat="45.17353" lon="-0.54976">
        <ele>30.9</ele>
        <time>2020-09-01T08:10:35Z</time>
      </trkpt>
      <trkpt lat="45.17354" lon="-0.54979">
        <ele>30.8</ele>
        <time>2020-09-01T08:10:37Z</time>
      </trkpt>
      <trkpt lat="45.17354" lon="-0.5498">
        <ele>30.8</ele>
        <time>2020-09-01T08:10:38Z</time>
      </trkpt>
      <trkpt lat="45.17355" lon="-0.54982">
        <ele>30.8</ele>
        <time>2020-09-01T08:10:39Z</time>
      </trkpt>
      <trkpt lat="45.17355" lon="-0.54983">
        <ele>30.8</ele>
        <time>2020-09-01T08:10:40Z</time>
      </trkpt>
      <trkpt lat="45.17356" lon="-0.54985">
        <ele>30.8</ele>
        <time>2020-09-01T08:10:41Z</time>
      </trkpt>
      <trkpt lat="45.17356" lon="-0.54988">
        <ele>30.8</ele>
        <time>2020-09-01T08:10:42Z</time>
      </trkpt>
      <trkpt lat="45.17357" lon="-0.5499">
        <ele>30.8</ele>
        <time>2020-09-01T08:10:43Z</time>
      </trkpt>
      <trkpt lat="45.17357" lon="-0.54992">
        <ele>30.8</ele>
        <time>2020-09-01T08:10:45Z</time>
      </trkpt>
      <trkpt lat="45.17358" lon="-0.54996">
        <ele>30.8</ele>
        <time>2020-09-01T08:10:47Z</time>
      </trkpt>
      <trkpt lat="45.17359" lon="-0.54998">
        <ele>30.8</ele>
        <time>2020-09-01T08:10:48Z</time>
      </trkpt>
      <trkpt lat="45.17359" lon="-0.55">
        <ele>30.8</ele>
        <time>2020-09-01T08:10:49Z</time>
      </trkpt>
      <trkpt lat="45.17359" lon="-0.55002">
        <ele>30.8</ele>
        <time>2020-09-01T08:10:50Z</time>
      </trkpt>
      <trkpt lat="45.17359" lon="-0.55005">
        <ele>30.8</ele>
        <time>2020-09-01T08:10:51Z</time>
      </trkpt>
      <trkpt lat="45.1736" lon="-0.55009">
        <ele>30.8</ele>
        <time>2020-09-01T08:10:53Z</time>
      </trkpt>
      <trkpt lat="45.17361" lon="-0.55012">
        <ele>30.7</ele>
        <time>2020-09-01T08:10:54Z</time>
      </trkpt>
      <trkpt lat="45.17362" lon="-0.55017">
        <ele>30.7</ele>
        <time>2020-09-01T08:10:57Z</time>
      </trkpt>
      <trkpt lat="45.17362" lon="-0.55019">
        <ele>30.7</ele>
        <time>2020-09-01T08:10:58Z</time>
      </trkpt>
      <trkpt lat="45.17363" lon="-0.55022">
        <ele>30.7</ele>
        <time>2020-09-01T08:11:00Z</time>
      </trkpt>
      <trkpt lat="45.17364" lon="-0.55027">
        <ele>30.7</ele>
        <time>2020-09-01T08:11:02Z</time>
      </trkpt>
      <trkpt lat="45.17364" lon="-0.55028">
        <ele>30.7</ele>
        <time>2020-09-01T08:11:03Z</time>
      </trkpt>
      <trkpt lat="45.17365" lon="-0.5503">
        <ele>30.7</ele>
        <time>2020-09-01T08:11:04Z</time>
      </trkpt>
      <trkpt lat="45.17365" lon="-0.55031">
        <ele>30.7</ele>
        <time>2020-09-01T08:11:05Z</time>
      </trkpt>
      <trkpt lat="45.17366" lon="-0.55034">
        <ele>30.7</ele>
        <time>2020-09-01T08:11:06Z</time>
      </trkpt>
      <trkpt lat="45.17366" lon="-0.55035">
        <ele>30.7</ele>
        <time>2020-09-01T08:11:07Z</time>
      </trkpt>
      <trkpt lat="45.17367" lon="-0.55036">
        <ele>30.7</ele>
        <time>2020-09-01T08:11:08Z</time>
      </trkpt>
      <trkpt lat="45.17367" lon="-0.5504">
        <ele>30.7</ele>
        <time>2020-09-01T08:11:09Z</time>
      </trkpt>
      <trkpt lat="45.17367" lon="-0.55041">
        <ele>30.7</ele>
        <time>2020-09-01T08:11:11Z</time>
      </trkpt>
      <trkpt lat="45.17367" lon="-0.55043">
        <ele>30.6</ele>
        <time>2020-09-01T08:11:12Z</time>
      </trkpt>
      <trkpt lat="45.17367" lon="-0.55045">
        <ele>30.6</ele>
        <time>2020-09-01T08:11:14Z</time>
      </trkpt>
      <trkpt lat="45.17368" lon="-0.55047">
        <ele>30.6</ele>
        <time>2020-09-01T08:11:15Z</time>
      </trkpt>
      <trkpt lat="45.17368" lon="-0.55048">
        <ele>30.6</ele>
        <time>2020-09-01T08:11:17Z</time>
      </trkpt>
      <trkpt lat="45.17368" lon="-0.5505">
        <ele>30.6</ele>
        <time>2020-09-01T08:11:18Z</time>
      </trkpt>
      <trkpt lat="45.17368" lon="-0.55052">
        <ele>30.6</ele>
        <time>2020-09-01T08:11:19Z</time>
      </trkpt>
      <trkpt lat="45.17368" lon="-0.55053">
        <ele>30.6</ele>
        <time>2020-09-01T08:11:20Z</time>
      </trkpt>
      <trkpt lat="45.17368" lon="-0.55055">
        <ele>30.6</ele>
        <time>2020-09-01T08:11:21Z</time>
      </trkpt>
      <trkpt lat="45.17369" lon="-0.55058">
        <ele>30.6</ele>
        <time>2020-09-01T08:11:22Z</time>
      </trkpt>
      <trkpt lat="45.1737" lon="-0.5506">
        <ele>30.6</ele>
        <time>2020-09-01T08:11:23Z</time>
      </trkpt>
      <trkpt lat="45.1737" lon="-0.55062">
        <ele>30.6</ele>
        <time>2020-09-01T08:11:24Z</time>
      </trkpt>
      <trkpt lat="45.17371" lon="-0.55064">
        <ele>30.6</ele>
        <time>2020-09-01T08:11:25Z</time>
      </trkpt>
      <trkpt lat="45.17371" lon="-0.55067">
        <ele>30.6</ele>
        <time>2020-09-01T08:11:26Z</time>
      </trkpt>
      <trkpt lat="45.17372" lon="-0.5507">
        <ele>30.6</ele>
        <time>2020-09-01T08:11:28Z</time>
      </trkpt>
      <trkpt lat="45.17372" lon="-0.55071">
        <ele>30.6</ele>
        <time>2020-09-01T08:11:29Z</time>
      </trkpt>
      <trkpt lat="45.17373" lon="-0.55073">
        <ele>30.6</ele>
        <time>2020-09-01T08:11:30Z</time>
      </trkpt>
      <trkpt lat="45.17374" lon="-0.55076">
        <ele>30.5</ele>
        <time>2020-09-01T08:11:32Z</time>
      </trkpt>
      <trkpt lat="45.17374" lon="-0.55077">
        <ele>30.5</ele>
        <time>2020-09-01T08:11:33Z</time>
      </trkpt>
      <trkpt lat="45.17375" lon="-0.55078">
        <ele>30.5</ele>
        <time>2020-09-01T08:11:34Z</time>
      </trkpt>
      <trkpt lat="45.17375" lon="-0.55081">
        <ele>30.5</ele>
        <time>2020-09-01T08:11:36Z</time>
      </trkpt>
      <trkpt lat="45.17376" lon="-0.55084">
        <ele>30.5</ele>
        <time>2020-09-01T08:11:37Z</time>
      </trkpt>
      <trkpt lat="45.17377" lon="-0.55085">
        <ele>30.5</ele>
        <time>2020-09-01T08:11:38Z</time>
      </trkpt>
      <trkpt lat="45.17378" lon="-0.55086">
        <ele>30.5</ele>
        <time>2020-09-01T08:11:39Z</time>
      </trkpt>
      <trkpt lat="45.17378" lon="-0.55089">
        <ele>30.5</ele>
        <time>2020-09-01T08:11:40Z</time>
      </trkpt>
      <trkpt lat="45.17379" lon="-0.55091">
        <ele>30.5</ele>
        <time>2020-09-01T08:11:42Z</time>
      </trkpt>
      <trkpt lat="45.1738" lon="-0.55092">
        <ele>30.5</ele>
        <time>2020-09-01T08:11:43Z</time>
      </trkpt>
      <trkpt lat="45.1738" lon="-0.55094">
        <ele>30.5</ele>
        <time>2020-09-01T08:11:44Z</time>
      </trkpt>
      <trkpt lat="45.17381" lon="-0.55096">
        <ele>30.5</ele>
        <time>2020-09-01T08:11:46Z</time>
      </trkpt>
      <trkpt lat="45.17382" lon="-0.55099">
        <ele>30.5</ele>
        <time>2020-09-01T08:11:47Z</time>
      </trkpt>
      <trkpt lat="45.17383" lon="-0.551">
        <ele>30.5</ele>
        <time>2020-09-01T08:11:49Z</time>
      </trkpt>
      <trkpt lat="45.17383" lon="-0.55101">
        <ele>30.5</ele>
        <time>2020-09-01T08:11:50Z</time>
      </trkpt>
      <trkpt lat="45.17385" lon="-0.55105">
        <ele>30.5</ele>
        <time>2020-09-01T08:11:52Z</time>
      </trkpt>
      <trkpt lat="45.17386" lon="-0.55107">
        <ele>30.4</ele>
        <time>2020-09-01T08:11:54Z</time>
      </trkpt>
      <trkpt lat="45.17386" lon="-0.55108">
        <ele>30.4</ele>
        <time>2020-09-01T08:11:55Z</time>
      </trkpt>
      <trkpt lat="45.17386" lon="-0.55109">
        <ele>30.4</ele>
        <time>2020-09-01T08:11:56Z</time>
      </trkpt>
      <trkpt lat="45.17387" lon="-0.5511">
        <ele>30.4</ele>
        <time>2020-09-01T08:11:57Z</time>
      </trkpt>
      <trkpt lat="45.17387" lon="-0.55112">
        <ele>30.4</ele>
        <time>2020-09-01T08:11:58Z</time>
      </trkpt>
      <trkpt lat="45.17387" lon="-0.55113">
        <ele>30.4</ele>
        <time>2020-09-01T08:11:59Z</time>
      </trkpt>
      <trkpt lat="45.17388" lon="-0.55115">
        <ele>30.4</ele>
        <time>2020-09-01T08:12:01Z</time>
      </trkpt>
      <trkpt lat="45.17389" lon="-0.55119">
        <ele>30.4</ele>
        <time>2020-09-01T08:12:02Z</time>
      </trkpt>
      <trkpt lat="45.1739" lon="-0.55121">
        <ele>30.4</ele>
        <time>2020-09-01T08:12:04Z</time>
      </trkpt>
      <trkpt lat="45.1739" lon="-0.55123">
        <ele>30.4</ele>
        <time>2020-09-01T08:12:05Z</time>
      </trkpt>
      <trkpt lat="45.1739" lon="-0.55125">
        <ele>30.4</ele>
        <time>2020-09-01T08:12:06Z</time>
      </trkpt>
      <trkpt lat="45.17391" lon="-0.55128">
        <ele>30.4</ele>
        <time>2020-09-01T08:12:07Z</time>
      </trkpt>
      <trkpt lat="45.17391" lon="-0.5513">
        <ele>30.4</ele>
        <time>2020-09-01T08:12:08Z</time>
      </trkpt>
      <trkpt lat="45.1739" lon="-0.55132">
        <ele>30.4</ele>
        <time>2020-09-01T08:12:10Z</time>
      </trkpt>
      <trkpt lat="45.17391" lon="-0.55134">
        <ele>30.4</ele>
        <time>2020-09-01T08:12:11Z</time>
      </trkpt>
      <trkpt lat="45.17391" lon="-0.55136">
        <ele>30.4</ele>
        <time>2020-09-01T08:12:12Z</time>
      </trkpt>
      <trkpt lat="45.17392" lon="-0.55138">
        <ele>30.4</ele>
        <time>2020-09-01T08:12:13Z</time>
      </trkpt>
      <trkpt lat="45.17392" lon="-0.55139">
        <ele>30.3</ele>
        <time>2020-09-01T08:12:14Z</time>
      </trkpt>
      <trkpt lat="45.17393" lon="-0.55141">
        <ele>30.3</ele>
        <time>2020-09-01T08:12:15Z</time>
      </trkpt>
      <trkpt lat="45.17394" lon="-0.55145">
        <ele>30.3</ele>
        <time>2020-09-01T08:12:17Z</time>
      </trkpt>
      <trkpt lat="45.17394" lon="-0.55147">
        <ele>30.3</ele>
        <time>2020-09-01T08:12:18Z</time>
      </trkpt>
      <trkpt lat="45.17394" lon="-0.55149">
        <ele>30.3</ele>
        <time>2020-09-01T08:12:19Z</time>
      </trkpt>
      <trkpt lat="45.17394" lon="-0.55151">
        <ele>30.3</ele>
        <time>2020-09-01T08:12:20Z</time>
      </trkpt>
      <trkpt lat="45.17394" lon="-0.55154">
        <ele>30.3</ele>
        <time>2020-09-01T08:12:21Z</time>
      </trkpt>
      <trkpt lat="45.17394" lon="-0.55159">
        <ele>30.3</ele>
        <time>2020-09-01T08:12:22Z</time>
      </trkpt>
      <trkpt lat="45.17394" lon="-0.5516">
        <ele>30.3</ele>
        <time>2020-09-01T08:12:23Z</time>
      </trkpt>
      <trkpt lat="45.17394" lon="-0.55164">
        <ele>30.3</ele>
        <time>2020-09-01T08:12:25Z</time>
      </trkpt>
      <trkpt lat="45.17394" lon="-0.55165">
        <ele>30.3</ele>
        <time>2020-09-01T08:12:26Z</time>
      </trkpt>
      <trkpt lat="45.17394" lon="-0.5517">
        <ele>30.3</ele>
        <time>2020-09-01T08:12:27Z</time>
      </trkpt>
      <trkpt lat="45.17394" lon="-0.55171">
        <ele>30.3</ele>
        <time>2020-09-01T08:12:28Z</time>
      </trkpt>
      <trkpt lat="45.17394" lon="-0.55174">
        <ele>30.2</ele>
        <time>2020-09-01T08:12:30Z</time>
      </trkpt>
      <trkpt lat="45.17395" lon="-0.5518">
        <ele>30.2</ele>
        <time>2020-09-01T08:12:32Z</time>
      </trkpt>
      <trkpt lat="45.17395" lon="-0.55183">
        <ele>30.2</ele>
        <time>2020-09-01T08:12:33Z</time>
      </trkpt>
      <trkpt lat="45.17396" lon="-0.55185">
        <ele>30.2</ele>
        <time>2020-09-01T08:12:35Z</time>
      </trkpt>
      <trkpt lat="45.17396" lon="-0.55187">
        <ele>30.2</ele>
        <time>2020-09-01T08:12:36Z</time>
      </trkpt>
      <trkpt lat="45.17397" lon="-0.5519">
        <ele>30.2</ele>
        <time>2020-09-01T08:12:37Z</time>
      </trkpt>
      <trkpt lat="45.17397" lon="-0.55192">
        <ele>30.2</ele>
        <time>2020-09-01T08:12:38Z</time>
      </trkpt>
      <trkpt lat="45.17397" lon="-0.55195">
        <ele>30.2</ele>
        <time>2020-09-01T08:12:40Z</time>
      </trkpt>
      <trkpt lat="45.17398" lon="-0.55196">
        <ele>30.2</ele>
        <time>2020-09-01T08:12:41Z</time>
      </trkpt>
      <trkpt lat="45.17398" lon="-0.55199">
        <ele>30.2</ele>
        <time>2020-09-01T08:12:42Z</time>
      </trkpt>
      <trkpt lat="45.17399" lon="-0.55202">
        <ele>30.2</ele>
        <time>2020-09-01T08:12:43Z</time>
      </trkpt>
      <trkpt lat="45.17399" lon="-0.55203">
        <ele>30.2</ele>
        <time>2020-09-01T08:12:44Z</time>
      </trkpt>
      <trkpt lat="45.17399" lon="-0.55204">
        <ele>30.2</ele>
        <time>2020-09-01T08:12:45Z</time>
      </trkpt>
      <trkpt lat="45.174" lon="-0.55207">
        <ele>30.1</ele>
        <time>2020-09-01T08:12:46Z</time>
      </trkpt>
      <trkpt lat="45.17401" lon="-0.55208">
        <ele>30.1</ele>
        <time>2020-09-01T08:12:48Z</time>
      </trkpt>
      <trkpt lat="45.17401" lon="-0.55211">
        <ele>30.1</ele>
        <time>2020-09-01T08:12:50Z</time>
      </trkpt>
      <trkpt lat="45.17401" lon="-0.55213">
        <ele>30.1</ele>
        <time>2020-09-01T08:12:51Z</time>
      </trkpt>
      <trkpt lat="45.17402" lon="-0.55215">
        <ele>30.1</ele>
        <time>2020-09-01T08:12:52Z</time>
      </trkpt>
      <trkpt lat="45.17402" lon="-0.55216">
        <ele>30.1</ele>
        <time>2020-09-01T08:12:53Z</time>
      </trkpt>
      <trkpt lat="45.17402" lon="-0.55219">
        <ele>30.1</ele>
        <time>2020-09-01T08:12:54Z</time>
      </trkpt>
      <trkpt lat="45.17401" lon="-0.5522">
        <ele>30.1</ele>
        <time>2020-09-01T08:12:56Z</time>
      </trkpt>
      <trkpt lat="45.174" lon="-0.55222">
        <ele>30.1</ele>
        <time>2020-09-01T08:12:57Z</time>
      </trkpt>
      <trkpt lat="45.174" lon="-0.55223">
        <ele>30.1</ele>
        <time>2020-09-01T08:12:58Z</time>
      </trkpt>
      <trkpt lat="45.17399" lon="-0.55223">
        <ele>30.1</ele>
        <time>2020-09-01T08:12:59Z</time>
      </trkpt>
      <trkpt lat="45.17399" lon="-0.55223">
        <ele>30.1</ele>
        <time>2020-09-01T08:13:00Z</time>
      </trkpt>
      <trkpt lat="45.17399" lon="-0.55222">
        <ele>30.1</ele>
        <time>2020-09-01T08:13:03Z</time>
      </trkpt>
      <trkpt lat="45.17399" lon="-0.55222">
        <ele>30.1</ele>
        <time>2020-09-01T08:13:04Z</time>
      </trkpt>
      <trkpt lat="45.17399" lon="-0.55221">
        <ele>30.1</ele>
        <time>2020-09-01T08:13:05Z</time>
      </trkpt>
      <trkpt lat="45.17399" lon="-0.5522">
        <ele>30.1</ele>
        <time>2020-09-01T08:13:07Z</time>
      </trkpt>
      <trkpt lat="45.17399" lon="-0.5522">
        <ele>30.1</ele>
        <time>2020-09-01T08:13:08Z</time>
      </trkpt>
      <trkpt lat="45.17399" lon="-0.5522">
        <ele>30.1</ele>
        <time>2020-09-01T08:13:10Z</time>
      </trkpt>
      <trkpt lat="45.174" lon="-0.55219">
        <ele>30.1</ele>
        <time>2020-09-01T08:13:11Z</time>
      </trkpt>
      <trkpt lat="45.174" lon="-0.55219">
        <ele>30.1</ele>
        <time>2020-09-01T08:13:12Z</time>
      </trkpt>
      <trkpt lat="45.174" lon="-0.55219">
        <ele>30.1</ele>
        <time>2020-09-01T08:13:14Z</time>
      </trkpt>
      <trkpt lat="45.174" lon="-0.55219">
        <ele>30.1</ele>
        <time>2020-09-01T08:13:15Z</time>
      </trkpt>
      <trkpt lat="45.174" lon="-0.5522">
        <ele>30.1</ele>
        <time>2020-09-01T08:13:16Z</time>
      </trkpt>
      <trkpt lat="45.17401" lon="-0.5522">
        <ele>30.1</ele>
        <time>2020-09-01T08:13:18Z</time>
      </trkpt>
      <trkpt lat="45.17401" lon="-0.5522">
        <ele>30.1</ele>
        <time>2020-09-01T08:13:19Z</time>
      </trkpt>
      <trkpt lat="45.17401" lon="-0.55221">
        <ele>30.1</ele>
        <time>2020-09-01T08:13:21Z</time>
      </trkpt>
      <trkpt lat="45.17401" lon="-0.55221">
        <ele>30.1</ele>
        <time>2020-09-01T08:13:22Z</time>
      </trkpt>
      <trkpt lat="45.17401" lon="-0.55222">
        <ele>30.1</ele>
        <time>2020-09-01T08:13:24Z</time>
      </trkpt>
      <trkpt lat="45.17401" lon="-0.55222">
        <ele>30.1</ele>
        <time>2020-09-01T08:13:26Z</time>
      </trkpt>
      <trkpt lat="45.17401" lon="-0.55222">
        <ele>30.1</ele>
        <time>2020-09-01T08:13:27Z</time>
      </trkpt>
      <trkpt lat="45.17401" lon="-0.55223">
        <ele>30.1</ele>
        <time>2020-09-01T08:13:28Z</time>
      </trkpt>
      <trkpt lat="45.17402" lon="-0.55223">
        <ele>30.1</ele>
        <time>2020-09-01T08:13:29Z</time>
      </trkpt>
      <trkpt lat="45.17402" lon="-0.55223">
        <ele>30.1</ele>
        <time>2020-09-01T08:13:31Z</time>
      </trkpt>
      <trkpt lat="45.17402" lon="-0.55224">
        <ele>30.1</ele>
        <time>2020-09-01T08:13:32Z</time>
      </trkpt>
      <trkpt lat="45.17402" lon="-0.55224">
        <ele>30.1</ele>
        <time>2020-09-01T08:13:33Z</time>
      </trkpt>
      <trkpt lat="45.17402" lon="-0.55224">
        <ele>30.1</ele>
        <time>2020-09-01T08:13:35Z</time>
      </trkpt>
      <trkpt lat="45.17402" lon="-0.55225">
        <ele>30.1</ele>
        <time>2020-09-01T08:13:36Z</time>
      </trkpt>
      <trkpt lat="45.17402" lon="-0.55225">
        <ele>30.1</ele>
        <time>2020-09-01T08:13:37Z</time>
      </trkpt>
      <trkpt lat="45.17402" lon="-0.55225">
        <ele>30.1</ele>
        <time>2020-09-01T08:13:39Z</time>
      </trkpt>
      <trkpt lat="45.17403" lon="-0.55226">
        <ele>30.1</ele>
        <time>2020-09-01T08:13:40Z</time>
      </trkpt>
      <trkpt lat="45.17403" lon="-0.55226">
        <ele>30.1</ele>
        <time>2020-09-01T08:13:41Z</time>
      </trkpt>
      <trkpt lat="45.17403" lon="-0.55226">
        <ele>30.1</ele>
        <time>2020-09-01T08:13:43Z</time>
      </trkpt>
      <trkpt lat="45.17403" lon="-0.55227">
        <ele>30.1</ele>
        <time>2020-09-01T08:13:44Z</time>
      </trkpt>
      <trkpt lat="45.17403" lon="-0.55227">
        <ele>30.1</ele>
        <time>2020-09-01T08:13:45Z</time>
      </trkpt>
      <trkpt lat="45.17403" lon="-0.55227">
        <ele>30.1</ele>
        <time>2020-09-01T08:13:46Z</time>
      </trkpt>
      <trkpt lat="45.17405" lon="-0.55232">
        <ele>30</ele>
        <time>2020-09-01T08:13:47Z</time>
      </trkpt>
      <trkpt lat="45.17405" lon="-0.55233">
        <ele>30</ele>
        <time>2020-09-01T08:13:48Z</time>
      </trkpt>
      <trkpt lat="45.17406" lon="-0.55237">
        <ele>30</ele>
        <time>2020-09-01T08:13:50Z</time>
      </trkpt>
      <trkpt lat="45.17406" lon="-0.55239">
        <ele>30</ele>
        <time>2020-09-01T08:13:51Z</time>
      </trkpt>
      <trkpt lat="45.17407" lon="-0.55243">
        <ele>30</ele>
        <time>2020-09-01T08:13:52Z</time>
      </trkpt>
      <trkpt lat="45.17407" lon="-0.55244">
        <ele>30</ele>
        <time>2020-09-01T08:13:53Z</time>
      </trkpt>
      <trkpt lat="45.17407" lon="-0.55247">
        <ele>30</ele>
        <time>2020-09-01T08:13:54Z</time>
      </trkpt>
      <trkpt lat="45.17407" lon="-0.55249">
        <ele>30</ele>
        <time>2020-09-01T08:13:55Z</time>
      </trkpt>
      <trkpt lat="45.17408" lon="-0.55251">
        <ele>30</ele>
        <time>2020-09-01T08:13:56Z</time>
      </trkpt>
      <trkpt lat="45.17408" lon="-0.55255">
        <ele>30</ele>
        <time>2020-09-01T08:13:58Z</time>
      </trkpt>
      <trkpt lat="45.17408" lon="-0.55257">
        <ele>30</ele>
        <time>2020-09-01T08:13:59Z</time>
      </trkpt>
      <trkpt lat="45.17409" lon="-0.55259">
        <ele>30</ele>
        <time>2020-09-01T08:14:00Z</time>
      </trkpt>
      <trkpt lat="45.17409" lon="-0.55263">
        <ele>29.9</ele>
        <time>2020-09-01T08:14:02Z</time>
      </trkpt>
      <trkpt lat="45.1741" lon="-0.55264">
        <ele>29.9</ele>
        <time>2020-09-01T08:14:03Z</time>
      </trkpt>
      <trkpt lat="45.1741" lon="-0.55265">
        <ele>29.9</ele>
        <time>2020-09-01T08:14:05Z</time>
      </trkpt>
      <trkpt lat="45.17411" lon="-0.55265">
        <ele>29.9</ele>
        <time>2020-09-01T08:14:07Z</time>
      </trkpt>
      <trkpt lat="45.17411" lon="-0.55265">
        <ele>29.9</ele>
        <time>2020-09-01T08:14:08Z</time>
      </trkpt>
      <trkpt lat="45.17411" lon="-0.55265">
        <ele>29.9</ele>
        <time>2020-09-01T08:14:09Z</time>
      </trkpt>
      <trkpt lat="45.17411" lon="-0.55264">
        <ele>29.9</ele>
        <time>2020-09-01T08:14:11Z</time>
      </trkpt>
      <trkpt lat="45.17411" lon="-0.55264">
        <ele>29.9</ele>
        <time>2020-09-01T08:14:13Z</time>
      </trkpt>
      <trkpt lat="45.17411" lon="-0.55264">
        <ele>29.9</ele>
        <time>2020-09-01T08:14:14Z</time>
      </trkpt>
      <trkpt lat="45.17411" lon="-0.55264">
        <ele>29.9</ele>
        <time>2020-09-01T08:14:15Z</time>
      </trkpt>
      <trkpt lat="45.17411" lon="-0.55263">
        <ele>29.9</ele>
        <time>2020-09-01T08:14:18Z</time>
      </trkpt>
      <trkpt lat="45.17411" lon="-0.55263">
        <ele>29.9</ele>
        <time>2020-09-01T08:14:19Z</time>
      </trkpt>
      <trkpt lat="45.17412" lon="-0.55263">
        <ele>29.9</ele>
        <time>2020-09-01T08:14:21Z</time>
      </trkpt>
      <trkpt lat="45.17412" lon="-0.55263">
        <ele>29.9</ele>
        <time>2020-09-01T08:14:23Z</time>
      </trkpt>
      <trkpt lat="45.17412" lon="-0.55263">
        <ele>29.9</ele>
        <time>2020-09-01T08:14:25Z</time>
      </trkpt>
      <trkpt lat="45.17412" lon="-0.55264">
        <ele>29.9</ele>
        <time>2020-09-01T08:14:26Z</time>
      </trkpt>
      <trkpt lat="45.17412" lon="-0.55264">
        <ele>29.9</ele>
        <time>2020-09-01T08:14:27Z</time>
      </trkpt>
      <trkpt lat="45.17412" lon="-0.55264">
        <ele>29.9</ele>
        <time>2020-09-01T08:14:29Z</time>
      </trkpt>
      <trkpt lat="45.17412" lon="-0.55264">
        <ele>29.9</ele>
        <time>2020-09-01T08:14:31Z</time>
      </trkpt>
      <trkpt lat="45.17412" lon="-0.55264">
        <ele>29.9</ele>
        <time>2020-09-01T08:14:33Z</time>
      </trkpt>
      <trkpt lat="45.17412" lon="-0.55263">
        <ele>29.9</ele>
        <time>2020-09-01T08:14:34Z</time>
      </trkpt>
      <trkpt lat="45.17413" lon="-0.55266">
        <ele>29.9</ele>
        <time>2020-09-01T08:14:35Z</time>
      </trkpt>
      <trkpt lat="45.17413" lon="-0.5527">
        <ele>29.9</ele>
        <time>2020-09-01T08:14:36Z</time>
      </trkpt>
      <trkpt lat="45.17413" lon="-0.55271">
        <ele>29.9</ele>
        <time>2020-09-01T08:14:38Z</time>
      </trkpt>
      <trkpt lat="45.17414" lon="-0.55273">
        <ele>29.9</ele>
        <time>2020-09-01T08:14:39Z</time>
      </trkpt>
      <trkpt lat="45.17414" lon="-0.55275">
        <ele>29.9</ele>
        <time>2020-09-01T08:14:40Z</time>
      </trkpt>
      <trkpt lat="45.17414" lon="-0.55277">
        <ele>29.9</ele>
        <time>2020-09-01T08:14:41Z</time>
      </trkpt>
      <trkpt lat="45.17414" lon="-0.55278">
        <ele>29.9</ele>
        <time>2020-09-01T08:14:42Z</time>
      </trkpt>
      <trkpt lat="45.17414" lon="-0.5528">
        <ele>29.9</ele>
        <time>2020-09-01T08:14:43Z</time>
      </trkpt>
      <trkpt lat="45.17414" lon="-0.55281">
        <ele>29.9</ele>
        <time>2020-09-01T08:14:44Z</time>
      </trkpt>
      <trkpt lat="45.17415" lon="-0.55284">
        <ele>29.9</ele>
        <time>2020-09-01T08:14:46Z</time>
      </trkpt>
      <trkpt lat="45.17415" lon="-0.55285">
        <ele>29.9</ele>
        <time>2020-09-01T08:14:47Z</time>
      </trkpt>
      <trkpt lat="45.17415" lon="-0.55287">
        <ele>29.9</ele>
        <time>2020-09-01T08:14:48Z</time>
      </trkpt>
      <trkpt lat="45.17414" lon="-0.55288">
        <ele>29.9</ele>
        <time>2020-09-01T08:14:50Z</time>
      </trkpt>
      <trkpt lat="45.17414" lon="-0.55288">
        <ele>29.9</ele>
        <time>2020-09-01T08:14:52Z</time>
      </trkpt>
      <trkpt lat="45.17414" lon="-0.55288">
        <ele>29.9</ele>
        <time>2020-09-01T08:14:53Z</time>
      </trkpt>
      <trkpt lat="45.17414" lon="-0.55291">
        <ele>29.9</ele>
        <time>2020-09-01T08:14:55Z</time>
      </trkpt>
      <trkpt lat="45.17414" lon="-0.55293">
        <ele>29.9</ele>
        <time>2020-09-01T08:14:56Z</time>
      </trkpt>
      <trkpt lat="45.17414" lon="-0.55295">
        <ele>29.8</ele>
        <time>2020-09-01T08:14:57Z</time>
      </trkpt>
      <trkpt lat="45.17414" lon="-0.55298">
        <ele>29.8</ele>
        <time>2020-09-01T08:14:58Z</time>
      </trkpt>
      <trkpt lat="45.17415" lon="-0.55299">
        <ele>29.8</ele>
        <time>2020-09-01T08:15:00Z</time>
      </trkpt>
      <trkpt lat="45.17415" lon="-0.553">
        <ele>29.8</ele>
        <time>2020-09-01T08:15:01Z</time>
      </trkpt>
      <trkpt lat="45.17415" lon="-0.55301">
        <ele>29.8</ele>
        <time>2020-09-01T08:15:03Z</time>
      </trkpt>
      <trkpt lat="45.17415" lon="-0.55302">
        <ele>29.8</ele>
        <time>2020-09-01T08:15:05Z</time>
      </trkpt>
      <trkpt lat="45.17415" lon="-0.55303">
        <ele>29.8</ele>
        <time>2020-09-01T08:15:06Z</time>
      </trkpt>
      <trkpt lat="45.17415" lon="-0.55304">
        <ele>29.8</ele>
        <time>2020-09-01T08:15:07Z</time>
      </trkpt>
      <trkpt lat="45.17416" lon="-0.55307">
        <ele>29.8</ele>
        <time>2020-09-01T08:15:09Z</time>
      </trkpt>
      <trkpt lat="45.17416" lon="-0.55308">
        <ele>29.8</ele>
        <time>2020-09-01T08:15:10Z</time>
      </trkpt>
      <trkpt lat="45.17416" lon="-0.55311">
        <ele>29.8</ele>
        <time>2020-09-01T08:15:11Z</time>
      </trkpt>
      <trkpt lat="45.17417" lon="-0.55313">
        <ele>29.8</ele>
        <time>2020-09-01T08:15:12Z</time>
      </trkpt>
      <trkpt lat="45.17417" lon="-0.55314">
        <ele>29.8</ele>
        <time>2020-09-01T08:15:13Z</time>
      </trkpt>
      <trkpt lat="45.17417" lon="-0.55318">
        <ele>29.8</ele>
        <time>2020-09-01T08:15:15Z</time>
      </trkpt>
      <trkpt lat="45.17418" lon="-0.55321">
        <ele>29.8</ele>
        <time>2020-09-01T08:15:16Z</time>
      </trkpt>
      <trkpt lat="45.17418" lon="-0.55322">
        <ele>29.8</ele>
        <time>2020-09-01T08:15:17Z</time>
      </trkpt>
      <trkpt lat="45.17418" lon="-0.55324">
        <ele>29.8</ele>
        <time>2020-09-01T08:15:18Z</time>
      </trkpt>
      <trkpt lat="45.17419" lon="-0.55325">
        <ele>29.8</ele>
        <time>2020-09-01T08:15:19Z</time>
      </trkpt>
      <trkpt lat="45.1742" lon="-0.55328">
        <ele>29.8</ele>
        <time>2020-09-01T08:15:21Z</time>
      </trkpt>
      <trkpt lat="45.17421" lon="-0.55332">
        <ele>29.7</ele>
        <time>2020-09-01T08:15:22Z</time>
      </trkpt>
      <trkpt lat="45.17421" lon="-0.55333">
        <ele>29.7</ele>
        <time>2020-09-01T08:15:24Z</time>
      </trkpt>
      <trkpt lat="45.17422" lon="-0.55334">
        <ele>29.7</ele>
        <time>2020-09-01T08:15:25Z</time>
      </trkpt>
      <trkpt lat="45.17423" lon="-0.55335">
        <ele>29.7</ele>
        <time>2020-09-01T08:15:26Z</time>
      </trkpt>
      <trkpt lat="45.17423" lon="-0.55337">
        <ele>29.7</ele>
        <time>2020-09-01T08:15:27Z</time>
      </trkpt>
      <trkpt lat="45.17424" lon="-0.55339">
        <ele>29.7</ele>
        <time>2020-09-01T08:15:29Z</time>
      </trkpt>
      <trkpt lat="45.17424" lon="-0.5534">
        <ele>29.7</ele>
        <time>2020-09-01T08:15:30Z</time>
      </trkpt>
      <trkpt lat="45.17425" lon="-0.55342">
        <ele>29.7</ele>
        <time>2020-09-01T08:15:31Z</time>
      </trkpt>
      <trkpt lat="45.17426" lon="-0.55344">
        <ele>29.7</ele>
        <time>2020-09-01T08:15:32Z</time>
      </trkpt>
      <trkpt lat="45.17426" lon="-0.55346">
        <ele>29.7</ele>
        <time>2020-09-01T08:15:34Z</time>
      </trkpt>
      <trkpt lat="45.17427" lon="-0.55348">
        <ele>29.7</ele>
        <time>2020-09-01T08:15:35Z</time>
      </trkpt>
      <trkpt lat="45.17429" lon="-0.55352">
        <ele>29.7</ele>
        <time>2020-09-01T08:15:36Z</time>
      </trkpt>
      <trkpt lat="45.17429" lon="-0.55354">
        <ele>29.7</ele>
        <time>2020-09-01T08:15:38Z</time>
      </trkpt>
      <trkpt lat="45.17429" lon="-0.55355">
        <ele>29.7</ele>
        <time>2020-09-01T08:15:39Z</time>
      </trkpt>
      <trkpt lat="45.1743" lon="-0.55356">
        <ele>29.7</ele>
        <time>2020-09-01T08:15:40Z</time>
      </trkpt>
      <trkpt lat="45.1743" lon="-0.55358">
        <ele>29.7</ele>
        <time>2020-09-01T08:15:41Z</time>
      </trkpt>
      <trkpt lat="45.17432" lon="-0.5536">
        <ele>29.7</ele>
        <time>2020-09-01T08:15:42Z</time>
      </trkpt>
      <trkpt lat="45.17432" lon="-0.55361">
        <ele>29.7</ele>
        <time>2020-09-01T08:15:43Z</time>
      </trkpt>
      <trkpt lat="45.17433" lon="-0.55362">
        <ele>29.7</ele>
        <time>2020-09-01T08:15:44Z</time>
      </trkpt>
      <trkpt lat="45.17433" lon="-0.55363">
        <ele>29.7</ele>
        <time>2020-09-01T08:15:45Z</time>
      </trkpt>
      <trkpt lat="45.17435" lon="-0.55366">
        <ele>29.7</ele>
        <time>2020-09-01T08:15:46Z</time>
      </trkpt>
      <trkpt lat="45.17436" lon="-0.55368">
        <ele>29.6</ele>
        <time>2020-09-01T08:15:47Z</time>
      </trkpt>
      <trkpt lat="45.17437" lon="-0.55369">
        <ele>29.6</ele>
        <time>2020-09-01T08:15:48Z</time>
      </trkpt>
      <trkpt lat="45.17437" lon="-0.5537">
        <ele>29.6</ele>
        <time>2020-09-01T08:15:49Z</time>
      </trkpt>
      <trkpt lat="45.17439" lon="-0.55374">
        <ele>29.6</ele>
        <time>2020-09-01T08:15:51Z</time>
      </trkpt>
      <trkpt lat="45.1744" lon="-0.55375">
        <ele>29.6</ele>
        <time>2020-09-01T08:15:52Z</time>
      </trkpt>
      <trkpt lat="45.17441" lon="-0.55377">
        <ele>29.6</ele>
        <time>2020-09-01T08:15:53Z</time>
      </trkpt>
      <trkpt lat="45.17441" lon="-0.55378">
        <ele>29.6</ele>
        <time>2020-09-01T08:15:54Z</time>
      </trkpt>
      <trkpt lat="45.17443" lon="-0.55381">
        <ele>29.6</ele>
        <time>2020-09-01T08:15:55Z</time>
      </trkpt>
      <trkpt lat="45.17443" lon="-0.55383">
        <ele>29.6</ele>
        <time>2020-09-01T08:15:56Z</time>
      </trkpt>
      <trkpt lat="45.17444" lon="-0.55386">
        <ele>29.6</ele>
        <time>2020-09-01T08:15:57Z</time>
      </trkpt>
      <trkpt lat="45.17445" lon="-0.55388">
        <ele>29.6</ele>
        <time>2020-09-01T08:15:59Z</time>
      </trkpt>
      <trkpt lat="45.17446" lon="-0.55389">
        <ele>29.6</ele>
        <time>2020-09-01T08:16:00Z</time>
      </trkpt>
      <trkpt lat="45.17446" lon="-0.55391">
        <ele>29.6</ele>
        <time>2020-09-01T08:16:01Z</time>
      </trkpt>
      <trkpt lat="45.17447" lon="-0.55394">
        <ele>29.6</ele>
        <time>2020-09-01T08:16:03Z</time>
      </trkpt>
      <trkpt lat="45.17447" lon="-0.55395">
        <ele>29.6</ele>
        <time>2020-09-01T08:16:04Z</time>
      </trkpt>
      <trkpt lat="45.17448" lon="-0.55397">
        <ele>29.6</ele>
        <time>2020-09-01T08:16:05Z</time>
      </trkpt>
      <trkpt lat="45.17448" lon="-0.55399">
        <ele>29.6</ele>
        <time>2020-09-01T08:16:06Z</time>
      </trkpt>
      <trkpt lat="45.17449" lon="-0.55401">
        <ele>29.6</ele>
        <time>2020-09-01T08:16:07Z</time>
      </trkpt>
      <trkpt lat="45.17449" lon="-0.55402">
        <ele>29.5</ele>
        <time>2020-09-01T08:16:08Z</time>
      </trkpt>
      <trkpt lat="45.1745" lon="-0.55404">
        <ele>29.5</ele>
        <time>2020-09-01T08:16:10Z</time>
      </trkpt>
      <trkpt lat="45.17451" lon="-0.55407">
        <ele>29.5</ele>
        <time>2020-09-01T08:16:11Z</time>
      </trkpt>
      <trkpt lat="45.17451" lon="-0.55409">
        <ele>29.5</ele>
        <time>2020-09-01T08:16:12Z</time>
      </trkpt>
      <trkpt lat="45.17452" lon="-0.55411">
        <ele>29.5</ele>
        <time>2020-09-01T08:16:14Z</time>
      </trkpt>
      <trkpt lat="45.17453" lon="-0.55416">
        <ele>29.5</ele>
        <time>2020-09-01T08:16:16Z</time>
      </trkpt>
      <trkpt lat="45.17453" lon="-0.55418">
        <ele>29.5</ele>
        <time>2020-09-01T08:16:17Z</time>
      </trkpt>
      <trkpt lat="45.17453" lon="-0.55419">
        <ele>29.5</ele>
        <time>2020-09-01T08:16:18Z</time>
      </trkpt>
      <trkpt lat="45.17453" lon="-0.55421">
        <ele>29.5</ele>
        <time>2020-09-01T08:16:19Z</time>
      </trkpt>
      <trkpt lat="45.17453" lon="-0.55426">
        <ele>29.5</ele>
        <time>2020-09-01T08:16:21Z</time>
      </trkpt>
      <trkpt lat="45.17453" lon="-0.55427">
        <ele>29.5</ele>
        <time>2020-09-01T08:16:22Z</time>
      </trkpt>
      <trkpt lat="45.17453" lon="-0.5543">
        <ele>29.5</ele>
        <time>2020-09-01T08:16:24Z</time>
      </trkpt>
      <trkpt lat="45.17453" lon="-0.55432">
        <ele>29.5</ele>
        <time>2020-09-01T08:16:25Z</time>
      </trkpt>
      <trkpt lat="45.17454" lon="-0.55435">
        <ele>29.5</ele>
        <time>2020-09-01T08:16:26Z</time>
      </trkpt>
      <trkpt lat="45.17454" lon="-0.55437">
        <ele>29.5</ele>
        <time>2020-09-01T08:16:28Z</time>
      </trkpt>
      <trkpt lat="45.17454" lon="-0.55439">
        <ele>29.5</ele>
        <time>2020-09-01T08:16:29Z</time>
      </trkpt>
      <trkpt lat="45.17454" lon="-0.55441">
        <ele>29.4</ele>
        <time>2020-09-01T08:16:30Z</time>
      </trkpt>
      <trkpt lat="45.17454" lon="-0.55444">
        <ele>29.4</ele>
        <time>2020-09-01T08:16:31Z</time>
      </trkpt>
      <trkpt lat="45.17454" lon="-0.55445">
        <ele>29.4</ele>
        <time>2020-09-01T08:16:32Z</time>
      </trkpt>
      <trkpt lat="45.17453" lon="-0.55448">
        <ele>29.4</ele>
        <time>2020-09-01T08:16:33Z</time>
      </trkpt>
      <trkpt lat="45.17453" lon="-0.55449">
        <ele>29.4</ele>
        <time>2020-09-01T08:16:34Z</time>
      </trkpt>
      <trkpt lat="45.17452" lon="-0.55451">
        <ele>29.4</ele>
        <time>2020-09-01T08:16:36Z</time>
      </trkpt>
      <trkpt lat="45.17452" lon="-0.55454">
        <ele>29.4</ele>
        <time>2020-09-01T08:16:37Z</time>
      </trkpt>
      <trkpt lat="45.17452" lon="-0.55455">
        <ele>29.4</ele>
        <time>2020-09-01T08:16:38Z</time>
      </trkpt>
      <trkpt lat="45.17451" lon="-0.55456">
        <ele>29.4</ele>
        <time>2020-09-01T08:16:39Z</time>
      </trkpt>
      <trkpt lat="45.17451" lon="-0.55459">
        <ele>29.4</ele>
        <time>2020-09-01T08:16:41Z</time>
      </trkpt>
      <trkpt lat="45.1745" lon="-0.55462">
        <ele>29.4</ele>
        <time>2020-09-01T08:16:42Z</time>
      </trkpt>
      <trkpt lat="45.17449" lon="-0.55463">
        <ele>29.4</ele>
        <time>2020-09-01T08:16:44Z</time>
      </trkpt>
      <trkpt lat="45.17449" lon="-0.55464">
        <ele>29.4</ele>
        <time>2020-09-01T08:16:45Z</time>
      </trkpt>
      <trkpt lat="45.17447" lon="-0.55468">
        <ele>29.4</ele>
        <time>2020-09-01T08:16:47Z</time>
      </trkpt>
      <trkpt lat="45.17447" lon="-0.5547">
        <ele>29.4</ele>
        <time>2020-09-01T08:16:48Z</time>
      </trkpt>
      <trkpt lat="45.17446" lon="-0.55472">
        <ele>29.4</ele>
        <time>2020-09-01T08:16:49Z</time>
      </trkpt>
      <trkpt lat="45.17446" lon="-0.55473">
        <ele>29.4</ele>
        <time>2020-09-01T08:16:50Z</time>
      </trkpt>
      <trkpt lat="45.17445" lon="-0.55477">
        <ele>29.4</ele>
        <time>2020-09-01T08:16:52Z</time>
      </trkpt>
      <trkpt lat="45.17444" lon="-0.5548">
        <ele>29.3</ele>
        <time>2020-09-01T08:16:53Z</time>
      </trkpt>
      <trkpt lat="45.17443" lon="-0.55481">
        <ele>29.3</ele>
        <time>2020-09-01T08:16:54Z</time>
      </trkpt>
      <trkpt lat="45.17443" lon="-0.55482">
        <ele>29.3</ele>
        <time>2020-09-01T08:16:55Z</time>
      </trkpt>
      <trkpt lat="45.17442" lon="-0.55484">
        <ele>29.3</ele>
        <time>2020-09-01T08:16:56Z</time>
      </trkpt>
      <trkpt lat="45.17441" lon="-0.55485">
        <ele>29.3</ele>
        <time>2020-09-01T08:16:57Z</time>
      </trkpt>
      <trkpt lat="45.1744" lon="-0.55487">
        <ele>29.3</ele>
        <time>2020-09-01T08:16:58Z</time>
      </trkpt>
      <trkpt lat="45.17439" lon="-0.55488">
        <ele>29.3</ele>
        <time>2020-09-01T08:16:59Z</time>
      </trkpt>
      <trkpt lat="45.17438" lon="-0.55488">
        <ele>29.3</ele>
        <time>2020-09-01T08:17:00Z</time>
      </trkpt>
      <trkpt lat="45.17436" lon="-0.55491">
        <ele>29.3</ele>
        <time>2020-09-01T08:17:02Z</time>
      </trkpt>
      <trkpt lat="45.17435" lon="-0.55492">
        <ele>29.3</ele>
        <time>2020-09-01T08:17:03Z</time>
      </trkpt>
      <trkpt lat="45.17433" lon="-0.55494">
        <ele>29.3</ele>
        <time>2020-09-01T08:17:04Z</time>
      </trkpt>
      <trkpt lat="45.17432" lon="-0.55496">
        <ele>29.3</ele>
        <time>2020-09-01T08:17:06Z</time>
      </trkpt>
      <trkpt lat="45.17431" lon="-0.55497">
        <ele>29.3</ele>
        <time>2020-09-01T08:17:07Z</time>
      </trkpt>
      <trkpt lat="45.1743" lon="-0.55499">
        <ele>29.3</ele>
        <time>2020-09-01T08:17:09Z</time>
      </trkpt>
      <trkpt lat="45.17428" lon="-0.55501">
        <ele>29.3</ele>
        <time>2020-09-01T08:17:11Z</time>
      </trkpt>
      <trkpt lat="45.17427" lon="-0.55503">
        <ele>29.3</ele>
        <time>2020-09-01T08:17:12Z</time>
      </trkpt>
      <trkpt lat="45.17426" lon="-0.55503">
        <ele>29.3</ele>
        <time>2020-09-01T08:17:13Z</time>
      </trkpt>
      <trkpt lat="45.17425" lon="-0.55504">
        <ele>29.3</ele>
        <time>2020-09-01T08:17:14Z</time>
      </trkpt>
      <trkpt lat="45.17423" lon="-0.55507">
        <ele>29.2</ele>
        <time>2020-09-01T08:17:16Z</time>
      </trkpt>
      <trkpt lat="45.17422" lon="-0.55507">
        <ele>29.2</ele>
        <time>2020-09-01T08:17:17Z</time>
      </trkpt>
      <trkpt lat="45.17421" lon="-0.55508">
        <ele>29.2</ele>
        <time>2020-09-01T08:17:18Z</time>
      </trkpt>
      <trkpt lat="45.17419" lon="-0.55511">
        <ele>29.2</ele>
        <time>2020-09-01T08:17:20Z</time>
      </trkpt>
      <trkpt lat="45.17417" lon="-0.55513">
        <ele>29.2</ele>
        <time>2020-09-01T08:17:22Z</time>
      </trkpt>
      <trkpt lat="45.17416" lon="-0.55514">
        <ele>29.2</ele>
        <time>2020-09-01T08:17:23Z</time>
      </trkpt>
      <trkpt lat="45.17416" lon="-0.55515">
        <ele>29.2</ele>
        <time>2020-09-01T08:17:24Z</time>
      </trkpt>
      <trkpt lat="45.17414" lon="-0.55517">
        <ele>29.2</ele>
        <time>2020-09-01T08:17:26Z</time>
      </trkpt>
      <trkpt lat="45.17413" lon="-0.55518">
        <ele>29.2</ele>
        <time>2020-09-01T08:17:27Z</time>
      </trkpt>
      <trkpt lat="45.17412" lon="-0.55519">
        <ele>29.2</ele>
        <time>2020-09-01T08:17:28Z</time>
      </trkpt>
      <trkpt lat="45.1741" lon="-0.55521">
        <ele>29.2</ele>
        <time>2020-09-01T08:17:30Z</time>
      </trkpt>
      <trkpt lat="45.17409" lon="-0.55522">
        <ele>29.2</ele>
        <time>2020-09-01T08:17:31Z</time>
      </trkpt>
      <trkpt lat="45.17407" lon="-0.55524">
        <ele>29.2</ele>
        <time>2020-09-01T08:17:33Z</time>
      </trkpt>
      <trkpt lat="45.17406" lon="-0.55525">
        <ele>29.2</ele>
        <time>2020-09-01T08:17:34Z</time>
      </trkpt>
      <trkpt lat="45.17406" lon="-0.55526">
        <ele>29.2</ele>
        <time>2020-09-01T08:17:35Z</time>
      </trkpt>
      <trkpt lat="45.17405" lon="-0.55528">
        <ele>29.2</ele>
        <time>2020-09-01T08:17:36Z</time>
      </trkpt>
      <trkpt lat="45.17404" lon="-0.55528">
        <ele>29.2</ele>
        <time>2020-09-01T08:17:37Z</time>
      </trkpt>
      <trkpt lat="45.17403" lon="-0.5553">
        <ele>29.2</ele>
        <time>2020-09-01T08:17:38Z</time>
      </trkpt>
      <trkpt lat="45.17402" lon="-0.55532">
        <ele>29.1</ele>
        <time>2020-09-01T08:17:40Z</time>
      </trkpt>
      <trkpt lat="45.17399" lon="-0.55535">
        <ele>29.1</ele>
        <time>2020-09-01T08:17:41Z</time>
      </trkpt>
      <trkpt lat="45.17399" lon="-0.55535">
        <ele>29.1</ele>
        <time>2020-09-01T08:17:43Z</time>
      </trkpt>
      <trkpt lat="45.17398" lon="-0.55536">
        <ele>29.1</ele>
        <time>2020-09-01T08:17:45Z</time>
      </trkpt>
      <trkpt lat="45.17398" lon="-0.55537">
        <ele>29.1</ele>
        <time>2020-09-01T08:17:46Z</time>
      </trkpt>
      <trkpt lat="45.17397" lon="-0.55538">
        <ele>29.1</ele>
        <time>2020-09-01T08:17:47Z</time>
      </trkpt>
      <trkpt lat="45.17397" lon="-0.55539">
        <ele>29.1</ele>
        <time>2020-09-01T08:17:49Z</time>
      </trkpt>
      <trkpt lat="45.17396" lon="-0.55539">
        <ele>29.1</ele>
        <time>2020-09-01T08:17:50Z</time>
      </trkpt>
      <trkpt lat="45.17395" lon="-0.55542">
        <ele>29.1</ele>
        <time>2020-09-01T08:17:52Z</time>
      </trkpt>
      <trkpt lat="45.17394" lon="-0.55543">
        <ele>29.1</ele>
        <time>2020-09-01T08:17:53Z</time>
      </trkpt>
      <trkpt lat="45.17393" lon="-0.55545">
        <ele>29.1</ele>
        <time>2020-09-01T08:17:54Z</time>
      </trkpt>
      <trkpt lat="45.1739" lon="-0.55549">
        <ele>29.1</ele>
        <time>2020-09-01T08:17:56Z</time>
      </trkpt>
      <trkpt lat="45.1739" lon="-0.5555">
        <ele>29.1</ele>
        <time>2020-09-01T08:17:58Z</time>
      </trkpt>
      <trkpt lat="45.17389" lon="-0.55553">
        <ele>29.1</ele>
        <time>2020-09-01T08:17:59Z</time>
      </trkpt>
      <trkpt lat="45.17388" lon="-0.55555">
        <ele>29.1</ele>
        <time>2020-09-01T08:18:00Z</time>
      </trkpt>
      <trkpt lat="45.17387" lon="-0.55557">
        <ele>29.1</ele>
        <time>2020-09-01T08:18:02Z</time>
      </trkpt>
      <trkpt lat="45.17386" lon="-0.5556">
        <ele>29.1</ele>
        <time>2020-09-01T08:18:03Z</time>
      </trkpt>
      <trkpt lat="45.17385" lon="-0.5556">
        <ele>29.1</ele>
        <time>2020-09-01T08:18:05Z</time>
      </trkpt>
      <trkpt lat="45.17384" lon="-0.5556">
        <ele>29</ele>
        <time>2020-09-01T08:18:07Z</time>
      </trkpt>
      <trkpt lat="45.17383" lon="-0.55561">
        <ele>29</ele>
        <time>2020-09-01T08:18:08Z</time>
      </trkpt>
      <trkpt lat="45.17383" lon="-0.55561">
        <ele>29</ele>
        <time>2020-09-01T08:18:10Z</time>
      </trkpt>
      <trkpt lat="45.17382" lon="-0.55562">
        <ele>29</ele>
        <time>2020-09-01T08:18:11Z</time>
      </trkpt>
      <trkpt lat="45.17381" lon="-0.55562">
        <ele>29</ele>
        <time>2020-09-01T08:18:13Z</time>
      </trkpt>
      <trkpt lat="45.1738" lon="-0.55563">
        <ele>29</ele>
        <time>2020-09-01T08:18:14Z</time>
      </trkpt>
      <trkpt lat="45.1738" lon="-0.55565">
        <ele>29</ele>
        <time>2020-09-01T08:18:15Z</time>
      </trkpt>
      <trkpt lat="45.17378" lon="-0.55568">
        <ele>29</ele>
        <time>2020-09-01T08:18:17Z</time>
      </trkpt>
      <trkpt lat="45.17378" lon="-0.55569">
        <ele>29</ele>
        <time>2020-09-01T08:18:18Z</time>
      </trkpt>
      <trkpt lat="45.17377" lon="-0.55571">
        <ele>29</ele>
        <time>2020-09-01T08:18:19Z</time>
      </trkpt>
      <trkpt lat="45.17376" lon="-0.55573">
        <ele>29</ele>
        <time>2020-09-01T08:18:21Z</time>
      </trkpt>
      <trkpt lat="45.17374" lon="-0.55576">
        <ele>29</ele>
        <time>2020-09-01T08:18:22Z</time>
      </trkpt>
      <trkpt lat="45.17373" lon="-0.55579">
        <ele>29</ele>
        <time>2020-09-01T08:18:24Z</time>
      </trkpt>
      <trkpt lat="45.17371" lon="-0.55583">
        <ele>29</ele>
        <time>2020-09-01T08:18:26Z</time>
      </trkpt>
      <trkpt lat="45.17369" lon="-0.55586">
        <ele>29</ele>
        <time>2020-09-01T08:18:28Z</time>
      </trkpt>
      <trkpt lat="45.17368" lon="-0.55587">
        <ele>29</ele>
        <time>2020-09-01T08:18:29Z</time>
      </trkpt>
      <trkpt lat="45.17366" lon="-0.55591">
        <ele>28.9</ele>
        <time>2020-09-01T08:18:31Z</time>
      </trkpt>
      <trkpt lat="45.17366" lon="-0.55592">
        <ele>28.9</ele>
        <time>2020-09-01T08:18:32Z</time>
      </trkpt>
      <trkpt lat="45.17364" lon="-0.55595">
        <ele>28.9</ele>
        <time>2020-09-01T08:18:34Z</time>
      </trkpt>
      <trkpt lat="45.17363" lon="-0.55596">
        <ele>28.9</ele>
        <time>2020-09-01T08:18:35Z</time>
      </trkpt>
      <trkpt lat="45.17362" lon="-0.55598">
        <ele>28.9</ele>
        <time>2020-09-01T08:18:37Z</time>
      </trkpt>
      <trkpt lat="45.17361" lon="-0.556">
        <ele>28.9</ele>
        <time>2020-09-01T08:18:38Z</time>
      </trkpt>
      <trkpt lat="45.1736" lon="-0.55601">
        <ele>28.9</ele>
        <time>2020-09-01T08:18:39Z</time>
      </trkpt>
      <trkpt lat="45.17357" lon="-0.55605">
        <ele>28.9</ele>
        <time>2020-09-01T08:18:42Z</time>
      </trkpt>
      <trkpt lat="45.17356" lon="-0.55607">
        <ele>28.9</ele>
        <time>2020-09-01T08:18:43Z</time>
      </trkpt>
      <trkpt lat="45.17355" lon="-0.55609">
        <ele>28.9</ele>
        <time>2020-09-01T08:18:45Z</time>
      </trkpt>
      <trkpt lat="45.17353" lon="-0.55612">
        <ele>28.9</ele>
        <time>2020-09-01T08:18:47Z</time>
      </trkpt>
      <trkpt lat="45.17353" lon="-0.55614">
        <ele>28.9</ele>
        <time>2020-09-01T08:18:48Z</time>
      </trkpt>
      <trkpt lat="45.17352" lon="-0.55617">
        <ele>28.9</ele>
        <time>2020-09-01T08:18:50Z</time>
      </trkpt>
      <trkpt lat="45.17351" lon="-0.55622">
        <ele>28.9</ele>
        <time>2020-09-01T08:18:51Z</time>
      </trkpt>
      <trkpt lat="45.1735" lon="-0.55626">
        <ele>28.8</ele>
        <time>2020-09-01T08:18:53Z</time>
      </trkpt>
      <trkpt lat="45.17349" lon="-0.55627">
        <ele>28.8</ele>
        <time>2020-09-01T08:18:54Z</time>
      </trkpt>
      <trkpt lat="45.17348" lon="-0.5563">
        <ele>28.8</ele>
        <time>2020-09-01T08:18:55Z</time>
      </trkpt>
      <trkpt lat="45.17347" lon="-0.55632">
        <ele>28.8</ele>
        <time>2020-09-01T08:18:56Z</time>
      </trkpt>
      <trkpt lat="45.17346" lon="-0.55634">
        <ele>28.8</ele>
        <time>2020-09-01T08:18:57Z</time>
      </trkpt>
      <trkpt lat="45.17345" lon="-0.55638">
        <ele>28.8</ele>
        <time>2020-09-01T08:18:59Z</time>
      </trkpt>
      <trkpt lat="45.17343" lon="-0.55641">
        <ele>28.8</ele>
        <time>2020-09-01T08:19:00Z</time>
      </trkpt>
      <trkpt lat="45.17343" lon="-0.55643">
        <ele>28.8</ele>
        <time>2020-09-01T08:19:01Z</time>
      </trkpt>
      <trkpt lat="45.17341" lon="-0.55647">
        <ele>28.8</ele>
        <time>2020-09-01T08:19:03Z</time>
      </trkpt>
      <trkpt lat="45.17341" lon="-0.55648">
        <ele>28.8</ele>
        <time>2020-09-01T08:19:04Z</time>
      </trkpt>
      <trkpt lat="45.1734" lon="-0.55651">
        <ele>28.8</ele>
        <time>2020-09-01T08:19:05Z</time>
      </trkpt>
      <trkpt lat="45.17338" lon="-0.55655">
        <ele>28.8</ele>
        <time>2020-09-01T08:19:07Z</time>
      </trkpt>
      <trkpt lat="45.17338" lon="-0.55656">
        <ele>28.8</ele>
        <time>2020-09-01T08:19:08Z</time>
      </trkpt>
      <trkpt lat="45.17337" lon="-0.55659">
        <ele>28.7</ele>
        <time>2020-09-01T08:19:09Z</time>
      </trkpt>
      <trkpt lat="45.17335" lon="-0.55662">
        <ele>28.7</ele>
        <time>2020-09-01T08:19:11Z</time>
      </trkpt>
      <trkpt lat="45.17334" lon="-0.55663">
        <ele>28.7</ele>
        <time>2020-09-01T08:19:12Z</time>
      </trkpt>
      <trkpt lat="45.17333" lon="-0.55665">
        <ele>28.7</ele>
        <time>2020-09-01T08:19:13Z</time>
      </trkpt>
      <trkpt lat="45.17332" lon="-0.55667">
        <ele>28.7</ele>
        <time>2020-09-01T08:19:14Z</time>
      </trkpt>
      <trkpt lat="45.1733" lon="-0.5567">
        <ele>28.7</ele>
        <time>2020-09-01T08:19:16Z</time>
      </trkpt>
      <trkpt lat="45.1733" lon="-0.55671">
        <ele>28.7</ele>
        <time>2020-09-01T08:19:17Z</time>
      </trkpt>
      <trkpt lat="45.17329" lon="-0.55673">
        <ele>28.7</ele>
        <time>2020-09-01T08:19:19Z</time>
      </trkpt>
      <trkpt lat="45.17326" lon="-0.55677">
        <ele>28.7</ele>
        <time>2020-09-01T08:19:21Z</time>
      </trkpt>
      <trkpt lat="45.17326" lon="-0.55678">
        <ele>28.7</ele>
        <time>2020-09-01T08:19:22Z</time>
      </trkpt>
      <trkpt lat="45.17325" lon="-0.55679">
        <ele>28.7</ele>
        <time>2020-09-01T08:19:23Z</time>
      </trkpt>
      <trkpt lat="45.17324" lon="-0.5568">
        <ele>28.7</ele>
        <time>2020-09-01T08:19:24Z</time>
      </trkpt>
      <trkpt lat="45.1732" lon="-0.55684">
        <ele>28.7</ele>
        <time>2020-09-01T08:19:26Z</time>
      </trkpt>
      <trkpt lat="45.17319" lon="-0.55686">
        <ele>28.7</ele>
        <time>2020-09-01T08:19:28Z</time>
      </trkpt>
      <trkpt lat="45.17319" lon="-0.55687">
        <ele>28.7</ele>
        <time>2020-09-01T08:19:29Z</time>
      </trkpt>
      <trkpt lat="45.17316" lon="-0.5569">
        <ele>28.6</ele>
        <time>2020-09-01T08:19:30Z</time>
      </trkpt>
      <trkpt lat="45.17316" lon="-0.5569">
        <ele>28.6</ele>
        <time>2020-09-01T08:19:31Z</time>
      </trkpt>
      <trkpt lat="45.17313" lon="-0.55693">
        <ele>28.6</ele>
        <time>2020-09-01T08:19:32Z</time>
      </trkpt>
      <trkpt lat="45.17312" lon="-0.55693">
        <ele>28.6</ele>
        <time>2020-09-01T08:19:33Z</time>
      </trkpt>
      <trkpt lat="45.1731" lon="-0.55695">
        <ele>28.6</ele>
        <time>2020-09-01T08:19:35Z</time>
      </trkpt>
      <trkpt lat="45.17309" lon="-0.55696">
        <ele>28.6</ele>
        <time>2020-09-01T08:19:36Z</time>
      </trkpt>
      <trkpt lat="45.17307" lon="-0.55697">
        <ele>28.6</ele>
        <time>2020-09-01T08:19:38Z</time>
      </trkpt>
      <trkpt lat="45.17305" lon="-0.557">
        <ele>28.6</ele>
        <time>2020-09-01T08:19:40Z</time>
      </trkpt>
      <trkpt lat="45.17304" lon="-0.55701">
        <ele>28.6</ele>
        <time>2020-09-01T08:19:41Z</time>
      </trkpt>
      <trkpt lat="45.17302" lon="-0.55703">
        <ele>28.6</ele>
        <time>2020-09-01T08:19:42Z</time>
      </trkpt>
      <trkpt lat="45.17302" lon="-0.55704">
        <ele>28.6</ele>
        <time>2020-09-01T08:19:44Z</time>
      </trkpt>
      <trkpt lat="45.173" lon="-0.55706">
        <ele>28.6</ele>
        <time>2020-09-01T08:19:45Z</time>
      </trkpt>
      <trkpt lat="45.17298" lon="-0.55708">
        <ele>28.6</ele>
        <time>2020-09-01T08:19:47Z</time>
      </trkpt>
      <trkpt lat="45.17297" lon="-0.55709">
        <ele>28.6</ele>
        <time>2020-09-01T08:19:48Z</time>
      </trkpt>
      <trkpt lat="45.17296" lon="-0.55711">
        <ele>28.6</ele>
        <time>2020-09-01T08:19:49Z</time>
      </trkpt>
      <trkpt lat="45.17293" lon="-0.55714">
        <ele>28.5</ele>
        <time>2020-09-01T08:19:51Z</time>
      </trkpt>
      <trkpt lat="45.17292" lon="-0.55717">
        <ele>28.5</ele>
        <time>2020-09-01T08:19:52Z</time>
      </trkpt>
      <trkpt lat="45.1729" lon="-0.55719">
        <ele>28.5</ele>
        <time>2020-09-01T08:19:54Z</time>
      </trkpt>
      <trkpt lat="45.17288" lon="-0.55723">
        <ele>28.5</ele>
        <time>2020-09-01T08:19:56Z</time>
      </trkpt>
      <trkpt lat="45.17287" lon="-0.55725">
        <ele>28.5</ele>
        <time>2020-09-01T08:19:57Z</time>
      </trkpt>
      <trkpt lat="45.17287" lon="-0.55727">
        <ele>28.5</ele>
        <time>2020-09-01T08:19:58Z</time>
      </trkpt>
      <trkpt lat="45.17286" lon="-0.55731">
        <ele>28.5</ele>
        <time>2020-09-01T08:19:59Z</time>
      </trkpt>
      <trkpt lat="45.17286" lon="-0.55733">
        <ele>28.5</ele>
        <time>2020-09-01T08:20:00Z</time>
      </trkpt>
      <trkpt lat="45.17286" lon="-0.55735">
        <ele>28.5</ele>
        <time>2020-09-01T08:20:02Z</time>
      </trkpt>
      <trkpt lat="45.17286" lon="-0.55737">
        <ele>28.5</ele>
        <time>2020-09-01T08:20:03Z</time>
      </trkpt>
      <trkpt lat="45.17287" lon="-0.55738">
        <ele>28.5</ele>
        <time>2020-09-01T08:20:04Z</time>
      </trkpt>
      <trkpt lat="45.17288" lon="-0.55741">
        <ele>28.5</ele>
        <time>2020-09-01T08:20:05Z</time>
      </trkpt>
      <trkpt lat="45.17289" lon="-0.55741">
        <ele>28.5</ele>
        <time>2020-09-01T08:20:06Z</time>
      </trkpt>
      <trkpt lat="45.17289" lon="-0.55742">
        <ele>28.5</ele>
        <time>2020-09-01T08:20:07Z</time>
      </trkpt>
      <trkpt lat="45.1729" lon="-0.55744">
        <ele>28.5</ele>
        <time>2020-09-01T08:20:08Z</time>
      </trkpt>
      <trkpt lat="45.17291" lon="-0.55747">
        <ele>28.4</ele>
        <time>2020-09-01T08:20:09Z</time>
      </trkpt>
      <trkpt lat="45.17293" lon="-0.5575">
        <ele>28.4</ele>
        <time>2020-09-01T08:20:10Z</time>
      </trkpt>
      <trkpt lat="45.17293" lon="-0.55751">
        <ele>28.4</ele>
        <time>2020-09-01T08:20:11Z</time>
      </trkpt>
      <trkpt lat="45.17295" lon="-0.55753">
        <ele>28.4</ele>
        <time>2020-09-01T08:20:13Z</time>
      </trkpt>
      <trkpt lat="45.17296" lon="-0.55755">
        <ele>28.4</ele>
        <time>2020-09-01T08:20:14Z</time>
      </trkpt>
      <trkpt lat="45.17298" lon="-0.55758">
        <ele>28.4</ele>
        <time>2020-09-01T08:20:15Z</time>
      </trkpt>
      <trkpt lat="45.17301" lon="-0.5576">
        <ele>28.4</ele>
        <time>2020-09-01T08:20:16Z</time>
      </trkpt>
      <trkpt lat="45.17302" lon="-0.55761">
        <ele>28.4</ele>
        <time>2020-09-01T08:20:18Z</time>
      </trkpt>
      <trkpt lat="45.17303" lon="-0.55762">
        <ele>28.4</ele>
        <time>2020-09-01T08:20:19Z</time>
      </trkpt>
      <trkpt lat="45.17305" lon="-0.55764">
        <ele>28.4</ele>
        <time>2020-09-01T08:20:21Z</time>
      </trkpt>
      <trkpt lat="45.17306" lon="-0.55765">
        <ele>28.4</ele>
        <time>2020-09-01T08:20:22Z</time>
      </trkpt>
      <trkpt lat="45.17307" lon="-0.55766">
        <ele>28.4</ele>
        <time>2020-09-01T08:20:23Z</time>
      </trkpt>
      <trkpt lat="45.17309" lon="-0.55767">
        <ele>28.4</ele>
        <time>2020-09-01T08:20:25Z</time>
      </trkpt>
      <trkpt lat="45.1731" lon="-0.55768">
        <ele>28.4</ele>
        <time>2020-09-01T08:20:26Z</time>
      </trkpt>
      <trkpt lat="45.17312" lon="-0.5577">
        <ele>28.3</ele>
        <time>2020-09-01T08:20:27Z</time>
      </trkpt>
      <trkpt lat="45.17314" lon="-0.55771">
        <ele>28.3</ele>
        <time>2020-09-01T08:20:29Z</time>
      </trkpt>
      <trkpt lat="45.17316" lon="-0.55774">
        <ele>28.3</ele>
        <time>2020-09-01T08:20:30Z</time>
      </trkpt>
      <trkpt lat="45.17317" lon="-0.55775">
        <ele>28.3</ele>
        <time>2020-09-01T08:20:31Z</time>
      </trkpt>
      <trkpt lat="45.17319" lon="-0.55778">
        <ele>28.3</ele>
        <time>2020-09-01T08:20:33Z</time>
      </trkpt>
      <trkpt lat="45.1732" lon="-0.55779">
        <ele>28.3</ele>
        <time>2020-09-01T08:20:34Z</time>
      </trkpt>
      <trkpt lat="45.17321" lon="-0.55781">
        <ele>28.3</ele>
        <time>2020-09-01T08:20:35Z</time>
      </trkpt>
      <trkpt lat="45.17323" lon="-0.55784">
        <ele>28.3</ele>
        <time>2020-09-01T08:20:37Z</time>
      </trkpt>
      <trkpt lat="45.17324" lon="-0.55786">
        <ele>28.3</ele>
        <time>2020-09-01T08:20:38Z</time>
      </trkpt>
      <trkpt lat="45.17325" lon="-0.55787">
        <ele>28.3</ele>
        <time>2020-09-01T08:20:39Z</time>
      </trkpt>
      <trkpt lat="45.17325" lon="-0.55789">
        <ele>28.3</ele>
        <time>2020-09-01T08:20:40Z</time>
      </trkpt>
      <trkpt lat="45.17326" lon="-0.55792">
        <ele>28.3</ele>
        <time>2020-09-01T08:20:41Z</time>
      </trkpt>
      <trkpt lat="45.17327" lon="-0.55793">
        <ele>28.3</ele>
        <time>2020-09-01T08:20:42Z</time>
      </trkpt>
      <trkpt lat="45.17327" lon="-0.55795">
        <ele>28.3</ele>
        <time>2020-09-01T08:20:43Z</time>
      </trkpt>
      <trkpt lat="45.17329" lon="-0.55799">
        <ele>28.3</ele>
        <time>2020-09-01T08:20:44Z</time>
      </trkpt>
      <trkpt lat="45.17329" lon="-0.558">
        <ele>28.3</ele>
        <time>2020-09-01T08:20:46Z</time>
      </trkpt>
      <trkpt lat="45.1733" lon="-0.55802">
        <ele>28.2</ele>
        <time>2020-09-01T08:20:47Z</time>
      </trkpt>
      <trkpt lat="45.1733" lon="-0.55804">
        <ele>28.2</ele>
        <time>2020-09-01T08:20:48Z</time>
      </trkpt>
      <trkpt lat="45.17331" lon="-0.55807">
        <ele>28.2</ele>
        <time>2020-09-01T08:20:49Z</time>
      </trkpt>
      <trkpt lat="45.1733" lon="-0.55809">
        <ele>28.2</ele>
        <time>2020-09-01T08:20:50Z</time>
      </trkpt>
      <trkpt lat="45.1733" lon="-0.5581">
        <ele>28.2</ele>
        <time>2020-09-01T08:20:51Z</time>
      </trkpt>
      <trkpt lat="45.1733" lon="-0.55811">
        <ele>28.2</ele>
        <time>2020-09-01T08:20:53Z</time>
      </trkpt>
      <trkpt lat="45.17329" lon="-0.55812">
        <ele>28.2</ele>
        <time>2020-09-01T08:20:54Z</time>
      </trkpt>
      <trkpt lat="45.17327" lon="-0.55814">
        <ele>28.2</ele>
        <time>2020-09-01T08:20:56Z</time>
      </trkpt>
      <trkpt lat="45.17325" lon="-0.55817">
        <ele>28.2</ele>
        <time>2020-09-01T08:20:57Z</time>
      </trkpt>
      <trkpt lat="45.17326" lon="-0.55817">
        <ele>28.2</ele>
        <time>2020-09-01T08:20:58Z</time>
      </trkpt>
      <trkpt lat="45.17325" lon="-0.55817">
        <ele>28.2</ele>
        <time>2020-09-01T08:20:59Z</time>
      </trkpt>
      <trkpt lat="45.17323" lon="-0.55818">
        <ele>28.1</ele>
        <time>2020-09-01T08:21:00Z</time>
      </trkpt>
      <trkpt lat="45.17322" lon="-0.55819">
        <ele>28.1</ele>
        <time>2020-09-01T08:21:01Z</time>
      </trkpt>
      <trkpt lat="45.1732" lon="-0.55819">
        <ele>28.1</ele>
        <time>2020-09-01T08:21:02Z</time>
      </trkpt>
      <trkpt lat="45.17319" lon="-0.5582">
        <ele>28.1</ele>
        <time>2020-09-01T08:21:04Z</time>
      </trkpt>
      <trkpt lat="45.17317" lon="-0.5582">
        <ele>28.1</ele>
        <time>2020-09-01T08:21:05Z</time>
      </trkpt>
      <trkpt lat="45.17315" lon="-0.55821">
        <ele>28.1</ele>
        <time>2020-09-01T08:21:06Z</time>
      </trkpt>
      <trkpt lat="45.17314" lon="-0.55821">
        <ele>28.1</ele>
        <time>2020-09-01T08:21:07Z</time>
      </trkpt>
      <trkpt lat="45.17312" lon="-0.55822">
        <ele>28.1</ele>
        <time>2020-09-01T08:21:08Z</time>
      </trkpt>
      <trkpt lat="45.1731" lon="-0.55822">
        <ele>28</ele>
        <time>2020-09-01T08:21:10Z</time>
      </trkpt>
      <trkpt lat="45.17308" lon="-0.55823">
        <ele>28</ele>
        <time>2020-09-01T08:21:11Z</time>
      </trkpt>
      <trkpt lat="45.17307" lon="-0.55824">
        <ele>28</ele>
        <time>2020-09-01T08:21:12Z</time>
      </trkpt>
      <trkpt lat="45.17305" lon="-0.55824">
        <ele>28</ele>
        <time>2020-09-01T08:21:14Z</time>
      </trkpt>
      <trkpt lat="45.17303" lon="-0.55825">
        <ele>28</ele>
        <time>2020-09-01T08:21:16Z</time>
      </trkpt>
      <trkpt lat="45.17301" lon="-0.55827">
        <ele>28</ele>
        <time>2020-09-01T08:21:17Z</time>
      </trkpt>
      <trkpt lat="45.17299" lon="-0.55828">
        <ele>28</ele>
        <time>2020-09-01T08:21:18Z</time>
      </trkpt>
      <trkpt lat="45.17298" lon="-0.55829">
        <ele>27.9</ele>
        <time>2020-09-01T08:21:20Z</time>
      </trkpt>
      <trkpt lat="45.17296" lon="-0.5583">
        <ele>27.9</ele>
        <time>2020-09-01T08:21:21Z</time>
      </trkpt>
      <trkpt lat="45.17295" lon="-0.55832">
        <ele>27.9</ele>
        <time>2020-09-01T08:21:22Z</time>
      </trkpt>
      <trkpt lat="45.17294" lon="-0.55833">
        <ele>27.9</ele>
        <time>2020-09-01T08:21:23Z</time>
      </trkpt>
      <trkpt lat="45.17292" lon="-0.55834">
        <ele>27.9</ele>
        <time>2020-09-01T08:21:25Z</time>
      </trkpt>
      <trkpt lat="45.1729" lon="-0.55837">
        <ele>27.9</ele>
        <time>2020-09-01T08:21:27Z</time>
      </trkpt>
      <trkpt lat="45.17288" lon="-0.55839">
        <ele>27.9</ele>
        <time>2020-09-01T08:21:28Z</time>
      </trkpt>
      <trkpt lat="45.17287" lon="-0.55841">
        <ele>27.8</ele>
        <time>2020-09-01T08:21:30Z</time>
      </trkpt>
      <trkpt lat="45.17285" lon="-0.55844">
        <ele>27.8</ele>
        <time>2020-09-01T08:21:32Z</time>
      </trkpt>
      <trkpt lat="45.17284" lon="-0.55845">
        <ele>27.8</ele>
        <time>2020-09-01T08:21:33Z</time>
      </trkpt>
      <trkpt lat="45.17283" lon="-0.55846">
        <ele>27.8</ele>
        <time>2020-09-01T08:21:34Z</time>
      </trkpt>
      <trkpt lat="45.17281" lon="-0.55848">
        <ele>27.8</ele>
        <time>2020-09-01T08:21:36Z</time>
      </trkpt>
      <trkpt lat="45.1728" lon="-0.55849">
        <ele>27.8</ele>
        <time>2020-09-01T08:21:37Z</time>
      </trkpt>
      <trkpt lat="45.17279" lon="-0.5585">
        <ele>27.8</ele>
        <time>2020-09-01T08:21:38Z</time>
      </trkpt>
      <trkpt lat="45.17277" lon="-0.55853">
        <ele>27.7</ele>
        <time>2020-09-01T08:21:39Z</time>
      </trkpt>
      <trkpt lat="45.17276" lon="-0.55853">
        <ele>27.7</ele>
        <time>2020-09-01T08:21:40Z</time>
      </trkpt>
      <trkpt lat="45.17275" lon="-0.55854">
        <ele>27.7</ele>
        <time>2020-09-01T08:21:41Z</time>
      </trkpt>
      <trkpt lat="45.17274" lon="-0.55856">
        <ele>27.7</ele>
        <time>2020-09-01T08:21:43Z</time>
      </trkpt>
      <trkpt lat="45.17273" lon="-0.55857">
        <ele>27.7</ele>
        <time>2020-09-01T08:21:44Z</time>
      </trkpt>
      <trkpt lat="45.17272" lon="-0.55858">
        <ele>27.7</ele>
        <time>2020-09-01T08:21:46Z</time>
      </trkpt>
      <trkpt lat="45.17271" lon="-0.5586">
        <ele>27.7</ele>
        <time>2020-09-01T08:21:47Z</time>
      </trkpt>
      <trkpt lat="45.1727" lon="-0.55861">
        <ele>27.7</ele>
        <time>2020-09-01T08:21:48Z</time>
      </trkpt>
      <trkpt lat="45.17269" lon="-0.55862">
        <ele>27.7</ele>
        <time>2020-09-01T08:21:49Z</time>
      </trkpt>
      <trkpt lat="45.17268" lon="-0.55863">
        <ele>27.7</ele>
        <time>2020-09-01T08:21:50Z</time>
      </trkpt>
      <trkpt lat="45.17267" lon="-0.55865">
        <ele>27.6</ele>
        <time>2020-09-01T08:21:52Z</time>
      </trkpt>
      <trkpt lat="45.17265" lon="-0.55867">
        <ele>27.6</ele>
        <time>2020-09-01T08:21:53Z</time>
      </trkpt>
      <trkpt lat="45.17265" lon="-0.55868">
        <ele>27.6</ele>
        <time>2020-09-01T08:21:54Z</time>
      </trkpt>
      <trkpt lat="45.17264" lon="-0.55869">
        <ele>27.6</ele>
        <time>2020-09-01T08:21:55Z</time>
      </trkpt>
      <trkpt lat="45.17262" lon="-0.55871">
        <ele>27.6</ele>
        <time>2020-09-01T08:21:56Z</time>
      </trkpt>
      <trkpt lat="45.17261" lon="-0.55873">
        <ele>27.6</ele>
        <time>2020-09-01T08:21:58Z</time>
      </trkpt>
      <trkpt lat="45.1726" lon="-0.55875">
        <ele>27.6</ele>
        <time>2020-09-01T08:21:59Z</time>
      </trkpt>
      <trkpt lat="45.17259" lon="-0.55876">
        <ele>27.6</ele>
        <time>2020-09-01T08:22:00Z</time>
      </trkpt>
      <trkpt lat="45.17256" lon="-0.55879">
        <ele>27.5</ele>
        <time>2020-09-01T08:22:02Z</time>
      </trkpt>
      <trkpt lat="45.17256" lon="-0.5588">
        <ele>27.5</ele>
        <time>2020-09-01T08:22:03Z</time>
      </trkpt>
      <trkpt lat="45.17254" lon="-0.55881">
        <ele>27.5</ele>
        <time>2020-09-01T08:22:04Z</time>
      </trkpt>
      <trkpt lat="45.17253" lon="-0.55882">
        <ele>27.5</ele>
        <time>2020-09-01T08:22:05Z</time>
      </trkpt>
      <trkpt lat="45.17252" lon="-0.55884">
        <ele>27.5</ele>
        <time>2020-09-01T08:22:06Z</time>
      </trkpt>
      <trkpt lat="45.17251" lon="-0.55884">
        <ele>27.5</ele>
        <time>2020-09-01T08:22:07Z</time>
      </trkpt>
      <trkpt lat="45.1725" lon="-0.55885">
        <ele>27.5</ele>
        <time>2020-09-01T08:22:08Z</time>
      </trkpt>
      <trkpt lat="45.17249" lon="-0.55886">
        <ele>27.5</ele>
        <time>2020-09-01T08:22:09Z</time>
      </trkpt>
      <trkpt lat="45.17248" lon="-0.55887">
        <ele>27.5</ele>
        <time>2020-09-01T08:22:10Z</time>
      </trkpt>
      <trkpt lat="45.17246" lon="-0.5589">
        <ele>27.4</ele>
        <time>2020-09-01T08:22:12Z</time>
      </trkpt>
      <trkpt lat="45.17246" lon="-0.55891">
        <ele>27.4</ele>
        <time>2020-09-01T08:22:13Z</time>
      </trkpt>
      <trkpt lat="45.17244" lon="-0.55893">
        <ele>27.4</ele>
        <time>2020-09-01T08:22:14Z</time>
      </trkpt>
      <trkpt lat="45.17243" lon="-0.55894">
        <ele>27.4</ele>
        <time>2020-09-01T08:22:15Z</time>
      </trkpt>
      <trkpt lat="45.17242" lon="-0.55897">
        <ele>27.4</ele>
        <time>2020-09-01T08:22:16Z</time>
      </trkpt>
      <trkpt lat="45.17241" lon="-0.55898">
        <ele>27.4</ele>
        <time>2020-09-01T08:22:17Z</time>
      </trkpt>
      <trkpt lat="45.1724" lon="-0.559">
        <ele>27.4</ele>
        <time>2020-09-01T08:22:18Z</time>
      </trkpt>
      <trkpt lat="45.1724" lon="-0.55902">
        <ele>27.4</ele>
        <time>2020-09-01T08:22:20Z</time>
      </trkpt>
      <trkpt lat="45.17239" lon="-0.55903">
        <ele>27.3</ele>
        <time>2020-09-01T08:22:21Z</time>
      </trkpt>
      <trkpt lat="45.17238" lon="-0.55906">
        <ele>27.3</ele>
        <time>2020-09-01T08:22:22Z</time>
      </trkpt>
      <trkpt lat="45.17237" lon="-0.55908">
        <ele>27.3</ele>
        <time>2020-09-01T08:22:24Z</time>
      </trkpt>
      <trkpt lat="45.17237" lon="-0.55909">
        <ele>27.3</ele>
        <time>2020-09-01T08:22:25Z</time>
      </trkpt>
      <trkpt lat="45.17235" lon="-0.55913">
        <ele>27.3</ele>
        <time>2020-09-01T08:22:27Z</time>
      </trkpt>
      <trkpt lat="45.17234" lon="-0.55914">
        <ele>27.3</ele>
        <time>2020-09-01T08:22:28Z</time>
      </trkpt>
      <trkpt lat="45.17234" lon="-0.55916">
        <ele>27.3</ele>
        <time>2020-09-01T08:22:29Z</time>
      </trkpt>
      <trkpt lat="45.17233" lon="-0.55917">
        <ele>27.3</ele>
        <time>2020-09-01T08:22:30Z</time>
      </trkpt>
      <trkpt lat="45.17232" lon="-0.55921">
        <ele>27.2</ele>
        <time>2020-09-01T08:22:32Z</time>
      </trkpt>
      <trkpt lat="45.17231" lon="-0.55923">
        <ele>27.2</ele>
        <time>2020-09-01T08:22:34Z</time>
      </trkpt>
      <trkpt lat="45.17231" lon="-0.55925">
        <ele>27.2</ele>
        <time>2020-09-01T08:22:35Z</time>
      </trkpt>
      <trkpt lat="45.1723" lon="-0.55928">
        <ele>27.2</ele>
        <time>2020-09-01T08:22:36Z</time>
      </trkpt>
      <trkpt lat="45.1723" lon="-0.5593">
        <ele>27.2</ele>
        <time>2020-09-01T08:22:38Z</time>
      </trkpt>
      <trkpt lat="45.17229" lon="-0.55934">
        <ele>27.2</ele>
        <time>2020-09-01T08:22:39Z</time>
      </trkpt>
      <trkpt lat="45.17228" lon="-0.55939">
        <ele>27.1</ele>
        <time>2020-09-01T08:22:42Z</time>
      </trkpt>
      <trkpt lat="45.17227" lon="-0.55941">
        <ele>27.1</ele>
        <time>2020-09-01T08:22:43Z</time>
      </trkpt>
      <trkpt lat="45.17226" lon="-0.55945">
        <ele>27.1</ele>
        <time>2020-09-01T08:22:45Z</time>
      </trkpt>
      <trkpt lat="45.17225" lon="-0.55949">
        <ele>27.1</ele>
        <time>2020-09-01T08:22:47Z</time>
      </trkpt>
      <trkpt lat="45.17225" lon="-0.5595">
        <ele>27.1</ele>
        <time>2020-09-01T08:22:48Z</time>
      </trkpt>
      <trkpt lat="45.17225" lon="-0.55952">
        <ele>27.1</ele>
        <time>2020-09-01T08:22:49Z</time>
      </trkpt>
      <trkpt lat="45.17224" lon="-0.55954">
        <ele>27</ele>
        <time>2020-09-01T08:22:50Z</time>
      </trkpt>
      <trkpt lat="45.17224" lon="-0.55957">
        <ele>27</ele>
        <time>2020-09-01T08:22:52Z</time>
      </trkpt>
      <trkpt lat="45.17223" lon="-0.55959">
        <ele>27</ele>
        <time>2020-09-01T08:22:53Z</time>
      </trkpt>
      <trkpt lat="45.17223" lon="-0.55961">
        <ele>27</ele>
        <time>2020-09-01T08:22:54Z</time>
      </trkpt>
      <trkpt lat="45.17223" lon="-0.55963">
        <ele>27</ele>
        <time>2020-09-01T08:22:55Z</time>
      </trkpt>
      <trkpt lat="45.17224" lon="-0.55967">
        <ele>27</ele>
        <time>2020-09-01T08:22:57Z</time>
      </trkpt>
      <trkpt lat="45.17224" lon="-0.5597">
        <ele>27</ele>
        <time>2020-09-01T08:22:58Z</time>
      </trkpt>
      <trkpt lat="45.17224" lon="-0.55971">
        <ele>27</ele>
        <time>2020-09-01T08:22:59Z</time>
      </trkpt>
      <trkpt lat="45.17224" lon="-0.55973">
        <ele>26.9</ele>
        <time>2020-09-01T08:23:00Z</time>
      </trkpt>
      <trkpt lat="45.17225" lon="-0.55979">
        <ele>26.9</ele>
        <time>2020-09-01T08:23:03Z</time>
      </trkpt>
      <trkpt lat="45.17225" lon="-0.5598">
        <ele>26.9</ele>
        <time>2020-09-01T08:23:04Z</time>
      </trkpt>
      <trkpt lat="45.17225" lon="-0.55982">
        <ele>26.9</ele>
        <time>2020-09-01T08:23:05Z</time>
      </trkpt>
      <trkpt lat="45.17226" lon="-0.55985">
        <ele>26.9</ele>
        <time>2020-09-01T08:23:07Z</time>
      </trkpt>
      <trkpt lat="45.17226" lon="-0.55987">
        <ele>26.9</ele>
        <time>2020-09-01T08:23:08Z</time>
      </trkpt>
      <trkpt lat="45.17227" lon="-0.5599">
        <ele>26.9</ele>
        <time>2020-09-01T08:23:09Z</time>
      </trkpt>
      <trkpt lat="45.17227" lon="-0.55992">
        <ele>26.8</ele>
        <time>2020-09-01T08:23:11Z</time>
      </trkpt>
      <trkpt lat="45.17228" lon="-0.55994">
        <ele>26.8</ele>
        <time>2020-09-01T08:23:12Z</time>
      </trkpt>
      <trkpt lat="45.17228" lon="-0.55996">
        <ele>26.8</ele>
        <time>2020-09-01T08:23:13Z</time>
      </trkpt>
      <trkpt lat="45.17229" lon="-0.55998">
        <ele>26.8</ele>
        <time>2020-09-01T08:23:14Z</time>
      </trkpt>
      <trkpt lat="45.17229" lon="-0.56">
        <ele>26.8</ele>
        <time>2020-09-01T08:23:16Z</time>
      </trkpt>
      <trkpt lat="45.1723" lon="-0.56003">
        <ele>26.8</ele>
        <time>2020-09-01T08:23:17Z</time>
      </trkpt>
      <trkpt lat="45.1723" lon="-0.56004">
        <ele>26.8</ele>
        <time>2020-09-01T08:23:18Z</time>
      </trkpt>
      <trkpt lat="45.17231" lon="-0.56008">
        <ele>26.8</ele>
        <time>2020-09-01T08:23:19Z</time>
      </trkpt>
      <trkpt lat="45.17231" lon="-0.56009">
        <ele>26.7</ele>
        <time>2020-09-01T08:23:21Z</time>
      </trkpt>
      <trkpt lat="45.17232" lon="-0.56011">
        <ele>26.7</ele>
        <time>2020-09-01T08:23:22Z</time>
      </trkpt>
      <trkpt lat="45.17233" lon="-0.56014">
        <ele>26.7</ele>
        <time>2020-09-01T08:23:24Z</time>
      </trkpt>
      <trkpt lat="45.17234" lon="-0.56015">
        <ele>26.7</ele>
        <time>2020-09-01T08:23:25Z</time>
      </trkpt>
      <trkpt lat="45.17234" lon="-0.56016">
        <ele>26.7</ele>
        <time>2020-09-01T08:23:26Z</time>
      </trkpt>
      <trkpt lat="45.17236" lon="-0.5602">
        <ele>26.7</ele>
        <time>2020-09-01T08:23:28Z</time>
      </trkpt>
      <trkpt lat="45.17237" lon="-0.56021">
        <ele>26.7</ele>
        <time>2020-09-01T08:23:29Z</time>
      </trkpt>
      <trkpt lat="45.17238" lon="-0.56023">
        <ele>26.7</ele>
        <time>2020-09-01T08:23:30Z</time>
      </trkpt>
      <trkpt lat="45.17239" lon="-0.56025">
        <ele>26.6</ele>
        <time>2020-09-01T08:23:31Z</time>
      </trkpt>
      <trkpt lat="45.1724" lon="-0.56029">
        <ele>26.6</ele>
        <time>2020-09-01T08:23:33Z</time>
      </trkpt>
      <trkpt lat="45.17241" lon="-0.5603">
        <ele>26.6</ele>
        <time>2020-09-01T08:23:34Z</time>
      </trkpt>
      <trkpt lat="45.17241" lon="-0.56031">
        <ele>26.6</ele>
        <time>2020-09-01T08:23:35Z</time>
      </trkpt>
      <trkpt lat="45.17243" lon="-0.56034">
        <ele>26.6</ele>
        <time>2020-09-01T08:23:37Z</time>
      </trkpt>
      <trkpt lat="45.17244" lon="-0.56035">
        <ele>26.6</ele>
        <time>2020-09-01T08:23:38Z</time>
      </trkpt>
      <trkpt lat="45.17244" lon="-0.56037">
        <ele>26.6</ele>
        <time>2020-09-01T08:23:39Z</time>
      </trkpt>
      <trkpt lat="45.17245" lon="-0.5604">
        <ele>26.5</ele>
        <time>2020-09-01T08:23:41Z</time>
      </trkpt>
      <trkpt lat="45.17246" lon="-0.56042">
        <ele>26.5</ele>
        <time>2020-09-01T08:23:42Z</time>
      </trkpt>
      <trkpt lat="45.17246" lon="-0.56043">
        <ele>26.5</ele>
        <time>2020-09-01T08:23:43Z</time>
      </trkpt>
      <trkpt lat="45.17247" lon="-0.56045">
        <ele>26.5</ele>
        <time>2020-09-01T08:23:45Z</time>
      </trkpt>
      <trkpt lat="45.17247" lon="-0.56047">
        <ele>26.5</ele>
        <time>2020-09-01T08:23:46Z</time>
      </trkpt>
      <trkpt lat="45.17248" lon="-0.56049">
        <ele>26.5</ele>
        <time>2020-09-01T08:23:47Z</time>
      </trkpt>
      <trkpt lat="45.17249" lon="-0.56051">
        <ele>26.5</ele>
        <time>2020-09-01T08:23:49Z</time>
      </trkpt>
      <trkpt lat="45.17249" lon="-0.56052">
        <ele>26.5</ele>
        <time>2020-09-01T08:23:50Z</time>
      </trkpt>
      <trkpt lat="45.17251" lon="-0.56057">
        <ele>26.4</ele>
        <time>2020-09-01T08:23:52Z</time>
      </trkpt>
      <trkpt lat="45.17252" lon="-0.56059">
        <ele>26.4</ele>
        <time>2020-09-01T08:23:54Z</time>
      </trkpt>
      <trkpt lat="45.17252" lon="-0.5606">
        <ele>26.4</ele>
        <time>2020-09-01T08:23:55Z</time>
      </trkpt>
      <trkpt lat="45.17252" lon="-0.56061">
        <ele>26.4</ele>
        <time>2020-09-01T08:23:56Z</time>
      </trkpt>
      <trkpt lat="45.17253" lon="-0.56064">
        <ele>26.4</ele>
        <time>2020-09-01T08:23:57Z</time>
      </trkpt>
      <trkpt lat="45.17253" lon="-0.56067">
        <ele>26.4</ele>
        <time>2020-09-01T08:23:59Z</time>
      </trkpt>
      <trkpt lat="45.17253" lon="-0.56069">
        <ele>26.4</ele>
        <time>2020-09-01T08:24:00Z</time>
      </trkpt>
      <trkpt lat="45.17254" lon="-0.56071">
        <ele>26.4</ele>
        <time>2020-09-01T08:24:01Z</time>
      </trkpt>
      <trkpt lat="45.17254" lon="-0.56073">
        <ele>26.4</ele>
        <time>2020-09-01T08:24:02Z</time>
      </trkpt>
      <trkpt lat="45.17254" lon="-0.56075">
        <ele>26.3</ele>
        <time>2020-09-01T08:24:03Z</time>
      </trkpt>
      <trkpt lat="45.17255" lon="-0.56079">
        <ele>26.3</ele>
        <time>2020-09-01T08:24:05Z</time>
      </trkpt>
      <trkpt lat="45.17255" lon="-0.56081">
        <ele>26.3</ele>
        <time>2020-09-01T08:24:06Z</time>
      </trkpt>
      <trkpt lat="45.17256" lon="-0.56085">
        <ele>26.3</ele>
        <time>2020-09-01T08:24:08Z</time>
      </trkpt>
      <trkpt lat="45.17256" lon="-0.56086">
        <ele>26.3</ele>
        <time>2020-09-01T08:24:09Z</time>
      </trkpt>
      <trkpt lat="45.17256" lon="-0.56088">
        <ele>26.3</ele>
        <time>2020-09-01T08:24:10Z</time>
      </trkpt>
      <trkpt lat="45.17256" lon="-0.56089">
        <ele>26.3</ele>
        <time>2020-09-01T08:24:11Z</time>
      </trkpt>
      <trkpt lat="45.17256" lon="-0.56093">
        <ele>26.2</ele>
        <time>2020-09-01T08:24:13Z</time>
      </trkpt>
      <trkpt lat="45.17257" lon="-0.56095">
        <ele>26.2</ele>
        <time>2020-09-01T08:24:14Z</time>
      </trkpt>
      <trkpt lat="45.17257" lon="-0.56097">
        <ele>26.2</ele>
        <time>2020-09-01T08:24:15Z</time>
      </trkpt>
      <trkpt lat="45.17257" lon="-0.56101">
        <ele>26.2</ele>
        <time>2020-09-01T08:24:17Z</time>
      </trkpt>
      <trkpt lat="45.17258" lon="-0.56105">
        <ele>26.2</ele>
        <time>2020-09-01T08:24:19Z</time>
      </trkpt>
      <trkpt lat="45.17258" lon="-0.56106">
        <ele>26.2</ele>
        <time>2020-09-01T08:24:20Z</time>
      </trkpt>
      <trkpt lat="45.17259" lon="-0.56109">
        <ele>26.2</ele>
        <time>2020-09-01T08:24:21Z</time>
      </trkpt>
      <trkpt lat="45.17259" lon="-0.56111">
        <ele>26.2</ele>
        <time>2020-09-01T08:24:22Z</time>
      </trkpt>
      <trkpt lat="45.17259" lon="-0.56115">
        <ele>26.1</ele>
        <time>2020-09-01T08:24:24Z</time>
      </trkpt>
      <trkpt lat="45.17259" lon="-0.56116">
        <ele>26.1</ele>
        <time>2020-09-01T08:24:25Z</time>
      </trkpt>
      <trkpt lat="45.17259" lon="-0.56118">
        <ele>26.1</ele>
        <time>2020-09-01T08:24:26Z</time>
      </trkpt>
      <trkpt lat="45.1726" lon="-0.56122">
        <ele>26.1</ele>
        <time>2020-09-01T08:24:28Z</time>
      </trkpt>
      <trkpt lat="45.1726" lon="-0.56123">
        <ele>26.1</ele>
        <time>2020-09-01T08:24:29Z</time>
      </trkpt>
      <trkpt lat="45.1726" lon="-0.56125">
        <ele>26.1</ele>
        <time>2020-09-01T08:24:30Z</time>
      </trkpt>
      <trkpt lat="45.17261" lon="-0.56126">
        <ele>26.1</ele>
        <time>2020-09-01T08:24:31Z</time>
      </trkpt>
      <trkpt lat="45.17262" lon="-0.5613">
        <ele>26</ele>
        <time>2020-09-01T08:24:32Z</time>
      </trkpt>
      <trkpt lat="45.17262" lon="-0.56132">
        <ele>26</ele>
        <time>2020-09-01T08:24:33Z</time>
      </trkpt>
      <trkpt lat="45.17263" lon="-0.56134">
        <ele>26</ele>
        <time>2020-09-01T08:24:34Z</time>
      </trkpt>
      <trkpt lat="45.17263" lon="-0.56136">
        <ele>26</ele>
        <time>2020-09-01T08:24:36Z</time>
      </trkpt>
      <trkpt lat="45.17264" lon="-0.56137">
        <ele>26</ele>
        <time>2020-09-01T08:24:37Z</time>
      </trkpt>
      <trkpt lat="45.17264" lon="-0.56139">
        <ele>26</ele>
        <time>2020-09-01T08:24:38Z</time>
      </trkpt>
      <trkpt lat="45.17265" lon="-0.56141">
        <ele>26</ele>
        <time>2020-09-01T08:24:39Z</time>
      </trkpt>
      <trkpt lat="45.17265" lon="-0.56143">
        <ele>26</ele>
        <time>2020-09-01T08:24:40Z</time>
      </trkpt>
      <trkpt lat="45.17266" lon="-0.56146">
        <ele>26</ele>
        <time>2020-09-01T08:24:42Z</time>
      </trkpt>
      <trkpt lat="45.17266" lon="-0.56149">
        <ele>25.9</ele>
        <time>2020-09-01T08:24:43Z</time>
      </trkpt>
      <trkpt lat="45.17266" lon="-0.56151">
        <ele>25.9</ele>
        <time>2020-09-01T08:24:45Z</time>
      </trkpt>
      <trkpt lat="45.17267" lon="-0.56153">
        <ele>25.9</ele>
        <time>2020-09-01T08:24:46Z</time>
      </trkpt>
      <trkpt lat="45.17267" lon="-0.56156">
        <ele>25.9</ele>
        <time>2020-09-01T08:24:48Z</time>
      </trkpt>
      <trkpt lat="45.17267" lon="-0.56157">
        <ele>25.9</ele>
        <time>2020-09-01T08:24:49Z</time>
      </trkpt>
      <trkpt lat="45.17267" lon="-0.56158">
        <ele>25.9</ele>
        <time>2020-09-01T08:24:50Z</time>
      </trkpt>
      <trkpt lat="45.17267" lon="-0.5616">
        <ele>25.9</ele>
        <time>2020-09-01T08:24:51Z</time>
      </trkpt>
      <trkpt lat="45.17268" lon="-0.56163">
        <ele>25.9</ele>
        <time>2020-09-01T08:24:52Z</time>
      </trkpt>
      <trkpt lat="45.17268" lon="-0.56164">
        <ele>25.9</ele>
        <time>2020-09-01T08:24:53Z</time>
      </trkpt>
      <trkpt lat="45.17268" lon="-0.56165">
        <ele>25.8</ele>
        <time>2020-09-01T08:24:54Z</time>
      </trkpt>
      <trkpt lat="45.17268" lon="-0.56167">
        <ele>25.8</ele>
        <time>2020-09-01T08:24:56Z</time>
      </trkpt>
      <trkpt lat="45.17269" lon="-0.56169">
        <ele>25.8</ele>
        <time>2020-09-01T08:24:57Z</time>
      </trkpt>
      <trkpt lat="45.17269" lon="-0.56172">
        <ele>25.8</ele>
        <time>2020-09-01T08:24:58Z</time>
      </trkpt>
      <trkpt lat="45.17269" lon="-0.56174">
        <ele>25.8</ele>
        <time>2020-09-01T08:24:59Z</time>
      </trkpt>
      <trkpt lat="45.17269" lon="-0.56175">
        <ele>25.8</ele>
        <time>2020-09-01T08:25:00Z</time>
      </trkpt>
      <trkpt lat="45.1727" lon="-0.56177">
        <ele>25.8</ele>
        <time>2020-09-01T08:25:01Z</time>
      </trkpt>
      <trkpt lat="45.1727" lon="-0.56179">
        <ele>25.8</ele>
        <time>2020-09-01T08:25:02Z</time>
      </trkpt>
      <trkpt lat="45.1727" lon="-0.56181">
        <ele>25.8</ele>
        <time>2020-09-01T08:25:03Z</time>
      </trkpt>
      <trkpt lat="45.1727" lon="-0.56183">
        <ele>25.8</ele>
        <time>2020-09-01T08:25:04Z</time>
      </trkpt>
      <trkpt lat="45.1727" lon="-0.56184">
        <ele>25.7</ele>
        <time>2020-09-01T08:25:05Z</time>
      </trkpt>
      <trkpt lat="45.17271" lon="-0.56187">
        <ele>25.7</ele>
        <time>2020-09-01T08:25:06Z</time>
      </trkpt>
      <trkpt lat="45.1727" lon="-0.56188">
        <ele>25.7</ele>
        <time>2020-09-01T08:25:07Z</time>
      </trkpt>
      <trkpt lat="45.1727" lon="-0.56189">
        <ele>25.7</ele>
        <time>2020-09-01T08:25:08Z</time>
      </trkpt>
      <trkpt lat="45.1727" lon="-0.56191">
        <ele>25.7</ele>
        <time>2020-09-01T08:25:09Z</time>
      </trkpt>
      <trkpt lat="45.1727" lon="-0.56195">
        <ele>25.7</ele>
        <time>2020-09-01T08:25:10Z</time>
      </trkpt>
      <trkpt lat="45.17269" lon="-0.56197">
        <ele>25.7</ele>
        <time>2020-09-01T08:25:11Z</time>
      </trkpt>
      <trkpt lat="45.17269" lon="-0.56199">
        <ele>25.7</ele>
        <time>2020-09-01T08:25:12Z</time>
      </trkpt>
      <trkpt lat="45.17268" lon="-0.56202">
        <ele>25.7</ele>
        <time>2020-09-01T08:25:14Z</time>
      </trkpt>
      <trkpt lat="45.17267" lon="-0.56203">
        <ele>25.6</ele>
        <time>2020-09-01T08:25:16Z</time>
      </trkpt>
      <trkpt lat="45.17267" lon="-0.56206">
        <ele>25.6</ele>
        <time>2020-09-01T08:25:17Z</time>
      </trkpt>
      <trkpt lat="45.17267" lon="-0.56207">
        <ele>25.6</ele>
        <time>2020-09-01T08:25:18Z</time>
      </trkpt>
      <trkpt lat="45.17267" lon="-0.56208">
        <ele>25.6</ele>
        <time>2020-09-01T08:25:19Z</time>
      </trkpt>
      <trkpt lat="45.17266" lon="-0.5621">
        <ele>25.6</ele>
        <time>2020-09-01T08:25:20Z</time>
      </trkpt>
      <trkpt lat="45.17264" lon="-0.56217">
        <ele>25.6</ele>
        <time>2020-09-01T08:25:22Z</time>
      </trkpt>
      <trkpt lat="45.17263" lon="-0.56219">
        <ele>25.5</ele>
        <time>2020-09-01T08:25:24Z</time>
      </trkpt>
      <trkpt lat="45.17262" lon="-0.56222">
        <ele>25.5</ele>
        <time>2020-09-01T08:25:25Z</time>
      </trkpt>
      <trkpt lat="45.17261" lon="-0.56224">
        <ele>25.5</ele>
        <time>2020-09-01T08:25:26Z</time>
      </trkpt>
      <trkpt lat="45.1726" lon="-0.56228">
        <ele>25.5</ele>
        <time>2020-09-01T08:25:28Z</time>
      </trkpt>
      <trkpt lat="45.17259" lon="-0.5623">
        <ele>25.5</ele>
        <time>2020-09-01T08:25:29Z</time>
      </trkpt>
      <trkpt lat="45.17257" lon="-0.56236">
        <ele>25.5</ele>
        <time>2020-09-01T08:25:31Z</time>
      </trkpt>
      <trkpt lat="45.17256" lon="-0.56238">
        <ele>25.4</ele>
        <time>2020-09-01T08:25:32Z</time>
      </trkpt>
      <trkpt lat="45.17255" lon="-0.5624">
        <ele>25.4</ele>
        <time>2020-09-01T08:25:33Z</time>
      </trkpt>
      <trkpt lat="45.17254" lon="-0.56244">
        <ele>25.4</ele>
        <time>2020-09-01T08:25:35Z</time>
      </trkpt>
      <trkpt lat="45.17253" lon="-0.56246">
        <ele>25.4</ele>
        <time>2020-09-01T08:25:36Z</time>
      </trkpt>
      <trkpt lat="45.17253" lon="-0.56247">
        <ele>25.4</ele>
        <time>2020-09-01T08:25:37Z</time>
      </trkpt>
      <trkpt lat="45.17252" lon="-0.56249">
        <ele>25.4</ele>
        <time>2020-09-01T08:25:38Z</time>
      </trkpt>
      <trkpt lat="45.17251" lon="-0.56252">
        <ele>25.4</ele>
        <time>2020-09-01T08:25:40Z</time>
      </trkpt>
      <trkpt lat="45.1725" lon="-0.56254">
        <ele>25.3</ele>
        <time>2020-09-01T08:25:41Z</time>
      </trkpt>
      <trkpt lat="45.1725" lon="-0.56255">
        <ele>25.3</ele>
        <time>2020-09-01T08:25:42Z</time>
      </trkpt>
      <trkpt lat="45.17248" lon="-0.56258">
        <ele>25.3</ele>
        <time>2020-09-01T08:25:43Z</time>
      </trkpt>
      <trkpt lat="45.17248" lon="-0.56259">
        <ele>25.3</ele>
        <time>2020-09-01T08:25:44Z</time>
      </trkpt>
      <trkpt lat="45.17248" lon="-0.5626">
        <ele>25.3</ele>
        <time>2020-09-01T08:25:45Z</time>
      </trkpt>
      <trkpt lat="45.17247" lon="-0.56263">
        <ele>25.3</ele>
        <time>2020-09-01T08:25:46Z</time>
      </trkpt>
      <trkpt lat="45.17247" lon="-0.56264">
        <ele>25.3</ele>
        <time>2020-09-01T08:25:47Z</time>
      </trkpt>
      <trkpt lat="45.17246" lon="-0.56266">
        <ele>25.3</ele>
        <time>2020-09-01T08:25:48Z</time>
      </trkpt>
      <trkpt lat="45.17246" lon="-0.56267">
        <ele>25.3</ele>
        <time>2020-09-01T08:25:49Z</time>
      </trkpt>
      <trkpt lat="45.17246" lon="-0.56269">
        <ele>25.3</ele>
        <time>2020-09-01T08:25:50Z</time>
      </trkpt>
      <trkpt lat="45.17247" lon="-0.5627">
        <ele>25.2</ele>
        <time>2020-09-01T08:25:51Z</time>
      </trkpt>
      <trkpt lat="45.17247" lon="-0.56271">
        <ele>25.2</ele>
        <time>2020-09-01T08:25:52Z</time>
      </trkpt>
      <trkpt lat="45.17247" lon="-0.56272">
        <ele>25.2</ele>
        <time>2020-09-01T08:25:53Z</time>
      </trkpt>
      <trkpt lat="45.17246" lon="-0.56275">
        <ele>25.2</ele>
        <time>2020-09-01T08:25:55Z</time>
      </trkpt>
      <trkpt lat="45.17248" lon="-0.56275">
        <ele>25.2</ele>
        <time>2020-09-01T08:25:56Z</time>
      </trkpt>
      <trkpt lat="45.17248" lon="-0.56277">
        <ele>25.2</ele>
        <time>2020-09-01T08:25:57Z</time>
      </trkpt>
      <trkpt lat="45.17247" lon="-0.56279">
        <ele>25.2</ele>
        <time>2020-09-01T08:25:58Z</time>
      </trkpt>
      <trkpt lat="45.17247" lon="-0.56281">
        <ele>25.2</ele>
        <time>2020-09-01T08:25:59Z</time>
      </trkpt>
      <trkpt lat="45.17246" lon="-0.56284">
        <ele>25.2</ele>
        <time>2020-09-01T08:26:00Z</time>
      </trkpt>
      <trkpt lat="45.17246" lon="-0.56285">
        <ele>25.2</ele>
        <time>2020-09-01T08:26:01Z</time>
      </trkpt>
      <trkpt lat="45.17247" lon="-0.56288">
        <ele>25.1</ele>
        <time>2020-09-01T08:26:03Z</time>
      </trkpt>
      <trkpt lat="45.17246" lon="-0.5629">
        <ele>25.1</ele>
        <time>2020-09-01T08:26:04Z</time>
      </trkpt>
      <trkpt lat="45.17247" lon="-0.56291">
        <ele>25.1</ele>
        <time>2020-09-01T08:26:05Z</time>
      </trkpt>
      <trkpt lat="45.17247" lon="-0.56295">
        <ele>25.1</ele>
        <time>2020-09-01T08:26:07Z</time>
      </trkpt>
      <trkpt lat="45.17246" lon="-0.56296">
        <ele>25.1</ele>
        <time>2020-09-01T08:26:08Z</time>
      </trkpt>
      <trkpt lat="45.17246" lon="-0.56299">
        <ele>25.1</ele>
        <time>2020-09-01T08:26:09Z</time>
      </trkpt>
      <trkpt lat="45.17245" lon="-0.563">
        <ele>25.1</ele>
        <time>2020-09-01T08:26:11Z</time>
      </trkpt>
      <trkpt lat="45.17244" lon="-0.56302">
        <ele>25.1</ele>
        <time>2020-09-01T08:26:12Z</time>
      </trkpt>
      <trkpt lat="45.17242" lon="-0.56308">
        <ele>25</ele>
        <time>2020-09-01T08:26:14Z</time>
      </trkpt>
      <trkpt lat="45.17241" lon="-0.56309">
        <ele>25</ele>
        <time>2020-09-01T08:26:15Z</time>
      </trkpt>
      <trkpt lat="45.1724" lon="-0.56311">
        <ele>25</ele>
        <time>2020-09-01T08:26:16Z</time>
      </trkpt>
      <trkpt lat="45.17239" lon="-0.56314">
        <ele>25</ele>
        <time>2020-09-01T08:26:17Z</time>
      </trkpt>
      <trkpt lat="45.17239" lon="-0.56316">
        <ele>25</ele>
        <time>2020-09-01T08:26:18Z</time>
      </trkpt>
      <trkpt lat="45.17237" lon="-0.56319">
        <ele>25</ele>
        <time>2020-09-01T08:26:19Z</time>
      </trkpt>
      <trkpt lat="45.17237" lon="-0.56321">
        <ele>24.9</ele>
        <time>2020-09-01T08:26:20Z</time>
      </trkpt>
      <trkpt lat="45.17236" lon="-0.56322">
        <ele>24.9</ele>
        <time>2020-09-01T08:26:21Z</time>
      </trkpt>
      <trkpt lat="45.17236" lon="-0.56324">
        <ele>24.9</ele>
        <time>2020-09-01T08:26:22Z</time>
      </trkpt>
      <trkpt lat="45.17235" lon="-0.56327">
        <ele>24.9</ele>
        <time>2020-09-01T08:26:24Z</time>
      </trkpt>
      <trkpt lat="45.17234" lon="-0.5633">
        <ele>24.9</ele>
        <time>2020-09-01T08:26:26Z</time>
      </trkpt>
      <trkpt lat="45.17234" lon="-0.56332">
        <ele>24.9</ele>
        <time>2020-09-01T08:26:27Z</time>
      </trkpt>
      <trkpt lat="45.17233" lon="-0.56334">
        <ele>24.9</ele>
        <time>2020-09-01T08:26:28Z</time>
      </trkpt>
      <trkpt lat="45.17233" lon="-0.56337">
        <ele>24.9</ele>
        <time>2020-09-01T08:26:29Z</time>
      </trkpt>
      <trkpt lat="45.17232" lon="-0.56339">
        <ele>24.8</ele>
        <time>2020-09-01T08:26:30Z</time>
      </trkpt>
      <trkpt lat="45.17232" lon="-0.56341">
        <ele>24.8</ele>
        <time>2020-09-01T08:26:31Z</time>
      </trkpt>
      <trkpt lat="45.17232" lon="-0.56343">
        <ele>24.8</ele>
        <time>2020-09-01T08:26:32Z</time>
      </trkpt>
      <trkpt lat="45.17231" lon="-0.56345">
        <ele>24.8</ele>
        <time>2020-09-01T08:26:33Z</time>
      </trkpt>
      <trkpt lat="45.17231" lon="-0.56348">
        <ele>24.8</ele>
        <time>2020-09-01T08:26:35Z</time>
      </trkpt>
      <trkpt lat="45.17231" lon="-0.5635">
        <ele>24.8</ele>
        <time>2020-09-01T08:26:36Z</time>
      </trkpt>
      <trkpt lat="45.1723" lon="-0.56351">
        <ele>24.8</ele>
        <time>2020-09-01T08:26:37Z</time>
      </trkpt>
      <trkpt lat="45.1723" lon="-0.56353">
        <ele>24.8</ele>
        <time>2020-09-01T08:26:38Z</time>
      </trkpt>
      <trkpt lat="45.1723" lon="-0.56355">
        <ele>24.8</ele>
        <time>2020-09-01T08:26:39Z</time>
      </trkpt>
      <trkpt lat="45.1723" lon="-0.56357">
        <ele>24.7</ele>
        <time>2020-09-01T08:26:41Z</time>
      </trkpt>
      <trkpt lat="45.17229" lon="-0.56359">
        <ele>24.7</ele>
        <time>2020-09-01T08:26:42Z</time>
      </trkpt>
      <trkpt lat="45.17229" lon="-0.56362">
        <ele>24.7</ele>
        <time>2020-09-01T08:26:43Z</time>
      </trkpt>
      <trkpt lat="45.17229" lon="-0.56364">
        <ele>24.7</ele>
        <time>2020-09-01T08:26:44Z</time>
      </trkpt>
      <trkpt lat="45.17229" lon="-0.56366">
        <ele>24.7</ele>
        <time>2020-09-01T08:26:46Z</time>
      </trkpt>
      <trkpt lat="45.17229" lon="-0.56369">
        <ele>24.7</ele>
        <time>2020-09-01T08:26:47Z</time>
      </trkpt>
      <trkpt lat="45.17229" lon="-0.56371">
        <ele>24.7</ele>
        <time>2020-09-01T08:26:48Z</time>
      </trkpt>
      <trkpt lat="45.17229" lon="-0.56373">
        <ele>24.7</ele>
        <time>2020-09-01T08:26:49Z</time>
      </trkpt>
      <trkpt lat="45.17229" lon="-0.56376">
        <ele>24.6</ele>
        <time>2020-09-01T08:26:51Z</time>
      </trkpt>
      <trkpt lat="45.17229" lon="-0.56378">
        <ele>24.6</ele>
        <time>2020-09-01T08:26:52Z</time>
      </trkpt>
      <trkpt lat="45.17229" lon="-0.56381">
        <ele>24.6</ele>
        <time>2020-09-01T08:26:54Z</time>
      </trkpt>
      <trkpt lat="45.17229" lon="-0.56383">
        <ele>24.6</ele>
        <time>2020-09-01T08:26:55Z</time>
      </trkpt>
      <trkpt lat="45.1723" lon="-0.56385">
        <ele>24.6</ele>
        <time>2020-09-01T08:26:56Z</time>
      </trkpt>
      <trkpt lat="45.1723" lon="-0.56386">
        <ele>24.6</ele>
        <time>2020-09-01T08:26:57Z</time>
      </trkpt>
      <trkpt lat="45.1723" lon="-0.56387">
        <ele>24.6</ele>
        <time>2020-09-01T08:26:58Z</time>
      </trkpt>
      <trkpt lat="45.1723" lon="-0.56389">
        <ele>24.6</ele>
        <time>2020-09-01T08:26:59Z</time>
      </trkpt>
      <trkpt lat="45.1723" lon="-0.5639">
        <ele>24.6</ele>
        <time>2020-09-01T08:27:00Z</time>
      </trkpt>
      <trkpt lat="45.17231" lon="-0.56393">
        <ele>24.5</ele>
        <time>2020-09-01T08:27:01Z</time>
      </trkpt>
      <trkpt lat="45.17232" lon="-0.56395">
        <ele>24.5</ele>
        <time>2020-09-01T08:27:03Z</time>
      </trkpt>
      <trkpt lat="45.17233" lon="-0.56396">
        <ele>24.5</ele>
        <time>2020-09-01T08:27:04Z</time>
      </trkpt>
      <trkpt lat="45.17235" lon="-0.56397">
        <ele>24.5</ele>
        <time>2020-09-01T08:27:05Z</time>
      </trkpt>
      <trkpt lat="45.17236" lon="-0.56398">
        <ele>24.5</ele>
        <time>2020-09-01T08:27:06Z</time>
      </trkpt>
      <trkpt lat="45.17237" lon="-0.56399">
        <ele>24.5</ele>
        <time>2020-09-01T08:27:07Z</time>
      </trkpt>
      <trkpt lat="45.17239" lon="-0.564">
        <ele>24.5</ele>
        <time>2020-09-01T08:27:08Z</time>
      </trkpt>
      <trkpt lat="45.1724" lon="-0.564">
        <ele>24.6</ele>
        <time>2020-09-01T08:27:09Z</time>
      </trkpt>
      <trkpt lat="45.17242" lon="-0.564">
        <ele>24.6</ele>
        <time>2020-09-01T08:27:11Z</time>
      </trkpt>
      <trkpt lat="45.17243" lon="-0.56399">
        <ele>24.6</ele>
        <time>2020-09-01T08:27:13Z</time>
      </trkpt>
      <trkpt lat="45.17245" lon="-0.56398">
        <ele>24.7</ele>
        <time>2020-09-01T08:27:14Z</time>
      </trkpt>
      <trkpt lat="45.17246" lon="-0.56396">
        <ele>24.8</ele>
        <time>2020-09-01T08:27:15Z</time>
      </trkpt>
      <trkpt lat="45.17248" lon="-0.56394">
        <ele>24.9</ele>
        <time>2020-09-01T08:27:16Z</time>
      </trkpt>
      <trkpt lat="45.1725" lon="-0.56392">
        <ele>25</ele>
        <time>2020-09-01T08:27:18Z</time>
      </trkpt>
      <trkpt lat="45.17251" lon="-0.56391">
        <ele>25.1</ele>
        <time>2020-09-01T08:27:19Z</time>
      </trkpt>
      <trkpt lat="45.17252" lon="-0.5639">
        <ele>25.1</ele>
        <time>2020-09-01T08:27:20Z</time>
      </trkpt>
      <trkpt lat="45.17256" lon="-0.56387">
        <ele>25.3</ele>
        <time>2020-09-01T08:27:22Z</time>
      </trkpt>
      <trkpt lat="45.17257" lon="-0.56386">
        <ele>25.4</ele>
        <time>2020-09-01T08:27:23Z</time>
      </trkpt>
      <trkpt lat="45.17259" lon="-0.56385">
        <ele>25.5</ele>
        <time>2020-09-01T08:27:24Z</time>
      </trkpt>
      <trkpt lat="45.17262" lon="-0.56384">
        <ele>25.6</ele>
        <time>2020-09-01T08:27:25Z</time>
      </trkpt>
      <trkpt lat="45.17263" lon="-0.56383">
        <ele>25.7</ele>
        <time>2020-09-01T08:27:26Z</time>
      </trkpt>
      <trkpt lat="45.17264" lon="-0.56382">
        <ele>25.7</ele>
        <time>2020-09-01T08:27:28Z</time>
      </trkpt>
      <trkpt lat="45.17266" lon="-0.56382">
        <ele>25.8</ele>
        <time>2020-09-01T08:27:29Z</time>
      </trkpt>
      <trkpt lat="45.17267" lon="-0.56381">
        <ele>25.8</ele>
        <time>2020-09-01T08:27:30Z</time>
      </trkpt>
      <trkpt lat="45.17269" lon="-0.56381">
        <ele>25.9</ele>
        <time>2020-09-01T08:27:31Z</time>
      </trkpt>
      <trkpt lat="45.1727" lon="-0.56381">
        <ele>26</ele>
        <time>2020-09-01T08:27:32Z</time>
      </trkpt>
      <trkpt lat="45.17272" lon="-0.5638">
        <ele>26.1</ele>
        <time>2020-09-01T08:27:33Z</time>
      </trkpt>
      <trkpt lat="45.17274" lon="-0.5638">
        <ele>26.2</ele>
        <time>2020-09-01T08:27:34Z</time>
      </trkpt>
      <trkpt lat="45.17276" lon="-0.5638">
        <ele>26.2</ele>
        <time>2020-09-01T08:27:35Z</time>
      </trkpt>
      <trkpt lat="45.17277" lon="-0.56379">
        <ele>26.3</ele>
        <time>2020-09-01T08:27:37Z</time>
      </trkpt>
      <trkpt lat="45.17279" lon="-0.56379">
        <ele>26.4</ele>
        <time>2020-09-01T08:27:38Z</time>
      </trkpt>
      <trkpt lat="45.1728" lon="-0.56379">
        <ele>26.5</ele>
        <time>2020-09-01T08:27:39Z</time>
      </trkpt>
      <trkpt lat="45.17281" lon="-0.56378">
        <ele>26.5</ele>
        <time>2020-09-01T08:27:40Z</time>
      </trkpt>
      <trkpt lat="45.17282" lon="-0.56378">
        <ele>26.6</ele>
        <time>2020-09-01T08:27:41Z</time>
      </trkpt>
      <trkpt lat="45.17284" lon="-0.56377">
        <ele>26.7</ele>
        <time>2020-09-01T08:27:43Z</time>
      </trkpt>
      <trkpt lat="45.17285" lon="-0.56377">
        <ele>26.7</ele>
        <time>2020-09-01T08:27:44Z</time>
      </trkpt>
      <trkpt lat="45.17286" lon="-0.56377">
        <ele>26.8</ele>
        <time>2020-09-01T08:27:45Z</time>
      </trkpt>
      <trkpt lat="45.17289" lon="-0.56377">
        <ele>26.9</ele>
        <time>2020-09-01T08:27:47Z</time>
      </trkpt>
      <trkpt lat="45.17289" lon="-0.56377">
        <ele>26.9</ele>
        <time>2020-09-01T08:27:48Z</time>
      </trkpt>
      <trkpt lat="45.17291" lon="-0.56376">
        <ele>27</ele>
        <time>2020-09-01T08:27:49Z</time>
      </trkpt>
      <trkpt lat="45.17292" lon="-0.56375">
        <ele>27.1</ele>
        <time>2020-09-01T08:27:50Z</time>
      </trkpt>
      <trkpt lat="45.17295" lon="-0.56375">
        <ele>27.2</ele>
        <time>2020-09-01T08:27:51Z</time>
      </trkpt>
      <trkpt lat="45.17296" lon="-0.56375">
        <ele>27.2</ele>
        <time>2020-09-01T08:27:53Z</time>
      </trkpt>
      <trkpt lat="45.17298" lon="-0.56374">
        <ele>27.3</ele>
        <time>2020-09-01T08:27:54Z</time>
      </trkpt>
      <trkpt lat="45.173" lon="-0.56374">
        <ele>27.3</ele>
        <time>2020-09-01T08:27:56Z</time>
      </trkpt>
      <trkpt lat="45.17301" lon="-0.56373">
        <ele>27.4</ele>
        <time>2020-09-01T08:27:57Z</time>
      </trkpt>
      <trkpt lat="45.17302" lon="-0.56373">
        <ele>27.4</ele>
        <time>2020-09-01T08:27:58Z</time>
      </trkpt>
      <trkpt lat="45.17303" lon="-0.56373">
        <ele>27.5</ele>
        <time>2020-09-01T08:27:59Z</time>
      </trkpt>
      <trkpt lat="45.17304" lon="-0.56372">
        <ele>27.5</ele>
        <time>2020-09-01T08:28:00Z</time>
      </trkpt>
      <trkpt lat="45.17306" lon="-0.56372">
        <ele>27.5</ele>
        <time>2020-09-01T08:28:01Z</time>
      </trkpt>
      <trkpt lat="45.17307" lon="-0.56371">
        <ele>27.6</ele>
        <time>2020-09-01T08:28:02Z</time>
      </trkpt>
      <trkpt lat="45.17308" lon="-0.56371">
        <ele>27.6</ele>
        <time>2020-09-01T08:28:03Z</time>
      </trkpt>
      <trkpt lat="45.17309" lon="-0.56371">
        <ele>27.6</ele>
        <time>2020-09-01T08:28:04Z</time>
      </trkpt>
      <trkpt lat="45.17311" lon="-0.5637">
        <ele>27.7</ele>
        <time>2020-09-01T08:28:06Z</time>
      </trkpt>
      <trkpt lat="45.17313" lon="-0.5637">
        <ele>27.7</ele>
        <time>2020-09-01T08:28:08Z</time>
      </trkpt>
      <trkpt lat="45.17315" lon="-0.56369">
        <ele>27.8</ele>
        <time>2020-09-01T08:28:09Z</time>
      </trkpt>
      <trkpt lat="45.17316" lon="-0.56369">
        <ele>27.8</ele>
        <time>2020-09-01T08:28:10Z</time>
      </trkpt>
      <trkpt lat="45.17317" lon="-0.56368">
        <ele>27.8</ele>
        <time>2020-09-01T08:28:11Z</time>
      </trkpt>
      <trkpt lat="45.17318" lon="-0.56368">
        <ele>27.8</ele>
        <time>2020-09-01T08:28:12Z</time>
      </trkpt>
      <trkpt lat="45.1732" lon="-0.56367">
        <ele>27.9</ele>
        <time>2020-09-01T08:28:13Z</time>
      </trkpt>
      <trkpt lat="45.17321" lon="-0.56367">
        <ele>27.9</ele>
        <time>2020-09-01T08:28:14Z</time>
      </trkpt>
      <trkpt lat="45.17322" lon="-0.56367">
        <ele>27.9</ele>
        <time>2020-09-01T08:28:15Z</time>
      </trkpt>
      <trkpt lat="45.17322" lon="-0.56367">
        <ele>27.9</ele>
        <time>2020-09-01T08:28:16Z</time>
      </trkpt>
      <trkpt lat="45.17324" lon="-0.56366">
        <ele>28</ele>
        <time>2020-09-01T08:28:18Z</time>
      </trkpt>
      <trkpt lat="45.17325" lon="-0.56365">
        <ele>28</ele>
        <time>2020-09-01T08:28:19Z</time>
      </trkpt>
      <trkpt lat="45.17327" lon="-0.56365">
        <ele>28.1</ele>
        <time>2020-09-01T08:28:21Z</time>
      </trkpt>
      <trkpt lat="45.17329" lon="-0.56365">
        <ele>28.2</ele>
        <time>2020-09-01T08:28:22Z</time>
      </trkpt>
      <trkpt lat="45.17331" lon="-0.56364">
        <ele>28.3</ele>
        <time>2020-09-01T08:28:23Z</time>
      </trkpt>
      <trkpt lat="45.17332" lon="-0.56364">
        <ele>28.4</ele>
        <time>2020-09-01T08:28:24Z</time>
      </trkpt>
      <trkpt lat="45.17333" lon="-0.56364">
        <ele>28.5</ele>
        <time>2020-09-01T08:28:25Z</time>
      </trkpt>
      <trkpt lat="45.17334" lon="-0.56362">
        <ele>28.6</ele>
        <time>2020-09-01T08:28:26Z</time>
      </trkpt>
      <trkpt lat="45.17336" lon="-0.56361">
        <ele>28.7</ele>
        <time>2020-09-01T08:28:28Z</time>
      </trkpt>
      <trkpt lat="45.17337" lon="-0.56361">
        <ele>28.8</ele>
        <time>2020-09-01T08:28:29Z</time>
      </trkpt>
      <trkpt lat="45.17339" lon="-0.5636">
        <ele>28.9</ele>
        <time>2020-09-01T08:28:30Z</time>
      </trkpt>
      <trkpt lat="45.17341" lon="-0.56359">
        <ele>29</ele>
        <time>2020-09-01T08:28:31Z</time>
      </trkpt>
      <trkpt lat="45.17342" lon="-0.56359">
        <ele>29.1</ele>
        <time>2020-09-01T08:28:32Z</time>
      </trkpt>
      <trkpt lat="45.17345" lon="-0.56357">
        <ele>29.3</ele>
        <time>2020-09-01T08:28:35Z</time>
      </trkpt>
      <trkpt lat="45.17346" lon="-0.56357">
        <ele>29.4</ele>
        <time>2020-09-01T08:28:36Z</time>
      </trkpt>
      <trkpt lat="45.17346" lon="-0.56356">
        <ele>29.4</ele>
        <time>2020-09-01T08:28:37Z</time>
      </trkpt>
      <trkpt lat="45.17347" lon="-0.56356">
        <ele>29.5</ele>
        <time>2020-09-01T08:28:38Z</time>
      </trkpt>
      <trkpt lat="45.1735" lon="-0.56354">
        <ele>29.6</ele>
        <time>2020-09-01T08:28:40Z</time>
      </trkpt>
      <trkpt lat="45.17352" lon="-0.56353">
        <ele>29.7</ele>
        <time>2020-09-01T08:28:41Z</time>
      </trkpt>
      <trkpt lat="45.17353" lon="-0.56352">
        <ele>29.7</ele>
        <time>2020-09-01T08:28:42Z</time>
      </trkpt>
      <trkpt lat="45.17354" lon="-0.56351">
        <ele>29.7</ele>
        <time>2020-09-01T08:28:43Z</time>
      </trkpt>
      <trkpt lat="45.17356" lon="-0.56351">
        <ele>29.8</ele>
        <time>2020-09-01T08:28:44Z</time>
      </trkpt>
      <trkpt lat="45.17358" lon="-0.56349">
        <ele>29.9</ele>
        <time>2020-09-01T08:28:45Z</time>
      </trkpt>
      <trkpt lat="45.1736" lon="-0.56348">
        <ele>29.9</ele>
        <time>2020-09-01T08:28:46Z</time>
      </trkpt>
      <trkpt lat="45.17362" lon="-0.56348">
        <ele>30</ele>
        <time>2020-09-01T08:28:47Z</time>
      </trkpt>
      <trkpt lat="45.17363" lon="-0.56347">
        <ele>30</ele>
        <time>2020-09-01T08:28:48Z</time>
      </trkpt>
      <trkpt lat="45.17364" lon="-0.56347">
        <ele>30.1</ele>
        <time>2020-09-01T08:28:49Z</time>
      </trkpt>
      <trkpt lat="45.17368" lon="-0.56346">
        <ele>30.2</ele>
        <time>2020-09-01T08:28:51Z</time>
      </trkpt>
      <trkpt lat="45.17369" lon="-0.56346">
        <ele>30.3</ele>
        <time>2020-09-01T08:28:52Z</time>
      </trkpt>
      <trkpt lat="45.1737" lon="-0.56345">
        <ele>30.3</ele>
        <time>2020-09-01T08:28:53Z</time>
      </trkpt>
      <trkpt lat="45.17371" lon="-0.56345">
        <ele>30.4</ele>
        <time>2020-09-01T08:28:54Z</time>
      </trkpt>
      <trkpt lat="45.17372" lon="-0.56344">
        <ele>30.4</ele>
        <time>2020-09-01T08:28:55Z</time>
      </trkpt>
      <trkpt lat="45.17375" lon="-0.56344">
        <ele>30.6</ele>
        <time>2020-09-01T08:28:57Z</time>
      </trkpt>
      <trkpt lat="45.17377" lon="-0.56343">
        <ele>30.6</ele>
        <time>2020-09-01T08:28:59Z</time>
      </trkpt>
      <trkpt lat="45.17379" lon="-0.56343">
        <ele>30.7</ele>
        <time>2020-09-01T08:29:00Z</time>
      </trkpt>
      <trkpt lat="45.17379" lon="-0.56343">
        <ele>30.8</ele>
        <time>2020-09-01T08:29:01Z</time>
      </trkpt>
      <trkpt lat="45.1738" lon="-0.56342">
        <ele>30.8</ele>
        <time>2020-09-01T08:29:02Z</time>
      </trkpt>
      <trkpt lat="45.17382" lon="-0.56342">
        <ele>30.9</ele>
        <time>2020-09-01T08:29:04Z</time>
      </trkpt>
      <trkpt lat="45.17383" lon="-0.56342">
        <ele>30.9</ele>
        <time>2020-09-01T08:29:05Z</time>
      </trkpt>
      <trkpt lat="45.17384" lon="-0.56341">
        <ele>31</ele>
        <time>2020-09-01T08:29:06Z</time>
      </trkpt>
      <trkpt lat="45.17385" lon="-0.5634">
        <ele>31.1</ele>
        <time>2020-09-01T08:29:07Z</time>
      </trkpt>
      <trkpt lat="45.17387" lon="-0.5634">
        <ele>31.2</ele>
        <time>2020-09-01T08:29:08Z</time>
      </trkpt>
      <trkpt lat="45.17388" lon="-0.56339">
        <ele>31.2</ele>
        <time>2020-09-01T08:29:09Z</time>
      </trkpt>
      <trkpt lat="45.17388" lon="-0.56339">
        <ele>31.3</ele>
        <time>2020-09-01T08:29:10Z</time>
      </trkpt>
      <trkpt lat="45.1739" lon="-0.56338">
        <ele>31.3</ele>
        <time>2020-09-01T08:29:11Z</time>
      </trkpt>
      <trkpt lat="45.17391" lon="-0.56338">
        <ele>31.4</ele>
        <time>2020-09-01T08:29:12Z</time>
      </trkpt>
      <trkpt lat="45.17392" lon="-0.56337">
        <ele>31.5</ele>
        <time>2020-09-01T08:29:13Z</time>
      </trkpt>
      <trkpt lat="45.17393" lon="-0.56337">
        <ele>31.5</ele>
        <time>2020-09-01T08:29:14Z</time>
      </trkpt>
      <trkpt lat="45.17395" lon="-0.56336">
        <ele>31.6</ele>
        <time>2020-09-01T08:29:16Z</time>
      </trkpt>
      <trkpt lat="45.17397" lon="-0.56335">
        <ele>31.7</ele>
        <time>2020-09-01T08:29:18Z</time>
      </trkpt>
      <trkpt lat="45.17398" lon="-0.56335">
        <ele>31.8</ele>
        <time>2020-09-01T08:29:19Z</time>
      </trkpt>
      <trkpt lat="45.17399" lon="-0.56335">
        <ele>31.9</ele>
        <time>2020-09-01T08:29:20Z</time>
      </trkpt>
      <trkpt lat="45.17401" lon="-0.56335">
        <ele>32</ele>
        <time>2020-09-01T08:29:21Z</time>
      </trkpt>
      <trkpt lat="45.17403" lon="-0.56334">
        <ele>32</ele>
        <time>2020-09-01T08:29:23Z</time>
      </trkpt>
      <trkpt lat="45.17405" lon="-0.56334">
        <ele>32.1</ele>
        <time>2020-09-01T08:29:24Z</time>
      </trkpt>
      <trkpt lat="45.17406" lon="-0.56333">
        <ele>32.1</ele>
        <time>2020-09-01T08:29:25Z</time>
      </trkpt>
      <trkpt lat="45.17408" lon="-0.56333">
        <ele>32.2</ele>
        <time>2020-09-01T08:29:26Z</time>
      </trkpt>
      <trkpt lat="45.1741" lon="-0.56332">
        <ele>32.3</ele>
        <time>2020-09-01T08:29:27Z</time>
      </trkpt>
      <trkpt lat="45.17411" lon="-0.56332">
        <ele>32.3</ele>
        <time>2020-09-01T08:29:28Z</time>
      </trkpt>
      <trkpt lat="45.17412" lon="-0.56332">
        <ele>32.3</ele>
        <time>2020-09-01T08:29:29Z</time>
      </trkpt>
      <trkpt lat="45.17415" lon="-0.56331">
        <ele>32.4</ele>
        <time>2020-09-01T08:29:31Z</time>
      </trkpt>
      <trkpt lat="45.17416" lon="-0.56331">
        <ele>32.5</ele>
        <time>2020-09-01T08:29:32Z</time>
      </trkpt>
      <trkpt lat="45.17418" lon="-0.56331">
        <ele>32.6</ele>
        <time>2020-09-01T08:29:33Z</time>
      </trkpt>
      <trkpt lat="45.17419" lon="-0.56331">
        <ele>32.6</ele>
        <time>2020-09-01T08:29:34Z</time>
      </trkpt>
      <trkpt lat="45.17422" lon="-0.56331">
        <ele>32.8</ele>
        <time>2020-09-01T08:29:36Z</time>
      </trkpt>
      <trkpt lat="45.17423" lon="-0.56331">
        <ele>32.8</ele>
        <time>2020-09-01T08:29:37Z</time>
      </trkpt>
      <trkpt lat="45.17425" lon="-0.56331">
        <ele>32.9</ele>
        <time>2020-09-01T08:29:38Z</time>
      </trkpt>
      <trkpt lat="45.17427" lon="-0.5633">
        <ele>33</ele>
        <time>2020-09-01T08:29:39Z</time>
      </trkpt>
      <trkpt lat="45.17428" lon="-0.5633">
        <ele>33.1</ele>
        <time>2020-09-01T08:29:40Z</time>
      </trkpt>
      <trkpt lat="45.17429" lon="-0.5633">
        <ele>33.1</ele>
        <time>2020-09-01T08:29:41Z</time>
      </trkpt>
      <trkpt lat="45.1743" lon="-0.5633">
        <ele>33.2</ele>
        <time>2020-09-01T08:29:42Z</time>
      </trkpt>
      <trkpt lat="45.17431" lon="-0.5633">
        <ele>33.2</ele>
        <time>2020-09-01T08:29:43Z</time>
      </trkpt>
      <trkpt lat="45.17432" lon="-0.5633">
        <ele>33.3</ele>
        <time>2020-09-01T08:29:44Z</time>
      </trkpt>
      <trkpt lat="45.17433" lon="-0.5633">
        <ele>33.3</ele>
        <time>2020-09-01T08:29:45Z</time>
      </trkpt>
      <trkpt lat="45.17434" lon="-0.5633">
        <ele>33.4</ele>
        <time>2020-09-01T08:29:46Z</time>
      </trkpt>
      <trkpt lat="45.17435" lon="-0.5633">
        <ele>33.4</ele>
        <time>2020-09-01T08:29:48Z</time>
      </trkpt>
      <trkpt lat="45.17438" lon="-0.5633">
        <ele>33.5</ele>
        <time>2020-09-01T08:29:49Z</time>
      </trkpt>
      <trkpt lat="45.17439" lon="-0.5633">
        <ele>33.6</ele>
        <time>2020-09-01T08:29:50Z</time>
      </trkpt>
      <trkpt lat="45.1744" lon="-0.5633">
        <ele>33.6</ele>
        <time>2020-09-01T08:29:51Z</time>
      </trkpt>
      <trkpt lat="45.17441" lon="-0.5633">
        <ele>33.7</ele>
        <time>2020-09-01T08:29:52Z</time>
      </trkpt>
      <trkpt lat="45.17443" lon="-0.5633">
        <ele>33.7</ele>
        <time>2020-09-01T08:29:54Z</time>
      </trkpt>
      <trkpt lat="45.17444" lon="-0.5633">
        <ele>33.8</ele>
        <time>2020-09-01T08:29:55Z</time>
      </trkpt>
      <trkpt lat="45.17446" lon="-0.5633">
        <ele>33.8</ele>
        <time>2020-09-01T08:29:56Z</time>
      </trkpt>
      <trkpt lat="45.17448" lon="-0.56329">
        <ele>33.9</ele>
        <time>2020-09-01T08:29:58Z</time>
      </trkpt>
      <trkpt lat="45.17449" lon="-0.56329">
        <ele>33.9</ele>
        <time>2020-09-01T08:29:59Z</time>
      </trkpt>
      <trkpt lat="45.17451" lon="-0.56329">
        <ele>33.9</ele>
        <time>2020-09-01T08:30:00Z</time>
      </trkpt>
      <trkpt lat="45.17452" lon="-0.56329">
        <ele>34</ele>
        <time>2020-09-01T08:30:01Z</time>
      </trkpt>
      <trkpt lat="45.17454" lon="-0.56329">
        <ele>34</ele>
        <time>2020-09-01T08:30:02Z</time>
      </trkpt>
      <trkpt lat="45.17455" lon="-0.56329">
        <ele>34.1</ele>
        <time>2020-09-01T08:30:03Z</time>
      </trkpt>
      <trkpt lat="45.17456" lon="-0.56329">
        <ele>34.1</ele>
        <time>2020-09-01T08:30:04Z</time>
      </trkpt>
      <trkpt lat="45.17458" lon="-0.56328">
        <ele>34.1</ele>
        <time>2020-09-01T08:30:06Z</time>
      </trkpt>
      <trkpt lat="45.17459" lon="-0.56327">
        <ele>34.2</ele>
        <time>2020-09-01T08:30:07Z</time>
      </trkpt>
      <trkpt lat="45.17461" lon="-0.56327">
        <ele>34.2</ele>
        <time>2020-09-01T08:30:08Z</time>
      </trkpt>
      <trkpt lat="45.17462" lon="-0.56327">
        <ele>34.3</ele>
        <time>2020-09-01T08:30:09Z</time>
      </trkpt>
      <trkpt lat="45.17466" lon="-0.56326">
        <ele>34.4</ele>
        <time>2020-09-01T08:30:10Z</time>
      </trkpt>
      <trkpt lat="45.17467" lon="-0.56326">
        <ele>34.5</ele>
        <time>2020-09-01T08:30:11Z</time>
      </trkpt>
      <trkpt lat="45.17468" lon="-0.56326">
        <ele>34.5</ele>
        <time>2020-09-01T08:30:12Z</time>
      </trkpt>
      <trkpt lat="45.17469" lon="-0.56326">
        <ele>34.6</ele>
        <time>2020-09-01T08:30:14Z</time>
      </trkpt>
      <trkpt lat="45.1747" lon="-0.56325">
        <ele>34.6</ele>
        <time>2020-09-01T08:30:15Z</time>
      </trkpt>
      <trkpt lat="45.17471" lon="-0.56325">
        <ele>34.7</ele>
        <time>2020-09-01T08:30:16Z</time>
      </trkpt>
      <trkpt lat="45.17473" lon="-0.56325">
        <ele>34.8</ele>
        <time>2020-09-01T08:30:17Z</time>
      </trkpt>
      <trkpt lat="45.17474" lon="-0.56324">
        <ele>34.8</ele>
        <time>2020-09-01T08:30:18Z</time>
      </trkpt>
      <trkpt lat="45.17475" lon="-0.56324">
        <ele>34.9</ele>
        <time>2020-09-01T08:30:19Z</time>
      </trkpt>
      <trkpt lat="45.17476" lon="-0.56324">
        <ele>34.9</ele>
        <time>2020-09-01T08:30:20Z</time>
      </trkpt>
      <trkpt lat="45.17479" lon="-0.56324">
        <ele>35</ele>
        <time>2020-09-01T08:30:22Z</time>
      </trkpt>
      <trkpt lat="45.1748" lon="-0.56324">
        <ele>35.1</ele>
        <time>2020-09-01T08:30:24Z</time>
      </trkpt>
      <trkpt lat="45.17483" lon="-0.56325">
        <ele>35.2</ele>
        <time>2020-09-01T08:30:25Z</time>
      </trkpt>
      <trkpt lat="45.17485" lon="-0.56325">
        <ele>35.3</ele>
        <time>2020-09-01T08:30:26Z</time>
      </trkpt>
      <trkpt lat="45.17486" lon="-0.56325">
        <ele>35.4</ele>
        <time>2020-09-01T08:30:27Z</time>
      </trkpt>
      <trkpt lat="45.17488" lon="-0.56325">
        <ele>35.5</ele>
        <time>2020-09-01T08:30:29Z</time>
      </trkpt>
      <trkpt lat="45.17489" lon="-0.56325">
        <ele>35.5</ele>
        <time>2020-09-01T08:30:30Z</time>
      </trkpt>
      <trkpt lat="45.17491" lon="-0.56325">
        <ele>35.6</ele>
        <time>2020-09-01T08:30:31Z</time>
      </trkpt>
      <trkpt lat="45.17492" lon="-0.56325">
        <ele>35.6</ele>
        <time>2020-09-01T08:30:32Z</time>
      </trkpt>
      <trkpt lat="45.17494" lon="-0.56324">
        <ele>35.7</ele>
        <time>2020-09-01T08:30:34Z</time>
      </trkpt>
      <trkpt lat="45.17496" lon="-0.56324">
        <ele>35.7</ele>
        <time>2020-09-01T08:30:35Z</time>
      </trkpt>
      <trkpt lat="45.17497" lon="-0.56324">
        <ele>35.7</ele>
        <time>2020-09-01T08:30:36Z</time>
      </trkpt>
      <trkpt lat="45.175" lon="-0.56323">
        <ele>35.7</ele>
        <time>2020-09-01T08:30:38Z</time>
      </trkpt>
      <trkpt lat="45.175" lon="-0.56323">
        <ele>35.7</ele>
        <time>2020-09-01T08:30:39Z</time>
      </trkpt>
      <trkpt lat="45.17503" lon="-0.56322">
        <ele>35.6</ele>
        <time>2020-09-01T08:30:41Z</time>
      </trkpt>
      <trkpt lat="45.17504" lon="-0.56321">
        <ele>35.6</ele>
        <time>2020-09-01T08:30:42Z</time>
      </trkpt>
      <trkpt lat="45.17505" lon="-0.56321">
        <ele>35.5</ele>
        <time>2020-09-01T08:30:43Z</time>
      </trkpt>
      <trkpt lat="45.17506" lon="-0.5632">
        <ele>35.4</ele>
        <time>2020-09-01T08:30:44Z</time>
      </trkpt>
      <trkpt lat="45.17509" lon="-0.56319">
        <ele>35.1</ele>
        <time>2020-09-01T08:30:46Z</time>
      </trkpt>
      <trkpt lat="45.17511" lon="-0.56319">
        <ele>34.9</ele>
        <time>2020-09-01T08:30:48Z</time>
      </trkpt>
      <trkpt lat="45.17511" lon="-0.56319">
        <ele>34.8</ele>
        <time>2020-09-01T08:30:49Z</time>
      </trkpt>
      <trkpt lat="45.17512" lon="-0.56319">
        <ele>34.7</ele>
        <time>2020-09-01T08:30:51Z</time>
      </trkpt>
      <trkpt lat="45.17512" lon="-0.56319">
        <ele>34.6</ele>
        <time>2020-09-01T08:30:52Z</time>
      </trkpt>
      <trkpt lat="45.17513" lon="-0.56319">
        <ele>34.5</ele>
        <time>2020-09-01T08:30:53Z</time>
      </trkpt>
      <trkpt lat="45.17514" lon="-0.56319">
        <ele>34.5</ele>
        <time>2020-09-01T08:30:54Z</time>
      </trkpt>
      <trkpt lat="45.17514" lon="-0.56319">
        <ele>34.4</ele>
        <time>2020-09-01T08:30:55Z</time>
      </trkpt>
      <trkpt lat="45.17515" lon="-0.56319">
        <ele>34.3</ele>
        <time>2020-09-01T08:30:56Z</time>
      </trkpt>
      <trkpt lat="45.17515" lon="-0.56319">
        <ele>34.3</ele>
        <time>2020-09-01T08:30:57Z</time>
      </trkpt>
      <trkpt lat="45.17516" lon="-0.56319">
        <ele>34.3</ele>
        <time>2020-09-01T08:30:58Z</time>
      </trkpt>
      <trkpt lat="45.17516" lon="-0.56319">
        <ele>34.3</ele>
        <time>2020-09-01T08:30:59Z</time>
      </trkpt>
      <trkpt lat="45.17518" lon="-0.56318">
        <ele>34.3</ele>
        <time>2020-09-01T08:31:01Z</time>
      </trkpt>
      <trkpt lat="45.1752" lon="-0.56318">
        <ele>34.3</ele>
        <time>2020-09-01T08:31:02Z</time>
      </trkpt>
      <trkpt lat="45.17521" lon="-0.56317">
        <ele>34.3</ele>
        <time>2020-09-01T08:31:03Z</time>
      </trkpt>
      <trkpt lat="45.17522" lon="-0.56317">
        <ele>34.3</ele>
        <time>2020-09-01T08:31:04Z</time>
      </trkpt>
      <trkpt lat="45.17525" lon="-0.56316">
        <ele>34.3</ele>
        <time>2020-09-01T08:31:05Z</time>
      </trkpt>
      <trkpt lat="45.17525" lon="-0.56315">
        <ele>34.3</ele>
        <time>2020-09-01T08:31:06Z</time>
      </trkpt>
      <trkpt lat="45.17526" lon="-0.56315">
        <ele>34.3</ele>
        <time>2020-09-01T08:31:07Z</time>
      </trkpt>
      <trkpt lat="45.17528" lon="-0.56315">
        <ele>34.3</ele>
        <time>2020-09-01T08:31:08Z</time>
      </trkpt>
      <trkpt lat="45.17529" lon="-0.56314">
        <ele>34.3</ele>
        <time>2020-09-01T08:31:09Z</time>
      </trkpt>
      <trkpt lat="45.17531" lon="-0.56314">
        <ele>34.4</ele>
        <time>2020-09-01T08:31:10Z</time>
      </trkpt>
      <trkpt lat="45.17533" lon="-0.56314">
        <ele>34.4</ele>
        <time>2020-09-01T08:31:11Z</time>
      </trkpt>
      <trkpt lat="45.17534" lon="-0.56314">
        <ele>34.4</ele>
        <time>2020-09-01T08:31:13Z</time>
      </trkpt>
      <trkpt lat="45.17535" lon="-0.56314">
        <ele>34.4</ele>
        <time>2020-09-01T08:31:14Z</time>
      </trkpt>
      <trkpt lat="45.17536" lon="-0.56314">
        <ele>34.5</ele>
        <time>2020-09-01T08:31:15Z</time>
      </trkpt>
      <trkpt lat="45.17539" lon="-0.56314">
        <ele>34.5</ele>
        <time>2020-09-01T08:31:16Z</time>
      </trkpt>
      <trkpt lat="45.1754" lon="-0.56314">
        <ele>34.6</ele>
        <time>2020-09-01T08:31:17Z</time>
      </trkpt>
      <trkpt lat="45.17542" lon="-0.56315">
        <ele>34.6</ele>
        <time>2020-09-01T08:31:19Z</time>
      </trkpt>
      <trkpt lat="45.17543" lon="-0.56315">
        <ele>34.6</ele>
        <time>2020-09-01T08:31:20Z</time>
      </trkpt>
      <trkpt lat="45.17546" lon="-0.56315">
        <ele>34.7</ele>
        <time>2020-09-01T08:31:22Z</time>
      </trkpt>
      <trkpt lat="45.17547" lon="-0.56316">
        <ele>34.7</ele>
        <time>2020-09-01T08:31:23Z</time>
      </trkpt>
      <trkpt lat="45.17548" lon="-0.56316">
        <ele>34.8</ele>
        <time>2020-09-01T08:31:24Z</time>
      </trkpt>
      <trkpt lat="45.1755" lon="-0.56317">
        <ele>34.8</ele>
        <time>2020-09-01T08:31:25Z</time>
      </trkpt>
      <trkpt lat="45.17552" lon="-0.56317">
        <ele>34.9</ele>
        <time>2020-09-01T08:31:26Z</time>
      </trkpt>
      <trkpt lat="45.17553" lon="-0.56318">
        <ele>34.9</ele>
        <time>2020-09-01T08:31:27Z</time>
      </trkpt>
      <trkpt lat="45.17554" lon="-0.56318">
        <ele>34.9</ele>
        <time>2020-09-01T08:31:28Z</time>
      </trkpt>
      <trkpt lat="45.17555" lon="-0.56319">
        <ele>34.9</ele>
        <time>2020-09-01T08:31:30Z</time>
      </trkpt>
      <trkpt lat="45.17556" lon="-0.56319">
        <ele>35</ele>
        <time>2020-09-01T08:31:31Z</time>
      </trkpt>
      <trkpt lat="45.17556" lon="-0.5632">
        <ele>35</ele>
        <time>2020-09-01T08:31:32Z</time>
      </trkpt>
      <trkpt lat="45.17557" lon="-0.56321">
        <ele>35</ele>
        <time>2020-09-01T08:31:33Z</time>
      </trkpt>
      <trkpt lat="45.17558" lon="-0.56321">
        <ele>35.1</ele>
        <time>2020-09-01T08:31:34Z</time>
      </trkpt>
      <trkpt lat="45.17559" lon="-0.56322">
        <ele>35.1</ele>
        <time>2020-09-01T08:31:35Z</time>
      </trkpt>
      <trkpt lat="45.17561" lon="-0.56324">
        <ele>35.2</ele>
        <time>2020-09-01T08:31:36Z</time>
      </trkpt>
      <trkpt lat="45.17562" lon="-0.56326">
        <ele>35.2</ele>
        <time>2020-09-01T08:31:37Z</time>
      </trkpt>
      <trkpt lat="45.17563" lon="-0.56327">
        <ele>35.3</ele>
        <time>2020-09-01T08:31:38Z</time>
      </trkpt>
      <trkpt lat="45.17564" lon="-0.56328">
        <ele>35.3</ele>
        <time>2020-09-01T08:31:39Z</time>
      </trkpt>
      <trkpt lat="45.17565" lon="-0.56329">
        <ele>35.3</ele>
        <time>2020-09-01T08:31:40Z</time>
      </trkpt>
      <trkpt lat="45.17567" lon="-0.5633">
        <ele>35.4</ele>
        <time>2020-09-01T08:31:42Z</time>
      </trkpt>
      <trkpt lat="45.17568" lon="-0.56332">
        <ele>35.5</ele>
        <time>2020-09-01T08:31:43Z</time>
      </trkpt>
      <trkpt lat="45.17569" lon="-0.56333">
        <ele>35.5</ele>
        <time>2020-09-01T08:31:45Z</time>
      </trkpt>
      <trkpt lat="45.1757" lon="-0.56334">
        <ele>35.5</ele>
        <time>2020-09-01T08:31:46Z</time>
      </trkpt>
      <trkpt lat="45.17571" lon="-0.56336">
        <ele>35.6</ele>
        <time>2020-09-01T08:31:47Z</time>
      </trkpt>
      <trkpt lat="45.17572" lon="-0.56337">
        <ele>35.6</ele>
        <time>2020-09-01T08:31:48Z</time>
      </trkpt>
      <trkpt lat="45.17573" lon="-0.56338">
        <ele>35.6</ele>
        <time>2020-09-01T08:31:49Z</time>
      </trkpt>
      <trkpt lat="45.17574" lon="-0.56339">
        <ele>35.6</ele>
        <time>2020-09-01T08:31:50Z</time>
      </trkpt>
      <trkpt lat="45.17575" lon="-0.56342">
        <ele>35.7</ele>
        <time>2020-09-01T08:31:52Z</time>
      </trkpt>
      <trkpt lat="45.17576" lon="-0.56343">
        <ele>35.7</ele>
        <time>2020-09-01T08:31:53Z</time>
      </trkpt>
      <trkpt lat="45.17578" lon="-0.56346">
        <ele>35.8</ele>
        <time>2020-09-01T08:31:55Z</time>
      </trkpt>
      <trkpt lat="45.17579" lon="-0.56347">
        <ele>35.8</ele>
        <time>2020-09-01T08:31:56Z</time>
      </trkpt>
      <trkpt lat="45.1758" lon="-0.56348">
        <ele>35.8</ele>
        <time>2020-09-01T08:31:57Z</time>
      </trkpt>
      <trkpt lat="45.17581" lon="-0.5635">
        <ele>35.9</ele>
        <time>2020-09-01T08:31:58Z</time>
      </trkpt>
      <trkpt lat="45.17583" lon="-0.56351">
        <ele>35.9</ele>
        <time>2020-09-01T08:32:00Z</time>
      </trkpt>
      <trkpt lat="45.17584" lon="-0.56352">
        <ele>36</ele>
        <time>2020-09-01T08:32:01Z</time>
      </trkpt>
      <trkpt lat="45.17585" lon="-0.56354">
        <ele>36</ele>
        <time>2020-09-01T08:32:02Z</time>
      </trkpt>
      <trkpt lat="45.17587" lon="-0.56355">
        <ele>36</ele>
        <time>2020-09-01T08:32:03Z</time>
      </trkpt>
      <trkpt lat="45.17588" lon="-0.56358">
        <ele>36.1</ele>
        <time>2020-09-01T08:32:04Z</time>
      </trkpt>
      <trkpt lat="45.17589" lon="-0.56359">
        <ele>36.1</ele>
        <time>2020-09-01T08:32:06Z</time>
      </trkpt>
      <trkpt lat="45.1759" lon="-0.5636">
        <ele>36.1</ele>
        <time>2020-09-01T08:32:07Z</time>
      </trkpt>
      <trkpt lat="45.1759" lon="-0.56362">
        <ele>36.2</ele>
        <time>2020-09-01T08:32:08Z</time>
      </trkpt>
      <trkpt lat="45.17592" lon="-0.56363">
        <ele>36.2</ele>
        <time>2020-09-01T08:32:09Z</time>
      </trkpt>
      <trkpt lat="45.17593" lon="-0.56365">
        <ele>36.2</ele>
        <time>2020-09-01T08:32:10Z</time>
      </trkpt>
      <trkpt lat="45.17594" lon="-0.56366">
        <ele>36.2</ele>
        <time>2020-09-01T08:32:11Z</time>
      </trkpt>
      <trkpt lat="45.17595" lon="-0.56367">
        <ele>36.2</ele>
        <time>2020-09-01T08:32:12Z</time>
      </trkpt>
      <trkpt lat="45.17595" lon="-0.56368">
        <ele>36.3</ele>
        <time>2020-09-01T08:32:13Z</time>
      </trkpt>
      <trkpt lat="45.17596" lon="-0.56369">
        <ele>36.3</ele>
        <time>2020-09-01T08:32:15Z</time>
      </trkpt>
      <trkpt lat="45.17597" lon="-0.56371">
        <ele>36.3</ele>
        <time>2020-09-01T08:32:16Z</time>
      </trkpt>
      <trkpt lat="45.17598" lon="-0.56373">
        <ele>36.3</ele>
        <time>2020-09-01T08:32:17Z</time>
      </trkpt>
      <trkpt lat="45.17599" lon="-0.56374">
        <ele>36.3</ele>
        <time>2020-09-01T08:32:18Z</time>
      </trkpt>
      <trkpt lat="45.176" lon="-0.56375">
        <ele>36.4</ele>
        <time>2020-09-01T08:32:19Z</time>
      </trkpt>
      <trkpt lat="45.176" lon="-0.56376">
        <ele>36.4</ele>
        <time>2020-09-01T08:32:20Z</time>
      </trkpt>
      <trkpt lat="45.17602" lon="-0.56379">
        <ele>36.4</ele>
        <time>2020-09-01T08:32:22Z</time>
      </trkpt>
      <trkpt lat="45.17603" lon="-0.5638">
        <ele>36.4</ele>
        <time>2020-09-01T08:32:23Z</time>
      </trkpt>
      <trkpt lat="45.17604" lon="-0.56382">
        <ele>36.5</ele>
        <time>2020-09-01T08:32:24Z</time>
      </trkpt>
      <trkpt lat="45.17604" lon="-0.56383">
        <ele>36.5</ele>
        <time>2020-09-01T08:32:25Z</time>
      </trkpt>
      <trkpt lat="45.17607" lon="-0.56385">
        <ele>36.5</ele>
        <time>2020-09-01T08:32:26Z</time>
      </trkpt>
      <trkpt lat="45.17609" lon="-0.56385">
        <ele>36.5</ele>
        <time>2020-09-01T08:32:27Z</time>
      </trkpt>
      <trkpt lat="45.1761" lon="-0.56386">
        <ele>36.5</ele>
        <time>2020-09-01T08:32:28Z</time>
      </trkpt>
      <trkpt lat="45.17611" lon="-0.56387">
        <ele>36.5</ele>
        <time>2020-09-01T08:32:29Z</time>
      </trkpt>
      <trkpt lat="45.17611" lon="-0.56388">
        <ele>36.6</ele>
        <time>2020-09-01T08:32:30Z</time>
      </trkpt>
      <trkpt lat="45.17612" lon="-0.5639">
        <ele>36.6</ele>
        <time>2020-09-01T08:32:31Z</time>
      </trkpt>
      <trkpt lat="45.17613" lon="-0.56392">
        <ele>36.6</ele>
        <time>2020-09-01T08:32:33Z</time>
      </trkpt>
      <trkpt lat="45.17612" lon="-0.56393">
        <ele>36.6</ele>
        <time>2020-09-01T08:32:34Z</time>
      </trkpt>
      <trkpt lat="45.17613" lon="-0.56395">
        <ele>36.6</ele>
        <time>2020-09-01T08:32:35Z</time>
      </trkpt>
      <trkpt lat="45.17613" lon="-0.56396">
        <ele>36.6</ele>
        <time>2020-09-01T08:32:36Z</time>
      </trkpt>
      <trkpt lat="45.17615" lon="-0.56401">
        <ele>36.6</ele>
        <time>2020-09-01T08:32:38Z</time>
      </trkpt>
      <trkpt lat="45.17616" lon="-0.56401">
        <ele>36.6</ele>
        <time>2020-09-01T08:32:39Z</time>
      </trkpt>
      <trkpt lat="45.17616" lon="-0.56401">
        <ele>36.6</ele>
        <time>2020-09-01T08:32:40Z</time>
      </trkpt>
      <trkpt lat="45.17617" lon="-0.56402">
        <ele>36.5</ele>
        <time>2020-09-01T08:32:41Z</time>
      </trkpt>
      <trkpt lat="45.17618" lon="-0.56402">
        <ele>36.5</ele>
        <time>2020-09-01T08:32:42Z</time>
      </trkpt>
      <trkpt lat="45.17619" lon="-0.56405">
        <ele>36.5</ele>
        <time>2020-09-01T08:32:43Z</time>
      </trkpt>
      <trkpt lat="45.17619" lon="-0.56407">
        <ele>36.6</ele>
        <time>2020-09-01T08:32:45Z</time>
      </trkpt>
      <trkpt lat="45.1762" lon="-0.5641">
        <ele>36.6</ele>
        <time>2020-09-01T08:32:46Z</time>
      </trkpt>
      <trkpt lat="45.17621" lon="-0.56411">
        <ele>36.6</ele>
        <time>2020-09-01T08:32:47Z</time>
      </trkpt>
      <trkpt lat="45.17622" lon="-0.56412">
        <ele>36.7</ele>
        <time>2020-09-01T08:32:48Z</time>
      </trkpt>
      <trkpt lat="45.17622" lon="-0.56414">
        <ele>36.7</ele>
        <time>2020-09-01T08:32:49Z</time>
      </trkpt>
      <trkpt lat="45.17623" lon="-0.56415">
        <ele>36.7</ele>
        <time>2020-09-01T08:32:50Z</time>
      </trkpt>
      <trkpt lat="45.17624" lon="-0.56418">
        <ele>36.8</ele>
        <time>2020-09-01T08:32:51Z</time>
      </trkpt>
      <trkpt lat="45.17625" lon="-0.5642">
        <ele>36.8</ele>
        <time>2020-09-01T08:32:53Z</time>
      </trkpt>
      <trkpt lat="45.17626" lon="-0.56421">
        <ele>36.8</ele>
        <time>2020-09-01T08:32:54Z</time>
      </trkpt>
      <trkpt lat="45.17626" lon="-0.56423">
        <ele>36.9</ele>
        <time>2020-09-01T08:32:55Z</time>
      </trkpt>
      <trkpt lat="45.17629" lon="-0.56423">
        <ele>36.9</ele>
        <time>2020-09-01T08:32:57Z</time>
      </trkpt>
      <trkpt lat="45.17631" lon="-0.56425">
        <ele>37</ele>
        <time>2020-09-01T08:32:59Z</time>
      </trkpt>
      <trkpt lat="45.17631" lon="-0.56426">
        <ele>37</ele>
        <time>2020-09-01T08:33:00Z</time>
      </trkpt>
      <trkpt lat="45.17632" lon="-0.56427">
        <ele>37.1</ele>
        <time>2020-09-01T08:33:01Z</time>
      </trkpt>
      <trkpt lat="45.17633" lon="-0.56428">
        <ele>37.1</ele>
        <time>2020-09-01T08:33:02Z</time>
      </trkpt>
      <trkpt lat="45.17634" lon="-0.5643">
        <ele>37.1</ele>
        <time>2020-09-01T08:33:03Z</time>
      </trkpt>
      <trkpt lat="45.17635" lon="-0.5643">
        <ele>37.2</ele>
        <time>2020-09-01T08:33:04Z</time>
      </trkpt>
      <trkpt lat="45.17636" lon="-0.56431">
        <ele>37.2</ele>
        <time>2020-09-01T08:33:05Z</time>
      </trkpt>
      <trkpt lat="45.17637" lon="-0.56432">
        <ele>37.2</ele>
        <time>2020-09-01T08:33:06Z</time>
      </trkpt>
      <trkpt lat="45.17638" lon="-0.56433">
        <ele>37.3</ele>
        <time>2020-09-01T08:33:07Z</time>
      </trkpt>
      <trkpt lat="45.1764" lon="-0.56433">
        <ele>37.3</ele>
        <time>2020-09-01T08:33:08Z</time>
      </trkpt>
      <trkpt lat="45.17641" lon="-0.56435">
        <ele>37.3</ele>
        <time>2020-09-01T08:33:10Z</time>
      </trkpt>
      <trkpt lat="45.17642" lon="-0.56436">
        <ele>37.4</ele>
        <time>2020-09-01T08:33:11Z</time>
      </trkpt>
      <trkpt lat="45.17645" lon="-0.56436">
        <ele>37.4</ele>
        <time>2020-09-01T08:33:12Z</time>
      </trkpt>
      <trkpt lat="45.17646" lon="-0.56436">
        <ele>37.4</ele>
        <time>2020-09-01T08:33:14Z</time>
      </trkpt>
      <trkpt lat="45.17649" lon="-0.56438">
        <ele>37.5</ele>
        <time>2020-09-01T08:33:16Z</time>
      </trkpt>
      <trkpt lat="45.17649" lon="-0.56438">
        <ele>37.5</ele>
        <time>2020-09-01T08:33:17Z</time>
      </trkpt>
      <trkpt lat="45.17652" lon="-0.5644">
        <ele>37.5</ele>
        <time>2020-09-01T08:33:18Z</time>
      </trkpt>
      <trkpt lat="45.17653" lon="-0.5644">
        <ele>37.5</ele>
        <time>2020-09-01T08:33:19Z</time>
      </trkpt>
      <trkpt lat="45.17655" lon="-0.56441">
        <ele>37.5</ele>
        <time>2020-09-01T08:33:21Z</time>
      </trkpt>
      <trkpt lat="45.17656" lon="-0.56442">
        <ele>37.5</ele>
        <time>2020-09-01T08:33:22Z</time>
      </trkpt>
      <trkpt lat="45.17657" lon="-0.56442">
        <ele>37.5</ele>
        <time>2020-09-01T08:33:23Z</time>
      </trkpt>
      <trkpt lat="45.17659" lon="-0.56442">
        <ele>37.6</ele>
        <time>2020-09-01T08:33:24Z</time>
      </trkpt>
      <trkpt lat="45.17661" lon="-0.56443">
        <ele>37.6</ele>
        <time>2020-09-01T08:33:26Z</time>
      </trkpt>
      <trkpt lat="45.17662" lon="-0.56444">
        <ele>37.6</ele>
        <time>2020-09-01T08:33:27Z</time>
      </trkpt>
      <trkpt lat="45.17664" lon="-0.56444">
        <ele>37.6</ele>
        <time>2020-09-01T08:33:28Z</time>
      </trkpt>
      <trkpt lat="45.17666" lon="-0.56445">
        <ele>37.6</ele>
        <time>2020-09-01T08:33:30Z</time>
      </trkpt>
      <trkpt lat="45.17667" lon="-0.56445">
        <ele>37.6</ele>
        <time>2020-09-01T08:33:31Z</time>
      </trkpt>
      <trkpt lat="45.17669" lon="-0.56445">
        <ele>37.6</ele>
        <time>2020-09-01T08:33:32Z</time>
      </trkpt>
      <trkpt lat="45.17671" lon="-0.56445">
        <ele>37.6</ele>
        <time>2020-09-01T08:33:33Z</time>
      </trkpt>
      <trkpt lat="45.17672" lon="-0.56445">
        <ele>37.5</ele>
        <time>2020-09-01T08:33:35Z</time>
      </trkpt>
      <trkpt lat="45.17673" lon="-0.56446">
        <ele>37.5</ele>
        <time>2020-09-01T08:33:36Z</time>
      </trkpt>
      <trkpt lat="45.17675" lon="-0.56446">
        <ele>37.5</ele>
        <time>2020-09-01T08:33:37Z</time>
      </trkpt>
      <trkpt lat="45.17678" lon="-0.56447">
        <ele>37.5</ele>
        <time>2020-09-01T08:33:38Z</time>
      </trkpt>
      <trkpt lat="45.17679" lon="-0.56446">
        <ele>37.5</ele>
        <time>2020-09-01T08:33:40Z</time>
      </trkpt>
      <trkpt lat="45.1768" lon="-0.56446">
        <ele>37.5</ele>
        <time>2020-09-01T08:33:41Z</time>
      </trkpt>
      <trkpt lat="45.17681" lon="-0.56445">
        <ele>37.5</ele>
        <time>2020-09-01T08:33:42Z</time>
      </trkpt>
      <trkpt lat="45.17682" lon="-0.56445">
        <ele>37.5</ele>
        <time>2020-09-01T08:33:43Z</time>
      </trkpt>
      <trkpt lat="45.17683" lon="-0.56445">
        <ele>37.5</ele>
        <time>2020-09-01T08:33:44Z</time>
      </trkpt>
      <trkpt lat="45.17685" lon="-0.56445">
        <ele>37.5</ele>
        <time>2020-09-01T08:33:46Z</time>
      </trkpt>
      <trkpt lat="45.17686" lon="-0.56445">
        <ele>37.5</ele>
        <time>2020-09-01T08:33:47Z</time>
      </trkpt>
      <trkpt lat="45.17688" lon="-0.56444">
        <ele>37.5</ele>
        <time>2020-09-01T08:33:48Z</time>
      </trkpt>
      <trkpt lat="45.17689" lon="-0.56444">
        <ele>37.5</ele>
        <time>2020-09-01T08:33:49Z</time>
      </trkpt>
      <trkpt lat="45.17691" lon="-0.56444">
        <ele>37.5</ele>
        <time>2020-09-01T08:33:51Z</time>
      </trkpt>
      <trkpt lat="45.17692" lon="-0.56444">
        <ele>37.5</ele>
        <time>2020-09-01T08:33:53Z</time>
      </trkpt>
      <trkpt lat="45.17693" lon="-0.56444">
        <ele>37.5</ele>
        <time>2020-09-01T08:33:54Z</time>
      </trkpt>
      <trkpt lat="45.17695" lon="-0.56444">
        <ele>37.4</ele>
        <time>2020-09-01T08:33:56Z</time>
      </trkpt>
      <trkpt lat="45.17697" lon="-0.56445">
        <ele>37.4</ele>
        <time>2020-09-01T08:33:57Z</time>
      </trkpt>
      <trkpt lat="45.17698" lon="-0.56445">
        <ele>37.4</ele>
        <time>2020-09-01T08:33:58Z</time>
      </trkpt>
      <trkpt lat="45.177" lon="-0.56445">
        <ele>37.4</ele>
        <time>2020-09-01T08:34:00Z</time>
      </trkpt>
      <trkpt lat="45.17701" lon="-0.56445">
        <ele>37.4</ele>
        <time>2020-09-01T08:34:01Z</time>
      </trkpt>
      <trkpt lat="45.17702" lon="-0.56446">
        <ele>37.4</ele>
        <time>2020-09-01T08:34:02Z</time>
      </trkpt>
      <trkpt lat="45.17704" lon="-0.56447">
        <ele>37.4</ele>
        <time>2020-09-01T08:34:03Z</time>
      </trkpt>
      <trkpt lat="45.17705" lon="-0.56447">
        <ele>37.4</ele>
        <time>2020-09-01T08:34:04Z</time>
      </trkpt>
      <trkpt lat="45.17707" lon="-0.56447">
        <ele>37.4</ele>
        <time>2020-09-01T08:34:06Z</time>
      </trkpt>
      <trkpt lat="45.1771" lon="-0.56447">
        <ele>37.4</ele>
        <time>2020-09-01T08:34:07Z</time>
      </trkpt>
      <trkpt lat="45.17713" lon="-0.56447">
        <ele>37.4</ele>
        <time>2020-09-01T08:34:09Z</time>
      </trkpt>
      <trkpt lat="45.17715" lon="-0.56446">
        <ele>37.4</ele>
        <time>2020-09-01T08:34:10Z</time>
      </trkpt>
      <trkpt lat="45.17716" lon="-0.56446">
        <ele>37.4</ele>
        <time>2020-09-01T08:34:11Z</time>
      </trkpt>
      <trkpt lat="45.17717" lon="-0.56446">
        <ele>37.4</ele>
        <time>2020-09-01T08:34:12Z</time>
      </trkpt>
      <trkpt lat="45.17719" lon="-0.56446">
        <ele>37.4</ele>
        <time>2020-09-01T08:34:13Z</time>
      </trkpt>
      <trkpt lat="45.1772" lon="-0.56446">
        <ele>37.4</ele>
        <time>2020-09-01T08:34:14Z</time>
      </trkpt>
      <trkpt lat="45.17722" lon="-0.56446">
        <ele>37.4</ele>
        <time>2020-09-01T08:34:15Z</time>
      </trkpt>
      <trkpt lat="45.17723" lon="-0.56446">
        <ele>37.3</ele>
        <time>2020-09-01T08:34:16Z</time>
      </trkpt>
      <trkpt lat="45.17724" lon="-0.56446">
        <ele>37.3</ele>
        <time>2020-09-01T08:34:17Z</time>
      </trkpt>
      <trkpt lat="45.17725" lon="-0.56446">
        <ele>37.3</ele>
        <time>2020-09-01T08:34:19Z</time>
      </trkpt>
      <trkpt lat="45.17726" lon="-0.56446">
        <ele>37.3</ele>
        <time>2020-09-01T08:34:20Z</time>
      </trkpt>
      <trkpt lat="45.17727" lon="-0.56446">
        <ele>37.3</ele>
        <time>2020-09-01T08:34:21Z</time>
      </trkpt>
      <trkpt lat="45.17728" lon="-0.56446">
        <ele>37.3</ele>
        <time>2020-09-01T08:34:22Z</time>
      </trkpt>
      <trkpt lat="45.1773" lon="-0.56446">
        <ele>37.2</ele>
        <time>2020-09-01T08:34:23Z</time>
      </trkpt>
      <trkpt lat="45.17732" lon="-0.56446">
        <ele>37.2</ele>
        <time>2020-09-01T08:34:24Z</time>
      </trkpt>
      <trkpt lat="45.17733" lon="-0.56446">
        <ele>37.2</ele>
        <time>2020-09-01T08:34:26Z</time>
      </trkpt>
      <trkpt lat="45.17734" lon="-0.56446">
        <ele>37.2</ele>
        <time>2020-09-01T08:34:27Z</time>
      </trkpt>
      <trkpt lat="45.17735" lon="-0.56446">
        <ele>37.2</ele>
        <time>2020-09-01T08:34:28Z</time>
      </trkpt>
      <trkpt lat="45.17737" lon="-0.56447">
        <ele>37.1</ele>
        <time>2020-09-01T08:34:29Z</time>
      </trkpt>
      <trkpt lat="45.17739" lon="-0.56447">
        <ele>37.1</ele>
        <time>2020-09-01T08:34:31Z</time>
      </trkpt>
      <trkpt lat="45.17741" lon="-0.56446">
        <ele>37.1</ele>
        <time>2020-09-01T08:34:32Z</time>
      </trkpt>
      <trkpt lat="45.17742" lon="-0.56446">
        <ele>37</ele>
        <time>2020-09-01T08:34:33Z</time>
      </trkpt>
      <trkpt lat="45.17744" lon="-0.56446">
        <ele>37</ele>
        <time>2020-09-01T08:34:35Z</time>
      </trkpt>
      <trkpt lat="45.17745" lon="-0.56446">
        <ele>37</ele>
        <time>2020-09-01T08:34:36Z</time>
      </trkpt>
      <trkpt lat="45.17748" lon="-0.56446">
        <ele>36.9</ele>
        <time>2020-09-01T08:34:38Z</time>
      </trkpt>
      <trkpt lat="45.17751" lon="-0.56446">
        <ele>36.9</ele>
        <time>2020-09-01T08:34:39Z</time>
      </trkpt>
      <trkpt lat="45.17752" lon="-0.56446">
        <ele>36.9</ele>
        <time>2020-09-01T08:34:40Z</time>
      </trkpt>
      <trkpt lat="45.17753" lon="-0.56445">
        <ele>36.9</ele>
        <time>2020-09-01T08:34:41Z</time>
      </trkpt>
      <trkpt lat="45.17755" lon="-0.56448">
        <ele>36.8</ele>
        <time>2020-09-01T08:34:42Z</time>
      </trkpt>
      <trkpt lat="45.17757" lon="-0.56448">
        <ele>36.8</ele>
        <time>2020-09-01T08:34:44Z</time>
      </trkpt>
      <trkpt lat="45.17758" lon="-0.56448">
        <ele>36.8</ele>
        <time>2020-09-01T08:34:45Z</time>
      </trkpt>
      <trkpt lat="45.17759" lon="-0.56447">
        <ele>36.7</ele>
        <time>2020-09-01T08:34:46Z</time>
      </trkpt>
      <trkpt lat="45.1776" lon="-0.56449">
        <ele>36.7</ele>
        <time>2020-09-01T08:34:47Z</time>
      </trkpt>
      <trkpt lat="45.17761" lon="-0.56449">
        <ele>36.7</ele>
        <time>2020-09-01T08:34:49Z</time>
      </trkpt>
      <trkpt lat="45.17761" lon="-0.56449">
        <ele>36.7</ele>
        <time>2020-09-01T08:34:50Z</time>
      </trkpt>
      <trkpt lat="45.1776" lon="-0.56448">
        <ele>36.7</ele>
        <time>2020-09-01T08:34:52Z</time>
      </trkpt>
      <trkpt lat="45.1776" lon="-0.56447">
        <ele>36.7</ele>
        <time>2020-09-01T08:34:54Z</time>
      </trkpt>
      <trkpt lat="45.1776" lon="-0.56447">
        <ele>36.7</ele>
        <time>2020-09-01T08:34:55Z</time>
      </trkpt>
      <trkpt lat="45.1776" lon="-0.56447">
        <ele>36.7</ele>
        <time>2020-09-01T08:34:56Z</time>
      </trkpt>
      <trkpt lat="45.17761" lon="-0.56447">
        <ele>36.7</ele>
        <time>2020-09-01T08:34:57Z</time>
      </trkpt>
      <trkpt lat="45.17762" lon="-0.56447">
        <ele>36.6</ele>
        <time>2020-09-01T08:34:59Z</time>
      </trkpt>
      <trkpt lat="45.17763" lon="-0.56447">
        <ele>36.6</ele>
        <time>2020-09-01T08:35:00Z</time>
      </trkpt>
      <trkpt lat="45.17764" lon="-0.56447">
        <ele>36.6</ele>
        <time>2020-09-01T08:35:01Z</time>
      </trkpt>
      <trkpt lat="45.17767" lon="-0.56448">
        <ele>36.5</ele>
        <time>2020-09-01T08:35:03Z</time>
      </trkpt>
      <trkpt lat="45.17768" lon="-0.56448">
        <ele>36.5</ele>
        <time>2020-09-01T08:35:04Z</time>
      </trkpt>
      <trkpt lat="45.17769" lon="-0.56448">
        <ele>36.5</ele>
        <time>2020-09-01T08:35:05Z</time>
      </trkpt>
      <trkpt lat="45.1777" lon="-0.56448">
        <ele>36.4</ele>
        <time>2020-09-01T08:35:06Z</time>
      </trkpt>
      <trkpt lat="45.17771" lon="-0.56449">
        <ele>36.4</ele>
        <time>2020-09-01T08:35:07Z</time>
      </trkpt>
      <trkpt lat="45.17772" lon="-0.5645">
        <ele>36.4</ele>
        <time>2020-09-01T08:35:08Z</time>
      </trkpt>
      <trkpt lat="45.17772" lon="-0.56452">
        <ele>36.4</ele>
        <time>2020-09-01T08:35:10Z</time>
      </trkpt>
      <trkpt lat="45.17772" lon="-0.56453">
        <ele>36.4</ele>
        <time>2020-09-01T08:35:11Z</time>
      </trkpt>
      <trkpt lat="45.17772" lon="-0.56456">
        <ele>36.4</ele>
        <time>2020-09-01T08:35:12Z</time>
      </trkpt>
      <trkpt lat="45.17771" lon="-0.56458">
        <ele>36.4</ele>
        <time>2020-09-01T08:35:13Z</time>
      </trkpt>
      <trkpt lat="45.17771" lon="-0.56459">
        <ele>36.3</ele>
        <time>2020-09-01T08:35:14Z</time>
      </trkpt>
      <trkpt lat="45.1777" lon="-0.56461">
        <ele>36.3</ele>
        <time>2020-09-01T08:35:16Z</time>
      </trkpt>
      <trkpt lat="45.1777" lon="-0.56463">
        <ele>36.3</ele>
        <time>2020-09-01T08:35:17Z</time>
      </trkpt>
      <trkpt lat="45.17769" lon="-0.56467">
        <ele>36.3</ele>
        <time>2020-09-01T08:35:19Z</time>
      </trkpt>
      <trkpt lat="45.17769" lon="-0.56469">
        <ele>36.3</ele>
        <time>2020-09-01T08:35:20Z</time>
      </trkpt>
      <trkpt lat="45.17768" lon="-0.56471">
        <ele>36.3</ele>
        <time>2020-09-01T08:35:21Z</time>
      </trkpt>
      <trkpt lat="45.17768" lon="-0.56475">
        <ele>36.3</ele>
        <time>2020-09-01T08:35:22Z</time>
      </trkpt>
      <trkpt lat="45.17768" lon="-0.56476">
        <ele>36.3</ele>
        <time>2020-09-01T08:35:23Z</time>
      </trkpt>
      <trkpt lat="45.17768" lon="-0.56478">
        <ele>36.3</ele>
        <time>2020-09-01T08:35:24Z</time>
      </trkpt>
      <trkpt lat="45.17768" lon="-0.56481">
        <ele>36.2</ele>
        <time>2020-09-01T08:35:25Z</time>
      </trkpt>
      <trkpt lat="45.17768" lon="-0.56483">
        <ele>36.2</ele>
        <time>2020-09-01T08:35:27Z</time>
      </trkpt>
      <trkpt lat="45.17768" lon="-0.56485">
        <ele>36.2</ele>
        <time>2020-09-01T08:35:28Z</time>
      </trkpt>
      <trkpt lat="45.17768" lon="-0.56487">
        <ele>36.2</ele>
        <time>2020-09-01T08:35:29Z</time>
      </trkpt>
      <trkpt lat="45.17768" lon="-0.56489">
        <ele>36.2</ele>
        <time>2020-09-01T08:35:31Z</time>
      </trkpt>
      <trkpt lat="45.17769" lon="-0.56494">
        <ele>36.2</ele>
        <time>2020-09-01T08:35:32Z</time>
      </trkpt>
      <trkpt lat="45.17769" lon="-0.56494">
        <ele>36.2</ele>
        <time>2020-09-01T08:35:33Z</time>
      </trkpt>
      <trkpt lat="45.17769" lon="-0.56496">
        <ele>36.2</ele>
        <time>2020-09-01T08:35:34Z</time>
      </trkpt>
      <trkpt lat="45.17769" lon="-0.56498">
        <ele>36.2</ele>
        <time>2020-09-01T08:35:35Z</time>
      </trkpt>
      <trkpt lat="45.17768" lon="-0.565">
        <ele>36.2</ele>
        <time>2020-09-01T08:35:36Z</time>
      </trkpt>
      <trkpt lat="45.17768" lon="-0.56502">
        <ele>36.1</ele>
        <time>2020-09-01T08:35:37Z</time>
      </trkpt>
      <trkpt lat="45.17768" lon="-0.56504">
        <ele>36.1</ele>
        <time>2020-09-01T08:35:38Z</time>
      </trkpt>
      <trkpt lat="45.17768" lon="-0.56506">
        <ele>36.1</ele>
        <time>2020-09-01T08:35:40Z</time>
      </trkpt>
      <trkpt lat="45.17768" lon="-0.56508">
        <ele>36.1</ele>
        <time>2020-09-01T08:35:41Z</time>
      </trkpt>
      <trkpt lat="45.17767" lon="-0.5651">
        <ele>36.1</ele>
        <time>2020-09-01T08:35:42Z</time>
      </trkpt>
      <trkpt lat="45.17768" lon="-0.56511">
        <ele>36.1</ele>
        <time>2020-09-01T08:35:43Z</time>
      </trkpt>
      <trkpt lat="45.17767" lon="-0.56513">
        <ele>36.1</ele>
        <time>2020-09-01T08:35:45Z</time>
      </trkpt>
      <trkpt lat="45.17767" lon="-0.56515">
        <ele>36.1</ele>
        <time>2020-09-01T08:35:46Z</time>
      </trkpt>
      <trkpt lat="45.17768" lon="-0.56515">
        <ele>36.1</ele>
        <time>2020-09-01T08:35:47Z</time>
      </trkpt>
      <trkpt lat="45.17768" lon="-0.56518">
        <ele>36.1</ele>
        <time>2020-09-01T08:35:49Z</time>
      </trkpt>
      <trkpt lat="45.17768" lon="-0.56519">
        <ele>36.1</ele>
        <time>2020-09-01T08:35:50Z</time>
      </trkpt>
      <trkpt lat="45.17768" lon="-0.56521">
        <ele>36.1</ele>
        <time>2020-09-01T08:35:51Z</time>
      </trkpt>
      <trkpt lat="45.17768" lon="-0.56523">
        <ele>36</ele>
        <time>2020-09-01T08:35:53Z</time>
      </trkpt>
      <trkpt lat="45.17768" lon="-0.56524">
        <ele>36</ele>
        <time>2020-09-01T08:35:54Z</time>
      </trkpt>
      <trkpt lat="45.17767" lon="-0.56526">
        <ele>36</ele>
        <time>2020-09-01T08:35:55Z</time>
      </trkpt>
      <trkpt lat="45.17767" lon="-0.56527">
        <ele>36</ele>
        <time>2020-09-01T08:35:56Z</time>
      </trkpt>
      <trkpt lat="45.17768" lon="-0.56529">
        <ele>36</ele>
        <time>2020-09-01T08:35:57Z</time>
      </trkpt>
      <trkpt lat="45.17768" lon="-0.5653">
        <ele>36</ele>
        <time>2020-09-01T08:35:58Z</time>
      </trkpt>
      <trkpt lat="45.17768" lon="-0.56531">
        <ele>36</ele>
        <time>2020-09-01T08:35:59Z</time>
      </trkpt>
      <trkpt lat="45.17768" lon="-0.56533">
        <ele>36</ele>
        <time>2020-09-01T08:36:01Z</time>
      </trkpt>
      <trkpt lat="45.17768" lon="-0.56535">
        <ele>36</ele>
        <time>2020-09-01T08:36:02Z</time>
      </trkpt>
      <trkpt lat="45.17768" lon="-0.56537">
        <ele>36</ele>
        <time>2020-09-01T08:36:03Z</time>
      </trkpt>
      <trkpt lat="45.17768" lon="-0.56539">
        <ele>36</ele>
        <time>2020-09-01T08:36:04Z</time>
      </trkpt>
      <trkpt lat="45.17768" lon="-0.56542">
        <ele>36</ele>
        <time>2020-09-01T08:36:05Z</time>
      </trkpt>
      <trkpt lat="45.17769" lon="-0.56545">
        <ele>35.9</ele>
        <time>2020-09-01T08:36:06Z</time>
      </trkpt>
      <trkpt lat="45.17769" lon="-0.56546">
        <ele>35.9</ele>
        <time>2020-09-01T08:36:08Z</time>
      </trkpt>
      <trkpt lat="45.17769" lon="-0.56547">
        <ele>35.9</ele>
        <time>2020-09-01T08:36:09Z</time>
      </trkpt>
      <trkpt lat="45.17769" lon="-0.5655">
        <ele>35.9</ele>
        <time>2020-09-01T08:36:11Z</time>
      </trkpt>
      <trkpt lat="45.17769" lon="-0.56552">
        <ele>35.9</ele>
        <time>2020-09-01T08:36:12Z</time>
      </trkpt>
      <trkpt lat="45.17769" lon="-0.56555">
        <ele>35.9</ele>
        <time>2020-09-01T08:36:13Z</time>
      </trkpt>
      <trkpt lat="45.17769" lon="-0.56556">
        <ele>35.9</ele>
        <time>2020-09-01T08:36:14Z</time>
      </trkpt>
      <trkpt lat="45.17769" lon="-0.56557">
        <ele>35.9</ele>
        <time>2020-09-01T08:36:15Z</time>
      </trkpt>
      <trkpt lat="45.17768" lon="-0.56562">
        <ele>35.9</ele>
        <time>2020-09-01T08:36:17Z</time>
      </trkpt>
      <trkpt lat="45.17768" lon="-0.56564">
        <ele>35.8</ele>
        <time>2020-09-01T08:36:18Z</time>
      </trkpt>
      <trkpt lat="45.17767" lon="-0.56567">
        <ele>35.8</ele>
        <time>2020-09-01T08:36:20Z</time>
      </trkpt>
      <trkpt lat="45.17766" lon="-0.56569">
        <ele>35.8</ele>
        <time>2020-09-01T08:36:21Z</time>
      </trkpt>
      <trkpt lat="45.17766" lon="-0.56572">
        <ele>35.8</ele>
        <time>2020-09-01T08:36:22Z</time>
      </trkpt>
      <trkpt lat="45.17765" lon="-0.56574">
        <ele>35.8</ele>
        <time>2020-09-01T08:36:23Z</time>
      </trkpt>
      <trkpt lat="45.17765" lon="-0.56576">
        <ele>35.8</ele>
        <time>2020-09-01T08:36:24Z</time>
      </trkpt>
      <trkpt lat="45.17764" lon="-0.56578">
        <ele>35.8</ele>
        <time>2020-09-01T08:36:26Z</time>
      </trkpt>
      <trkpt lat="45.17764" lon="-0.56579">
        <ele>35.8</ele>
        <time>2020-09-01T08:36:27Z</time>
      </trkpt>
      <trkpt lat="45.17763" lon="-0.5658">
        <ele>35.8</ele>
        <time>2020-09-01T08:36:28Z</time>
      </trkpt>
      <trkpt lat="45.17762" lon="-0.56583">
        <ele>35.7</ele>
        <time>2020-09-01T08:36:29Z</time>
      </trkpt>
      <trkpt lat="45.17761" lon="-0.56584">
        <ele>35.7</ele>
        <time>2020-09-01T08:36:30Z</time>
      </trkpt>
      <trkpt lat="45.17761" lon="-0.56585">
        <ele>35.7</ele>
        <time>2020-09-01T08:36:31Z</time>
      </trkpt>
      <trkpt lat="45.17759" lon="-0.56588">
        <ele>35.7</ele>
        <time>2020-09-01T08:36:33Z</time>
      </trkpt>
      <trkpt lat="45.17758" lon="-0.56589">
        <ele>35.7</ele>
        <time>2020-09-01T08:36:35Z</time>
      </trkpt>
      <trkpt lat="45.17758" lon="-0.56591">
        <ele>35.7</ele>
        <time>2020-09-01T08:36:36Z</time>
      </trkpt>
      <trkpt lat="45.17757" lon="-0.56592">
        <ele>35.7</ele>
        <time>2020-09-01T08:36:37Z</time>
      </trkpt>
      <trkpt lat="45.17757" lon="-0.56593">
        <ele>35.7</ele>
        <time>2020-09-01T08:36:38Z</time>
      </trkpt>
      <trkpt lat="45.17756" lon="-0.56594">
        <ele>35.7</ele>
        <time>2020-09-01T08:36:39Z</time>
      </trkpt>
      <trkpt lat="45.17756" lon="-0.56595">
        <ele>35.7</ele>
        <time>2020-09-01T08:36:40Z</time>
      </trkpt>
      <trkpt lat="45.17755" lon="-0.56596">
        <ele>35.7</ele>
        <time>2020-09-01T08:36:41Z</time>
      </trkpt>
      <trkpt lat="45.17753" lon="-0.56598">
        <ele>35.7</ele>
        <time>2020-09-01T08:36:42Z</time>
      </trkpt>
      <trkpt lat="45.17752" lon="-0.56599">
        <ele>35.7</ele>
        <time>2020-09-01T08:36:43Z</time>
      </trkpt>
      <trkpt lat="45.17752" lon="-0.566">
        <ele>35.6</ele>
        <time>2020-09-01T08:36:44Z</time>
      </trkpt>
      <trkpt lat="45.17751" lon="-0.56601">
        <ele>35.6</ele>
        <time>2020-09-01T08:36:46Z</time>
      </trkpt>
      <trkpt lat="45.17751" lon="-0.56601">
        <ele>35.6</ele>
        <time>2020-09-01T08:36:48Z</time>
      </trkpt>
      <trkpt lat="45.1775" lon="-0.566">
        <ele>35.6</ele>
        <time>2020-09-01T08:36:49Z</time>
      </trkpt>
      <trkpt lat="45.17751" lon="-0.566">
        <ele>35.6</ele>
        <time>2020-09-01T08:36:51Z</time>
      </trkpt>
      <trkpt lat="45.17751" lon="-0.56601">
        <ele>35.6</ele>
        <time>2020-09-01T08:36:52Z</time>
      </trkpt>
      <trkpt lat="45.17751" lon="-0.56601">
        <ele>35.6</ele>
        <time>2020-09-01T08:36:53Z</time>
      </trkpt>
      <trkpt lat="45.17751" lon="-0.56601">
        <ele>35.6</ele>
        <time>2020-09-01T08:36:54Z</time>
      </trkpt>
      <trkpt lat="45.17751" lon="-0.56601">
        <ele>35.6</ele>
        <time>2020-09-01T08:36:56Z</time>
      </trkpt>
      <trkpt lat="45.17751" lon="-0.56601">
        <ele>35.6</ele>
        <time>2020-09-01T08:36:57Z</time>
      </trkpt>
      <trkpt lat="45.17752" lon="-0.56601">
        <ele>35.6</ele>
        <time>2020-09-01T08:36:59Z</time>
      </trkpt>
      <trkpt lat="45.17751" lon="-0.56601">
        <ele>35.6</ele>
        <time>2020-09-01T08:37:01Z</time>
      </trkpt>
      <trkpt lat="45.17751" lon="-0.56601">
        <ele>35.6</ele>
        <time>2020-09-01T08:37:02Z</time>
      </trkpt>
      <trkpt lat="45.17751" lon="-0.566">
        <ele>35.6</ele>
        <time>2020-09-01T08:37:03Z</time>
      </trkpt>
      <trkpt lat="45.17751" lon="-0.566">
        <ele>35.6</ele>
        <time>2020-09-01T08:37:04Z</time>
      </trkpt>
      <trkpt lat="45.17752" lon="-0.566">
        <ele>35.6</ele>
        <time>2020-09-01T08:37:05Z</time>
      </trkpt>
      <trkpt lat="45.17752" lon="-0.566">
        <ele>35.6</ele>
        <time>2020-09-01T08:37:07Z</time>
      </trkpt>
      <trkpt lat="45.17752" lon="-0.566">
        <ele>35.6</ele>
        <time>2020-09-01T08:37:08Z</time>
      </trkpt>
      <trkpt lat="45.17752" lon="-0.566">
        <ele>35.6</ele>
        <time>2020-09-01T08:37:10Z</time>
      </trkpt>
      <trkpt lat="45.17752" lon="-0.566">
        <ele>35.6</ele>
        <time>2020-09-01T08:37:12Z</time>
      </trkpt>
      <trkpt lat="45.17752" lon="-0.566">
        <ele>35.6</ele>
        <time>2020-09-01T08:37:13Z</time>
      </trkpt>
      <trkpt lat="45.17752" lon="-0.566">
        <ele>35.6</ele>
        <time>2020-09-01T08:37:15Z</time>
      </trkpt>
      <trkpt lat="45.17752" lon="-0.566">
        <ele>35.6</ele>
        <time>2020-09-01T08:37:17Z</time>
      </trkpt>
      <trkpt lat="45.17752" lon="-0.566">
        <ele>35.6</ele>
        <time>2020-09-01T08:37:19Z</time>
      </trkpt>
      <trkpt lat="45.17752" lon="-0.566">
        <ele>35.6</ele>
        <time>2020-09-01T08:37:20Z</time>
      </trkpt>
      <trkpt lat="45.17752" lon="-0.566">
        <ele>35.6</ele>
        <time>2020-09-01T08:37:22Z</time>
      </trkpt>
      <trkpt lat="45.17752" lon="-0.566">
        <ele>35.6</ele>
        <time>2020-09-01T08:37:24Z</time>
      </trkpt>
      <trkpt lat="45.17752" lon="-0.566">
        <ele>35.6</ele>
        <time>2020-09-01T08:37:25Z</time>
      </trkpt>
      <trkpt lat="45.17752" lon="-0.566">
        <ele>35.6</ele>
        <time>2020-09-01T08:37:27Z</time>
      </trkpt>
      <trkpt lat="45.17752" lon="-0.566">
        <ele>35.6</ele>
        <time>2020-09-01T08:37:29Z</time>
      </trkpt>
      <trkpt lat="45.17752" lon="-0.566">
        <ele>35.6</ele>
        <time>2020-09-01T08:37:30Z</time>
      </trkpt>
      <trkpt lat="45.17752" lon="-0.566">
        <ele>35.6</ele>
        <time>2020-09-01T08:37:32Z</time>
      </trkpt>
      <trkpt lat="45.17752" lon="-0.566">
        <ele>35.6</ele>
        <time>2020-09-01T08:37:34Z</time>
      </trkpt>
      <trkpt lat="45.17752" lon="-0.566">
        <ele>35.6</ele>
        <time>2020-09-01T08:37:35Z</time>
      </trkpt>
      <trkpt lat="45.17752" lon="-0.566">
        <ele>35.6</ele>
        <time>2020-09-01T08:37:36Z</time>
      </trkpt>
      <trkpt lat="45.17752" lon="-0.566">
        <ele>35.6</ele>
        <time>2020-09-01T08:37:38Z</time>
      </trkpt>
      <trkpt lat="45.17752" lon="-0.566">
        <ele>35.6</ele>
        <time>2020-09-01T08:37:39Z</time>
      </trkpt>
      <trkpt lat="45.17752" lon="-0.566">
        <ele>35.6</ele>
        <time>2020-09-01T08:37:41Z</time>
      </trkpt>
      <trkpt lat="45.17752" lon="-0.566">
        <ele>35.6</ele>
        <time>2020-09-01T08:37:43Z</time>
      </trkpt>
      <trkpt lat="45.17752" lon="-0.566">
        <ele>35.6</ele>
        <time>2020-09-01T08:37:45Z</time>
      </trkpt>
      <trkpt lat="45.17752" lon="-0.566">
        <ele>35.6</ele>
        <time>2020-09-01T08:37:46Z</time>
      </trkpt>
      <trkpt lat="45.17752" lon="-0.566">
        <ele>35.6</ele>
        <time>2020-09-01T08:37:47Z</time>
      </trkpt>
      <trkpt lat="45.17752" lon="-0.566">
        <ele>35.6</ele>
        <time>2020-09-01T08:37:48Z</time>
      </trkpt>
      <trkpt lat="45.17752" lon="-0.566">
        <ele>35.6</ele>
        <time>2020-09-01T08:37:49Z</time>
      </trkpt>
      <trkpt lat="45.17752" lon="-0.566">
        <ele>35.6</ele>
        <time>2020-09-01T08:37:51Z</time>
      </trkpt>
      <trkpt lat="45.17752" lon="-0.566">
        <ele>35.6</ele>
        <time>2020-09-01T08:37:52Z</time>
      </trkpt>
      <trkpt lat="45.17752" lon="-0.566">
        <ele>35.6</ele>
        <time>2020-09-01T08:37:54Z</time>
      </trkpt>
      <trkpt lat="45.17752" lon="-0.566">
        <ele>35.6</ele>
        <time>2020-09-01T08:37:55Z</time>
      </trkpt>
      <trkpt lat="45.17752" lon="-0.566">
        <ele>35.6</ele>
        <time>2020-09-01T08:37:57Z</time>
      </trkpt>
      <trkpt lat="45.17752" lon="-0.566">
        <ele>35.6</ele>
        <time>2020-09-01T08:37:58Z</time>
      </trkpt>
      <trkpt lat="45.17752" lon="-0.566">
        <ele>35.6</ele>
        <time>2020-09-01T08:37:59Z</time>
      </trkpt>
      <trkpt lat="45.17752" lon="-0.566">
        <ele>35.6</ele>
        <time>2020-09-01T08:38:01Z</time>
      </trkpt>
      <trkpt lat="45.17752" lon="-0.566">
        <ele>35.6</ele>
        <time>2020-09-01T08:38:03Z</time>
      </trkpt>
      <trkpt lat="45.17752" lon="-0.566">
        <ele>35.6</ele>
        <time>2020-09-01T08:38:05Z</time>
      </trkpt>
      <trkpt lat="45.17752" lon="-0.566">
        <ele>35.6</ele>
        <time>2020-09-01T08:38:07Z</time>
      </trkpt>
      <trkpt lat="45.17752" lon="-0.566">
        <ele>35.6</ele>
        <time>2020-09-01T08:38:09Z</time>
      </trkpt>
      <trkpt lat="45.17752" lon="-0.566">
        <ele>35.6</ele>
        <time>2020-09-01T08:38:11Z</time>
      </trkpt>
      <trkpt lat="45.17752" lon="-0.566">
        <ele>35.6</ele>
        <time>2020-09-01T08:38:12Z</time>
      </trkpt>
      <trkpt lat="45.17752" lon="-0.566">
        <ele>35.6</ele>
        <time>2020-09-01T08:38:13Z</time>
      </trkpt>
      <trkpt lat="45.17752" lon="-0.566">
        <ele>35.6</ele>
        <time>2020-09-01T08:38:15Z</time>
      </trkpt>
      <trkpt lat="45.1775" lon="-0.566">
        <ele>35.6</ele>
        <time>2020-09-01T08:38:17Z</time>
      </trkpt>
      <trkpt lat="45.17748" lon="-0.56599">
        <ele>35.6</ele>
        <time>2020-09-01T08:38:19Z</time>
      </trkpt>
      <trkpt lat="45.17748" lon="-0.56599">
        <ele>35.6</ele>
        <time>2020-09-01T08:38:20Z</time>
      </trkpt>
    </trkseg>
  </trk>
</gpx>